# Wetter Temperatur Luftdruck Luftfeuchtigkeit Sichtweite Windgeschwindigkeit Windrichtung Zeit
1 Rain 16 1025 82 10000 7.2 10 19:56 17.10.2019
2 Rain 16 1025 82 10000 7.2 10 19:38 17.10.2019
3 Rain 16 1026 88 10000 6.7 360 19:18 17.10.2019
4 Rain 16 1026 82 10000 6.7 360 18:43 17.10.2019
5 Rain 16 1026 82 10000 5.7 360 18:21 17.10.2019
6 Rain 16 1026 82 10000 5.7 360 17:58 17.10.2019
7 Clouds 16 1026 88 10000 3.6 20 17:40 17.10.2019
8 Rain 16 1026 88 10000 7.2 10 17:22 17.10.2019
9 Rain 16 1026 88 10000 5.7 10 16:55 17.10.2019
10 Rain 16 1026 88 10000 6.2 20 16:37 17.10.2019
11 Rain 16 1026 88 10000 6.2 20 16:18 17.10.2019
12 Rain 16 1026 88 10000 5.7 350 15:55 17.10.2019
13 Rain 16 1026 88 10000 5.7 350 15:37 17.10.2019
14 Rain 16 1026 88 10000 3.6 350 15:18 17.10.2019
15 Rain 16 1026 88 10000 2.6 360 14:42 17.10.2019
16 Rain 16 1025 88 10000 4.6 20 14:23 17.10.2019
17 Rain 16 1025 88 10000 6.2 50 13:54 17.10.2019
18 Rain 16 1025 93 10000 4.6 30 13:36 17.10.2019
19 Rain 16 1025 93 10000 4.6 30 13:18 17.10.2019
20 Clouds 16 1025 93 10000 5.1 30 12:41 17.10.2019
21 Rain 16 1025 93 3017 2.1 330 12:20 17.10.2019
22 Rain 16 1025 93 10000 5.7 20 11:58 17.10.2019
23 Rain 16 1025 93 8000 5.7 20 11:40 17.10.2019
24 Rain 16 1025 93 8000 5.7 20 11:19 17.10.2019
25 Rain 16 1025 93 6000 4.6 10 10:54 17.10.2019
26 Rain 16 1024 93 9000 4.6 350 10:36 17.10.2019
27 Rain 16 1024 93 9000 4.6 350 10:18 17.10.2019
28 Rain 17 1024 88 10000 5.1 360 09:41 17.10.2019
29 Rain 17 1024 93 4500 2.6 10 09:22 17.10.2019
30 Rain 17 1024 88 8000 5.1 360 08:58 17.10.2019
31 Rain 17 1024 88 8000 5.1 360 08:39 17.10.2019
32 Rain 17 1024 82 5000 3.1 350 08:21 17.10.2019
33 Rain 18 1026 93 3621 2.236 115 07:55 17.10.2019
34 Rain 18 1023 68 10000 2.1 10 07:37 17.10.2019
35 Rain 18 1023 68 10000 2.1 10 07:18 17.10.2019
36 Rain 18 1023 68 10000 2.1 10 07:18 17.10.2019
37 Clouds 19 1024 68 10000 3.6 10 06:40 17.10.2019
38 Clouds 19 1023 63 10000 2.6 20 06:21 17.10.2019
39 Clouds 18 1024 72 10000 3.6 360 05:52 17.10.2019
40 Clouds 18 1024 68 10000 3.1 10 05:32 17.10.2019
41 Clouds 18 1024 72 10000 4.1 360 04:55 17.10.2019
42 Clouds 18 1025 77 10000 4.6 360 03:55 17.10.2019
43 Clouds 17 1025 77 10000 2.1 360 02:37 17.10.2019
44 Clouds 16 1026 77 10000 5.7 360 01:31 17.10.2019
45 Clouds 16 1026 77 10000 5.1 360 00:40 17.10.2019
46 Clouds 16 1025 77 10000 5.1 360 00:19 17.10.2019
47 Clouds 16 1025 77 10000 5.1 360 23:42 16.10.2019
48 Clouds 16 1025 77 10000 4.1 10 23:21 16.10.2019
49 -273 0 0 0 0 0 22:56 16.10.2019
50 Clouds 16 1025 77 10000 5.7 360 22:56 16.10.2019
51 Clouds 16 1025 77 10000 5.7 360 22:37 16.10.2019
52 Rain 16 1024 77 10000 5.1 20 22:19 16.10.2019
53 Rain 16 1024 77 10000 5.1 20 22:19 16.10.2019
54 Clouds 16 1024 77 10000 5.1 10 21:57 16.10.2019
55 Clouds 16 1024 77 10000 4.1 10 21:37 16.10.2019
56 Clouds 16 1024 77 10000 4.1 10 21:19 16.10.2019
57 Rain 16 1025 77 10000 3.6 10 20:58 16.10.2019
58 Rain 16 1025 77 10000 3.6 10 20:58 16.10.2019
59 Rain 16 1025 77 10000 3.6 10 20:39 16.10.2019
60 Clouds 16 1024 72 10000 3.6 10 20:21 16.10.2019
61 Clouds 16 1025 77 10000 3.6 10 19:59 16.10.2019
62 Clouds 16 1025 77 10000 3.6 10 19:39 16.10.2019
63 Clouds 16 1024 72 10000 2.6 20 19:39 16.10.2019
64 Clouds 16 1024 72 10000 2.6 20 19:20 16.10.2019
65 Clouds 16 1025 77 10000 3.6 40 18:54 16.10.2019
66 Clouds 16 1025 77 10000 3.6 40 18:54 16.10.2019
67 Clouds 16 1024 72 10000 3.6 20 18:36 16.10.2019
68 Clouds 16 1024 72 10000 3.6 20 18:18 16.10.2019
69 Clouds 16 1025 77 10000 3.1 30 17:54 16.10.2019
70 Clouds 16 1024 77 10000 3.6 40 17:36 16.10.2019
71 Clouds 16 1024 77 10000 3.6 40 17:18 16.10.2019
72 Clouds 16 1024 72 10000 2.6 20 16:42 16.10.2019
73 Clouds 16 1024 72 10000 2.6 20 16:42 16.10.2019
74 Clouds 16 1024 77 10000 3.6 40 16:21 16.10.2019
75 Clouds 16 1024 72 10000 3.6 30 15:58 16.10.2019
76 Clouds 16 1024 72 10000 3.6 30 15:39 16.10.2019
77 Clouds 16 1024 72 10000 3.6 30 15:39 16.10.2019
78 Clouds 16 1024 72 10000 3.6 30 15:39 16.10.2019
79 Clouds 16 1025 82 10000 2.6 20 15:19 16.10.2019
80 Clouds 16 1025 82 10000 2.6 20 14:58 16.10.2019
81 Clouds 16 1025 82 10000 2.6 20 14:38 16.10.2019
82 Clouds 16 1025 67 10000 3.1 30 14:19 16.10.2019
83 Clouds 16 1025 67 10000 3.6 10 13:57 16.10.2019
84 Clouds 16 1025 67 10000 3.6 10 13:56 16.10.2019
85 Clouds 16 1024 67 10000 4.6 20 13:38 16.10.2019
86 Clouds 16 1025 67 10000 3.6 10 13:38 16.10.2019
87 Clouds 17 1024 67 10000 4.6 20 13:19 16.10.2019
88 Clouds 16 1024 67 10000 4.1 30 12:42 16.10.2019
89 Clouds 17 1024 67 10000 4.1 40 12:19 16.10.2019
90 Clouds 17 1024 63 10000 3.6 60 11:45 16.10.2019
91 Clouds 17 1024 63 10000 4.1 50 11:19 16.10.2019
92 Clouds 17 1026 72 16093 2.1 280 10:55 16.10.2019
93 Clouds 17 1024 68 10000 4.1 50 10:36 16.10.2019
94 Clouds 17 1024 68 10000 4.1 50 10:18 16.10.2019
95 Clouds 18 1023 59 10000 3.6 30 09:40 16.10.2019
96 Clouds 18 1023 59 10000 3.6 30 09:21 16.10.2019
97 Clouds 18 1023 68 10000 4.6 30 08:46 16.10.2019
98 Clouds 18 1023 63 10000 4.1 30 08:26 16.10.2019
99 Clouds 18 1025 63 16093 3.214 84 07:59 16.10.2019
100 Clouds 18 1023 68 10000 4.6 40 07:41 16.10.2019
101 Clouds 18 1023 63 10000 4.1 30 07:22 16.10.2019
102 Clouds 18 1023 68 10000 5.1 40 06:46 16.10.2019
103 Clouds 18 1023 63 10000 3.6 60 06:27 16.10.2019
104 Clouds 17 1025 67 10000 4.1 20 04:25 16.10.2019
105 Clouds 16 1026 72 10000 6.2 10 02:51 16.10.2019
106 Rain 15 1025 72 10000 5.7 360 01:20 16.10.2019
107 Clouds 15 1028 71 16093 2.1 360 00:59 16.10.2019
108 Rain 15 1025 77 10000 6.7 10 00:39 16.10.2019
109 Clouds 14 1027 71 16093 3.1 330 23:58 15.10.2019
110 Rain 15 1024 72 10000 7.2 10 23:38 15.10.2019
111 Rain 15 1025 72 10000 6.7 360 23:19 15.10.2019
112 Clouds 15 1027 71 16093 3.1 330 22:55 15.10.2019
113 Clouds 15 1025 72 10000 6.2 360 22:37 15.10.2019
114 Clouds 15 1024 67 10000 7.7 360 22:18 15.10.2019
115 Clouds 15 1026 76 16093 4.1 350 21:54 15.10.2019
116 Clouds 15 1024 72 10000 6.7 360 21:36 15.10.2019
117 Clouds 15 1024 72 10000 6.7 360 21:18 15.10.2019
118 Clouds 15 1024 72 10000 6.7 360 20:54 15.10.2019
119 Clouds 15 1024 77 10000 4.1 30 20:36 15.10.2019
120 Clouds 15 1024 72 10000 6.2 360 20:18 15.10.2019
121 Clouds 16 1024 67 10000 6.2 10 19:55 15.10.2019
122 Clouds 16 1024 67 10000 6.7 10 19:36 15.10.2019
123 Clouds 16 1024 67 10000 6.7 10 19:18 15.10.2019
124 Clouds 16 1024 72 10000 6.2 20 18:41 15.10.2019
125 Clouds 16 1024 72 10000 5.7 10 18:23 15.10.2019
126 Clouds 16 1027 87 16093 4.1 20 17:54 15.10.2019
127 Rain 16 1024 72 10000 5.1 20 17:36 15.10.2019
128 Rain 17 1024 72 10000 5.1 20 17:18 15.10.2019
129 Clouds 17 1024 77 10000 6.2 40 16:42 15.10.2019
130 Clouds 17 1024 72 10000 6.2 40 16:22 15.10.2019
131 Clouds 17 1026 93 16093 2.6 340 15:57 15.10.2019
132 -273 0 0 0 0 0 15:57 15.10.2019
133 Clouds 17 1024 72 10000 7.2 50 15:39 15.10.2019
134 Rain 17 1024 68 10000 7.7 50 15:19 15.10.2019
135 Clouds 17 1024 72 10000 7.7 60 14:55 15.10.2019
136 Clouds 17 1024 72 10000 7.7 60 14:37 15.10.2019
137 Clouds 17 1023 72 10000 8.2 50 14:18 15.10.2019
138 Clouds 17 1023 77 10000 8.2 60 13:43 15.10.2019
139 Rain 17 1023 82 10000 7.7 60 13:20 15.10.2019
140 Drizzle 18 1025 93 11265 2.1 20 12:56 15.10.2019
141 Drizzle 18 1025 93 11265 2.1 20 12:56 15.10.2019
142 Clouds 18 1023 77 10000 7.7 70 12:38 15.10.2019
143 Rain 18 1023 77 10000 7.7 70 12:19 15.10.2019
144 Rain 18 1023 77 10000 7.7 70 12:19 15.10.2019
145 Clouds 18 1023 72 10000 8.2 70 11:43 15.10.2019
146 Clouds 18 1022 77 10000 8.2 70 11:20 15.10.2019
147 Clouds 19 1022 77 10000 8.2 80 10:56 15.10.2019
148 Rain 19 1021 77 10000 7.2 80 10:38 15.10.2019
149 Rain 19 1021 77 10000 7.2 80 10:18 15.10.2019
150 Rain 19 1021 72 10000 7.7 70 09:55 15.10.2019
151 Rain 19 1023 72 16093 5.55 96.137 09:36 15.10.2019
152 Rain 19 1021 68 10000 5.7 80 09:18 15.10.2019
153 Rain 20 1021 72 10000 7.7 70 08:41 15.10.2019
154 Rain 20 1020 64 10000 6.2 80 08:21 15.10.2019
155 Clouds 21 1020 64 10000 6.2 70 07:55 15.10.2019
156 Clouds 21 1020 64 10000 5.7 80 07:36 15.10.2019
157 Clouds 21 1020 64 10000 5.7 80 07:18 15.10.2019
158 Rain 21 1021 68 10000 6.2 70 06:43 15.10.2019
159 Clouds 21 1020 64 10000 5.7 80 06:20 15.10.2019
160 Rain 21 1022 56 10000 3.6 60 05:37 15.10.2019
161 Rain 21 1021 77 10000 5.1 50 04:54 15.10.2019
162 Rain 20 1021 72 10000 5.1 70 04:23 15.10.2019
163 Clouds 20 1021 72 10000 4.6 60 03:36 15.10.2019
164 Clouds 19 1021 82 10000 4.1 80 02:22 15.10.2019
165 Clouds 19 1021 82 10000 3.1 80 01:47 15.10.2019
166 Rain 18 1021 88 10000 5.1 70 01:19 15.10.2019
167 Clouds 18 1021 88 10000 4.6 70 00:47 15.10.2019
168 Mist 17 1020 93 10000 5.1 70 00:20 15.10.2019
169 Mist 17 1020 93 10000 1.79 336.898 23:40 14.10.2019
170 Rain 17 1019 93 9656 1.79 336.898 23:20 14.10.2019
171 Rain 17 1019 88 10000 5.1 50 22:55 14.10.2019
172 Rain 17 1019 93 10000 3.6 30 22:37 14.10.2019
173 Rain 17 1019 93 10000 3.6 30 22:18 14.10.2019
174 Rain 17 1018 88 10000 3.6 50 21:41 14.10.2019
175 Rain 17 1018 93 10000 3.1 20 21:22 14.10.2019
176 Rain 17 1018 100 10000 3.6 40 20:59 14.10.2019
177 Rain 17 1017 100 10000 3.6 50 20:40 14.10.2019
178 Rain 17 1017 100 10000 3.6 50 20:21 14.10.2019
179 Rain 17 1017 100 5000 2.6 90 19:59 14.10.2019
180 Rain 17 1017 100 10000 4.1 60 19:40 14.10.2019
181 Rain 17 1017 100 10000 5.1 60 19:22 14.10.2019
182 Rain 17 1017 100 10000 4.6 60 18:58 14.10.2019
183 Rain 17 1017 100 10000 4.6 60 18:58 14.10.2019
184 Rain 17 1017 100 10000 4.1 70 18:38 14.10.2019
185 Rain 17 1017 100 10000 4.1 70 18:19 14.10.2019
186 Rain 16 1017 100 4500 2.1 30 17:56 14.10.2019
187 Rain 16 1017 93 4500 2.1 350 17:37 14.10.2019
188 Rain 16 1017 93 4500 2.1 350 17:19 14.10.2019
189 Rain 16 1017 93 10000 3.6 10 16:40 14.10.2019
190 Rain 16 1017 93 10000 3.6 10 16:21 14.10.2019
191 Rain 16 1018 93 7000 4.1 10 15:42 14.10.2019
192 Rain 16 1018 93 4000 5.1 360 15:23 14.10.2019
193 Rain 16 1018 93 7000 6.2 350 14:57 14.10.2019
194 Rain 16 1018 93 7000 6.2 350 14:57 14.10.2019
195 Rain 16 1018 93 7000 6.2 350 14:39 14.10.2019
196 Rain 16 1018 93 4500 6.7 340 14:20 14.10.2019
197 Rain 16 1018 93 10000 6.2 330 13:44 14.10.2019
198 Rain 16 1018 93 10000 8.2 340 13:21 14.10.2019
199 Rain 16 1018 93 10000 7.2 330 12:55 14.10.2019
200 Rain 16 1018 88 6000 9.8 340 12:37 14.10.2019
201 Rain 16 1018 88 6000 9.8 340 12:18 14.10.2019
202 Rain 16 1018 93 9000 8.7 340 11:44 14.10.2019
203 Rain 16 1017 93 7000 7.7 350 11:26 14.10.2019
204 -273 0 0 0 0 0 11:26 14.10.2019
205 Rain 17 1018 93 10000 8.2 350 10:57 14.10.2019
206 Rain 17 1017 88 10000 7.2 360 10:38 14.10.2019
207 Rain 17 1017 88 10000 7.2 360 10:20 14.10.2019
208 Rain 17 1018 88 10000 7.7 360 09:54 14.10.2019
209 Rain 17 1017 93 7000 3.1 350 09:36 14.10.2019
210 Rain 17 1017 93 7000 3.1 350 09:18 14.10.2019
211 Rain 17 1018 93 10000 6.7 350 08:42 14.10.2019
212 Rain 17 1018 93 6000 3.1 340 08:20 14.10.2019
213 Rain 17 1019 93 1810 4.1 320 07:41 14.10.2019
214 Rain 17 1019 93 1810 4.1 320 07:41 14.10.2019
215 Rain 17 1019 93 1810 4.1 320 07:18 14.10.2019
216 Rain 17 1019 88 8000 6.2 340 06:38 14.10.2019
217 Rain 17 1019 88 9000 3.6 330 06:20 14.10.2019
218 Rain 17 1019 88 10000 6.2 350 05:46 14.10.2019
219 Rain 17 1020 93 7000 5.7 340 04:42 14.10.2019
220 Rain 16 1022 88 5000 6.7 330 03:27 14.10.2019
221 Rain 17 1022 77 10000 7.2 330 02:42 14.10.2019
222 Rain 17 1022 77 10000 6.2 360 01:23 14.10.2019
223 Rain 18 1022 77 10000 6.2 350 00:56 14.10.2019
224 Rain 18 1022 72 10000 6.7 360 00:20 14.10.2019
225 Rain 18 1021 77 10000 7.2 10 23:45 13.10.2019
226 Rain 18 1022 77 10000 6.7 10 23:20 13.10.2019
227 Rain 18 1022 72 10000 6.7 10 22:58 13.10.2019
228 Clouds 18 1021 72 10000 6.7 20 22:40 13.10.2019
229 Clouds 18 1021 72 10000 6.7 20 22:21 13.10.2019
230 Clouds 18 1021 72 10000 6.2 10 21:58 13.10.2019
231 Clouds 18 1021 72 10000 6.7 20 21:38 13.10.2019
232 Clouds 18 1021 72 10000 6.7 20 21:19 13.10.2019
233 Clouds 19 1021 72 10000 7.7 30 20:58 13.10.2019
234 Clouds 19 1021 72 10000 7.7 30 20:39 13.10.2019
235 Clouds 19 1021 68 10000 8.7 30 20:21 13.10.2019
236 Clouds 19 1021 72 10000 8.2 30 19:59 13.10.2019
237 Clouds 19 1021 72 10000 8.2 30 19:39 13.10.2019
238 Clouds 19 1021 64 10000 7.7 20 19:21 13.10.2019
239 -273 0 0 0 0 0 18:57 13.10.2019
240 Clouds 19 1021 64 10000 8.2 20 18:55 13.10.2019
241 Clouds 20 1021 64 10000 7.7 30 18:36 13.10.2019
242 Clouds 20 1021 60 10000 7.2 30 18:18 13.10.2019
243 Clouds 20 1021 60 10000 7.2 30 17:43 13.10.2019
244 Clouds 20 1021 60 10000 6.7 30 17:25 13.10.2019
245 Clouds 20 1021 60 10000 5.7 30 16:58 13.10.2019
246 Clouds 20 1020 56 10000 5.7 20 16:40 13.10.2019
247 Clouds 20 1020 56 10000 5.7 20 16:18 13.10.2019
248 Clouds 20 1021 56 10000 5.1 20 15:56 13.10.2019
249 Clouds 20 1021 56 10000 5.1 20 15:56 13.10.2019
250 Clouds 21 1021 60 10000 6.2 30 15:36 13.10.2019
251 Clouds 21 1021 60 10000 6.2 30 15:18 13.10.2019
252 Clouds 21 1020 64 10000 6.2 40 14:56 13.10.2019
253 Clouds 21 1020 64 10000 6.2 40 14:56 13.10.2019
254 Clouds 21 1020 73 10000 6.2 40 14:37 13.10.2019
255 Clouds 21 1020 73 10000 6.2 40 14:18 13.10.2019
256 Clouds 22 1020 68 10000 7.2 50 13:39 13.10.2019
257 Clouds 22 1019 64 10000 7.2 40 13:21 13.10.2019
258 Clouds 22 1019 53 10000 6.7 40 12:57 13.10.2019
259 Clouds 22 1018 49 10000 7.2 10 12:39 13.10.2019
260 Clouds 22 1018 49 10000 7.2 10 12:20 13.10.2019
261 Clouds 23 1018 41 10000 6.7 10 11:58 13.10.2019
262 Clouds 23 1017 53 10000 5.7 10 11:39 13.10.2019
263 Clouds 23 1017 53 10000 5.7 10 11:20 13.10.2019
264 Clouds 24 1016 53 10000 6.2 10 10:56 13.10.2019
265 Clouds 25 1015 50 10000 7.7 360 10:38 13.10.2019
266 Clouds 25 1015 50 10000 7.7 360 10:19 13.10.2019
267 Clouds 26 1014 39 10000 3.6 350 09:39 13.10.2019
268 Clouds 27 1014 39 10000 3.6 350 09:21 13.10.2019
269 Clouds 28 1014 44 10000 7.7 350 08:44 13.10.2019
270 Clouds 28 1012 39 10000 5.1 330 08:25 13.10.2019
271 Clouds 28 1012 51 10000 7.7 350 07:52 13.10.2019
272 Clouds 28 1011 39 10000 4.1 350 07:33 13.10.2019
273 Clouds 28 1011 39 10000 4.1 350 07:33 13.10.2019
274 Clouds 29 1011 44 10000 9.8 350 06:54 13.10.2019
275 Clouds 29 1011 44 10000 9.8 350 06:54 13.10.2019
276 Clouds 29 1010 39 10000 5.7 330 06:24 13.10.2019
277 Clouds 29 1010 39 10000 5.7 330 06:24 13.10.2019
278 Clouds 29 1010 39 10000 5.7 330 06:24 13.10.2019
279 Clouds 29 1010 39 10000 5.7 320 05:27 13.10.2019
280 Clouds 28 1009 42 10000 7.2 310 04:35 13.10.2019
281 Rain 28 1008 42 10000 9.3 300 03:34 13.10.2019
282 Rain 27 1006 44 10000 10.3 310 02:31 13.10.2019
283 Rain 27 1006 44 10000 10.3 310 02:31 13.10.2019
284 Clouds 27 1004 47 10000 10.8 320 01:37 13.10.2019
285 Clouds 27 1004 47 10000 10.8 320 01:18 13.10.2019
286 Clouds 26 1003 50 10000 6.7 300 00:42 13.10.2019
287 Clouds 25 1003 50 10000 6.7 300 00:19 13.10.2019
288 Clouds 24 1001 73 10000 4.1 290 23:42 12.10.2019
289 Clouds 24 1001 73 10000 4.1 290 23:23 12.10.2019
290 Clouds 23 1000 69 10000 4.1 280 22:59 12.10.2019
291 Clouds 23 1000 69 10000 4.1 280 22:40 12.10.2019
292 Clear 24 998 64 10000 4.1 300 22:22 12.10.2019
293 Clear 24 998 61 10000 4.6 260 21:59 12.10.2019
294 Clouds 24 995 57 10000 6.2 290 21:40 12.10.2019
295 Clouds 24 995 60 10000 6.2 270 21:22 12.10.2019
296 -273 0 0 0 0 0 20:55 12.10.2019
297 Clouds 24 992 54 10000 6.2 270 20:36 12.10.2019
298 Clouds 24 992 54 10000 6.2 270 20:18 12.10.2019
299 Clouds 24 990 73 10000 6.7 240 19:36 12.10.2019
300 Clouds 24 990 73 10000 6.7 240 19:18 12.10.2019
301 Clouds 24 990 78 10000 4.6 220 18:44 12.10.2019
302 Clouds 24 989 88 10000 5.1 210 18:26 12.10.2019
303 Rain 24 987 88 10000 6.2 200 17:46 12.10.2019
304 Rain 23 985 88 10000 6.2 170 17:25 12.10.2019
305 Rain 23 984 73 10000 5.7 250 16:59 12.10.2019
306 Rain 23 984 88 10000 7.2 280 16:40 12.10.2019
307 Rain 23 984 88 10000 7.2 280 16:21 12.10.2019
308 Rain 23 981 88 6000 10.8 240 15:57 12.10.2019
309 Rain 23 981 88 6000 10.8 240 15:57 12.10.2019
310 Rain 22 978 94 3000 14.4 240 15:38 12.10.2019
311 Rain 22 978 94 3000 14.4 240 15:18 12.10.2019
312 Rain 23 969 100 2000 32.9 170 14:40 12.10.2019
313 Rain 23 969 100 2000 32.9 170 14:20 12.10.2019
314 Rain 23 970 94 2500 23.1 160 13:51 12.10.2019
315 Rain 24 972 94 4000 18 140 13:32 12.10.2019
316 Rain 24 975 94 6000 16.5 130 12:57 12.10.2019
317 Rain 24 975 94 6000 16.5 130 12:38 12.10.2019
318 Rain 24 978 100 2012 7.7 100 12:20 12.10.2019
319 Rain 24 979 100 5000 18 130 11:47 12.10.2019
320 Rain 24 981 100 4000 14.4 120 11:24 12.10.2019
321 Rain 25 982 94 5000 15.4 120 10:58 12.10.2019
322 Rain 25 982 94 5000 15.4 120 10:40 12.10.2019
323 Rain 25 984 94 3500 15.9 130 10:20 12.10.2019
324 -273 0 0 0 0 0 09:57 12.10.2019
325 Rain 25 984 94 3500 13.9 120 09:38 12.10.2019
326 Rain 25 986 94 2000 16.5 120 09:20 12.10.2019
327 Rain 25 986 94 2000 16.5 120 09:20 12.10.2019
328 Rain 25 987 94 4500 16.5 130 08:54 12.10.2019
329 Rain 25 988 94 2000 15.9 110 08:36 12.10.2019
330 Rain 25 988 94 2000 15.9 110 08:18 12.10.2019
331 Rain 25 990 100 2000 13.9 100 07:32 12.10.2019
332 Rain 25 993 100 1000 13.4 90 06:38 12.10.2019
333 Rain 25 994 94 2500 13.4 80 05:44 12.10.2019
334 Rain 24 997 100 2000 11.3 100 04:43 12.10.2019
335 Rain 24 999 100 3000 9.3 90 03:56 12.10.2019
336 Rain 24 1000 100 2500 10.3 70 02:54 12.10.2019
337 Rain 23 1002 100 1000 10.8 60 01:35 12.10.2019
338 Rain 23 1002 94 1500 11.3 60 00:57 12.10.2019
339 Rain 23 1002 94 1500 11.3 60 00:38 12.10.2019
340 Rain 22 1002 100 4000 13.9 50 23:56 11.10.2019
341 Rain 22 1003 94 3000 13.9 50 23:37 11.10.2019
342 Rain 22 1004 94 4000 10.3 40 23:19 11.10.2019
343 Rain 22 1004 94 4000 10.3 40 22:39 11.10.2019
344 Rain 22 1004 94 7000 11.3 40 22:21 11.10.2019
345 Rain 22 1004 94 10000 10.8 30 21:55 11.10.2019
346 Rain 22 1005 94 10000 10.8 30 21:36 11.10.2019
347 Rain 22 1005 94 10000 10.8 30 21:18 11.10.2019
348 Rain 22 1006 100 10000 9.8 30 20:43 11.10.2019
349 Rain 22 1007 100 3000 10.3 30 20:25 11.10.2019
350 Rain 22 1007 100 6000 10.3 30 19:56 11.10.2019
351 Rain 22 1007 100 10000 8.7 30 19:38 11.10.2019
352 Rain 22 1007 100 10000 8.7 30 19:38 11.10.2019
353 Rain 22 1007 100 10000 8.7 30 19:18 11.10.2019
354 Rain 22 1008 100 10000 8.7 30 18:57 11.10.2019
355 Rain 22 1008 100 10000 9.8 20 18:37 11.10.2019
356 Rain 22 1008 100 10000 9.8 20 18:19 11.10.2019
357 Rain 22 1008 100 9000 9.3 20 17:58 11.10.2019
358 Rain 21 1009 94 6000 8.7 20 17:37 11.10.2019
359 Rain 21 1009 94 6000 8.7 20 17:19 11.10.2019
360 Rain 21 1010 94 7000 7.7 20 16:55 11.10.2019
361 Rain 21 1010 94 4000 7.2 20 16:37 11.10.2019
362 Rain 21 1010 94 4000 7.2 20 16:18 11.10.2019
363 Rain 21 1011 94 8000 7.2 20 15:39 11.10.2019
364 Rain 21 1011 94 8000 7.2 20 15:19 11.10.2019
365 Rain 21 1011 94 10000 7.2 20 14:49 11.10.2019
366 Rain 21 1011 94 10000 8.2 20 14:30 11.10.2019
367 Rain 21 1011 94 10000 7.7 20 13:58 11.10.2019
368 Rain 21 1011 94 10000 7.7 20 13:40 11.10.2019
369 Rain 21 1012 94 10000 7.2 30 13:22 11.10.2019
370 Rain 21 1011 94 9000 6.7 20 12:56 11.10.2019
371 Rain 21 1014 94 16093 2.6 10 12:38 11.10.2019
372 Rain 21 1014 94 16093 2.6 10 12:20 11.10.2019
373 Rain 21 1014 94 6437 3.1 350 11:55 11.10.2019
374 Rain 21 1014 94 6437 3.1 350 11:55 11.10.2019
375 Rain 21 1012 94 4000 6.2 30 11:36 11.10.2019
376 Rain 21 1012 94 4000 6.2 30 11:18 11.10.2019
377 Rain 21 1012 100 7000 6.2 20 10:41 11.10.2019
378 Rain 21 1011 100 7000 6.2 10 10:23 11.10.2019
379 Rain 21 1011 94 8000 7.2 10 09:59 11.10.2019
380 Rain 21 1011 94 8000 7.2 10 09:40 11.10.2019
381 Rain 21 1011 94 8000 4.1 10 09:20 11.10.2019
382 Rain 21 1011 94 10000 6.2 360 08:56 11.10.2019
383 Rain 21 1011 94 9000 3.6 360 08:37 11.10.2019
384 Rain 21 1011 94 9000 3.6 360 08:19 11.10.2019
385 Rain 21 1013 88 8000 1 60 07:51 11.10.2019
386 Rain 21 1013 88 3500 1 20 07:33 11.10.2019
387 Rain 21 1012 88 10000 6.2 360 06:49 11.10.2019
388 Rain 21 1013 88 10000 3.6 20 06:24 11.10.2019
389 Rain 21 1013 83 10000 6.2 10 05:41 11.10.2019
390 Rain 21 1013 88 10000 3.1 360 05:23 11.10.2019
391 Rain 21 1013 88 10000 4.6 350 04:47 11.10.2019
392 Clouds 20 1015 83 10000 6.7 350 02:59 11.10.2019
393 Rain 19 1015 82 10000 5.7 350 00:54 11.10.2019
394 Rain 18 1017 100 16093 2.1 10 00:30 11.10.2019
395 Rain 18 1015 88 10000 6.7 340 23:57 10.10.2019
396 Mist 18 1015 82 10000 7.2 340 23:38 10.10.2019
397 Mist 18 1015 82 10000 7.2 340 23:18 10.10.2019
398 Mist 17 1015 93 10000 7.7 340 22:54 10.10.2019
399 Mist 17 1015 93 10000 6.7 340 22:36 10.10.2019
400 Mist 17 1015 93 10000 6.7 340 22:18 10.10.2019
401 Mist 17 1015 93 10000 7.2 340 21:42 10.10.2019
402 Drizzle 17 1015 88 10000 5.7 330 21:22 10.10.2019
403 Rain 17 1015 93 10000 5.7 330 20:58 10.10.2019
404 Rain 17 1015 93 10000 5.7 330 20:39 10.10.2019
405 Rain 17 1015 88 10000 7.2 340 20:19 10.10.2019
406 Rain 17 1015 88 10000 8.2 340 19:56 10.10.2019
407 Rain 17 1016 93 10000 6.7 330 19:38 10.10.2019
408 Rain 17 1016 93 10000 6.7 330 19:19 10.10.2019
409 Rain 17 1016 93 6000 7.2 340 18:42 10.10.2019
410 Rain 17 1016 93 6000 7.2 340 18:21 10.10.2019
411 Rain 17 1016 93 7000 7.7 340 17:58 10.10.2019
412 Rain 17 1017 93 3500 5.7 330 17:39 10.10.2019
413 Rain 18 1017 93 4800 7.7 340 17:18 10.10.2019
414 Rain 18 1017 93 4800 7.7 340 16:56 10.10.2019
415 Rain 18 1019 88 12874 2.6 340 16:37 10.10.2019
416 Rain 18 1019 88 12874 2.6 340 16:18 10.10.2019
417 Rain 18 1017 93 4000 7.2 360 15:40 10.10.2019
418 Rain 18 1017 93 4000 6.2 10 15:22 10.10.2019
419 Rain 18 1018 93 4500 7.2 10 14:57 10.10.2019
420 Rain 18 1018 93 4500 7.2 10 14:37 10.10.2019
421 Rain 19 1017 93 5000 7.2 20 14:19 10.10.2019
422 Rain 19 1017 93 10000 6.7 10 13:57 10.10.2019
423 Rain 19 1017 93 7000 7.7 10 13:39 10.10.2019
424 Rain 19 1017 93 7000 7.7 10 13:18 10.10.2019
425 Rain 20 1017 82 7000 7.2 20 12:42 10.10.2019
426 Rain 20 1017 82 7000 7.2 20 12:21 10.10.2019
427 Rain 21 1017 73 8000 6.7 20 11:58 10.10.2019
428 Rain 21 1017 73 8000 6.7 20 11:40 10.10.2019
429 Rain 22 1017 64 10000 6.2 30 11:19 10.10.2019
430 Rain 23 1017 64 10000 6.7 20 10:47 10.10.2019
431 Rain 23 1017 64 10000 6.2 30 10:28 10.10.2019
432 Clouds 23 1017 69 10000 6.2 40 09:59 10.10.2019
433 Clouds 23 1017 60 10000 4.6 40 09:41 10.10.2019
434 Clouds 23 1017 60 10000 4.6 40 09:23 10.10.2019
435 Clouds 23 1017 69 10000 5.7 40 08:59 10.10.2019
436 Clouds 24 1017 57 10000 5.7 60 08:40 10.10.2019
437 Clouds 24 1017 57 10000 5.7 60 08:21 10.10.2019
438 Clouds 24 1017 60 10000 4.1 70 07:47 10.10.2019
439 Clouds 24 1017 57 10000 4.1 80 07:26 10.10.2019
440 Clouds 24 1018 69 10000 4.1 50 06:56 10.10.2019
441 Clouds 24 1017 57 10000 4.1 50 06:38 10.10.2019
442 Clouds 23 1018 64 10000 4.6 40 05:50 10.10.2019
443 Clouds 23 1018 57 10000 4.1 40 05:19 10.10.2019
444 Clouds 23 1019 53 10000 4.1 20 04:35 10.10.2019
445 Clouds 21 1020 64 10000 6.2 360 02:42 10.10.2019
446 Clouds 19 1020 60 10000 6.2 360 01:38 10.10.2019
447 Clouds 19 1020 60 10000 6.2 360 01:18 10.10.2019
448 Clouds 18 1020 68 10000 6.7 350 00:39 10.10.2019
449 Clouds 16 1020 68 10000 6.7 350 23:55 09.10.2019
450 Clouds 16 1020 72 10000 5.7 360 23:36 09.10.2019
451 Clouds 15 1019 72 10000 6.2 350 23:18 09.10.2019
452 Clouds 16 1019 72 10000 6.2 350 22:41 09.10.2019
453 Clouds 15 1019 72 10000 5.7 350 22:22 09.10.2019
454 Clear 15 1019 72 10000 6.2 350 21:58 09.10.2019
455 Clouds 15 1019 68 10000 6.2 350 21:39 09.10.2019
456 Clouds 15 1019 68 10000 6.2 350 21:39 09.10.2019
457 Clouds 15 1019 68 10000 6.2 350 21:19 09.10.2019
458 Clear 16 1019 68 10000 6.2 360 20:55 09.10.2019
459 Clear 16 1019 68 10000 5.7 360 20:37 09.10.2019
460 Clear 16 1019 68 10000 5.7 360 20:18 09.10.2019
461 Clear 16 1019 87 10000 3.6 340 20:18 09.10.2019
462 Clear 17 1019 64 10000 5.1 360 19:45 09.10.2019
463 Clear 17 1019 64 10000 5.1 360 19:23 09.10.2019
464 Clear 17 1019 63 10000 4.6 10 18:57 09.10.2019
465 Clouds 17 1019 64 10000 4.1 10 18:37 09.10.2019
466 Clouds 18 1019 64 10000 4.1 10 18:18 09.10.2019
467 Clouds 17 1019 64 10000 4.6 30 17:54 09.10.2019
468 Clouds 18 1019 68 10000 4.1 20 17:36 09.10.2019
469 Clouds 19 1019 68 10000 4.1 20 17:18 09.10.2019
470 Clouds 19 1019 64 10000 4.6 70 16:40 09.10.2019
471 Clouds 19 1019 64 10000 5.1 90 16:22 09.10.2019
472 Clouds 19 1019 68 10000 4.6 100 15:58 09.10.2019
473 Clouds 19 1019 64 10000 5.1 100 15:39 09.10.2019
474 Clouds 19 1019 64 10000 5.1 100 15:20 09.10.2019
475 Rain 19 1019 60 10000 5.1 100 14:56 09.10.2019
476 Rain 19 1019 60 10000 5.1 100 14:37 09.10.2019
477 Rain 19 1019 64 10000 5.7 100 14:18 09.10.2019
478 Rain 20 1018 64 10000 6.7 110 13:39 09.10.2019
479 Rain 20 1018 64 10000 6.7 110 13:21 09.10.2019
480 Clouds 20 1018 68 10000 6.2 110 12:59 09.10.2019
481 Clear 20 1017 64 10000 6.7 100 12:40 09.10.2019
482 Clear 20 1017 64 10000 6.7 100 12:21 09.10.2019
483 Clouds 20 1017 60 10000 6.7 110 11:55 09.10.2019
484 Clouds 20 1017 64 10000 6.2 110 11:36 09.10.2019
485 Clouds 20 1017 64 10000 6.2 110 11:18 09.10.2019
486 Clouds 20 1017 64 10000 6.2 110 11:18 09.10.2019
487 Clouds 22 1016 68 10000 6.7 110 10:43 09.10.2019
488 Clouds 22 1015 64 10000 6.2 110 10:21 09.10.2019
489 Clouds 23 1015 64 10000 6.7 110 09:57 09.10.2019
490 Clouds 23 1015 64 10000 6.7 110 09:57 09.10.2019
491 Clouds 24 1015 36 10000 3.6 130 09:38 09.10.2019
492 Clouds 24 1015 36 10000 3.6 130 09:18 09.10.2019
493 Clouds 25 1015 36 10000 3.6 100 08:41 09.10.2019
494 Clouds 25 1014 25 10000 2.6 60 08:21 09.10.2019
495 Clouds 25 1014 25 10000 2.6 60 08:21 09.10.2019
496 Clouds 25 1014 31 10000 4.1 20 07:56 09.10.2019
497 Clouds 25 1014 23 10000 3.1 40 07:37 09.10.2019
498 Clouds 25 1014 23 10000 3.1 40 07:19 09.10.2019
499 Clouds 25 1014 23 10000 3.1 40 07:19 09.10.2019
500 Clouds 25 1015 31 10000 3.6 60 06:49 09.10.2019
501 Clouds 24 1015 35 10000 5.7 30 05:55 09.10.2019
502 Clouds 24 1015 29 10000 5.1 30 05:28 09.10.2019
503 Clouds 23 1015 36 10000 5.1 30 04:24 09.10.2019
504 Clouds 22 1016 46 10000 8.2 350 02:52 09.10.2019
505 Clouds 20 1015 43 10000 4.6 340 01:43 09.10.2019
506 Clouds 20 1015 49 10000 8.7 10 01:20 09.10.2019
507 Clouds 20 1014 52 10000 9.8 10 00:57 09.10.2019
508 Clouds 19 1014 52 10000 9.8 360 00:38 09.10.2019
509 Clouds 19 1014 52 10000 9.8 360 00:20 09.10.2019
510 Clouds 19 1013 52 10000 11.8 350 23:39 08.10.2019
511 Clouds 19 1012 52 10000 11.8 340 23:19 08.10.2019
512 Clouds 19 1012 52 10000 13.4 340 22:56 08.10.2019
513 Clouds 19 1011 49 10000 13.4 340 22:38 08.10.2019
514 Clouds 19 1011 49 10000 13.4 340 22:19 08.10.2019
515 Clouds 20 1010 46 10000 13.9 340 21:57 08.10.2019
516 Clouds 20 1010 49 10000 10.8 340 21:39 08.10.2019
517 Clouds 20 1010 49 10000 10.8 340 21:19 08.10.2019
518 Clouds 21 1010 53 10000 8.7 350 20:56 08.10.2019
519 Mist 20 1009 49 10000 8.2 350 20:37 08.10.2019
520 Mist 21 1009 49 10000 8.2 350 20:19 08.10.2019
521 Mist 20 1009 53 10000 9.8 350 19:58 08.10.2019
522 Mist 21 1009 49 10000 9.8 340 19:39 08.10.2019
523 Rain 21 1009 49 10000 9.8 340 19:20 08.10.2019
524 Mist 21 1009 49 10000 9.8 340 19:20 08.10.2019
525 Rain 21 1009 49 10000 11.3 340 18:54 08.10.2019
526 Rain 21 1009 53 10000 7.7 340 18:36 08.10.2019
527 Rain 21 1008 94 5000 2.6 310 18:18 08.10.2019
528 Rain 22 1008 78 10000 4.1 340 17:40 08.10.2019
529 Rain 22 1008 78 10000 4.1 340 17:20 08.10.2019
530 Mist 22 1009 83 10000 4.1 350 16:58 08.10.2019
531 Mist 22 1008 94 5000 3.1 310 16:39 08.10.2019
532 Clouds 22 1008 78 10000 4.1 300 16:21 08.10.2019
533 Clouds 22 1008 78 10000 3.1 300 15:41 08.10.2019
534 Clouds 22 1008 78 10000 3.1 300 15:21 08.10.2019
535 Clouds 22 1008 78 10000 2.6 270 14:58 08.10.2019
536 Clouds 22 1008 78 10000 2.6 270 14:58 08.10.2019
537 Clouds 22 1008 78 10000 3.6 300 14:39 08.10.2019
538 Clouds 22 1008 78 10000 3.6 300 14:20 08.10.2019
539 Clouds 22 1007 83 10000 2.6 340 13:57 08.10.2019
540 Clouds 22 1007 83 10000 3.1 350 13:38 08.10.2019
541 Clouds 23 1007 83 10000 3.1 350 13:19 08.10.2019
542 Clouds 23 1007 83 10000 3.6 10 12:58 08.10.2019
543 Clouds 23 1007 78 10000 4.6 290 12:37 08.10.2019
544 Clouds 23 1007 78 10000 4.6 290 12:18 08.10.2019
545 Clouds 24 1006 69 10000 8.2 230 11:42 08.10.2019
546 Clouds 24 1006 69 10000 7.2 210 11:24 08.10.2019
547 Clouds 24 1006 69 10000 7.2 240 10:58 08.10.2019
548 Clouds 24 1006 69 10000 7.2 210 10:37 08.10.2019
549 Clouds 25 1006 69 10000 7.2 210 10:19 08.10.2019
550 Clouds 26 1006 69 10000 6.7 200 09:55 08.10.2019
551 Clouds 26 1005 69 10000 4.6 190 09:37 08.10.2019
552 Clouds 26 1005 69 10000 4.6 190 09:19 08.10.2019
553 Rain 26 1005 61 10000 10.3 200 08:42 08.10.2019
554 Rain 26 1005 69 10000 4.6 220 08:23 08.10.2019
555 Rain 26 1005 69 10000 4.6 220 08:23 08.10.2019
556 Rain 27 1005 61 10000 10.8 210 07:45 08.10.2019
557 Clouds 27 1005 65 10000 6.2 220 07:21 08.10.2019
558 Clouds 27 1006 61 10000 10.8 210 06:53 08.10.2019
559 Clouds 27 1006 69 10000 5.1 220 06:29 08.10.2019
560 Clouds 26 1007 69 10000 8.2 210 05:55 08.10.2019
561 Clouds 26 1007 78 10000 5.1 200 05:36 08.10.2019
562 Clouds 25 1008 83 10000 4.6 210 04:33 08.10.2019
563 Clouds 23 1010 94 10000 3.6 170 03:29 08.10.2019
564 Clouds 22 1011 94 10000 3.1 190 02:39 08.10.2019
565 Mist 21 1011 94 10000 1.5 190 01:49 08.10.2019
566 Mist 21 1011 94 10000 4.1 180 01:31 08.10.2019
567 Mist 20 1012 94 10000 0.5 120 00:50 08.10.2019
568 Rain 19 1012 94 10000 0.5 120 00:21 08.10.2019
569 Rain 19 1012 94 10000 1.5 110 23:41 07.10.2019
570 Rain 19 1012 100 10000 1 20 23:20 07.10.2019
571 Rain 19 1012 100 10000 1 20 23:20 07.10.2019
572 Rain 19 1013 100 10000 1 350 22:58 07.10.2019
573 Rain 19 1013 100 10000 1 350 22:40 07.10.2019
574 Rain 19 1013 100 10000 2.6 360 22:20 07.10.2019
575 Rain 19 1013 100 6000 2.6 20 21:57 07.10.2019
576 Rain 19 1013 100 5000 3.6 360 21:39 07.10.2019
577 Rain 19 1013 100 5000 3.6 360 21:20 07.10.2019
578 Rain 18 1013 93 4000 4.1 360 20:58 07.10.2019
579 Rain 18 1014 100 7000 3.6 360 20:39 07.10.2019
580 Rain 18 1014 100 7000 3.6 360 20:20 07.10.2019
581 Rain 18 1014 100 6000 4.1 360 19:58 07.10.2019
582 Rain 18 1015 100 6000 2.6 320 19:40 07.10.2019
583 Rain 18 1015 100 6000 2.6 320 19:19 07.10.2019
584 Rain 18 1015 100 8000 3.1 320 18:57 07.10.2019
585 Rain 19 1016 100 6000 2.1 320 18:38 07.10.2019
586 Rain 18 1016 100 6000 2.1 320 18:18 07.10.2019
587 Rain 19 1016 100 6000 4.6 310 17:43 07.10.2019
588 Rain 19 1017 100 4500 4.6 320 17:22 07.10.2019
589 Rain 19 1017 100 5000 5.1 330 16:58 07.10.2019
590 Rain 19 1017 100 5000 5.1 330 16:39 07.10.2019
591 Rain 19 1017 93 4000 4.6 330 16:39 07.10.2019
592 Rain 19 1017 93 4000 4.6 330 16:20 07.10.2019
593 Rain 19 1019 88 7000 5.1 340 15:45 07.10.2019
594 Rain 19 1019 88 7000 5.1 340 15:26 07.10.2019
595 Rain 19 1019 88 7000 5.1 340 15:26 07.10.2019
596 Rain 19 1019 88 7000 5.1 340 15:26 07.10.2019
597 Rain 19 1019 88 10000 5.1 350 14:56 07.10.2019
598 Rain 19 1019 88 10000 5.1 10 14:38 07.10.2019
599 Rain 19 1019 88 10000 5.1 10 14:20 07.10.2019
600 Rain 20 1019 88 10000 4.6 10 13:43 07.10.2019
601 Rain 20 1019 88 10000 4.6 10 13:21 07.10.2019
602 Rain 20 1020 88 10000 3.6 30 12:57 07.10.2019
603 Rain 20 1020 88 10000 4.1 50 12:39 07.10.2019
604 Rain 20 1020 88 10000 4.1 50 12:19 07.10.2019
605 Rain 21 1020 83 10000 4.6 60 11:57 07.10.2019
606 Rain 21 1020 83 10000 4.6 60 11:38 07.10.2019
607 Rain 21 1022 64 16093 4.81 116.123 11:20 07.10.2019
608 Rain 21 1022 64 16093 4.81 116.123 11:20 07.10.2019
609 Rain 22 1019 73 10000 4.6 70 10:42 07.10.2019
610 Rain 23 1019 73 10000 5.1 60 10:21 07.10.2019
611 Rain 23 1019 73 10000 5.1 60 09:55 07.10.2019
612 Rain 23 1019 73 10000 5.1 60 09:54 07.10.2019
613 Rain 23 1019 69 10000 3.6 40 09:36 07.10.2019
614 Rain 23 1019 69 10000 3.6 40 09:18 07.10.2019
615 Clouds 24 1019 69 10000 4.1 40 08:41 07.10.2019
616 Clouds 24 1019 64 10000 3.1 40 08:20 07.10.2019
617 Clouds 24 1020 64 10000 4.1 40 07:44 07.10.2019
618 Clouds 24 1019 64 10000 3.6 30 07:25 07.10.2019
619 Clouds 24 1020 60 10000 4.1 20 06:56 07.10.2019
620 Clouds 24 1020 60 10000 3.1 10 06:37 07.10.2019
621 Clouds 24 1020 69 10000 5.1 30 05:54 07.10.2019
622 Clouds 24 1020 64 10000 3.1 10 05:25 07.10.2019
623 Rain 22 1021 68 10000 5.7 360 04:44 07.10.2019
624 Rain 22 1022 73 10000 6.2 360 03:45 07.10.2019
625 Rain 21 1022 64 10000 2.6 330 03:23 07.10.2019
626 Rain 21 1023 72 10000 3.6 20 02:23 07.10.2019
627 Rain 21 1023 72 10000 3.6 20 02:23 07.10.2019
628 Drizzle 20 1023 77 10000 2.6 360 01:58 07.10.2019
629 Drizzle 19 1023 77 10000 5.7 360 01:23 07.10.2019
630 Clouds 19 1023 77 10000 6.2 10 00:45 07.10.2019
631 Clouds 18 1023 77 10000 6.2 360 00:23 07.10.2019
632 Clouds 18 1023 77 10000 6.2 360 23:59 06.10.2019
633 Clouds 18 1023 77 10000 6.2 360 23:39 06.10.2019
634 Clouds 18 1023 77 10000 6.2 360 23:18 06.10.2019
635 Clouds 18 1023 77 10000 6.7 360 22:54 06.10.2019
636 Clouds 18 1022 77 10000 7.7 10 22:36 06.10.2019
637 Clouds 18 1022 77 10000 7.7 10 22:18 06.10.2019
638 Clouds 18 1022 77 10000 7.7 10 21:54 06.10.2019
639 Clouds 18 1022 77 10000 7.2 360 21:36 06.10.2019
640 Clouds 18 1022 77 10000 7.2 360 21:36 06.10.2019
641 Clouds 18 1022 77 10000 7.2 360 21:18 06.10.2019
642 Clouds 18 1022 77 10000 8.2 10 20:54 06.10.2019
643 -273 0 0 0 0 0 20:54 06.10.2019
644 Clouds 19 1023 77 10000 7.2 10 20:36 06.10.2019
645 Clouds 18 1023 77 10000 7.2 10 20:18 06.10.2019
646 Clouds 19 1022 72 10000 6.7 10 19:54 06.10.2019
647 Clouds 19 1023 77 10000 7.2 10 19:36 06.10.2019
648 Clouds 19 1023 77 10000 7.2 10 19:18 06.10.2019
649 Clouds 19 1023 82 10000 6.7 10 18:54 06.10.2019
650 Clouds 19 1023 82 10000 6.7 10 18:54 06.10.2019
651 Clouds 19 1022 82 10000 5.7 20 18:36 06.10.2019
652 Clouds 19 1023 77 10000 6.2 10 18:18 06.10.2019
653 Clouds 19 1023 77 10000 6.2 10 17:42 06.10.2019
654 Clouds 19 1022 77 10000 6.2 10 17:20 06.10.2019
655 Clouds 19 1023 77 10000 4.6 30 16:55 06.10.2019
656 Clouds 19 1022 77 10000 5.7 30 16:37 06.10.2019
657 Clouds 19 1022 77 10000 5.7 30 16:18 06.10.2019
658 Clouds 19 1023 77 10000 6.2 30 15:42 06.10.2019
659 Clouds 19 1022 77 10000 7.7 30 15:21 06.10.2019
660 Clouds 19 1022 82 10000 8.2 50 14:44 06.10.2019
661 Clouds 19 1022 82 10000 8.2 50 14:26 06.10.2019
662 Clouds 20 1022 77 10000 8.7 40 13:59 06.10.2019
663 Clouds 20 1022 82 10000 5.7 40 13:40 06.10.2019
664 Clouds 20 1022 77 10000 8.2 40 13:21 06.10.2019
665 Clouds 20 1022 82 10000 7.7 50 12:58 06.10.2019
666 Clouds 20 1021 82 10000 5.1 40 12:39 06.10.2019
667 Clouds 20 1021 82 10000 8.7 50 12:21 06.10.2019
668 Clouds 20 1020 82 10000 9.3 60 11:58 06.10.2019
669 Clouds 20 1020 73 10000 9.8 60 11:39 06.10.2019
670 Clouds 20 1020 73 10000 9.8 60 11:21 06.10.2019
671 Clouds 20 1020 77 10000 9.8 50 10:54 06.10.2019
672 Clouds 21 1019 73 10000 8.2 60 10:36 06.10.2019
673 Clouds 21 1019 73 10000 8.2 60 10:18 06.10.2019
674 Clouds 21 1018 77 10000 7.2 60 09:41 06.10.2019
675 Clouds 21 1018 77 10000 7.2 60 09:19 06.10.2019
676 Clouds 21 1019 83 10000 7.7 40 08:48 06.10.2019
677 Clouds 21 1018 77 10000 7.2 50 08:21 06.10.2019
678 Clouds 21 1018 83 10000 8.2 50 07:57 06.10.2019
679 Clouds 21 1017 82 10000 5.7 40 07:38 06.10.2019
680 Rain 21 1018 88 10000 9.3 30 06:49 06.10.2019
681 Rain 21 1017 94 6000 3.6 20 05:36 06.10.2019
682 Rain 21 1017 94 10000 5.1 10 04:29 06.10.2019
683 Rain 22 1017 88 10000 7.2 360 02:52 06.10.2019
684 Rain 22 1016 83 10000 3.1 350 02:29 06.10.2019
685 Clouds 22 1016 78 10000 4.6 360 01:46 06.10.2019
686 Rain 22 1016 83 10000 7.2 360 01:28 06.10.2019
687 Rain 22 1016 83 10000 6.7 360 00:59 06.10.2019
688 Rain 22 1016 83 10000 6.7 360 00:59 06.10.2019
689 Rain 22 1015 83 10000 7.2 360 00:31 06.10.2019
690 -273 0 0 0 0 0 23:54 05.10.2019
691 Rain 22 1014 83 10000 6.2 10 23:36 05.10.2019
692 Rain 22 1014 83 10000 6.2 10 23:18 05.10.2019
693 Rain 22 1014 78 10000 6.7 20 22:54 05.10.2019
694 Rain 22 1013 83 10000 6.7 10 22:36 05.10.2019
695 Rain 22 1013 83 10000 6.7 10 22:18 05.10.2019
696 Rain 22 1013 83 10000 5.1 20 21:40 05.10.2019
697 Rain 22 1013 83 10000 5.1 20 21:21 05.10.2019
698 Rain 22 1013 78 10000 5.1 20 20:57 05.10.2019
699 Rain 23 1012 78 10000 4.6 30 20:39 05.10.2019
700 Rain 23 1012 78 10000 4.6 30 20:19 05.10.2019
701 Rain 23 1012 78 10000 5.7 40 19:41 05.10.2019
702 Rain 23 1012 83 10000 4.1 50 19:22 05.10.2019
703 Clouds 23 1013 78 10000 4.1 50 18:58 05.10.2019
704 Clouds 23 1012 78 10000 4.6 50 18:39 05.10.2019
705 Clouds 23 1012 78 10000 4.6 50 18:21 05.10.2019
706 Clouds 23 1013 78 10000 5.1 50 17:56 05.10.2019
707 Clouds 23 1012 78 10000 5.7 50 17:37 05.10.2019
708 Clouds 23 1012 78 10000 5.7 50 17:19 05.10.2019
709 Clouds 23 1012 83 10000 4.1 70 16:42 05.10.2019
710 Clouds 23 1012 83 10000 4.1 70 16:23 05.10.2019
711 Clear 24 1012 83 10000 3.6 80 15:59 05.10.2019
712 Clear 23 1012 83 10000 3.6 80 15:40 05.10.2019
713 Clear 24 1012 83 10000 1.5 110 15:21 05.10.2019
714 Clouds 24 1012 78 10000 1 0 14:59 05.10.2019
715 Clouds 24 1012 78 10000 1 0 14:41 05.10.2019
716 Clouds 24 1012 78 10000 1 0 14:41 05.10.2019
717 Clouds 24 1012 78 10000 1 0 14:41 05.10.2019
718 Clouds 24 1012 78 10000 3.1 130 14:20 05.10.2019
719 Clouds 24 1012 83 10000 3.6 140 13:43 05.10.2019
720 Clouds 24 1011 78 10000 3.6 140 13:24 05.10.2019
721 Clouds 25 1012 83 10000 4.1 120 12:57 05.10.2019
722 Clouds 25 1011 78 10000 4.6 140 12:39 05.10.2019
723 Clouds 25 1011 78 10000 4.6 140 12:39 05.10.2019
724 Clouds 25 1010 65 10000 5.7 160 12:18 05.10.2019
725 Clouds 26 1009 61 10000 5.1 160 11:39 05.10.2019
726 Clouds 26 1009 61 10000 5.1 160 11:20 05.10.2019
727 Clouds 26 1009 57 10000 5.1 190 10:55 05.10.2019
728 Clouds 27 1009 57 10000 5.7 190 10:37 05.10.2019
729 Clouds 27 1009 57 10000 5.7 190 10:18 05.10.2019
730 Clouds 28 1009 54 10000 4.6 180 09:39 05.10.2019
731 Clouds 29 1008 58 10000 4.1 140 09:21 05.10.2019
732 Clouds 30 1008 54 10000 1 90 08:41 05.10.2019
733 Clouds 30 1008 48 10000 2.1 150 08:22 05.10.2019
734 Clouds 30 1008 51 10000 2.6 150 07:59 05.10.2019
735 Clouds 30 1008 61 10000 5.1 150 07:38 05.10.2019
736 Clouds 30 1008 61 10000 5.1 150 07:19 05.10.2019
737 Clouds 30 1008 51 10000 4.1 130 06:50 05.10.2019
738 Clouds 30 1008 40 10000 1 0 06:18 05.10.2019
739 Clouds 30 1009 45 10000 3.1 30 04:44 05.10.2019
740 Clouds 29 1009 42 10000 3.6 340 03:30 05.10.2019
741 Clear 26 1009 50 10000 6.7 320 01:59 05.10.2019
742 Clouds 26 1008 51 10000 10.3 340 01:24 05.10.2019
743 Clouds 25 1008 54 10000 8.7 340 00:46 05.10.2019
744 Clouds 25 1008 54 10000 6.7 340 00:27 05.10.2019
745 Clouds 24 1007 50 10000 4.6 320 23:55 04.10.2019
746 Clouds 23 1007 50 10000 3.6 280 23:37 04.10.2019
747 Clouds 23 1007 50 10000 3.6 280 23:18 04.10.2019
748 Clouds 22 1006 47 10000 6.2 310 22:41 04.10.2019
749 Clouds 23 1005 44 10000 8.7 320 22:23 04.10.2019
750 Clouds 23 1005 47 10000 7.7 330 21:58 04.10.2019
751 Clouds 23 1005 57 10000 3.1 310 21:40 04.10.2019
752 Clouds 23 1005 57 10000 3.1 310 21:21 04.10.2019
753 Clouds 23 1005 57 10000 3.1 300 20:57 04.10.2019
754 Clouds 23 1005 57 10000 5.1 280 20:39 04.10.2019
755 Clouds 23 1005 57 10000 5.1 280 20:21 04.10.2019
756 Clouds 23 1005 57 10000 5.7 260 19:55 04.10.2019
757 Clouds 23 1004 64 10000 5.7 260 19:37 04.10.2019
758 Clouds 23 1004 64 10000 5.7 260 19:18 04.10.2019
759 Clouds 23 1004 65 10000 5.1 240 18:39 04.10.2019
760 Clouds 23 1004 65 10000 5.1 240 18:20 04.10.2019
761 Clouds 23 1004 65 10000 5.1 240 18:20 04.10.2019
762 Clouds 23 1004 69 10000 3.1 220 17:58 04.10.2019
763 Clouds 23 1003 69 10000 4.1 230 17:39 04.10.2019
764 Clouds 23 1003 69 10000 4.1 230 17:20 04.10.2019
765 Clouds 23 1003 69 10000 5.1 200 16:55 04.10.2019
766 Clouds 23 1003 78 10000 5.1 180 16:37 04.10.2019
767 Clouds 24 1003 78 10000 5.1 180 16:18 04.10.2019
768 Clouds 24 1003 65 10000 5.1 210 15:55 04.10.2019
769 Clouds 24 1003 65 10000 5.1 210 15:55 04.10.2019
770 Clouds 24 1003 65 10000 4.1 200 15:37 04.10.2019
771 Clouds 24 1003 65 10000 4.1 200 15:19 04.10.2019
772 Clouds 24 1002 61 10000 5.1 230 14:54 04.10.2019
773 Clouds 25 1002 57 10000 3.1 230 14:36 04.10.2019
774 Clouds 25 1002 57 10000 3.1 230 14:18 04.10.2019
775 Clouds 25 1002 61 10000 4.1 200 13:42 04.10.2019
776 Clouds 25 1002 61 10000 4.1 200 13:20 04.10.2019
777 Clouds 25 1002 65 10000 6.2 200 12:46 04.10.2019
778 Clouds 25 1002 65 10000 6.2 200 12:46 04.10.2019
779 Clouds 26 1001 61 10000 7.2 200 12:28 04.10.2019
780 Clouds 26 1001 57 10000 4.6 200 11:59 04.10.2019
781 Clouds 26 1001 57 10000 4.6 200 11:40 04.10.2019
782 Clouds 26 1001 57 10000 4.6 200 11:40 04.10.2019
783 Clouds 26 1001 57 10000 4.6 200 11:40 04.10.2019
784 Clouds 26 1000 54 10000 6.7 200 11:20 04.10.2019
785 Clouds 27 1000 54 10000 6.7 200 10:40 04.10.2019
786 Clouds 27 1000 58 10000 8.7 200 10:21 04.10.2019
787 Clouds 27 999 54 10000 9.3 210 09:48 04.10.2019
788 Clouds 28 999 78 10000 7.2 190 09:30 04.10.2019
789 Clouds 29 999 62 10000 9.3 200 08:57 04.10.2019
790 Clouds 29 999 69 10000 8.7 200 08:38 04.10.2019
791 Clouds 29 999 69 10000 8.7 200 08:20 04.10.2019
792 Clouds 29 1000 61 10000 9.8 190 07:45 04.10.2019
793 Clouds 29 1000 69 10000 7.7 190 07:22 04.10.2019
794 Clouds 29 1000 58 10000 10.8 180 06:47 04.10.2019
795 Clouds 29 1000 78 10000 9.8 190 06:27 04.10.2019
796 Rain 28 1001 69 10000 11.8 180 05:52 04.10.2019
797 Rain 28 1002 78 10000 8.7 180 05:19 04.10.2019
798 Clouds 25 1003 83 10000 9.3 180 03:50 04.10.2019
799 Rain 24 1004 83 10000 10.8 150 02:54 04.10.2019
800 Rain 24 1004 83 10000 10.8 150 02:54 04.10.2019
801 Rain 23 1005 94 10000 8.2 170 02:18 04.10.2019
802 Rain 23 1006 94 2000 9.3 180 01:42 04.10.2019
803 Rain 23 1006 88 10000 11.8 180 01:23 04.10.2019
804 Rain 23 1007 83 10000 8.2 170 23:59 03.10.2019
805 Rain 23 1007 83 10000 8.2 170 23:37 03.10.2019
806 Rain 23 1006 78 10000 8.7 170 23:18 03.10.2019
807 Rain 24 1007 73 10000 9.3 170 22:57 03.10.2019
808 Rain 24 1007 73 10000 9.3 170 22:38 03.10.2019
809 Rain 24 1007 69 10000 9.8 170 22:38 03.10.2019
810 Rain 24 1007 69 10000 9.8 170 22:20 03.10.2019
811 Clouds 24 1007 69 10000 10.8 170 21:56 03.10.2019
812 Rain 24 1008 65 10000 9.8 170 21:37 03.10.2019
813 Rain 24 1008 65 10000 9.8 170 21:19 03.10.2019
814 Rain 24 1008 69 10000 8.2 170 20:56 03.10.2019
815 Rain 24 1008 69 10000 8.2 160 20:37 03.10.2019
816 Rain 24 1008 69 10000 8.2 160 20:19 03.10.2019
817 Rain 24 1009 69 10000 9.3 160 19:55 03.10.2019
818 Rain 24 1009 69 10000 9.3 160 19:54 03.10.2019
819 Rain 24 1009 69 10000 9.3 160 19:36 03.10.2019
820 Rain 24 1009 69 10000 9.3 160 19:18 03.10.2019
821 Clouds 24 1010 73 10000 7.2 150 18:40 03.10.2019
822 Clouds 24 1010 73 10000 7.2 150 18:19 03.10.2019
823 Clouds 24 1010 69 10000 9.3 160 17:59 03.10.2019
824 Clouds 24 1011 78 10000 4.6 170 17:41 03.10.2019
825 Clouds 24 1011 69 10000 8.7 160 17:20 03.10.2019
826 Clouds 24 1011 69 10000 8.2 160 16:54 03.10.2019
827 Clouds 24 1011 73 10000 9.3 170 16:36 03.10.2019
828 Clouds 25 1011 73 10000 9.3 170 16:18 03.10.2019
829 Rain 24 1012 73 10000 8.7 170 15:41 03.10.2019
830 Clouds 25 1012 73 10000 8.7 170 15:23 03.10.2019
831 Clouds 25 1013 73 10000 7.2 170 14:54 03.10.2019
832 Clouds 25 1012 69 10000 8.2 170 14:36 03.10.2019
833 Clouds 25 1012 69 10000 8.2 170 14:18 03.10.2019
834 Clouds 25 1013 69 10000 7.7 170 13:41 03.10.2019
835 Clouds 25 1013 69 10000 7.2 170 13:19 03.10.2019
836 Clouds 25 1013 69 10000 7.2 160 12:57 03.10.2019
837 Clouds 25 1013 69 10000 7.2 170 12:38 03.10.2019
838 Clouds 25 1013 69 10000 7.2 170 12:19 03.10.2019
839 Clouds 25 1013 69 10000 7.2 170 12:19 03.10.2019
840 Rain 25 1014 69 10000 7.2 170 11:55 03.10.2019
841 Clouds 25 1013 65 10000 7.7 170 11:37 03.10.2019
842 Clouds 25 1013 65 10000 7.7 170 11:18 03.10.2019
843 Rain 25 1013 65 10000 7.2 180 10:41 03.10.2019
844 Rain 26 1013 65 10000 7.2 180 10:19 03.10.2019
845 Drizzle 26 1014 65 10000 7.2 190 09:59 03.10.2019
846 Clouds 26 1013 69 10000 4.6 190 09:40 03.10.2019
847 Clouds 26 1013 69 10000 4.6 190 09:21 03.10.2019
848 Clouds 27 1013 54 10000 6.7 190 08:55 03.10.2019
849 Clouds 27 1013 61 10000 5.1 200 08:36 03.10.2019
850 Clouds 27 1013 61 10000 5.1 200 08:18 03.10.2019
851 Clouds 28 1013 58 10000 5.1 180 07:41 03.10.2019
852 Clouds 28 1013 58 10000 5.1 180 07:19 03.10.2019
853 Clouds 28 1013 58 10000 5.1 180 07:19 03.10.2019
854 Clouds 28 1014 48 10000 7.2 200 06:51 03.10.2019
855 Clouds 28 1014 61 10000 4.6 190 06:25 03.10.2019
856 Clouds 28 1014 58 10000 6.7 190 05:47 03.10.2019
857 Clouds 28 1014 65 10000 3.6 170 05:20 03.10.2019
858 Clouds 28 1015 54 10000 5.7 200 04:39 03.10.2019
859 Clouds 27 1016 69 10000 4.1 150 03:26 03.10.2019
860 Clouds 26 1016 74 10000 3.6 150 02:45 03.10.2019
861 Clouds 26 1016 78 10000 4.1 150 02:19 03.10.2019
862 Clouds 25 1017 73 10000 3.6 160 01:37 03.10.2019
863 Clouds 23 1018 78 10000 4.1 160 00:51 03.10.2019
864 Clouds 22 1017 83 10000 3.6 150 00:28 03.10.2019
865 Clouds 21 1018 83 10000 3.6 150 23:44 02.10.2019
866 Clouds 21 1017 88 10000 3.6 150 23:24 02.10.2019
867 Clouds 21 1017 88 10000 3.6 140 22:57 02.10.2019
868 Fog 21 1017 88 10000 3.6 140 22:38 02.10.2019
869 Fog 21 1017 88 10000 3.6 140 22:18 02.10.2019
870 Fog 21 1017 88 10000 3.6 140 21:55 02.10.2019
871 Fog 21 1017 88 10000 3.6 140 21:54 02.10.2019
872 Fog 21 1017 88 10000 3.6 140 21:54 02.10.2019
873 Fog 21 1017 88 10000 3.6 140 21:36 02.10.2019
874 Fog 21 1017 88 10000 3.6 140 21:18 02.10.2019
875 Clouds 21 1017 88 10000 3.6 150 20:54 02.10.2019
876 Fog 21 1017 88 10000 3.1 150 20:36 02.10.2019
877 Fog 21 1017 88 10000 3.1 150 20:18 02.10.2019
878 Fog 21 1017 88 10000 3.1 150 20:18 02.10.2019
879 Clouds 21 1017 88 10000 3.6 150 19:42 02.10.2019
880 Clouds 22 1017 83 10000 4.6 180 19:21 02.10.2019
881 Clouds 21 1018 83 10000 3.1 170 18:57 02.10.2019
882 Clouds 22 1018 83 10000 3.1 180 18:38 02.10.2019
883 Clouds 21 1018 83 10000 3.1 180 18:20 02.10.2019
884 Clouds 22 1018 73 10000 3.6 180 17:56 02.10.2019
885 Clouds 22 1017 83 10000 3.6 170 17:37 02.10.2019
886 Clouds 22 1017 83 10000 3.6 170 17:19 02.10.2019
887 Clouds 22 1018 78 10000 4.1 180 16:42 02.10.2019
888 Clouds 22 1019 73 10000 4.1 190 16:22 02.10.2019
889 Clouds 22 1019 73 10000 4.1 190 15:59 02.10.2019
890 Clouds 22 1018 78 10000 3.6 180 15:40 02.10.2019
891 Clouds 22 1018 78 10000 3.6 180 15:22 02.10.2019
892 Clouds 22 1018 78 10000 3.6 180 15:22 02.10.2019
893 Clouds 23 1019 73 10000 4.1 190 14:57 02.10.2019
894 Clouds 23 1019 69 10000 4.1 190 14:39 02.10.2019
895 Clouds 23 1019 69 10000 4.1 190 14:39 02.10.2019
896 Clouds 23 1019 69 10000 4.1 170 14:20 02.10.2019
897 Clouds 24 1019 69 10000 5.1 190 13:45 02.10.2019
898 Clouds 24 1019 69 10000 5.1 190 13:25 02.10.2019
899 Clouds 24 1019 69 10000 5.7 190 12:58 02.10.2019
900 Clouds 24 1019 73 10000 5.7 200 12:38 02.10.2019
901 Clouds 24 1019 73 10000 5.7 200 12:20 02.10.2019
902 Clouds 25 1018 69 10000 6.2 200 11:44 02.10.2019
903 Clouds 25 1018 69 10000 6.2 200 11:23 02.10.2019
904 Clouds 26 1018 69 10000 6.7 190 10:42 02.10.2019
905 Clouds 27 1018 69 10000 6.7 190 10:20 02.10.2019
906 Clouds 27 1018 65 10000 6.7 190 09:59 02.10.2019
907 Clear 28 1017 57 10000 2.1 160 09:38 02.10.2019
908 Clear 28 1017 57 10000 2.1 160 09:20 02.10.2019
909 Clouds 29 1018 51 10000 2.1 160 08:45 02.10.2019
910 Clouds 29 1018 51 10000 2.1 160 08:25 02.10.2019
911 Clouds 29 1018 57 10000 1.5 70 07:59 02.10.2019
912 Clouds 29 1018 58 10000 2.6 160 07:39 02.10.2019
913 Clouds 29 1018 65 10000 1.5 70 07:20 02.10.2019
914 Clouds 29 1018 69 10000 3.1 160 06:40 02.10.2019
915 Clouds 29 1019 74 10000 2.1 100 05:56 02.10.2019
916 Clouds 28 1019 78 8000 4.1 140 05:24 02.10.2019
917 Clouds 29 1020 78 10000 2.1 90 04:53 02.10.2019
918 Clouds 27 1021 88 9000 2.6 90 03:52 02.10.2019
919 Clouds 25 1021 78 7000 3.1 50 02:43 02.10.2019
920 Clouds 24 1021 78 7000 3.1 50 02:24 02.10.2019
921 Mist 24 1021 88 10000 1.5 40 01:46 02.10.2019
922 Mist 22 1021 88 7000 1.5 90 00:51 02.10.2019
923 Mist 22 1021 94 3200 1 0 00:27 02.10.2019
924 Fog 20 1022 88 10000 2.1 30 23:45 01.10.2019
925 Fog 20 1022 88 10000 2.1 30 23:26 01.10.2019
926 Fog 20 1023 93 16093 1.37 138.684 22:59 01.10.2019
927 Fog 20 1021 94 10000 2.1 50 22:41 01.10.2019
928 Fog 20 1021 94 10000 2.1 50 22:20 01.10.2019
929 Fog 20 1021 94 10000 2.1 50 21:58 01.10.2019
930 Fog 20 1023 93 8047 3.1 10 21:40 01.10.2019
931 Fog 20 1023 93 8047 3.1 10 21:22 01.10.2019
932 Fog 20 1023 93 12874 2.6 10 20:57 01.10.2019
933 Fog 20 1020 88 10000 3.1 70 20:38 01.10.2019
934 Fog 20 1020 88 10000 3.1 70 20:20 01.10.2019
935 Fog 20 1021 93 4900 1 0 19:56 01.10.2019
936 Fog 21 1020 88 10000 1.5 100 19:38 01.10.2019
937 Fog 21 1021 88 10000 1.5 120 19:19 01.10.2019
938 Fog 21 1021 94 10000 1.5 140 18:41 01.10.2019
939 Fog 21 1021 94 10000 1.5 140 18:22 01.10.2019
940 Fog 21 1021 94 10000 2.1 140 17:59 01.10.2019
941 Fog 22 1021 88 10000 2.1 130 17:40 01.10.2019
942 Fog 22 1021 88 10000 2.1 130 17:20 01.10.2019
943 Fog 22 1021 88 10000 2.1 130 17:20 01.10.2019
944 Fog 22 1021 88 10000 2.6 130 16:58 01.10.2019
945 Fog 22 1021 88 10000 3.1 120 16:40 01.10.2019
946 Fog 22 1021 88 10000 3.1 120 16:21 01.10.2019
947 Fog 22 1021 88 10000 3.1 120 15:47 01.10.2019
948 Fog 23 1021 88 10000 2.6 140 15:24 01.10.2019
949 Fog 23 1021 88 10000 3.6 130 14:56 01.10.2019
950 Fog 23 1021 88 10000 4.6 130 14:37 01.10.2019
951 Fog 23 1021 88 10000 4.6 130 14:19 01.10.2019
952 Fog 23 1021 88 10000 4.6 130 13:55 01.10.2019
953 Fog 23 1021 88 10000 4.6 130 13:55 01.10.2019
954 Fog 23 1021 88 10000 4.6 130 13:55 01.10.2019
955 Fog 23 1021 88 10000 4.6 130 13:55 01.10.2019
956 Clouds 24 1020 83 10000 5.1 130 13:36 01.10.2019
957 Clear 24 1020 83 10000 5.1 130 13:18 01.10.2019
958 Clouds 25 1020 78 10000 5.7 130 12:42 01.10.2019
959 Clouds 25 1020 78 10000 4.1 150 12:21 01.10.2019
960 Clouds 25 1020 78 10000 4.1 150 11:58 01.10.2019
961 Clouds 25 1020 78 10000 5.1 140 11:39 01.10.2019
962 Clouds 26 1020 78 10000 5.1 140 11:19 01.10.2019
963 Clouds 26 1020 78 10000 4.1 110 10:59 01.10.2019
964 Clouds 26 1019 74 10000 3.1 130 10:41 01.10.2019
965 Clouds 27 1019 74 10000 3.1 130 10:23 01.10.2019
966 Clouds 28 1019 65 10000 4.1 140 09:43 01.10.2019
967 Clouds 28 1019 65 10000 4.1 140 09:25 01.10.2019
968 Clouds 29 1019 61 10000 4.1 150 08:43 01.10.2019
969 Clouds 29 1019 61 10000 4.1 150 08:25 01.10.2019
970 Clouds 30 1019 65 10000 2.1 90 07:49 01.10.2019
971 Clouds 30 1018 65 10000 3.6 150 07:26 01.10.2019
972 Clouds 30 1019 65 10000 3.1 160 06:50 01.10.2019
973 Clouds 29 1020 65 10000 3.1 100 06:25 01.10.2019
974 Clouds 29 1020 65 10000 3.6 150 05:46 01.10.2019
975 Clouds 29 1020 65 10000 3.6 150 05:20 01.10.2019
976 Clouds 29 1020 69 10000 3.6 150 04:35 01.10.2019
977 Clear 27 1021 61 10000 2.6 40 03:32 01.10.2019
978 Clear 26 1021 61 10000 2.1 40 02:19 01.10.2019
979 Clouds 25 1020 73 10000 3.6 40 01:41 01.10.2019
980 Clouds 23 1020 78 10000 3.1 30 00:42 01.10.2019
981 Clear 22 1020 73 10000 3.6 10 00:24 01.10.2019
982 Clear 21 1020 73 10000 3.6 20 23:42 30.09.2019
983 Clear 21 1020 73 10000 3.6 20 23:22 30.09.2019
984 Clear 21 1019 73 10000 3.1 10 22:55 30.09.2019
985 Clear 21 1019 73 10000 3.1 10 22:37 30.09.2019
986 Clear 22 1019 73 10000 3.1 10 22:19 30.09.2019
987 -273 0 0 0 0 0 21:55 30.09.2019
988 Clear 22 1018 73 10000 3.1 40 21:36 30.09.2019
989 Clear 22 1019 78 10000 3.1 40 21:18 30.09.2019
990 Clear 21 1019 78 10000 3.1 40 20:54 30.09.2019
991 Clear 22 1018 78 10000 2.6 50 20:36 30.09.2019
992 Clear 22 1018 78 10000 3.1 50 20:18 30.09.2019
993 Clear 22 1018 83 10000 2.6 40 19:42 30.09.2019
994 Clear 22 1018 83 10000 2.6 40 19:20 30.09.2019
995 Clear 22 1018 78 10000 2.6 50 18:59 30.09.2019
996 Clear 22 1018 78 10000 2.1 40 18:41 30.09.2019
997 Clear 23 1018 78 10000 2.1 40 18:20 30.09.2019
998 Clear 23 1018 78 10000 3.1 40 17:56 30.09.2019
999 Clear 23 1018 78 10000 3.1 40 17:38 30.09.2019
1000 Clear 23 1018 78 10000 3.1 40 17:19 30.09.2019
1001 Clear 23 1018 78 10000 3.6 40 16:54 30.09.2019
1002 Clear 23 1018 73 10000 3.6 50 16:36 30.09.2019
1003 Clear 23 1018 73 10000 3.6 50 16:18 30.09.2019
1004 Rain 24 1018 69 10000 3.6 60 15:39 30.09.2019
1005 Rain 23 1018 69 10000 3.6 60 15:20 30.09.2019
1006 Rain 24 1018 73 10000 3.6 40 14:58 30.09.2019
1007 Clear 24 1018 69 10000 2.6 50 14:38 30.09.2019
1008 Clear 24 1018 69 10000 2.6 50 14:19 30.09.2019
1009 -273 0 0 0 0 0 13:59 30.09.2019
1010 Clear 24 1018 73 10000 2.6 70 13:41 30.09.2019
1011 Clear 24 1018 73 10000 2.6 70 13:22 30.09.2019
1012 Clouds 25 1018 65 10000 3.1 100 12:56 30.09.2019
1013 Clear 25 1017 69 10000 3.6 110 12:38 30.09.2019
1014 Clouds 25 1017 73 10000 3.1 120 12:18 30.09.2019
1015 Clouds 25 1016 73 10000 4.1 110 11:43 30.09.2019
1016 Clouds 26 1016 73 10000 4.1 110 11:21 30.09.2019
1017 Clouds 26 1017 73 10000 4.1 110 10:58 30.09.2019
1018 Clouds 26 1016 78 10000 4.1 110 10:38 30.09.2019
1019 -273 0 0 0 0 0 10:18 30.09.2019
1020 Clouds 27 1016 78 10000 3.6 100 09:58 30.09.2019
1021 Clouds 27 1015 65 10000 5.7 120 09:39 30.09.2019
1022 Clouds 28 1015 65 10000 5.7 120 09:19 30.09.2019
1023 Clouds 28 1016 69 10000 3.6 70 08:46 30.09.2019
1024 Clouds 29 1015 51 10000 4.6 110 08:27 30.09.2019
1025 Clouds 29 1015 58 10000 4.6 110 07:44 30.09.2019
1026 Clouds 29 1015 58 10000 4.6 110 07:44 30.09.2019
1027 Clouds 29 1015 58 10000 4.6 110 07:25 30.09.2019
1028 Clouds 29 1016 69 10000 2.6 90 06:50 30.09.2019
1029 Clouds 29 1015 51 10000 4.6 90 06:31 30.09.2019
1030 Clouds 29 1015 58 10000 5.1 70 05:45 30.09.2019
1031 Clouds 27 1017 78 10000 2.6 70 02:55 30.09.2019
1032 Clouds 27 1016 74 10000 3.1 50 02:37 30.09.2019
1033 Clouds 25 1016 83 10000 3.6 40 01:33 30.09.2019
1034 Clouds 25 1015 94 10000 4.6 40 00:42 30.09.2019
1035 Clouds 24 1015 94 10000 4.6 40 00:21 30.09.2019
1036 Clouds 23 1015 88 10000 4.6 10 23:44 29.09.2019
1037 Clouds 23 1015 88 10000 4.6 10 23:22 29.09.2019
1038 -273 0 0 0 0 0 22:55 29.09.2019
1039 Clouds 23 1014 83 10000 4.6 360 22:37 29.09.2019
1040 Clouds 23 1014 83 10000 4.6 360 22:19 29.09.2019
1041 Clouds 23 1014 83 10000 4.6 10 21:56 29.09.2019
1042 Clouds 23 1014 88 10000 4.1 20 21:37 29.09.2019
1043 Clouds 23 1014 88 10000 4.1 20 21:18 29.09.2019
1044 Clouds 23 1014 94 10000 1 0 20:44 29.09.2019
1045 Clouds 23 1013 94 10000 1.5 350 20:20 29.09.2019
1046 Clouds 23 1013 94 10000 1.5 350 19:58 29.09.2019
1047 Clouds 24 1014 88 10000 1 10 19:37 29.09.2019
1048 Clouds 24 1014 88 10000 1 10 19:19 29.09.2019
1049 Clouds 24 1014 88 10000 0.5 30 18:56 29.09.2019
1050 Clouds 24 1014 88 10000 0.5 30 18:56 29.09.2019
1051 Clouds 24 1014 88 10000 0.5 30 18:56 29.09.2019
1052 Clouds 24 1014 88 10000 0.5 0 18:38 29.09.2019
1053 Clouds 24 1014 88 10000 0.5 0 18:19 29.09.2019
1054 Clouds 24 1014 88 10000 1 180 17:58 29.09.2019
1055 Clouds 24 1014 88 10000 2.1 190 17:38 29.09.2019
1056 Clouds 24 1014 88 10000 3.1 190 17:19 29.09.2019
1057 Clouds 24 1014 88 10000 3.1 190 16:58 29.09.2019
1058 Rain 24 1014 88 10000 2.1 200 16:40 29.09.2019
1059 Rain 24 1014 88 10000 2.6 180 16:19 29.09.2019
1060 Rain 24 1014 88 10000 2.6 180 15:57 29.09.2019
1061 Clouds 24 1014 88 10000 2.6 200 15:36 29.09.2019
1062 Clouds 25 1014 88 10000 2.6 200 15:18 29.09.2019
1063 Rain 25 1014 88 10000 3.1 180 14:55 29.09.2019
1064 Clouds 25 1014 88 10000 3.1 180 14:36 29.09.2019
1065 Clouds 25 1014 88 10000 3.1 180 14:18 29.09.2019
1066 Clouds 25 1014 83 10000 3.1 190 13:42 29.09.2019
1067 Clouds 25 1015 88 10000 4.6 180 13:19 29.09.2019
1068 Clouds 25 1014 83 10000 4.6 180 12:58 29.09.2019
1069 Clouds 25 1014 83 10000 4.6 180 12:40 29.09.2019
1070 Clouds 25 1014 83 10000 4.6 180 12:21 29.09.2019
1071 Clouds 25 1014 88 10000 4.6 200 11:58 29.09.2019
1072 Clouds 25 1013 78 10000 5.1 200 11:40 29.09.2019
1073 Clouds 25 1013 78 10000 5.1 200 11:19 29.09.2019
1074 Clouds 25 1016 83 16093 3.1 180 10:57 29.09.2019
1075 Clouds 25 1016 83 16093 3.1 180 10:57 29.09.2019
1076 Clouds 26 1015 78 16093 3.6 200 10:37 29.09.2019
1077 Clouds 26 1015 78 16093 3.6 200 10:19 29.09.2019
1078 Clouds 27 1013 74 10000 6.2 190 09:55 29.09.2019
1079 Clouds 27 1013 83 10000 4.1 190 09:37 29.09.2019
1080 Clouds 27 1013 74 10000 5.1 160 09:18 29.09.2019
1081 Clouds 27 1013 83 10000 4.6 150 08:42 29.09.2019
1082 Clouds 27 1014 78 10000 4.6 160 08:21 29.09.2019
1083 Rain 28 1013 88 10000 6.2 150 07:43 29.09.2019
1084 Rain 28 1013 88 10000 6.2 150 07:25 29.09.2019
1085 Rain 27 1014 83 10000 4.6 150 06:46 29.09.2019
1086 Rain 27 1015 78 10000 4.1 150 05:55 29.09.2019
1087 Rain 27 1015 78 10000 4.1 150 05:54 29.09.2019
1088 Clouds 27 1016 88 10000 3.6 150 04:42 29.09.2019
1089 Clouds 26 1016 88 10000 3.6 150 04:23 29.09.2019
1090 Rain 25 1017 83 10000 2.1 240 02:58 29.09.2019
1091 Rain 25 1016 94 10000 1.5 180 02:19 29.09.2019
1092 Rain 24 1017 88 10000 4.1 170 01:40 29.09.2019
1093 Rain 23 1017 88 10000 5.1 190 00:55 29.09.2019
1094 Rain 23 1017 88 10000 4.6 180 00:36 29.09.2019
1095 Rain 23 1017 88 10000 3.6 170 00:18 29.09.2019
1096 Rain 22 1017 88 10000 3.1 180 23:37 28.09.2019
1097 Rain 22 1018 88 10000 2.6 160 23:19 28.09.2019
1098 Rain 23 1017 88 10000 2.6 170 22:40 28.09.2019
1099 Rain 23 1017 88 10000 2.6 170 22:21 28.09.2019
1100 Rain 23 1018 68 14484 1.5 300 21:58 28.09.2019
1101 Rain 23 1018 88 10000 2.6 170 21:40 28.09.2019
1102 Rain 23 1018 88 10000 2.6 170 21:21 28.09.2019
1103 Rain 23 1018 83 10000 2.6 180 20:57 28.09.2019
1104 Clouds 23 1018 83 10000 3.1 170 20:39 28.09.2019
1105 Clouds 23 1018 83 10000 3.1 170 20:20 28.09.2019
1106 Clouds 23 1018 83 10000 2.6 170 19:57 28.09.2019
1107 Clouds 23 1018 83 10000 3.1 160 19:38 28.09.2019
1108 Clouds 23 1019 83 10000 4.1 160 19:20 28.09.2019
1109 Clouds 23 1019 83 10000 4.1 160 18:57 28.09.2019
1110 Clouds 23 1019 83 10000 3.6 160 18:39 28.09.2019
1111 Clouds 24 1019 78 10000 4.1 170 18:20 28.09.2019
1112 Clouds 24 1019 78 10000 4.1 170 17:56 28.09.2019
1113 Clouds 24 1019 78 10000 3.6 160 17:37 28.09.2019
1114 Clouds 24 1020 73 10000 4.1 160 17:19 28.09.2019
1115 Clouds 24 1019 73 10000 4.1 170 16:43 28.09.2019
1116 Clouds 24 1019 73 10000 4.1 170 16:25 28.09.2019
1117 Clouds 24 1020 73 10000 5.1 180 15:42 28.09.2019
1118 Clouds 24 1020 73 10000 5.1 180 15:23 28.09.2019
1119 Clouds 24 1020 73 10000 5.1 180 15:23 28.09.2019
1120 Clouds 24 1021 73 10000 5.1 180 14:58 28.09.2019
1121 Clouds 24 1021 73 10000 5.7 180 14:39 28.09.2019
1122 Clouds 24 1021 73 10000 5.7 180 14:21 28.09.2019
1123 Clouds 24 1021 73 10000 5.7 170 13:57 28.09.2019
1124 Clouds 24 1020 73 10000 5.7 170 13:38 28.09.2019
1125 Clouds 24 1021 73 10000 5.1 170 13:20 28.09.2019
1126 Clouds 24 1020 78 10000 4.6 180 12:45 28.09.2019
1127 Clouds 24 1020 78 10000 4.6 180 12:20 28.09.2019
1128 Clouds 24 1021 73 10000 4.1 190 11:59 28.09.2019
1129 Clouds 25 1020 65 10000 6.2 190 11:39 28.09.2019
1130 Clouds 25 1020 65 10000 6.2 190 11:18 28.09.2019
1131 Clouds 25 1020 65 10000 5.7 190 10:43 28.09.2019
1132 Clouds 26 1020 65 10000 5.7 190 10:21 28.09.2019
1133 Clouds 26 1020 61 10000 5.7 190 09:58 28.09.2019
1134 Clouds 26 1020 73 10000 2.6 180 09:40 28.09.2019
1135 Clouds 26 1020 57 10000 4.6 200 09:18 28.09.2019
1136 Clouds 27 1020 69 10000 3.6 200 08:46 28.09.2019
1137 Clouds 27 1020 69 10000 3.6 200 08:28 28.09.2019
1138 Clouds 27 1021 65 10000 4.6 200 07:46 28.09.2019
1139 Clouds 27 1021 65 10000 4.6 200 07:24 28.09.2019
1140 Clouds 27 1022 61 10000 6.2 200 06:56 28.09.2019
1141 Clouds 28 1021 61 10000 5.1 190 06:33 28.09.2019
1142 Clouds 28 1022 54 10000 6.2 200 05:59 28.09.2019
1143 Clouds 28 1022 61 10000 3.6 210 05:24 28.09.2019
1144 Clouds 28 1023 58 10000 6.7 200 04:44 28.09.2019
1145 Clouds 28 1023 69 10000 4.1 170 04:21 28.09.2019
1146 Clouds 27 1023 78 10000 3.6 130 03:33 28.09.2019
1147 Clouds 26 1024 65 10000 3.6 180 02:57 28.09.2019
1148 Clouds 26 1024 78 10000 3.1 130 02:36 28.09.2019
1149 Clouds 25 1024 78 10000 2.1 150 01:56 28.09.2019
1150 Clouds 24 1024 78 10000 2.6 170 01:38 28.09.2019
1151 Clouds 24 1024 78 10000 1 0 01:18 28.09.2019
1152 Clouds 23 1024 83 10000 1 0 00:43 28.09.2019
1153 Clouds 22 1024 88 10000 1.5 270 00:25 28.09.2019
1154 Clouds 20 1024 83 10000 1.5 230 23:38 27.09.2019
1155 Clouds 20 1024 83 10000 1.5 230 23:20 27.09.2019
1156 Clouds 20 1024 88 10000 1.5 220 22:47 27.09.2019
1157 Clouds 20 1023 88 10000 1 0 22:21 27.09.2019
1158 Clouds 20 1024 88 10000 1 0 21:59 27.09.2019
1159 Clouds 20 1023 88 10000 2.6 160 21:40 27.09.2019
1160 Clouds 20 1024 83 10000 1.5 150 21:20 27.09.2019
1161 Clouds 20 1024 83 10000 1.5 150 21:20 27.09.2019
1162 Clouds 20 1024 83 10000 1.5 150 20:58 27.09.2019
1163 Clouds 20 1024 83 10000 1.5 150 20:58 27.09.2019
1164 Clouds 20 1023 83 10000 2.1 150 20:40 27.09.2019
1165 Clouds 20 1023 83 10000 2.1 150 20:19 27.09.2019
1166 Clouds 20 1023 83 10000 2.1 150 20:19 27.09.2019
1167 Clouds 21 1024 83 10000 1.5 150 19:57 27.09.2019
1168 Clouds 20 1024 88 10000 2.6 160 19:39 27.09.2019
1169 Clouds 20 1024 88 10000 2.6 160 19:20 27.09.2019
1170 Clouds 21 1024 73 10000 3.6 180 18:42 27.09.2019
1171 Clouds 21 1024 73 10000 3.6 180 18:24 27.09.2019
1172 Clouds 21 1025 73 10000 3.6 180 17:56 27.09.2019
1173 Clouds 21 1025 73 10000 3.6 180 17:38 27.09.2019
1174 Clouds 21 1025 73 10000 3.6 180 17:20 27.09.2019
1175 Clouds 21 1025 73 10000 3.6 180 17:20 27.09.2019
1176 Clear 21 1025 73 10000 3.6 180 16:57 27.09.2019
1177 Clouds 22 1025 78 10000 3.6 180 16:38 27.09.2019
1178 Clouds 22 1026 78 10000 3.6 180 16:18 27.09.2019
1179 Clouds 22 1026 78 10000 3.6 180 15:47 27.09.2019
1180 Clouds 22 1026 78 10000 3.6 190 15:21 27.09.2019
1181 Clouds 22 1026 83 10000 3.6 160 14:59 27.09.2019
1182 Clouds 22 1026 78 10000 4.1 160 14:41 27.09.2019
1183 Clouds 23 1026 78 10000 4.1 160 14:22 27.09.2019
1184 Clouds 23 1026 78 10000 4.6 160 13:58 27.09.2019
1185 Clouds 23 1026 78 10000 4.6 150 13:40 27.09.2019
1186 Clouds 23 1026 78 10000 4.6 150 13:21 27.09.2019
1187 Clouds 24 1026 73 10000 5.1 150 12:56 27.09.2019
1188 Clouds 24 1025 73 10000 6.2 190 12:37 27.09.2019
1189 Clouds 24 1025 73 10000 5.7 190 12:18 27.09.2019
1190 Clouds 24 1025 69 10000 5.1 190 11:39 27.09.2019
1191 Clouds 24 1025 69 10000 5.1 190 11:39 27.09.2019
1192 Clouds 25 1025 73 10000 4.6 190 11:20 27.09.2019
1193 Clouds 25 1025 73 10000 4.6 190 10:55 27.09.2019
1194 Clouds 25 1024 69 10000 4.1 180 10:37 27.09.2019
1195 Clouds 26 1024 65 10000 4.6 180 10:18 27.09.2019
1196 Clouds 26 1024 69 10000 2.6 150 09:41 27.09.2019
1197 Clouds 26 1024 69 10000 2.6 150 09:20 27.09.2019
1198 Clouds 27 1024 69 10000 2.6 160 08:55 27.09.2019
1199 Clouds 27 1024 65 10000 2.1 160 08:37 27.09.2019
1200 Clouds 27 1024 65 10000 2.1 160 08:19 27.09.2019
1201 Clouds 27 1025 65 10000 1.5 160 07:45 27.09.2019
1202 Clouds 27 1025 65 10000 1.5 160 07:21 27.09.2019
1203 Clouds 28 1025 65 10000 2.6 150 06:41 27.09.2019
1204 Clouds 28 1025 65 10000 2.6 150 06:22 27.09.2019
1205 Clouds 27 1026 69 10000 2.6 150 05:49 27.09.2019
1206 Clouds 27 1026 69 10000 2.6 150 05:30 27.09.2019
1207 Clouds 26 1027 78 10000 2.6 80 03:54 27.09.2019
1208 Clouds 24 1027 73 10000 1 0 01:59 27.09.2019
1209 Clouds 24 1027 78 10000 2.1 60 01:36 27.09.2019
1210 Clouds 23 1028 78 10000 2.1 40 00:55 27.09.2019
1211 Clouds 21 1027 88 10000 1.5 350 00:19 27.09.2019
1212 Clouds 20 1027 77 10000 2.1 40 23:55 26.09.2019
1213 Clouds 20 1027 77 10000 2.1 40 23:55 26.09.2019
1214 Clouds 19 1027 77 10000 2.1 40 23:37 26.09.2019
1215 Clouds 19 1027 83 10000 2.6 70 23:18 26.09.2019
1216 -273 0 0 0 0 0 22:55 26.09.2019
1217 Clouds 19 1027 83 10000 3.1 50 22:37 26.09.2019
1218 Clouds 19 1027 83 10000 3.1 50 22:18 26.09.2019
1219 Clouds 19 1027 77 10000 3.6 40 22:18 26.09.2019
1220 Clouds 19 1026 83 10000 3.1 40 21:55 26.09.2019
1221 Clouds 19 1026 83 10000 3.1 40 21:36 26.09.2019
1222 Clouds 20 1026 77 10000 2.6 20 21:18 26.09.2019
1223 Clouds 20 1026 83 10000 3.1 40 21:18 26.09.2019
1224 Clouds 20 1026 77 10000 2.6 20 21:18 26.09.2019
1225 Clouds 20 1026 77 10000 2.6 20 20:55 26.09.2019
1226 Clouds 20 1027 83 10000 3.1 10 20:37 26.09.2019
1227 Clouds 20 1027 83 10000 3.1 10 20:37 26.09.2019
1228 Clouds 20 1027 77 10000 3.6 20 20:19 26.09.2019
1229 Clouds 20 1027 83 10000 3.1 10 20:19 26.09.2019
1230 Clouds 20 1026 83 10000 4.1 20 19:40 26.09.2019
1231 Clouds 20 1027 77 10000 3.6 20 19:19 26.09.2019
1232 Clouds 20 1027 77 10000 3.6 20 18:58 26.09.2019
1233 Clouds 20 1027 77 10000 3.6 20 18:58 26.09.2019
1234 Clouds 20 1027 83 10000 3.1 30 18:39 26.09.2019
1235 Clouds 21 1027 83 10000 3.1 30 18:39 26.09.2019
1236 Clouds 21 1027 83 10000 3.1 30 18:21 26.09.2019
1237 Clouds 21 1029 77 16093 2.57 137.352 17:54 26.09.2019
1238 Clouds 21 1027 83 10000 2.6 70 17:36 26.09.2019
1239 Clouds 21 1027 83 10000 2.6 80 17:18 26.09.2019
1240 Clouds 21 1029 77 16093 1.5 150 16:39 26.09.2019
1241 Clouds 22 1029 77 16093 1.5 150 16:20 26.09.2019
1242 Clouds 22 1029 77 16093 1.5 170 15:58 26.09.2019
1243 Clouds 22 1028 83 10000 3.6 90 15:38 26.09.2019
1244 Clouds 22 1028 83 10000 3.6 90 15:19 26.09.2019
1245 Clouds 22 1029 78 16093 2.6 180 14:57 26.09.2019
1246 Clouds 22 1029 78 16093 2.6 180 14:57 26.09.2019
1247 Clouds 22 1027 83 10000 4.6 90 14:37 26.09.2019
1248 Clouds 22 1027 83 10000 4.6 90 14:37 26.09.2019
1249 Clouds 22 1027 83 10000 4.6 90 14:19 26.09.2019
1250 Clouds 22 1027 78 10000 5.7 90 13:41 26.09.2019
1251 Clouds 22 1027 78 10000 5.7 90 13:41 26.09.2019
1252 Clouds 23 1027 78 10000 5.7 90 13:20 26.09.2019
1253 Clouds 22 1027 78 10000 5.7 90 13:20 26.09.2019
1254 Clouds 23 1027 78 10000 5.7 90 13:20 26.09.2019
1255 Clouds 23 1027 78 10000 5.7 90 12:59 26.09.2019
1256 Clouds 23 1027 78 10000 5.1 100 12:41 26.09.2019
1257 Clouds 23 1027 78 10000 5.1 100 12:41 26.09.2019
1258 Clouds 23 1026 78 10000 6.2 100 12:20 26.09.2019
1259 Clouds 24 1026 83 10000 6.2 110 11:42 26.09.2019
1260 Clouds 24 1026 83 10000 6.2 110 11:23 26.09.2019
1261 Clouds 25 1026 73 10000 6.2 120 10:57 26.09.2019
1262 Clouds 25 1026 73 10000 6.2 120 10:57 26.09.2019
1263 Clouds 24 1025 73 10000 5.7 110 10:39 26.09.2019
1264 Clouds 25 1025 69 10000 5.1 100 10:20 26.09.2019
1265 Clouds 26 1025 69 10000 5.1 110 09:45 26.09.2019
1266 Clouds 26 1025 69 10000 5.1 110 09:26 26.09.2019
1267 Clouds 27 1025 69 10000 4.6 100 08:59 26.09.2019
1268 Clouds 27 1025 65 10000 5.1 130 08:41 26.09.2019
1269 Clouds 27 1025 65 10000 5.1 130 08:23 26.09.2019
1270 Clouds 26 1024 61 10000 5.7 130 07:44 26.09.2019
1271 Clouds 26 1024 61 10000 5.7 130 07:22 26.09.2019
1272 Clouds 26 1025 65 10000 4.1 100 06:50 26.09.2019
1273 Clouds 26 1024 65 10000 5.1 130 06:28 26.09.2019
1274 Clouds 26 1025 61 10000 3.1 130 05:51 26.09.2019
1275 Clouds 26 1025 61 10000 3.1 130 05:25 26.09.2019
1276 Clouds 24 1026 69 10000 2.1 30 03:27 26.09.2019
1277 Clouds 23 1029 77 16093 2.6 30 01:56 26.09.2019
1278 Clouds 22 1026 73 10000 4.1 40 01:38 26.09.2019
1279 Clouds 22 1028 72 16093 2.6 20 01:19 26.09.2019
1280 Clouds 21 1026 78 10000 3.6 40 00:41 26.09.2019
1281 Clouds 21 1026 78 10000 3.6 40 00:21 26.09.2019
1282 Clouds 20 1025 83 10000 4.6 20 23:43 25.09.2019
1283 Clouds 20 1025 83 10000 4.6 20 23:19 25.09.2019
1284 Clouds 20 1025 78 10000 4.6 50 22:54 25.09.2019
1285 Clouds 20 1024 78 10000 4.6 50 22:36 25.09.2019
1286 Clouds 20 1024 78 10000 4.6 50 22:18 25.09.2019
1287 Clouds 20 1024 78 10000 4.6 50 21:55 25.09.2019
1288 Clouds 20 1024 78 10000 4.6 60 21:36 25.09.2019
1289 Clouds 20 1024 78 10000 4.6 50 21:18 25.09.2019
1290 Clouds 20 1024 78 10000 4.6 50 20:55 25.09.2019
1291 Clouds 21 1023 83 10000 4.6 50 20:37 25.09.2019
1292 Clouds 21 1023 83 10000 4.6 50 20:18 25.09.2019
1293 Clouds 21 1023 83 10000 4.6 50 19:39 25.09.2019
1294 Clouds 21 1023 83 10000 5.1 40 19:20 25.09.2019
1295 Clouds 21 1023 83 10000 5.1 40 18:56 25.09.2019
1296 Clouds 21 1023 78 10000 5.7 60 18:38 25.09.2019
1297 Clouds 21 1023 78 10000 5.7 60 18:19 25.09.2019
1298 Clouds 21 1023 78 10000 5.7 60 17:40 25.09.2019
1299 Clouds 21 1023 78 10000 5.7 60 17:21 25.09.2019
1300 Clouds 22 1023 73 10000 4.1 70 16:58 25.09.2019
1301 Clouds 22 1023 73 10000 2.6 100 16:40 25.09.2019
1302 Clouds 22 1023 73 10000 2.6 100 16:22 25.09.2019
1303 Clouds 22 1022 73 10000 2.1 130 15:56 25.09.2019
1304 Clouds 22 1022 69 10000 2.1 170 15:38 25.09.2019
1305 Clouds 22 1022 69 10000 2.1 170 15:19 25.09.2019
1306 Clouds 23 1022 69 10000 3.1 140 14:42 25.09.2019
1307 Clouds 23 1022 69 10000 3.1 140 14:22 25.09.2019
1308 Clouds 23 1022 64 10000 2.6 170 13:58 25.09.2019
1309 Clouds 23 1021 60 10000 3.6 160 13:39 25.09.2019
1310 Clouds 23 1021 60 10000 3.6 160 13:20 25.09.2019
1311 Clouds 24 1021 69 10000 4.6 160 12:56 25.09.2019
1312 Clouds 24 1020 69 10000 4.1 130 12:37 25.09.2019
1313 Clouds 24 1021 64 10000 4.6 130 12:18 25.09.2019
1314 Clouds 24 1020 64 10000 5.1 140 11:40 25.09.2019
1315 Clouds 24 1020 64 10000 5.1 140 11:40 25.09.2019
1316 Clouds 25 1019 65 10000 5.1 130 11:20 25.09.2019
1317 Clouds 26 1019 65 10000 5.1 130 10:47 25.09.2019
1318 Clouds 26 1019 69 10000 5.1 130 10:27 25.09.2019
1319 Clouds 26 1019 69 10000 5.1 130 10:27 25.09.2019
1320 Clouds 27 1019 65 10000 5.1 130 09:59 25.09.2019
1321 Clouds 27 1019 65 10000 5.1 130 09:59 25.09.2019
1322 Clouds 27 1019 65 10000 5.1 130 09:59 25.09.2019
1323 Clouds 27 1018 69 10000 5.1 140 09:41 25.09.2019
1324 Clouds 28 1018 69 10000 5.1 140 09:23 25.09.2019
1325 Clouds 28 1019 65 10000 3.1 90 08:57 25.09.2019
1326 Clouds 28 1018 65 10000 5.1 130 08:39 25.09.2019
1327 Clouds 29 1019 69 10000 3.6 90 08:19 25.09.2019
1328 Clouds 29 1018 65 10000 5.1 130 07:40 25.09.2019
1329 Clouds 29 1018 65 10000 5.1 130 07:22 25.09.2019
1330 Rain 29 1018 69 10000 3.1 90 06:55 25.09.2019
1331 Rain 28 1018 65 10000 4.1 150 06:34 25.09.2019
1332 Clouds 28 1018 65 10000 4.6 130 05:43 25.09.2019
1333 Clouds 27 1018 65 10000 4.6 130 05:19 25.09.2019
1334 Clouds 26 1019 73 10000 5.1 70 02:50 25.09.2019
1335 Clouds 24 1019 78 10000 5.1 30 01:36 25.09.2019
1336 Clouds 24 1018 78 10000 4.1 50 00:41 25.09.2019
1337 Clouds 23 1017 83 10000 4.6 30 00:22 25.09.2019
1338 Clouds 23 1017 83 10000 5.1 30 23:43 24.09.2019
1339 Clouds 22 1017 83 10000 5.1 30 23:22 24.09.2019
1340 Clouds 23 1017 88 10000 4.1 20 22:58 24.09.2019
1341 Clouds 22 1017 88 10000 4.6 50 22:38 24.09.2019
1342 Clouds 23 1016 83 10000 5.1 50 22:19 24.09.2019
1343 Clouds 23 1016 83 10000 5.1 50 22:19 24.09.2019
1344 Clouds 23 1016 83 10000 5.1 50 21:55 24.09.2019
1345 Clouds 23 1016 83 10000 5.1 50 21:55 24.09.2019
1346 Rain 23 1016 78 10000 4.1 40 21:37 24.09.2019
1347 Rain 23 1016 78 10000 4.1 40 21:18 24.09.2019
1348 Rain 23 1016 78 10000 4.1 20 20:56 24.09.2019
1349 Rain 23 1015 83 10000 5.1 10 20:38 24.09.2019
1350 Rain 23 1015 83 10000 5.1 10 20:19 24.09.2019
1351 Rain 23 1015 83 10000 4.6 10 19:43 24.09.2019
1352 Rain 23 1017 88 16093 3.1 30 19:21 24.09.2019
1353 Rain 23 1017 88 16093 3.1 30 18:58 24.09.2019
1354 Rain 23 1014 83 10000 4.1 20 18:39 24.09.2019
1355 Rain 23 1014 83 10000 4.1 20 18:21 24.09.2019
1356 Rain 23 1015 78 10000 4.1 40 17:57 24.09.2019
1357 Clouds 23 1014 83 10000 4.6 40 17:38 24.09.2019
1358 Clouds 23 1014 83 10000 4.6 40 17:38 24.09.2019
1359 Clouds 23 1014 83 10000 6.2 50 17:20 24.09.2019
1360 Clouds 23 1014 83 10000 6.2 50 16:55 24.09.2019
1361 Clouds 23 1014 88 10000 5.1 40 16:37 24.09.2019
1362 Clouds 23 1014 88 10000 5.1 40 16:18 24.09.2019
1363 Clouds 23 1013 88 10000 6.7 40 15:41 24.09.2019
1364 Clouds 23 1013 88 10000 6.7 40 15:23 24.09.2019
1365 Clouds 24 1013 88 10000 6.7 40 14:43 24.09.2019
1366 Clouds 24 1013 88 10000 6.7 40 14:20 24.09.2019
1367 Clouds 24 1013 88 10000 5.1 80 13:55 24.09.2019
1368 Clouds 24 1012 88 10000 7.2 60 13:37 24.09.2019
1369 Clouds 25 1012 74 10000 3.6 200 13:19 24.09.2019
1370 Clouds 25 1011 69 10000 3.6 180 12:39 24.09.2019
1371 Clouds 25 1011 69 10000 3.6 180 12:20 24.09.2019
1372 Clouds 25 1011 69 10000 4.6 200 11:43 24.09.2019
1373 Clouds 25 1011 69 10000 4.6 200 11:22 24.09.2019
1374 Clouds 26 1011 69 10000 4.1 180 10:59 24.09.2019
1375 Clouds 26 1011 69 10000 3.1 180 10:39 24.09.2019
1376 Clouds 26 1011 69 10000 3.1 180 10:21 24.09.2019
1377 Rain 27 1010 78 10000 3.1 170 09:46 24.09.2019
1378 Rain 27 1010 78 10000 2.1 190 09:28 24.09.2019
1379 Rain 27 1010 69 10000 5.7 190 08:58 24.09.2019
1380 Rain 27 1010 94 8000 3.6 170 08:40 24.09.2019
1381 Rain 27 1010 94 8000 3.6 170 08:40 24.09.2019
1382 Rain 27 1010 94 8000 3.6 170 08:22 24.09.2019
1383 Rain 28 1010 62 10000 6.2 190 07:58 24.09.2019
1384 Clouds 29 1009 74 10000 4.1 180 07:39 24.09.2019
1385 Clouds 29 1010 62 10000 5.7 180 07:21 24.09.2019
1386 Rain 29 1010 69 10000 5.7 160 06:37 24.09.2019
1387 Rain 30 1011 66 10000 4.1 150 06:19 24.09.2019
1388 Rain 29 1010 74 10000 2.1 150 05:21 24.09.2019
1389 Clouds 29 1011 54 10000 1.5 340 03:46 24.09.2019
1390 Clouds 29 1011 54 10000 1.5 340 03:25 24.09.2019
1391 Clouds 29 1011 54 10000 1.5 350 02:44 24.09.2019
1392 Clouds 28 1011 58 10000 2.1 10 01:41 24.09.2019
1393 Clouds 27 1010 57 10000 1.5 340 00:41 24.09.2019
1394 Clouds 26 1011 69 10000 2.1 320 00:22 24.09.2019
1395 Clouds 25 1010 65 10000 1.5 280 23:43 23.09.2019
1396 Fog 24 1010 65 10000 2.6 270 23:23 23.09.2019
1397 Clouds 24 1009 69 10000 2.6 260 22:41 23.09.2019
1398 Clouds 24 1009 69 10000 2.6 260 22:22 23.09.2019
1399 Clouds 24 1008 65 10000 4.1 270 21:59 23.09.2019
1400 Clouds 24 1008 69 10000 4.1 260 21:41 23.09.2019
1401 Clouds 24 1008 69 10000 4.1 260 21:41 23.09.2019
1402 Clouds 25 1008 69 10000 4.1 260 21:22 23.09.2019
1403 Clouds 25 1008 78 10000 5.1 250 20:59 23.09.2019
1404 Clouds 25 1007 78 10000 5.7 230 20:40 23.09.2019
1405 Clouds 25 1007 78 10000 5.7 230 20:19 23.09.2019
1406 Clouds 26 1007 74 10000 5.1 230 19:55 23.09.2019
1407 Clouds 26 1007 74 10000 5.1 230 19:55 23.09.2019
1408 Clouds 26 1007 74 10000 5.1 230 19:36 23.09.2019
1409 Clouds 26 1007 74 10000 7.2 210 19:18 23.09.2019
1410 Clouds 26 1006 74 10000 10.3 220 18:42 23.09.2019
1411 Clouds 26 1006 74 10000 10.3 220 18:19 23.09.2019
1412 Clouds 26 1006 74 10000 10.3 220 18:19 23.09.2019
1413 Clouds 26 1006 74 10000 10.3 220 17:58 23.09.2019
1414 Clouds 26 1006 69 10000 7.7 220 17:39 23.09.2019
1415 Clouds 27 1006 69 10000 10.8 210 17:20 23.09.2019
1416 Clouds 27 1006 69 10000 10.8 210 16:57 23.09.2019
1417 Clouds 27 1006 69 10000 12.3 210 16:37 23.09.2019
1418 Clouds 27 1005 69 10000 13.4 220 16:18 23.09.2019
1419 Clouds 27 1005 69 10000 13.4 220 15:56 23.09.2019
1420 Clouds 27 1006 69 10000 9.8 200 15:38 23.09.2019
1421 Clouds 28 1006 69 10000 9.8 200 15:18 23.09.2019
1422 Clouds 27 1006 74 10000 10.8 200 14:40 23.09.2019
1423 Clouds 27 1006 78 10000 9.3 200 14:21 23.09.2019
1424 Clouds 27 1006 78 10000 9.3 200 13:59 23.09.2019
1425 Clouds 28 1006 78 10000 8.7 210 13:39 23.09.2019
1426 Clouds 27 1006 78 10000 9.8 210 13:18 23.09.2019
1427 Clouds 28 1006 78 10000 9.8 210 12:56 23.09.2019
1428 Clouds 28 1006 78 10000 8.7 200 12:37 23.09.2019
1429 Clouds 28 1006 78 10000 10.3 210 12:19 23.09.2019
1430 Clouds 28 1004 78 10000 13.4 200 11:44 23.09.2019
1431 Clouds 28 1004 78 10000 13.4 200 11:26 23.09.2019
1432 Clouds 28 1005 78 10000 11.8 200 10:55 23.09.2019
1433 Clouds 28 1005 83 10000 11.8 200 10:36 23.09.2019
1434 Clouds 28 1005 83 10000 11.8 200 10:18 23.09.2019
1435 Clouds 29 1005 83 10000 6.2 200 09:40 23.09.2019
1436 Clouds 29 1005 83 10000 6.2 200 09:21 23.09.2019
1437 Clouds 30 1004 74 10000 12.3 200 08:50 23.09.2019
1438 Clouds 30 1005 79 10000 8.2 200 08:30 23.09.2019
1439 Rain 30 1005 74 10000 11.8 200 07:59 23.09.2019
1440 Rain 30 1005 79 10000 10.3 200 07:33 23.09.2019
1441 Rain 30 1005 79 10000 9.8 200 06:50 23.09.2019
1442 Rain 30 1005 70 10000 15.4 200 06:18 23.09.2019
1443 Clouds 30 1007 83 10000 10.8 190 05:22 23.09.2019
1444 Clouds 30 1007 74 10000 9.8 200 04:55 23.09.2019
1445 Rain 29 1008 74 10000 13.4 200 03:56 23.09.2019
1446 Rain 29 1008 74 10000 13.4 200 03:56 23.09.2019
1447 Rain 24 1011 100 16093 7.2 180 01:25 23.09.2019
1448 Mist 22 1011 94 1000 1 110 00:24 23.09.2019
1449 Mist 22 1011 94 1000 1 110 23:58 22.09.2019
1450 Rain 21 1011 100 8047 2.1 140 23:39 22.09.2019
1451 Rain 21 1011 100 8047 2.1 140 23:20 22.09.2019
1452 Rain 21 1011 100 2012 1.5 140 22:54 22.09.2019
1453 Rain 21 1011 100 12874 1.5 180 22:36 22.09.2019
1454 Rain 21 1011 100 14484 2.56 116.545 22:18 22.09.2019
1455 Rain 21 1011 100 10000 2.6 50 21:40 22.09.2019
1456 Rain 21 1012 94 10000 2.1 30 21:20 22.09.2019
1457 Rain 21 1012 100 10000 2.1 340 20:44 22.09.2019
1458 Rain 21 1012 100 10000 2.1 340 20:26 22.09.2019
1459 Rain 21 1013 100 16093 3.01 49.45 19:57 22.09.2019
1460 Rain 21 1015 100 16093 2.1 10 19:39 22.09.2019
1461 Rain 21 1013 94 16093 1.5 310 19:20 22.09.2019
1462 Rain 21 1013 94 16093 1.5 310 18:57 22.09.2019
1463 Rain 21 1013 94 6437 1.5 330 18:37 22.09.2019
1464 Rain 21 1014 94 1609 2.1 310 18:18 22.09.2019
1465 Rain 21 1014 100 6000 4.6 320 17:45 22.09.2019
1466 Rain 21 1014 100 6000 4.6 320 17:26 22.09.2019
1467 Rain 21 1014 100 4500 3.6 340 16:56 22.09.2019
1468 Rain 21 1014 100 2000 4.1 330 16:38 22.09.2019
1469 Rain 21 1014 100 2000 4.1 330 16:19 22.09.2019
1470 Rain 21 1015 94 1810 3.6 290 15:43 22.09.2019
1471 Rain 21 1015 94 1810 3.6 290 15:25 22.09.2019
1472 Rain 21 1016 94 4000 4.1 20 14:55 22.09.2019
1473 Rain 21 1016 94 4000 4.1 20 14:36 22.09.2019
1474 Rain 21 1016 94 4000 4.1 20 14:18 22.09.2019
1475 Rain 21 1017 94 1810 2.1 300 13:42 22.09.2019
1476 Rain 22 1017 94 1810 2.1 300 13:24 22.09.2019
1477 Rain 22 1017 94 1609 2.6 280 12:57 22.09.2019
1478 Rain 22 1016 88 10000 6.7 50 12:39 22.09.2019
1479 Rain 22 1017 94 2012 2.6 350 12:19 22.09.2019
1480 Rain 22 1017 94 2012 2.6 350 11:55 22.09.2019
1481 Rain 23 1019 88 11265 3.6 100 11:36 22.09.2019
1482 Rain 23 1019 88 11265 3.6 100 11:18 22.09.2019
1483 Rain 24 1016 69 14484 4.14 72.091 10:42 22.09.2019
1484 Rain 24 1016 69 14484 4.14 72.091 10:20 22.09.2019
1485 Rain 24 1016 69 14484 4.14 72.091 10:20 22.09.2019
1486 Rain 25 1016 73 10000 5.1 70 09:43 22.09.2019
1487 Rain 25 1016 73 10000 5.1 70 09:22 22.09.2019
1488 Clouds 25 1016 78 10000 7.2 70 08:58 22.09.2019
1489 Clouds 26 1016 69 10000 4.1 40 08:40 22.09.2019
1490 Clouds 26 1016 69 10000 4.1 40 08:22 22.09.2019
1491 Clouds 26 1016 69 10000 3.6 60 07:44 22.09.2019
1492 Clouds 26 1016 69 10000 3.6 60 07:44 22.09.2019
1493 Clouds 26 1017 74 10000 4.1 60 07:26 22.09.2019
1494 Clouds 27 1017 74 10000 4.1 60 06:58 22.09.2019
1495 Clouds 27 1017 61 10000 1.5 50 06:34 22.09.2019
1496 Clouds 27 1019 61 10000 3.1 20 04:41 22.09.2019
1497 Clouds 24 1020 64 10000 3.1 360 02:45 22.09.2019
1498 Clouds 23 1020 64 10000 3.1 360 02:24 22.09.2019
1499 Clouds 23 1020 68 10000 4.6 30 01:43 22.09.2019
1500 Clouds 22 1021 73 10000 3.6 10 00:53 22.09.2019
1501 Clouds 22 1020 73 10000 5.1 360 00:32 22.09.2019
1502 Clouds 20 1020 77 10000 4.6 10 23:54 21.09.2019
1503 Clouds 20 1020 77 10000 5.1 10 23:36 21.09.2019
1504 Clouds 19 1020 77 10000 4.1 360 22:47 21.09.2019
1505 Clouds 19 1020 77 10000 4.1 360 22:26 21.09.2019
1506 Clouds 19 1020 77 10000 5.1 10 21:59 21.09.2019
1507 Clouds 19 1020 77 10000 5.7 360 21:41 21.09.2019
1508 Clouds 20 1020 77 10000 5.7 360 21:19 21.09.2019
1509 Clouds 20 1020 77 10000 6.2 360 20:56 21.09.2019
1510 Clouds 20 1020 83 10000 5.7 10 20:37 21.09.2019
1511 Clouds 20 1020 77 10000 5.1 10 20:18 21.09.2019
1512 Clouds 20 1020 77 10000 5.1 10 20:18 21.09.2019
1513 Clouds 20 1020 83 10000 4.6 10 19:45 21.09.2019
1514 Clouds 20 1020 83 10000 4.6 10 19:21 21.09.2019
1515 Clouds 20 1020 78 10000 4.1 20 18:41 21.09.2019
1516 Clouds 20 1020 78 10000 4.1 20 18:22 21.09.2019
1517 Clouds 21 1021 78 10000 3.1 30 17:43 21.09.2019
1518 Clouds 21 1021 78 10000 3.1 30 17:24 21.09.2019
1519 Clouds 21 1021 78 10000 4.6 30 16:58 21.09.2019
1520 Clouds 21 1021 78 10000 4.1 30 16:40 21.09.2019
1521 Clouds 21 1021 78 10000 4.1 30 16:20 21.09.2019
1522 Clouds 22 1021 78 10000 3.6 10 15:45 21.09.2019
1523 Clouds 21 1021 78 10000 3.6 10 15:25 21.09.2019
1524 Clouds 22 1021 78 10000 4.1 10 14:50 21.09.2019
1525 Clouds 22 1022 78 10000 4.6 20 14:32 21.09.2019
1526 Clouds 22 1021 78 10000 4.6 30 13:57 21.09.2019
1527 Clouds 22 1021 78 10000 4.6 40 13:39 21.09.2019
1528 Clouds 22 1021 78 10000 4.6 40 13:20 21.09.2019
1529 Clouds 22 1021 78 10000 4.6 40 12:56 21.09.2019
1530 Clouds 22 1021 78 10000 5.1 50 12:38 21.09.2019
1531 Clouds 22 1021 78 10000 6.7 50 12:20 21.09.2019
1532 Clouds 22 1020 73 10000 6.2 50 11:44 21.09.2019
1533 Clouds 22 1020 73 10000 6.2 50 11:24 21.09.2019
1534 Clouds 23 1020 73 10000 6.2 60 10:55 21.09.2019
1535 Clouds 23 1020 78 10000 6.2 50 10:37 21.09.2019
1536 Clouds 23 1020 78 10000 5.7 50 10:18 21.09.2019
1537 Rain 23 1020 73 10000 4.1 60 09:40 21.09.2019
1538 Rain 24 1020 73 10000 4.1 60 09:21 21.09.2019
1539 Rain 24 1020 73 10000 5.1 50 08:59 21.09.2019
1540 Rain 24 1020 69 10000 3.6 40 08:40 21.09.2019
1541 Rain 24 1020 69 10000 5.1 40 07:55 21.09.2019
1542 Rain 24 1020 69 10000 4.1 40 07:37 21.09.2019
1543 Rain 24 1020 69 10000 4.6 30 07:18 21.09.2019
1544 Clouds 24 1020 69 10000 3.1 20 06:34 21.09.2019
1545 Clouds 24 1023 68 16093 2.1 40 05:51 21.09.2019
1546 Clouds 24 1021 69 10000 3.6 20 04:38 21.09.2019
1547 Clouds 23 1021 73 10000 3.6 10 03:25 21.09.2019
1548 Clouds 22 1021 73 10000 3.6 10 02:23 21.09.2019
1549 Rain 22 1021 78 10000 6.2 20 01:47 21.09.2019
1550 Rain 22 1021 78 10000 6.2 20 01:21 21.09.2019
1551 Rain 21 1023 88 16093 2.6 360 00:23 21.09.2019
1552 Rain 21 1019 73 10000 5.7 30 23:48 20.09.2019
1553 Rain 21 1019 73 10000 5.7 30 23:30 20.09.2019
1554 Clouds 21 1020 73 10000 5.1 20 22:55 20.09.2019
1555 Clear 21 1019 73 10000 5.1 20 22:36 20.09.2019
1556 Clear 21 1019 73 10000 5.1 20 22:18 20.09.2019
1557 Clear 21 1020 73 10000 4.6 20 21:54 20.09.2019
1558 Rain 21 1019 68 10000 5.7 20 21:36 20.09.2019
1559 Rain 20 1019 68 10000 5.7 20 21:18 20.09.2019
1560 Rain 21 1019 68 10000 4.6 30 20:41 20.09.2019
1561 Rain 21 1019 68 10000 4.6 30 20:20 20.09.2019
1562 Rain 21 1020 69 10000 2.1 60 19:56 20.09.2019
1563 Rain 21 1020 69 10000 2.1 60 19:37 20.09.2019
1564 Rain 21 1022 83 16093 1.5 270 19:19 20.09.2019
1565 Rain 22 1019 69 10000 2.6 70 18:39 20.09.2019
1566 Rain 22 1022 68 16093 3.77 150.519 18:20 20.09.2019
1567 Rain 22 1022 68 16093 3.77 150.519 17:57 20.09.2019
1568 Rain 22 1019 64 10000 4.1 50 17:38 20.09.2019
1569 Rain 22 1019 69 10000 3.6 70 17:18 20.09.2019
1570 Rain 22 1020 64 14484 3.77 150.519 16:41 20.09.2019
1571 Rain 22 1020 64 14484 3.77 150.519 16:41 20.09.2019
1572 Rain 22 1019 69 10000 4.1 90 16:19 20.09.2019
1573 Rain 23 1020 60 10000 2.1 170 15:43 20.09.2019
1574 Rain 23 1020 60 10000 2.1 170 15:23 20.09.2019
1575 Clear 23 1019 69 10000 4.6 110 14:57 20.09.2019
1576 Clear 22 1019 69 10000 4.6 110 14:38 20.09.2019
1577 Clear 22 1019 69 10000 4.6 110 14:18 20.09.2019
1578 Clear 23 1019 73 10000 4.1 110 13:47 20.09.2019
1579 Clear 23 1019 73 10000 4.1 110 13:27 20.09.2019
1580 Clear 23 1018 78 10000 5.1 120 12:56 20.09.2019
1581 Clear 23 1018 78 10000 5.1 120 12:36 20.09.2019
1582 Clear 23 1018 78 10000 6.2 110 12:18 20.09.2019
1583 Clouds 24 1017 73 10000 5.7 110 11:48 20.09.2019
1584 Clouds 24 1017 73 10000 5.7 110 11:20 20.09.2019
1585 Clouds 24 1017 78 10000 5.7 110 10:43 20.09.2019
1586 Clouds 25 1017 65 10000 4.6 100 10:24 20.09.2019
1587 Clouds 26 1017 65 10000 4.6 100 09:55 20.09.2019
1588 Clouds 26 1016 61 10000 4.1 130 09:36 20.09.2019
1589 Clouds 26 1016 65 10000 2.6 90 09:18 20.09.2019
1590 Clouds 27 1016 61 10000 3.1 150 08:41 20.09.2019
1591 Clouds 27 1016 61 10000 3.1 150 08:41 20.09.2019
1592 Clouds 27 1016 61 10000 3.1 150 08:22 20.09.2019
1593 Clouds 27 1016 61 10000 2.1 100 07:47 20.09.2019
1594 Clouds 27 1017 47 10000 2.1 110 07:26 20.09.2019
1595 Clouds 27 1015 61 10000 3.6 150 06:44 20.09.2019
1596 Clouds 27 1015 61 10000 3.6 150 06:44 20.09.2019
1597 Clouds 27 1015 61 10000 3.6 150 06:22 20.09.2019
1598 Clouds 26 1016 65 10000 2.6 100 05:44 20.09.2019
1599 Clouds 24 1017 64 10000 3.1 40 03:42 20.09.2019
1600 Clouds 24 1017 64 10000 3.1 40 03:19 20.09.2019
1601 Rain 23 1017 64 10000 4.6 10 01:44 20.09.2019
1602 Rain 21 1017 73 10000 5.1 20 00:53 20.09.2019
1603 Clouds 21 1018 73 10000 5.7 10 00:25 20.09.2019
1604 Clouds 20 1017 77 10000 5.1 20 23:44 19.09.2019
1605 Clouds 20 1017 77 10000 5.1 20 23:20 19.09.2019
1606 Clouds 20 1016 77 10000 5.1 30 22:57 19.09.2019
1607 Clouds 20 1016 77 10000 5.7 30 22:37 19.09.2019
1608 Clouds 20 1015 73 10000 5.7 40 22:19 19.09.2019
1609 Clouds 20 1015 73 10000 5.7 40 21:56 19.09.2019
1610 Clouds 21 1015 73 10000 5.1 30 21:37 19.09.2019
1611 Clouds 21 1016 73 10000 5.7 50 21:18 19.09.2019
1612 Clouds 21 1015 73 10000 5.7 40 20:43 19.09.2019
1613 Clouds 21 1015 73 10000 5.7 40 20:22 19.09.2019
1614 Clouds 21 1015 73 10000 5.7 50 19:56 19.09.2019
1615 Clouds 20 1015 73 10000 5.1 50 19:37 19.09.2019
1616 Clouds 21 1017 77 16093 3.1 10 19:19 19.09.2019
1617 Clouds 21 1015 73 10000 4.6 70 18:43 19.09.2019
1618 Clouds 21 1015 73 10000 4.6 70 18:24 19.09.2019
1619 Clouds 21 1016 82 10000 1.5 20 17:57 19.09.2019
1620 Clouds 21 1015 78 10000 5.1 60 17:39 19.09.2019
1621 Clouds 21 1015 73 10000 5.7 70 17:21 19.09.2019
1622 Clouds 21 1015 73 10000 5.7 70 16:57 19.09.2019
1623 Clouds 21 1015 73 10000 5.7 70 16:38 19.09.2019
1624 Clouds 21 1015 78 10000 6.2 70 16:18 19.09.2019
1625 Clouds 21 1015 78 10000 5.7 70 15:38 19.09.2019
1626 Clouds 21 1015 78 10000 5.7 70 15:18 19.09.2019
1627 Clouds 21 1015 73 10000 5.7 70 14:42 19.09.2019
1628 Clouds 21 1015 73 10000 5.7 70 14:23 19.09.2019
1629 Clouds 22 1015 78 10000 5.1 90 13:59 19.09.2019
1630 Clouds 21 1015 78 10000 5.7 90 13:39 19.09.2019
1631 Clouds 21 1015 78 10000 5.7 90 13:39 19.09.2019
1632 Clouds 22 1015 73 10000 5.1 100 13:19 19.09.2019
1633 Clouds 21 1015 78 10000 5.7 90 13:19 19.09.2019
1634 Clouds 22 1014 78 10000 5.7 120 12:39 19.09.2019
1635 Clouds 22 1014 77 10000 2.6 100 12:19 19.09.2019
1636 Clouds 23 1014 73 10000 6.2 120 11:57 19.09.2019
1637 Clouds 23 1014 73 10000 6.2 120 11:38 19.09.2019
1638 Clouds 23 1014 73 10000 6.2 120 11:19 19.09.2019
1639 Clouds 25 1013 73 10000 5.7 120 10:41 19.09.2019
1640 Clouds 25 1013 73 10000 5.7 120 10:22 19.09.2019
1641 Haze 25 1013 69 10000 4.6 100 09:59 19.09.2019
1642 Haze 25 1012 65 10000 4.6 100 09:41 19.09.2019
1643 Clouds 26 1013 69 10000 3.1 90 09:21 19.09.2019
1644 Clouds 26 1013 69 10000 3.1 90 08:56 19.09.2019
1645 Clouds 26 1012 65 10000 5.7 120 08:29 19.09.2019
1646 Clouds 27 1012 65 10000 2.1 60 07:57 19.09.2019
1647 Clouds 27 1012 65 10000 4.6 130 07:38 19.09.2019
1648 Clouds 27 1012 65 10000 3.1 70 07:20 19.09.2019
1649 Clouds 27 1012 57 10000 5.1 90 06:45 19.09.2019
1650 Clouds 26 1012 57 10000 5.1 90 06:25 19.09.2019
1651 Rain 26 1012 57 10000 4.1 90 05:51 19.09.2019
1652 Rain 25 1013 57 10000 2.6 40 04:39 19.09.2019
1653 Rain 25 1014 64 10000 5.7 40 03:51 19.09.2019
1654 Clouds 23 1013 64 10000 4.1 60 02:27 19.09.2019
1655 Rain 22 1016 88 16093 2.1 300 01:22 19.09.2019
1656 Rain 22 1016 88 16093 2.1 300 00:49 19.09.2019
1657 Mist 21 1013 73 10000 3.6 30 00:25 19.09.2019
1658 Fog 19 1013 77 10000 4.6 20 23:42 18.09.2019
1659 Clouds 19 1013 77 10000 5.1 20 23:21 18.09.2019
1660 Clouds 19 1012 77 10000 3.6 30 22:47 18.09.2019
1661 Clouds 19 1012 77 10000 3.6 30 22:23 18.09.2019
1662 Clouds 19 1012 83 10000 5.1 20 21:59 18.09.2019
1663 Clouds 19 1012 83 10000 5.1 20 21:59 18.09.2019
1664 Clouds 19 1011 83 10000 4.6 20 21:40 18.09.2019
1665 Clouds 19 1011 83 10000 4.1 20 21:19 18.09.2019
1666 Clouds 19 1011 83 10000 4.1 20 20:59 18.09.2019
1667 Clouds 19 1011 83 10000 4.6 20 20:40 18.09.2019
1668 Clouds 19 1011 83 10000 3.6 20 20:22 18.09.2019
1669 Clouds 19 1011 83 10000 3.6 20 19:59 18.09.2019
1670 Clouds 19 1010 83 10000 4.1 20 19:41 18.09.2019
1671 Clouds 19 1011 83 10000 5.1 20 19:20 18.09.2019
1672 Clouds 19 1011 83 10000 5.1 20 19:20 18.09.2019
1673 Clouds 19 1011 83 10000 5.1 20 18:56 18.09.2019
1674 Clouds 19 1011 83 10000 3.6 20 18:38 18.09.2019
1675 Clouds 19 1011 83 10000 3.6 20 18:38 18.09.2019
1676 Clouds 19 1011 83 10000 3.6 20 18:19 18.09.2019
1677 Clouds 19 1013 88 16093 1.63 353.52 17:59 18.09.2019
1678 Clouds 19 1013 88 16093 1.63 353.52 17:40 18.09.2019
1679 Clouds 19 1013 88 16093 1.63 353.52 17:19 18.09.2019
1680 Rain 19 1011 88 10000 4.1 20 16:56 18.09.2019
1681 Rain 19 1011 82 10000 2.6 20 16:38 18.09.2019
1682 Rain 19 1011 82 10000 2.6 20 16:19 18.09.2019
1683 Rain 19 1014 93 16093 1.5 80 15:56 18.09.2019
1684 Rain 19 1011 88 10000 4.1 50 15:37 18.09.2019
1685 Rain 19 1011 88 10000 4.1 50 15:19 18.09.2019
1686 Rain 19 1011 93 14484 2.1 350 14:57 18.09.2019
1687 Rain 19 1013 100 16093 2.1 60 14:39 18.09.2019
1688 Rain 19 1013 100 16093 2.1 60 14:21 18.09.2019
1689 Rain 20 1012 88 10000 5.1 10 13:54 18.09.2019
1690 Rain 20 1011 100 3621 2.1 320 13:36 18.09.2019
1691 Rain 20 1011 93 2213 1.5 340 13:18 18.09.2019
1692 Rain 20 1013 93 12874 2.1 360 12:37 18.09.2019
1693 Rain 20 1011 94 12874 2.1 330 12:19 18.09.2019
1694 Rain 20 1010 88 10000 4.6 20 11:40 18.09.2019
1695 Rain 20 1010 88 10000 4.6 20 11:20 18.09.2019
1696 Rain 20 1010 88 10000 5.7 60 10:56 18.09.2019
1697 Rain 20 1009 88 10000 6.7 40 10:37 18.09.2019
1698 Rain 20 1009 88 10000 6.7 40 10:18 18.09.2019
1699 Rain 21 1010 94 7000 2.6 70 09:42 18.09.2019
1700 Rain 21 1010 94 7000 2.6 70 09:22 18.09.2019
1701 Rain 21 1010 94 7000 2.6 70 09:22 18.09.2019
1702 Rain 21 1010 88 10000 2.6 50 08:58 18.09.2019
1703 Rain 21 1009 94 8000 4.1 70 08:39 18.09.2019
1704 Rain 21 1009 94 8000 4.1 70 08:21 18.09.2019
1705 Rain 21 1009 88 10000 4.1 30 07:44 18.09.2019
1706 Rain 22 1010 88 7000 4.6 60 07:23 18.09.2019
1707 Rain 22 1010 83 10000 3.6 50 06:46 18.09.2019
1708 Rain 22 1010 88 10000 6.2 20 06:21 18.09.2019
1709 Rain 22 1010 88 10000 6.2 60 05:27 18.09.2019
1710 Rain 24 1012 83 10000 3.1 40 03:40 18.09.2019
1711 Rain 24 1012 69 10000 2.6 20 02:40 18.09.2019
1712 Rain 24 1012 78 10000 6.7 20 01:44 18.09.2019
1713 Rain 23 1013 57 10000 2.1 50 00:56 18.09.2019
1714 Clouds 23 1012 78 10000 6.7 30 00:32 18.09.2019
1715 Clouds 23 1011 83 10000 6.7 20 23:48 17.09.2019
1716 Clouds 22 1011 83 10000 6.7 20 23:25 17.09.2019
1717 Clouds 22 1012 83 10000 6.2 10 22:59 17.09.2019
1718 Clouds 22 1012 83 10000 5.1 10 22:41 17.09.2019
1719 Rain 22 1014 83 16093 2.8 104.796 22:22 17.09.2019
1720 Clouds 22 1014 83 16093 2.8 104.796 21:54 17.09.2019
1721 Clouds 22 1014 83 16093 2.59 87.52 21:36 17.09.2019
1722 Clouds 22 1012 83 10000 5.1 20 21:18 17.09.2019
1723 Clouds 22 1012 83 10000 5.1 20 21:18 17.09.2019
1724 Clouds 22 1012 83 10000 5.1 20 20:56 17.09.2019
1725 Clouds 22 1012 83 10000 5.1 20 20:56 17.09.2019
1726 Clouds 22 1011 83 10000 6.2 20 20:38 17.09.2019
1727 Clouds 22 1012 88 10000 6.2 20 20:19 17.09.2019
1728 Clouds 23 1012 88 10000 6.2 20 20:19 17.09.2019
1729 Clouds 23 1012 88 10000 6.2 20 19:57 17.09.2019
1730 Clouds 23 1011 88 10000 6.7 30 19:38 17.09.2019
1731 Clouds 23 1011 88 10000 6.7 40 19:18 17.09.2019
1732 Clouds 23 1011 88 10000 6.2 50 18:43 17.09.2019
1733 Clouds 23 1011 88 10000 6.2 50 18:22 17.09.2019
1734 Clouds 23 1012 88 10000 5.7 30 17:56 17.09.2019
1735 Clouds 23 1012 88 10000 5.7 30 17:37 17.09.2019
1736 Clouds 23 1012 88 10000 5.7 30 17:19 17.09.2019
1737 Clouds 24 1012 88 10000 5.1 20 16:42 17.09.2019
1738 Clouds 24 1012 88 10000 5.1 20 16:23 17.09.2019
1739 Clouds 24 1012 88 10000 4.1 30 15:59 17.09.2019
1740 Clouds 24 1012 88 10000 5.7 50 15:38 17.09.2019
1741 Clouds 24 1012 88 10000 5.7 50 15:19 17.09.2019
1742 Clouds 24 1011 88 10000 6.2 50 14:56 17.09.2019
1743 Clouds 24 1011 88 10000 6.2 50 14:56 17.09.2019
1744 Clouds 24 1011 88 10000 6.2 50 14:37 17.09.2019
1745 Clouds 24 1011 88 10000 6.2 60 14:19 17.09.2019
1746 Clouds 25 1011 83 10000 5.7 70 13:43 17.09.2019
1747 Clouds 25 1011 83 10000 5.7 70 13:25 17.09.2019
1748 Clouds 25 1011 83 10000 5.7 70 13:25 17.09.2019
1749 Clouds 25 1011 78 10000 6.2 60 12:56 17.09.2019
1750 Clouds 25 1011 78 10000 6.2 60 12:38 17.09.2019
1751 Clouds 25 1011 74 10000 6.7 70 12:18 17.09.2019
1752 Clouds 26 1010 74 10000 8.2 80 11:43 17.09.2019
1753 Clouds 26 1010 74 10000 8.2 80 11:25 17.09.2019
1754 Clouds 27 1010 78 10000 7.2 80 10:56 17.09.2019
1755 Clouds 28 1009 74 10000 6.7 80 10:38 17.09.2019
1756 Clouds 28 1009 74 10000 6.7 80 10:20 17.09.2019
1757 Clouds 29 1009 61 10000 8.2 80 09:42 17.09.2019
1758 Clouds 29 1009 61 10000 8.2 80 09:23 17.09.2019
1759 Clouds 29 1009 69 10000 6.7 70 08:57 17.09.2019
1760 Clouds 30 1008 62 10000 7.2 80 08:38 17.09.2019
1761 Clouds 29 1008 62 10000 7.2 80 08:19 17.09.2019
1762 Clouds 30 1009 51 10000 3.6 70 07:42 17.09.2019
1763 Clouds 30 1008 69 10000 6.7 70 07:24 17.09.2019
1764 Clouds 30 1008 69 10000 6.7 70 06:51 17.09.2019
1765 Clouds 30 1008 69 10000 5.7 70 06:25 17.09.2019
1766 Clouds 31 1008 69 10000 5.7 70 05:51 17.09.2019
1767 Clouds 30 1008 66 10000 5.1 60 04:32 17.09.2019
1768 Clouds 29 1009 66 10000 3.6 20 03:34 17.09.2019
1769 Clouds 27 1009 74 10000 3.1 30 02:39 17.09.2019
1770 Rain 27 1008 88 10000 2.6 20 01:34 17.09.2019
1771 Clouds 26 1007 94 10000 3.6 40 00:45 17.09.2019
1772 Mist 24 1007 94 10000 4.1 60 23:41 16.09.2019
1773 Fog 24 1009 94 805 3.1 10 23:19 16.09.2019
1774 Fog 23 1009 94 805 3.1 10 22:58 16.09.2019
1775 Clouds 23 1006 94 10000 3.6 60 22:39 16.09.2019
1776 Clouds 23 1006 94 10000 3.6 60 22:21 16.09.2019
1777 Clouds 23 1006 94 10000 3.6 60 21:56 16.09.2019
1778 Clouds 24 1006 94 10000 4.1 50 21:37 16.09.2019
1779 Clouds 23 1006 94 10000 3.6 70 21:18 16.09.2019
1780 Clouds 24 1006 94 10000 3.6 80 20:41 16.09.2019
1781 Clouds 24 1006 94 10000 3.6 80 20:23 16.09.2019
1782 Clouds 24 1006 94 10000 4.6 80 19:58 16.09.2019
1783 Clouds 24 1005 94 10000 3.6 80 19:39 16.09.2019
1784 Clouds 24 1004 94 10000 3.6 70 19:20 16.09.2019
1785 Clouds 24 1004 94 10000 3.6 70 18:56 16.09.2019
1786 Clouds 24 1004 94 10000 3.6 80 18:37 16.09.2019
1787 Clouds 24 1004 94 10000 3.6 70 18:18 16.09.2019
1788 Clouds 24 1004 100 10000 3.1 70 17:42 16.09.2019
1789 Clouds 24 1004 100 10000 3.1 70 17:24 16.09.2019
1790 Clouds 24 1004 94 10000 2.6 70 16:57 16.09.2019
1791 Clouds 24 1004 100 10000 3.1 90 16:38 16.09.2019
1792 Clouds 24 1004 100 10000 3.1 90 16:20 16.09.2019
1793 Clouds 24 1004 100 10000 2.1 100 15:56 16.09.2019
1794 Clouds 24 1003 100 10000 2.1 110 15:37 16.09.2019
1795 Clouds 24 1003 100 10000 2.1 110 15:18 16.09.2019
1796 Clouds 24 1002 100 10000 2.1 120 14:44 16.09.2019
1797 Fog 24 1002 100 10000 2.1 120 14:23 16.09.2019
1798 Fog 24 1002 100 10000 3.1 110 13:59 16.09.2019
1799 Fog 24 1001 100 10000 1.5 90 13:39 16.09.2019
1800 Fog 24 1001 100 10000 1.5 90 13:39 16.09.2019
1801 Clouds 24 1001 100 10000 1.5 90 13:21 16.09.2019
1802 Clouds 24 1001 94 10000 3.1 90 12:45 16.09.2019
1803 Clouds 25 1001 94 10000 3.1 90 12:27 16.09.2019
1804 Clouds 25 1001 94 10000 2.6 90 11:56 16.09.2019
1805 Clouds 25 1001 94 10000 2.6 90 11:56 16.09.2019
1806 Clouds 25 1001 94 10000 2.6 90 11:56 16.09.2019
1807 Clouds 25 1000 94 10000 3.1 50 11:37 16.09.2019
1808 Clouds 25 1000 94 10000 3.1 50 11:19 16.09.2019
1809 Rain 26 1000 88 10000 4.1 20 10:39 16.09.2019
1810 Clouds 26 1000 88 10000 3.6 30 10:20 16.09.2019
1811 Clouds 26 1000 88 10000 3.6 30 09:58 16.09.2019
1812 Clouds 26 1000 94 10000 3.1 30 09:39 16.09.2019
1813 Rain 26 1000 88 10000 4.1 20 09:19 16.09.2019
1814 Rain 25 1002 78 16093 5.7 20 08:47 16.09.2019
1815 Rain 25 1002 78 16093 5.7 20 08:28 16.09.2019
1816 Rain 25 1000 94 10000 6.2 360 07:56 16.09.2019
1817 Rain 25 1000 94 10000 6.2 360 07:56 16.09.2019
1818 Rain 25 1000 100 2500 2.1 20 07:38 16.09.2019
1819 Rain 25 1000 94 10000 6.2 360 07:20 16.09.2019
1820 Rain 25 1000 94 10000 6.2 360 07:20 16.09.2019
1821 Rain 24 1000 100 5000 5.1 40 06:46 16.09.2019
1822 Rain 24 1000 100 5000 5.1 40 06:46 16.09.2019
1823 Rain 24 1000 100 5000 5.1 40 06:28 16.09.2019
1824 Rain 24 1001 100 10000 4.1 330 05:54 16.09.2019
1825 Rain 24 1003 88 16093 7.2 10 05:35 16.09.2019
1826 Rain 24 1001 94 10000 8.2 350 04:55 16.09.2019
1827 Rain 23 1002 100 5000 4.1 360 03:31 16.09.2019
1828 Rain 22 1004 94 3100 2.6 10 00:44 16.09.2019
1829 Rain 22 1004 94 3100 2.6 10 00:26 16.09.2019
1830 Rain 22 1004 94 1500 3.1 350 23:56 15.09.2019
1831 Rain 22 1007 100 4828 2.1 40 23:37 15.09.2019
1832 Rain 22 1007 100 4828 2.1 40 23:18 15.09.2019
1833 Rain 22 1004 94 7000 8.2 360 22:38 15.09.2019
1834 Rain 22 1004 94 7000 8.2 360 22:19 15.09.2019
1835 Rain 22 1004 94 3200 2.6 350 21:56 15.09.2019
1836 Rain 23 1006 83 16093 4.1 30 21:38 15.09.2019
1837 Rain 23 1006 83 16093 4.1 30 21:38 15.09.2019
1838 Rain 23 1006 83 16093 4.1 30 21:19 15.09.2019
1839 Rain 23 1004 94 8000 8.2 350 20:45 15.09.2019
1840 Rain 23 1004 94 8000 8.2 350 20:26 15.09.2019
1841 Rain 23 1004 94 8000 8.2 350 20:26 15.09.2019
1842 Rain 23 1004 94 8000 8.2 350 20:26 15.09.2019
1843 Rain 23 1007 83 16093 4.6 10 19:56 15.09.2019
1844 Rain 23 1005 94 4800 7.2 350 19:38 15.09.2019
1845 Rain 23 1005 94 4800 7.2 350 19:38 15.09.2019
1846 Rain 23 1005 94 5000 6.2 350 19:19 15.09.2019
1847 Rain 23 1005 94 4800 8.2 350 18:40 15.09.2019
1848 Rain 24 1005 94 4800 8.2 350 18:22 15.09.2019
1849 Rain 24 1006 94 5000 6.2 360 17:43 15.09.2019
1850 Rain 24 1006 94 5000 6.2 360 17:23 15.09.2019
1851 Rain 24 1006 94 4300 5.7 10 16:59 15.09.2019
1852 Rain 24 1006 94 6000 6.7 20 16:41 15.09.2019
1853 Rain 24 1006 94 6000 6.7 20 16:22 15.09.2019
1854 Rain 24 1006 94 8000 7.7 30 15:57 15.09.2019
1855 Rain 25 1007 88 10000 6.7 20 15:38 15.09.2019
1856 Rain 25 1007 88 10000 6.7 20 15:19 15.09.2019
1857 Rain 25 1007 83 10000 7.7 30 15:19 15.09.2019
1858 Rain 25 1007 83 10000 7.7 30 14:55 15.09.2019
1859 Rain 25 1007 83 10000 7.7 30 14:55 15.09.2019
1860 Rain 25 1007 83 10000 7.7 30 14:55 15.09.2019
1861 Rain 25 1007 83 10000 8.2 30 14:37 15.09.2019
1862 Rain 25 1008 83 10000 7.2 30 14:19 15.09.2019
1863 Clouds 26 1008 78 10000 6.2 30 13:43 15.09.2019
1864 Clouds 26 1008 78 10000 6.2 30 13:22 15.09.2019
1865 Clouds 26 1008 78 10000 6.2 30 13:22 15.09.2019
1866 Rain 26 1007 74 10000 6.2 20 12:43 15.09.2019
1867 Rain 26 1007 74 10000 6.2 20 12:25 15.09.2019
1868 Clouds 27 1008 78 10000 6.7 50 11:58 15.09.2019
1869 Clouds 27 1008 78 10000 6.7 50 11:58 15.09.2019
1870 Clouds 27 1007 74 10000 8.2 50 11:40 15.09.2019
1871 Clouds 27 1007 74 10000 8.2 50 11:21 15.09.2019
1872 Clouds 27 1007 69 10000 7.2 40 10:46 15.09.2019
1873 Clouds 28 1007 69 10000 7.2 40 10:23 15.09.2019
1874 Clouds 29 1007 65 10000 7.7 50 09:59 15.09.2019
1875 Clouds 29 1007 65 10000 7.2 60 09:39 15.09.2019
1876 Clouds 29 1007 65 10000 7.2 60 09:19 15.09.2019
1877 Clouds 29 1007 58 10000 6.2 50 08:46 15.09.2019
1878 Clouds 30 1007 58 10000 6.2 50 08:27 15.09.2019
1879 Clouds 30 1007 69 10000 5.7 60 07:48 15.09.2019
1880 Clouds 30 1008 45 10000 3.6 30 07:28 15.09.2019
1881 Clouds 30 1008 55 10000 3.6 30 06:43 15.09.2019
1882 Clouds 27 1010 54 10000 3.6 20 03:31 15.09.2019
1883 Clouds 26 1011 61 10000 3.1 360 02:35 15.09.2019
1884 Clouds 25 1011 73 10000 5.1 350 01:40 15.09.2019
1885 Clouds 24 1012 73 10000 3.1 20 01:19 15.09.2019
1886 Clouds 23 1011 78 10000 3.6 20 00:43 15.09.2019
1887 Clouds 23 1011 78 10000 3.6 20 00:22 15.09.2019
1888 Clouds 22 1012 78 10000 4.6 10 23:58 14.09.2019
1889 Clouds 22 1012 83 10000 5.1 360 23:40 14.09.2019
1890 Clouds 22 1012 83 10000 5.1 360 23:21 14.09.2019
1891 Clouds 21 1012 78 10000 4.6 360 22:59 14.09.2019
1892 Clouds 21 1012 78 10000 3.6 360 22:40 14.09.2019
1893 Clouds 21 1012 78 10000 3.6 360 22:21 14.09.2019
1894 Clouds 21 1012 78 10000 4.1 360 21:57 14.09.2019
1895 Clouds 21 1012 78 10000 4.1 10 21:39 14.09.2019
1896 Clouds 21 1012 78 10000 4.1 10 21:19 14.09.2019
1897 -273 0 0 0 0 0 20:55 14.09.2019
1898 Clouds 21 1011 78 10000 4.1 360 20:36 14.09.2019
1899 Clouds 21 1011 78 10000 4.1 360 20:18 14.09.2019
1900 Clouds 21 1011 78 10000 4.1 360 19:44 14.09.2019
1901 Clouds 21 1011 78 10000 4.1 360 19:20 14.09.2019
1902 Clouds 22 1012 73 10000 3.6 10 18:55 14.09.2019
1903 Clouds 22 1012 78 10000 4.1 20 18:37 14.09.2019
1904 Clouds 22 1012 78 10000 4.1 60 18:18 14.09.2019
1905 Clouds 22 1012 78 10000 4.1 70 17:42 14.09.2019
1906 Clouds 22 1012 78 10000 4.1 70 17:22 14.09.2019
1907 Clouds 22 1013 78 10000 4.1 70 16:47 14.09.2019
1908 Clouds 22 1013 78 10000 4.1 70 16:47 14.09.2019
1909 Clouds 22 1013 78 10000 4.1 70 16:26 14.09.2019
1910 Clouds 23 1016 83 16093 2.1 320 15:57 14.09.2019
1911 Clouds 22 1013 78 10000 3.6 50 15:38 14.09.2019
1912 Clouds 23 1013 78 10000 3.6 50 15:20 14.09.2019
1913 Clouds 23 1013 78 10000 3.1 20 14:43 14.09.2019
1914 Clouds 23 1013 78 10000 3.1 20 14:19 14.09.2019
1915 Clouds 23 1014 78 10000 2.6 30 13:55 14.09.2019
1916 Clouds 23 1013 78 10000 3.1 90 13:37 14.09.2019
1917 Clouds 23 1014 78 10000 4.1 20 13:18 14.09.2019
1918 Clouds 23 1013 78 10000 3.1 10 12:39 14.09.2019
1919 Clouds 23 1013 78 10000 3.1 10 12:18 14.09.2019
1920 Clouds 24 1013 78 10000 3.1 360 11:40 14.09.2019
1921 Clouds 24 1013 78 10000 3.1 360 11:20 14.09.2019
1922 Rain 24 1013 73 10000 2.6 20 10:39 14.09.2019
1923 Rain 25 1013 73 10000 2.6 20 10:21 14.09.2019
1924 Rain 25 1013 73 10000 3.1 360 09:58 14.09.2019
1925 Rain 25 1012 73 10000 2.1 20 09:39 14.09.2019
1926 Rain 25 1012 73 10000 2.1 20 09:19 14.09.2019
1927 Rain 25 1013 73 10000 3.1 20 08:47 14.09.2019
1928 Rain 25 1013 73 10000 3.1 20 08:25 14.09.2019
1929 Rain 25 1013 73 10000 3.1 360 07:48 14.09.2019
1930 Rain 25 1013 73 10000 3.1 360 07:48 14.09.2019
1931 Rain 25 1013 73 10000 3.1 360 07:29 14.09.2019
1932 Rain 24 1014 78 10000 5.1 340 06:53 14.09.2019
1933 Rain 24 1013 73 10000 3.1 30 06:31 14.09.2019
1934 Rain 24 1014 78 10000 2.6 360 05:27 14.09.2019
1935 Rain 23 1015 83 10000 1.5 330 03:47 14.09.2019
1936 Rain 22 1016 83 10000 4.1 350 02:55 14.09.2019
1937 Rain 21 1016 88 7000 4.6 340 01:59 14.09.2019
1938 Rain 21 1016 94 10000 5.7 360 01:39 14.09.2019
1939 Rain 21 1016 93 4500 1.5 320 01:18 14.09.2019
1940 Rain 20 1016 83 10000 4.6 350 00:39 14.09.2019
1941 Rain 20 1016 77 10000 5.1 350 00:21 14.09.2019
1942 Rain 20 1016 77 10000 5.1 350 00:21 14.09.2019
1943 Rain 20 1016 83 10000 4.6 350 00:21 14.09.2019
1944 Rain 20 1016 77 10000 4.6 10 23:38 13.09.2019
1945 Rain 20 1016 77 10000 4.6 10 23:38 13.09.2019
1946 Rain 20 1016 77 10000 4.6 10 23:19 13.09.2019
1947 Rain 20 1016 77 10000 5.1 10 22:59 13.09.2019
1948 Rain 20 1016 77 10000 5.1 350 22:39 13.09.2019
1949 Rain 20 1016 77 10000 5.1 350 22:20 13.09.2019
1950 Rain 20 1016 77 10000 5.1 360 21:56 13.09.2019
1951 Rain 20 1016 73 10000 6.7 360 21:37 13.09.2019
1952 Rain 20 1016 73 10000 6.7 360 21:19 13.09.2019
1953 Rain 20 1016 73 10000 7.2 360 20:55 13.09.2019
1954 Rain 20 1015 73 10000 7.2 360 20:36 13.09.2019
1955 Rain 20 1016 77 10000 6.2 360 20:18 13.09.2019
1956 Rain 20 1016 73 10000 6.2 360 19:42 13.09.2019
1957 Rain 20 1016 68 10000 5.7 360 19:21 13.09.2019
1958 Rain 20 1016 68 10000 5.7 360 18:58 13.09.2019
1959 Rain 20 1016 68 10000 6.7 360 18:37 13.09.2019
1960 Rain 20 1016 68 10000 6.7 360 18:37 13.09.2019
1961 Clouds 21 1016 68 10000 5.7 360 18:19 13.09.2019
1962 Clouds 20 1016 68 10000 6.7 10 17:43 13.09.2019
1963 Clouds 20 1016 68 10000 6.7 10 17:20 13.09.2019
1964 Clouds 21 1017 73 10000 6.2 20 16:55 13.09.2019
1965 Clouds 21 1017 73 10000 6.2 20 16:55 13.09.2019
1966 Clouds 21 1017 68 10000 5.7 20 16:37 13.09.2019
1967 Clouds 21 1017 68 10000 5.7 20 16:18 13.09.2019
1968 Clouds 21 1017 82 10000 4.6 10 16:18 13.09.2019
1969 Clouds 21 1017 68 10000 6.2 20 15:41 13.09.2019
1970 Clouds 21 1017 68 10000 6.2 20 15:23 13.09.2019
1971 Clouds 22 1017 64 10000 6.7 40 14:44 13.09.2019
1972 Clouds 22 1017 64 10000 6.7 40 14:23 13.09.2019
1973 Clouds 22 1017 64 10000 7.2 30 13:59 13.09.2019
1974 Clouds 22 1017 64 10000 6.7 40 13:40 13.09.2019
1975 Clouds 22 1017 64 10000 6.7 40 13:40 13.09.2019
1976 Clouds 22 1017 69 10000 6.2 40 13:21 13.09.2019
1977 Clouds 22 1017 69 10000 5.1 50 12:45 13.09.2019
1978 Clouds 22 1017 69 10000 5.1 50 12:24 13.09.2019
1979 Clouds 22 1017 69 10000 6.2 40 11:57 13.09.2019
1980 Clouds 23 1016 73 10000 5.1 50 11:20 13.09.2019
1981 Clouds 23 1016 69 10000 6.2 60 10:42 13.09.2019
1982 Clouds 23 1016 69 10000 6.2 60 10:21 13.09.2019
1983 Clouds 23 1016 69 10000 6.2 60 09:56 13.09.2019
1984 Clouds 24 1015 73 10000 4.1 60 09:37 13.09.2019
1985 Clouds 24 1015 73 10000 4.1 60 09:37 13.09.2019
1986 Clouds 24 1015 73 10000 4.1 60 09:19 13.09.2019
1987 Clouds 24 1015 73 10000 5.7 30 08:42 13.09.2019
1988 Clouds 24 1015 73 10000 5.7 30 08:21 13.09.2019
1989 Clouds 24 1015 73 10000 7.2 30 07:59 13.09.2019
1990 Clouds 24 1015 69 10000 4.6 30 07:40 13.09.2019
1991 Clouds 24 1016 73 10000 6.2 10 06:55 13.09.2019
1992 Clouds 24 1016 69 10000 3.1 10 06:37 13.09.2019
1993 Clouds 23 1016 69 10000 4.1 40 05:32 13.09.2019
1994 Clouds 24 1017 69 10000 5.7 30 03:48 13.09.2019
1995 Clouds 24 1017 69 10000 4.1 30 03:24 13.09.2019
1996 Rain 23 1017 73 10000 4.1 40 02:19 13.09.2019
1997 Clouds 23 1016 73 10000 4.6 40 01:36 13.09.2019
1998 Clouds 23 1016 73 10000 5.1 40 00:59 13.09.2019
1999 Clouds 23 1016 73 10000 4.6 30 00:34 13.09.2019
2000 Clouds 22 1015 69 10000 6.7 70 23:48 12.09.2019
2001 Clouds 22 1015 69 10000 6.7 70 23:24 12.09.2019
2002 Clouds 22 1015 69 10000 6.2 80 22:57 12.09.2019
2003 Clouds 22 1015 69 10000 5.7 70 22:39 12.09.2019
2004 Clouds 22 1015 69 10000 5.7 70 22:21 12.09.2019
2005 Clouds 22 1015 69 10000 6.2 60 21:55 12.09.2019
2006 Clouds 22 1015 69 10000 6.2 70 21:36 12.09.2019
2007 Clouds 22 1015 69 10000 6.2 70 21:18 12.09.2019
2008 Clouds 23 1015 69 10000 7.2 60 20:44 12.09.2019
2009 Clouds 23 1015 69 10000 7.2 60 20:22 12.09.2019
2010 Clouds 23 1015 64 10000 6.7 70 19:57 12.09.2019
2011 Clouds 23 1015 69 10000 6.7 70 19:39 12.09.2019
2012 Clouds 23 1015 64 10000 6.7 70 19:19 12.09.2019
2013 Clouds 23 1015 64 10000 6.7 70 18:56 12.09.2019
2014 Clouds 23 1015 64 10000 6.7 70 18:36 12.09.2019
2015 Clouds 23 1015 64 10000 5.7 60 18:18 12.09.2019
2016 Clouds 23 1015 69 10000 5.1 60 17:40 12.09.2019
2017 Clouds 23 1015 69 10000 5.1 60 17:20 12.09.2019
2018 Clouds 23 1015 64 10000 5.7 50 16:56 12.09.2019
2019 Clouds 23 1015 69 10000 4.6 60 16:37 12.09.2019
2020 Clouds 23 1015 69 10000 4.1 70 16:19 12.09.2019
2021 Clouds 23 1015 69 10000 4.6 70 15:41 12.09.2019
2022 Clouds 23 1015 69 10000 4.6 70 15:23 12.09.2019
2023 Clouds 23 1015 69 10000 4.6 70 15:23 12.09.2019
2024 Clouds 24 1015 65 10000 4.1 90 14:46 12.09.2019
2025 Clouds 24 1015 65 10000 4.1 90 14:22 12.09.2019
2026 Clouds 24 1015 65 10000 4.6 100 13:58 12.09.2019
2027 Clouds 24 1015 61 10000 4.1 100 13:37 12.09.2019
2028 Clouds 24 1015 65 10000 4.6 100 13:19 12.09.2019
2029 Clouds 24 1014 61 10000 5.7 100 12:45 12.09.2019
2030 Clouds 24 1014 61 10000 6.2 110 12:19 12.09.2019
2031 Clouds 24 1014 61 10000 6.2 110 11:56 12.09.2019
2032 Clouds 24 1014 61 10000 5.7 120 11:38 12.09.2019
2033 Clouds 24 1014 61 10000 6.2 120 11:19 12.09.2019
2034 Clouds 25 1013 61 10000 6.7 120 10:44 12.09.2019
2035 Clouds 25 1013 61 10000 6.7 120 10:26 12.09.2019
2036 Clouds 25 1012 65 10000 7.7 120 09:45 12.09.2019
2037 Clouds 25 1012 65 10000 7.7 120 09:25 12.09.2019
2038 Clouds 26 1013 65 10000 6.7 120 08:59 12.09.2019
2039 Clouds 26 1012 65 10000 8.7 120 08:40 12.09.2019
2040 Clouds 27 1012 65 10000 8.7 120 08:22 12.09.2019
2041 Clouds 27 1012 61 10000 6.7 110 07:44 12.09.2019
2042 Clouds 27 1013 65 10000 5.1 100 07:20 12.09.2019
2043 Clouds 28 1012 61 10000 7.7 120 06:51 12.09.2019
2044 Clouds 28 1012 61 10000 7.7 120 06:29 12.09.2019
2045 Clouds 28 1012 61 10000 5.7 100 05:51 12.09.2019
2046 Clouds 28 1012 61 10000 5.7 100 05:33 12.09.2019
2047 Clouds 28 1012 69 10000 6.2 110 04:41 12.09.2019
2048 Clouds 27 1013 69 10000 6.2 60 02:59 12.09.2019
2049 Clouds 27 1012 78 10000 6.7 60 01:37 12.09.2019
2050 Clouds 26 1012 78 10000 6.7 60 01:19 12.09.2019
2051 Clouds 26 1011 83 10000 7.2 70 00:44 12.09.2019
2052 Clouds 26 1011 83 10000 7.2 70 00:24 12.09.2019
2053 Clouds 25 1011 78 10000 6.2 30 23:42 11.09.2019
2054 Clouds 25 1011 78 10000 6.2 30 23:24 11.09.2019
2055 Clouds 25 1011 78 10000 6.2 30 23:24 11.09.2019
2056 Clouds 25 1011 78 10000 6.7 20 22:57 11.09.2019
2057 Clouds 25 1010 74 10000 8.7 10 22:37 11.09.2019
2058 Clouds 25 1010 74 10000 8.7 10 22:19 11.09.2019
2059 Clouds 25 1009 74 10000 8.2 360 21:55 11.09.2019
2060 Clouds 25 1009 74 10000 6.7 10 21:36 11.09.2019
2061 Clouds 25 1008 78 10000 5.1 30 21:18 11.09.2019
2062 Clouds 25 1008 78 10000 5.1 30 20:54 11.09.2019
2063 Clouds 25 1008 78 10000 5.1 30 20:36 11.09.2019
2064 Clouds 25 1008 78 10000 5.1 30 20:18 11.09.2019
2065 Clouds 25 1008 78 10000 6.2 340 19:42 11.09.2019
2066 Clouds 25 1008 78 10000 6.2 340 19:22 11.09.2019
2067 Rain 25 1009 78 10000 5.1 340 18:59 11.09.2019
2068 Rain 25 1009 78 10000 5.1 340 18:59 11.09.2019
2069 Rain 25 1009 83 10000 6.7 340 18:40 11.09.2019
2070 Rain 26 1009 83 10000 6.7 340 18:22 11.09.2019
2071 Rain 26 1009 83 10000 3.6 20 17:57 11.09.2019
2072 Rain 25 1009 83 10000 5.7 10 17:38 11.09.2019
2073 Rain 26 1009 83 10000 5.7 10 17:20 11.09.2019
2074 Thunderstorm 26 1010 88 4900 2.6 320 16:49 11.09.2019
2075 Thunderstorm 26 1010 88 4900 2.6 320 16:26 11.09.2019
2076 Thunderstorm 26 1009 88 10000 3.1 290 15:59 11.09.2019
2077 Clouds 26 1009 88 10000 2.6 330 15:41 11.09.2019
2078 Clouds 26 1009 88 10000 2.6 330 15:20 11.09.2019
2079 Clouds 26 1009 88 10000 3.6 320 14:56 11.09.2019
2080 Rain 26 1010 88 10000 4.1 290 14:37 11.09.2019
2081 Rain 26 1009 88 10000 2.6 280 14:18 11.09.2019
2082 Rain 26 1010 88 10000 2.6 270 13:40 11.09.2019
2083 Rain 27 1010 88 10000 2.6 270 13:21 11.09.2019
2084 Rain 27 1012 88 16093 3.88 344.456 12:59 11.09.2019
2085 Rain 27 1012 88 16093 3.88 344.456 12:59 11.09.2019
2086 Rain 27 1010 78 8047 1.5 0 12:38 11.09.2019
2087 Rain 27 1008 94 10000 9.3 200 12:20 11.09.2019
2088 Rain 27 1008 94 10000 9.3 200 12:20 11.09.2019
2089 Rain 28 1008 94 5000 7.7 210 11:40 11.09.2019
2090 Rain 28 1008 94 5000 7.7 210 11:21 11.09.2019
2091 Rain 29 1009 83 10000 5.1 200 10:59 11.09.2019
2092 Rain 29 1008 83 10000 7.2 180 10:40 11.09.2019
2093 Rain 29 1008 83 10000 7.2 180 10:20 11.09.2019
2094 Mist 30 1008 66 10000 4.6 180 09:40 11.09.2019
2095 Mist 30 1008 66 10000 4.6 180 09:20 11.09.2019
2096 Clouds 31 1008 79 10000 8.7 180 08:57 11.09.2019
2097 Clouds 31 1008 79 10000 8.7 180 08:57 11.09.2019
2098 Clouds 31 1008 84 9000 5.1 180 08:38 11.09.2019
2099 Clouds 31 1008 74 10000 9.3 180 08:20 11.09.2019
2100 Clouds 31 1009 84 8000 5.7 180 07:41 11.09.2019
2101 Clouds 31 1009 84 8000 5.7 180 07:22 11.09.2019
2102 Clouds 32 1009 74 10000 8.7 180 06:50 11.09.2019
2103 Clouds 32 1010 79 6000 4.6 160 06:32 11.09.2019
2104 Mist 31 1011 84 5000 3.1 130 05:42 11.09.2019
2105 Mist 31 1011 84 5000 3.1 130 05:23 11.09.2019
2106 Clouds 31 1012 79 6000 3.6 150 04:42 11.09.2019
2107 Clouds 30 1013 83 8000 2.6 130 03:32 11.09.2019
2108 Mist 29 1014 88 10000 1.5 60 02:46 11.09.2019
2109 Mist 28 1014 88 10000 1.5 60 02:18 11.09.2019
2110 Mist 27 1014 88 10000 2.1 40 00:52 11.09.2019
2111 Mist 26 1016 88 16093 1.83 105.055 00:26 11.09.2019
2112 Mist 26 1014 88 10000 2.1 50 23:56 10.09.2019
2113 Mist 25 1014 88 10000 3.1 20 23:37 10.09.2019
2114 Mist 25 1014 88 10000 2.6 20 23:19 10.09.2019
2115 Mist 25 1014 88 10000 3.1 20 23:19 10.09.2019
2116 Mist 25 1013 88 10000 3.1 10 22:41 10.09.2019
2117 Mist 25 1013 88 10000 3.1 10 22:19 10.09.2019
2118 Mist 25 1014 88 10000 3.6 20 21:56 10.09.2019
2119 Mist 25 1014 88 10000 3.6 10 21:38 10.09.2019
2120 Mist 25 1014 88 10000 3.6 10 21:20 10.09.2019
2121 Mist 25 1016 94 16093 1.5 20 20:58 10.09.2019
2122 Mist 25 1016 94 16093 2.1 10 20:38 10.09.2019
2123 Mist 25 1016 94 16093 2.1 10 20:20 10.09.2019
2124 Mist 26 1014 88 10000 4.6 20 19:56 10.09.2019
2125 Mist 26 1014 88 10000 4.6 20 19:56 10.09.2019
2126 Mist 26 1014 88 10000 3.1 10 19:37 10.09.2019
2127 Mist 26 1014 88 10000 3.1 30 19:19 10.09.2019
2128 Mist 26 1014 88 10000 3.1 30 18:55 10.09.2019
2129 Rain 26 1014 88 10000 3.1 30 18:37 10.09.2019
2130 Rain 26 1015 88 10000 4.1 20 18:19 10.09.2019
2131 Rain 26 1015 88 10000 3.1 30 17:43 10.09.2019
2132 Rain 26 1015 88 10000 3.1 30 17:23 10.09.2019
2133 Rain 26 1015 83 10000 3.6 20 16:59 10.09.2019
2134 Rain 27 1014 83 10000 3.1 10 16:40 10.09.2019
2135 Rain 27 1014 83 10000 3.1 10 16:21 10.09.2019
2136 Rain 27 1014 83 10000 3.1 10 16:21 10.09.2019
2137 Thunderstorm 27 1018 88 16093 3.1 10 15:59 10.09.2019
2138 Thunderstorm 27 1015 83 10000 7.2 10 15:40 10.09.2019
2139 Thunderstorm 28 1015 83 10000 7.2 10 15:20 10.09.2019
2140 Thunderstorm 28 1014 88 10000 2.6 160 14:42 10.09.2019
2141 Thunderstorm 28 1014 88 10000 2.6 160 14:24 10.09.2019
2142 Rain 29 1014 89 10000 3.1 190 13:59 10.09.2019
2143 Thunderstorm 29 1013 84 10000 3.6 200 13:40 10.09.2019
2144 Thunderstorm 29 1013 84 10000 3.6 200 13:22 10.09.2019
2145 Thunderstorm 29 1016 79 16093 4.6 350 12:49 10.09.2019
2146 Thunderstorm 30 1015 79 16093 1.5 200 12:27 10.09.2019
2147 Thunderstorm 30 1013 74 10000 3.1 160 11:57 10.09.2019
2148 Clouds 30 1012 74 10000 6.2 190 11:39 10.09.2019
2149 Clouds 30 1012 66 10000 5.7 200 11:20 10.09.2019
2150 Clouds 31 1011 63 10000 5.1 180 10:42 10.09.2019
2151 Clouds 32 1012 63 10000 5.7 190 10:19 10.09.2019
2152 Clouds 32 1012 63 10000 5.7 190 09:56 10.09.2019
2153 Clouds 33 1011 70 10000 2.6 200 09:38 10.09.2019
2154 Rain 33 1011 56 10000 5.1 190 09:19 10.09.2019
2155 Rain 33 1011 56 10000 5.1 190 09:19 10.09.2019
2156 Rain 34 1010 70 10000 2.6 180 08:45 10.09.2019
2157 Rain 34 1010 70 10000 2.6 180 08:26 10.09.2019
2158 Clouds 34 1011 66 10000 3.6 170 07:46 10.09.2019
2159 Clouds 34 1011 66 10000 3.6 170 07:26 10.09.2019
2160 Clouds 34 1011 75 10000 3.6 160 06:53 10.09.2019
2161 Clouds 34 1011 75 10000 3.6 160 06:35 10.09.2019
2162 Clouds 34 1012 79 10000 4.6 160 05:48 10.09.2019
2163 Clouds 32 1013 74 10000 2.6 130 03:57 10.09.2019
2164 Clouds 31 1013 70 10000 2.1 30 02:24 10.09.2019
2165 Clouds 31 1013 70 10000 2.1 30 02:24 10.09.2019
2166 Mist 30 1013 70 10000 1.5 330 01:59 10.09.2019
2167 Mist 30 1013 70 10000 1.5 330 01:59 10.09.2019
2168 Mist 30 1013 70 10000 1.5 330 01:59 10.09.2019
2169 Mist 30 1013 74 10000 2.6 10 01:41 10.09.2019
2170 Mist 29 1013 83 10000 2.1 360 01:21 10.09.2019
2171 Mist 28 1013 83 10000 2.6 350 00:28 10.09.2019
2172 Fog 27 1012 94 10000 1.5 340 23:48 09.09.2019
2173 Fog 26 1012 88 10000 2.1 360 23:20 09.09.2019
2174 Fog 26 1012 88 10000 2.1 360 23:20 09.09.2019
2175 Fog 26 1012 88 10000 2.1 360 22:57 09.09.2019
2176 Fog 26 1012 88 10000 2.6 360 22:39 09.09.2019
2177 Fog 26 1012 88 10000 2.6 340 22:21 09.09.2019
2178 Fog 26 1012 88 10000 2.6 340 21:58 09.09.2019
2179 Fog 26 1011 88 10000 2.1 360 21:40 09.09.2019
2180 Fog 26 1012 83 10000 1.5 360 21:20 09.09.2019
2181 Fog 27 1012 83 10000 1.5 360 20:57 09.09.2019
2182 Fog 27 1012 83 10000 2.1 350 20:37 09.09.2019
2183 Fog 27 1012 78 10000 1 340 20:19 09.09.2019
2184 Fog 27 1012 78 10000 1 340 19:59 09.09.2019
2185 Fog 27 1011 78 10000 0.5 340 19:39 09.09.2019
2186 Fog 27 1014 83 16093 2.1 30 19:20 09.09.2019
2187 Fog 27 1011 70 10000 1 310 18:58 09.09.2019
2188 Fog 27 1011 70 10000 1 310 18:40 09.09.2019
2189 Clouds 27 1011 83 10000 1 0 18:21 09.09.2019
2190 Clouds 27 1011 83 10000 1 0 17:59 09.09.2019
2191 Clouds 27 1011 83 10000 1 0 17:59 09.09.2019
2192 Clouds 27 1011 74 10000 2.6 170 17:40 09.09.2019
2193 Clouds 27 1011 88 10000 4.1 190 17:21 09.09.2019
2194 Clouds 27 1011 88 10000 4.1 190 16:57 09.09.2019
2195 Clouds 27 1011 88 10000 4.6 200 16:38 09.09.2019
2196 Clouds 27 1011 88 10000 4.6 200 16:38 09.09.2019
2197 Clouds 27 1011 88 10000 5.1 200 16:20 09.09.2019
2198 Clouds 28 1011 88 10000 5.1 200 15:56 09.09.2019
2199 Clouds 28 1011 83 10000 4.6 180 15:37 09.09.2019
2200 Clouds 28 1011 83 10000 5.1 190 15:19 09.09.2019
2201 Clouds 28 1011 83 10000 5.1 190 14:57 09.09.2019
2202 Clouds 28 1011 83 10000 5.1 190 14:38 09.09.2019
2203 Clouds 28 1011 83 10000 5.7 190 14:20 09.09.2019
2204 Clouds 29 1010 83 10000 6.2 190 13:45 09.09.2019
2205 Clouds 29 1010 83 10000 6.2 190 13:21 09.09.2019
2206 Clouds 29 1010 83 10000 6.2 190 12:58 09.09.2019
2207 Clouds 29 1009 83 10000 6.7 180 12:40 09.09.2019
2208 Clouds 29 1009 83 10000 6.7 180 12:40 09.09.2019
2209 Clouds 29 1009 83 10000 6.2 180 12:21 09.09.2019
2210 -273 0 0 0 0 0 11:55 09.09.2019
2211 Clouds 30 1008 83 10000 7.2 190 11:36 09.09.2019
2212 Clouds 30 1008 79 10000 7.7 190 11:18 09.09.2019
2213 Clouds 31 1008 79 10000 7.7 190 10:41 09.09.2019
2214 Clouds 32 1007 74 10000 8.2 190 10:21 09.09.2019
2215 Clouds 33 1007 74 10000 8.2 190 09:58 09.09.2019
2216 Clouds 33 1006 89 10000 5.1 190 09:39 09.09.2019
2217 Clouds 33 1006 74 10000 8.7 180 09:21 09.09.2019
2218 Clouds 34 1006 84 10000 5.1 180 08:39 09.09.2019
2219 Clouds 34 1006 84 10000 5.1 180 08:39 09.09.2019
2220 Clouds 35 1006 63 10000 8.7 190 08:20 09.09.2019
2221 Clouds 35 1006 63 10000 8.7 190 07:57 09.09.2019
2222 Clouds 34 1005 74 10000 5.1 190 07:38 09.09.2019
2223 Clear 34 1007 47 16093 2.6 50 07:19 09.09.2019
2224 Clouds 34 1005 74 10000 3.1 190 06:46 09.09.2019
2225 Clouds 34 1005 75 10000 5.1 190 05:34 09.09.2019
2226 Rain 29 1005 62 10000 3.1 230 02:59 09.09.2019
2227 Rain 28 1006 83 16093 4.1 220 02:40 09.09.2019
2228 Rain 26 1004 78 16093 7.2 310 00:54 09.09.2019
2229 Rain 26 997 94 7000 16.5 270 00:23 09.09.2019
2230 Rain 25 994 100 5000 19 270 23:46 08.09.2019
2231 Rain 25 994 100 5000 19 270 23:27 08.09.2019
2232 Rain 25 994 100 5000 19 270 23:27 08.09.2019
2233 Rain 25 1000 94 4023 10.8 320 22:59 08.09.2019
2234 Rain 25 986 100 3000 21.1 290 22:38 08.09.2019
2235 Rain 25 997 100 2414 17 340 22:20 08.09.2019
2236 Rain 25 997 100 2414 17 340 21:57 08.09.2019
2237 Rain 25 973 100 700 28.8 330 21:38 08.09.2019
2238 Rain 25 973 100 700 28.8 330 21:38 08.09.2019
2239 Rain 25 996 100 2012 18.5 10 21:20 08.09.2019
2240 Rain 26 993 88 1500 15.4 90 20:40 08.09.2019
2241 Rain 25 981 100 800 28.8 70 20:22 08.09.2019
2242 Rain 25 981 100 800 28.8 70 19:59 08.09.2019
2243 Rain 26 1000 100 2615 14.4 40 19:39 08.09.2019
2244 Rain 26 1001 88 3200 11.3 80 19:21 08.09.2019
2245 Rain 26 1001 88 3200 11.3 80 18:58 08.09.2019
2246 Rain 26 998 100 3000 17 70 18:39 08.09.2019
2247 Rain 26 1001 94 2000 14.9 70 18:19 08.09.2019
2248 Rain 26 1001 94 2000 14.9 70 17:57 08.09.2019
2249 Rain 26 1003 100 3000 15.4 80 17:37 08.09.2019
2250 Rain 27 1003 100 3000 15.4 80 17:37 08.09.2019
2251 Rain 27 1004 94 3000 14.9 80 17:18 08.09.2019
2252 Rain 27 1004 94 3000 14.9 80 16:54 08.09.2019
2253 Rain 27 1005 94 4500 12.9 80 16:36 08.09.2019
2254 Rain 27 1006 88 3000 12.3 80 16:18 08.09.2019
2255 Rain 27 1007 83 10000 10.3 90 15:41 08.09.2019
2256 Rain 27 1007 83 10000 10.3 90 15:22 08.09.2019
2257 Rain 27 1008 89 10000 10.3 80 14:59 08.09.2019
2258 Rain 27 1011 88 16093 5.1 50 14:39 08.09.2019
2259 Rain 28 1011 88 16093 5.1 50 14:20 08.09.2019
2260 Rain 28 1012 88 16093 4.1 60 13:57 08.09.2019
2261 Rain 28 1012 88 16093 3.6 60 13:38 08.09.2019
2262 Rain 28 1009 83 10000 8.2 90 13:20 08.09.2019
2263 Rain 28 1012 78 16093 4.6 100 12:44 08.09.2019
2264 Rain 28 1012 78 16093 4.6 100 12:24 08.09.2019
2265 Rain 29 1010 89 10000 7.2 90 11:59 08.09.2019
2266 Rain 29 1010 89 10000 6.7 90 11:41 08.09.2019
2267 Rain 29 1010 84 10000 6.7 100 11:20 08.09.2019
2268 Rain 30 1010 84 10000 6.7 100 10:59 08.09.2019
2269 Rain 30 1010 84 10000 7.2 100 10:41 08.09.2019
2270 Rain 30 1010 84 10000 7.2 100 10:22 08.09.2019
2271 Rain 30 1010 84 10000 6.2 100 10:22 08.09.2019
2272 Rain 31 1010 84 10000 6.2 100 09:55 08.09.2019
2273 Rain 31 1010 84 10000 6.2 100 09:55 08.09.2019
2274 Rain 31 1010 74 10000 7.7 110 09:37 08.09.2019
2275 Rain 31 1013 79 16093 2.1 330 09:19 08.09.2019
2276 Rain 32 1013 79 16093 2.1 290 08:39 08.09.2019
2277 Rain 32 1013 83 16093 3.1 260 08:19 08.09.2019
2278 Rain 32 1010 75 10000 7.7 110 07:42 08.09.2019
2279 Clouds 32 1011 79 10000 5.7 100 07:21 08.09.2019
2280 Clouds 32 1011 79 10000 5.7 100 06:57 08.09.2019
2281 Rain 31 1013 78 10000 1.5 210 06:34 08.09.2019
2282 Rain 31 1014 66 16093 2.95 132.25 05:40 08.09.2019
2283 Rain 32 1013 89 10000 1 0 04:58 08.09.2019
2284 Rain 31 1013 79 10000 3.1 130 03:23 08.09.2019
2285 Clouds 30 1014 84 10000 2.1 130 02:48 08.09.2019
2286 Clouds 29 1014 88 10000 3.1 50 01:54 08.09.2019
2287 Clouds 29 1014 88 10000 3.1 50 01:26 08.09.2019
2288 Clouds 28 1014 88 10000 2.1 60 00:47 08.09.2019
2289 Clouds 28 1014 88 10000 2.1 60 00:29 08.09.2019
2290 Clouds 27 1014 94 10000 1.5 60 23:57 07.09.2019
2291 Clouds 26 1014 94 10000 1.5 70 23:37 07.09.2019
2292 Fog 25 1013 94 10000 1.5 80 23:18 07.09.2019
2293 Fog 25 1013 94 10000 1.5 80 22:43 07.09.2019
2294 Fog 25 1013 94 10000 1.5 80 22:23 07.09.2019
2295 Fog 25 1014 94 10000 1 100 21:56 07.09.2019
2296 Fog 25 1013 94 10000 1 100 21:37 07.09.2019
2297 Fog 25 1014 94 10000 2.1 90 21:19 07.09.2019
2298 Fog 25 1013 94 10000 1.5 100 20:39 07.09.2019
2299 Fog 26 1014 94 10000 1 80 20:21 07.09.2019
2300 Fog 26 1014 94 10000 1 80 19:56 07.09.2019
2301 Fog 26 1014 94 10000 1.5 110 19:38 07.09.2019
2302 Clouds 26 1014 94 10000 1.5 100 19:19 07.09.2019
2303 Clouds 26 1014 94 10000 1.5 100 18:58 07.09.2019
2304 Clouds 26 1014 94 10000 2.1 110 18:39 07.09.2019
2305 Clear 26 1016 88 16093 3.85 170.592 18:20 07.09.2019
2306 Clear 26 1016 88 16093 3.85 170.592 17:58 07.09.2019
2307 Clear 26 1016 88 16093 3.85 170.592 17:58 07.09.2019
2308 Clear 26 1016 88 16093 3.85 170.592 17:58 07.09.2019
2309 Clouds 26 1014 94 10000 1.5 120 17:39 07.09.2019
2310 Clouds 26 1015 94 10000 1.5 120 17:18 07.09.2019
2311 Clouds 26 1015 94 10000 1.5 120 16:56 07.09.2019
2312 Clouds 27 1014 94 10000 2.1 130 16:37 07.09.2019
2313 Clouds 27 1015 94 10000 2.1 130 16:18 07.09.2019
2314 Clouds 27 1014 94 10000 2.1 130 15:44 07.09.2019
2315 Clouds 27 1014 94 10000 2.1 130 15:25 07.09.2019
2316 Clouds 27 1015 94 10000 2.6 140 14:56 07.09.2019
2317 Clouds 27 1014 94 10000 2.1 130 14:36 07.09.2019
2318 Clouds 27 1015 83 10000 2.6 140 14:18 07.09.2019
2319 Clouds 28 1015 83 10000 2.6 140 13:55 07.09.2019
2320 Clouds 28 1015 83 10000 2.6 140 13:55 07.09.2019
2321 Clouds 28 1015 79 10000 3.6 170 13:37 07.09.2019
2322 Clouds 28 1015 83 10000 3.1 170 13:18 07.09.2019
2323 Rain 28 1014 74 10000 4.1 180 12:41 07.09.2019
2324 Clouds 28 1015 78 10000 3.1 180 12:23 07.09.2019
2325 Clouds 29 1014 74 10000 4.1 190 11:41 07.09.2019
2326 Clouds 29 1015 74 10000 4.6 180 11:22 07.09.2019
2327 Clouds 29 1015 74 10000 4.6 180 10:56 07.09.2019
2328 Rain 30 1014 79 10000 3.1 150 10:37 07.09.2019
2329 Rain 30 1014 79 10000 5.7 150 10:18 07.09.2019
2330 Rain 31 1013 83 10000 5.1 170 09:42 07.09.2019
2331 Rain 31 1013 83 10000 5.1 170 09:22 07.09.2019
2332 Rain 31 1013 70 10000 6.2 140 09:22 07.09.2019
2333 Rain 32 1013 70 10000 6.2 140 08:55 07.09.2019
2334 Rain 31 1013 79 10000 3.1 160 08:36 07.09.2019
2335 Rain 32 1014 74 10000 6.2 140 08:18 07.09.2019
2336 Rain 32 1013 66 10000 3.6 150 07:43 07.09.2019
2337 Rain 32 1015 52 16093 2.6 210 07:22 07.09.2019
2338 Rain 32 1014 66 10000 2.1 160 06:42 07.09.2019
2339 Clouds 32 1014 62 10000 2.6 140 05:41 07.09.2019
2340 Clouds 32 1014 62 10000 2.6 140 05:41 07.09.2019
2341 Clouds 32 1015 74 10000 2.1 140 04:26 07.09.2019
2342 Clouds 31 1016 79 10000 2.1 140 03:41 07.09.2019
2343 Clouds 29 1016 84 10000 2.1 130 02:31 07.09.2019
2344 Clouds 28 1017 88 10000 1.5 110 01:33 07.09.2019
2345 Clouds 28 1017 88 10000 1 0 00:55 07.09.2019
2346 Clouds 27 1016 88 10000 2.1 130 00:36 07.09.2019
2347 Fog 27 1019 83 16093 1.73 163.76 00:18 07.09.2019
2348 Fog 26 1016 100 10000 2.1 140 23:38 06.09.2019
2349 Fog 25 1017 94 10000 1.5 130 23:20 06.09.2019
2350 Fog 24 1017 94 10000 1.5 130 22:57 06.09.2019
2351 Fog 24 1016 100 10000 1.5 140 22:37 06.09.2019
2352 Fog 24 1016 94 10000 2.1 140 22:19 06.09.2019
2353 Fog 24 1016 94 10000 2.1 140 21:56 06.09.2019
2354 Fog 24 1015 94 10000 3.1 140 21:38 06.09.2019
2355 Fog 24 1016 94 10000 2.6 140 21:19 06.09.2019
2356 -273 0 0 0 0 0 20:55 06.09.2019
2357 Fog 25 1016 94 10000 1.5 120 20:37 06.09.2019
2358 Fog 25 1016 94 10000 2.1 140 20:18 06.09.2019
2359 Fog 25 1016 94 10000 2.1 160 19:42 06.09.2019
2360 Fog 25 1018 88 16093 1.5 300 19:24 06.09.2019
2361 Fog 25 1018 88 16093 1.5 300 18:58 06.09.2019
2362 Clouds 25 1016 88 10000 3.1 170 18:40 06.09.2019
2363 Clouds 26 1016 88 10000 3.6 180 18:22 06.09.2019
2364 Clouds 26 1016 88 10000 3.6 180 17:56 06.09.2019
2365 Clouds 26 1016 88 10000 3.6 180 17:37 06.09.2019
2366 Clouds 26 1016 88 10000 3.1 170 17:18 06.09.2019
2367 Clouds 26 1016 88 10000 4.1 170 16:39 06.09.2019
2368 Clouds 27 1018 88 16093 1.5 290 16:18 06.09.2019
2369 Clouds 27 1017 83 10000 4.1 180 15:41 06.09.2019
2370 Clouds 27 1017 83 10000 4.6 180 15:23 06.09.2019
2371 Clouds 27 1017 83 10000 4.1 180 14:48 06.09.2019
2372 Clouds 27 1017 78 10000 4.1 180 14:20 06.09.2019
2373 Clouds 27 1017 78 10000 4.1 180 13:59 06.09.2019
2374 Clouds 27 1016 78 10000 4.1 190 13:41 06.09.2019
2375 Clear 27 1018 83 16093 3.6 200 13:19 06.09.2019
2376 Clouds 28 1016 74 10000 5.7 190 12:38 06.09.2019
2377 Clouds 28 1015 74 10000 6.2 200 12:19 06.09.2019
2378 Clouds 28 1015 74 10000 6.2 200 11:54 06.09.2019
2379 Clouds 29 1015 70 10000 6.7 200 11:36 06.09.2019
2380 Clouds 29 1016 70 10000 6.2 200 11:18 06.09.2019
2381 Rain 30 1015 62 10000 7.2 200 10:40 06.09.2019
2382 Clouds 30 1015 62 10000 7.2 190 10:21 06.09.2019
2383 Clouds 31 1015 62 10000 7.2 190 09:57 06.09.2019
2384 Clouds 31 1015 70 10000 5.1 190 09:36 06.09.2019
2385 Clouds 31 1015 70 10000 5.1 190 09:36 06.09.2019
2386 Clouds 31 1015 59 10000 7.7 190 09:18 06.09.2019
2387 Clouds 32 1014 74 10000 3.6 170 08:42 06.09.2019
2388 Clouds 32 1014 74 10000 3.6 170 08:42 06.09.2019
2389 Clouds 32 1014 74 10000 3.6 170 08:24 06.09.2019
2390 Clouds 32 1015 66 10000 5.7 150 07:48 06.09.2019
2391 Clouds 32 1015 66 10000 5.7 150 07:27 06.09.2019
2392 Clouds 32 1015 55 10000 5.1 180 06:58 06.09.2019
2393 Clouds 32 1016 62 10000 3.6 160 06:26 06.09.2019
2394 Clouds 32 1016 70 10000 4.1 140 05:43 06.09.2019
2395 Clouds 31 1016 79 10000 2.6 150 04:49 06.09.2019
2396 Clouds 30 1017 59 10000 2.1 190 04:19 06.09.2019
2397 Mist 28 1017 88 6000 2.6 130 02:23 06.09.2019
2398 Clouds 26 1018 78 10000 2.1 10 00:48 06.09.2019
2399 Fog 25 1020 83 16093 1.19 261.078 23:57 05.09.2019
2400 Fog 25 1017 83 10000 1 20 23:57 05.09.2019
2401 Fog 24 1017 83 10000 1 20 23:39 05.09.2019
2402 Fog 24 1017 94 8000 1.19 261.078 23:19 05.09.2019
2403 Fog 23 1017 83 10000 1 0 22:44 05.09.2019
2404 Fog 23 1017 83 10000 1 0 22:25 05.09.2019
2405 Fog 23 1016 83 10000 1.5 320 21:57 05.09.2019
2406 Fog 23 1016 83 10000 1.5 280 21:38 05.09.2019
2407 Fog 24 1017 78 10000 0.5 360 21:19 05.09.2019
2408 Fog 24 1017 78 10000 0.5 360 20:57 05.09.2019
2409 Fog 24 1017 78 10000 2.1 200 20:38 05.09.2019
2410 Fog 24 1017 78 10000 2.1 200 20:38 05.09.2019
2411 Fog 24 1017 83 10000 1.5 190 20:19 05.09.2019
2412 Fog 24 1017 83 10000 1.5 190 19:56 05.09.2019
2413 Fog 24 1017 83 10000 2.1 210 19:37 05.09.2019
2414 Fog 24 1019 88 16093 2.76 174.345 19:19 05.09.2019
2415 Mist 25 1017 78 10000 3.1 170 18:41 05.09.2019
2416 Clouds 25 1017 69 10000 3.6 180 18:22 05.09.2019
2417 Clouds 25 1017 69 10000 3.6 180 17:57 05.09.2019
2418 Clouds 25 1017 74 10000 3.1 180 17:39 05.09.2019
2419 Clouds 25 1017 74 10000 3.1 180 17:20 05.09.2019
2420 Clouds 25 1018 74 10000 0.5 0 16:42 05.09.2019
2421 Clouds 26 1017 74 10000 1 0 16:21 05.09.2019
2422 Clouds 26 1017 74 10000 1 0 15:58 05.09.2019
2423 Clouds 26 1017 69 10000 3.1 250 15:39 05.09.2019
2424 Clouds 26 1018 69 10000 3.6 200 15:19 05.09.2019
2425 Clouds 26 1018 69 10000 3.6 200 15:19 05.09.2019
2426 Clouds 26 1018 69 10000 3.6 200 14:56 05.09.2019
2427 Clouds 26 1018 78 10000 4.1 180 14:38 05.09.2019
2428 Clouds 26 1018 78 10000 4.1 180 14:38 05.09.2019
2429 Clouds 26 1018 74 10000 3.6 190 14:18 05.09.2019
2430 Clouds 26 1017 83 10000 4.1 140 13:42 05.09.2019
2431 Clouds 27 1017 78 10000 2.6 140 13:19 05.09.2019
2432 Clouds 27 1017 78 10000 2.6 140 12:43 05.09.2019
2433 Clouds 27 1017 78 10000 1.5 180 12:25 05.09.2019
2434 Clouds 28 1017 78 10000 1.5 180 11:57 05.09.2019
2435 Clouds 28 1016 78 10000 1.5 150 11:38 05.09.2019
2436 Clouds 28 1017 78 10000 1 90 11:18 05.09.2019
2437 Clouds 28 1017 78 10000 1 70 10:41 05.09.2019
2438 Clouds 28 1017 78 10000 1 70 10:22 05.09.2019
2439 Clouds 28 1017 78 10000 1 70 10:22 05.09.2019
2440 Clouds 28 1017 74 10000 1 80 09:57 05.09.2019
2441 Clouds 29 1016 66 10000 2.1 170 09:38 05.09.2019
2442 Clouds 29 1019 74 16093 2.6 20 09:18 05.09.2019
2443 Clouds 29 1019 74 16093 2.6 20 09:18 05.09.2019
2444 Clouds 29 1019 74 16093 2.6 20 09:18 05.09.2019
2445 Clouds 29 1016 70 10000 1.5 170 08:45 05.09.2019
2446 Clouds 29 1016 70 10000 1.5 170 08:26 05.09.2019
2447 Clouds 29 1016 66 10000 1.5 140 07:45 05.09.2019
2448 Clouds 29 1016 66 10000 1.5 140 07:27 05.09.2019
2449 Clouds 29 1017 66 10000 1 0 06:54 05.09.2019
2450 Clouds 29 1017 66 10000 1 0 06:30 05.09.2019
2451 Clouds 28 1018 70 10000 1.5 0 05:50 05.09.2019
2452 Clouds 28 1018 70 10000 1.5 0 05:30 05.09.2019
2453 Clouds 27 1018 69 10000 2.1 50 04:50 05.09.2019
2454 Clouds 27 1021 78 16093 1.5 10 04:24 05.09.2019
2455 Clouds 27 1019 78 10000 2.6 30 03:38 05.09.2019
2456 Clouds 25 1019 78 10000 2.1 30 02:46 05.09.2019
2457 Clouds 25 1019 78 10000 2.1 30 02:26 05.09.2019
2458 Clouds 25 1020 83 10000 4.1 10 01:36 05.09.2019
2459 Clouds 24 1019 83 10000 3.1 10 00:42 05.09.2019
2460 Clouds 24 1022 88 16093 2.1 320 00:20 05.09.2019
2461 Clouds 24 1019 83 10000 4.1 20 23:55 04.09.2019
2462 Clouds 24 1019 83 10000 4.1 20 23:36 04.09.2019
2463 Clouds 23 1019 88 10000 5.7 20 23:18 04.09.2019
2464 Clouds 23 1019 88 10000 5.1 20 22:40 04.09.2019
2465 Clouds 23 1019 88 10000 3.6 30 22:19 04.09.2019
2466 Clouds 23 1018 88 10000 4.1 10 21:40 04.09.2019
2467 Clouds 23 1019 83 10000 3.1 40 21:20 04.09.2019
2468 Clouds 23 1019 83 10000 3.1 40 20:57 04.09.2019
2469 Clouds 23 1019 83 10000 3.1 40 20:57 04.09.2019
2470 Clouds 23 1018 83 10000 4.1 30 20:39 04.09.2019
2471 Clouds 23 1020 88 16093 1.5 320 20:19 04.09.2019
2472 Clouds 23 1020 88 16093 1.5 320 20:19 04.09.2019
2473 Clouds 23 1020 88 16093 1.5 320 19:57 04.09.2019
2474 Clouds 23 1020 88 16093 2.1 340 19:38 04.09.2019
2475 Clouds 23 1020 88 16093 2.6 350 19:19 04.09.2019
2476 Clouds 23 1018 83 10000 4.1 30 18:39 04.09.2019
2477 Clouds 23 1018 83 10000 4.1 30 18:39 04.09.2019
2478 Clouds 24 1021 88 16093 2.61 95.169 18:20 04.09.2019
2479 Clouds 23 1019 83 10000 2.6 10 17:54 04.09.2019
2480 Clouds 23 1019 83 10000 2.6 10 17:54 04.09.2019
2481 Clouds 23 1019 83 10000 2.6 10 17:36 04.09.2019
2482 Clouds 23 1019 83 10000 3.1 40 17:18 04.09.2019
2483 Clouds 23 1019 83 10000 2.6 40 16:46 04.09.2019
2484 Clouds 23 1019 83 10000 2.6 40 16:46 04.09.2019
2485 Clouds 23 1019 83 10000 2.6 40 16:27 04.09.2019
2486 Clouds 24 1020 83 10000 2.6 60 15:56 04.09.2019
2487 Clouds 24 1019 83 10000 3.6 50 15:38 04.09.2019
2488 Clouds 24 1019 78 10000 3.6 40 15:20 04.09.2019
2489 Clouds 24 1019 78 10000 3.6 40 14:56 04.09.2019
2490 Clouds 24 1020 83 10000 4.1 40 14:37 04.09.2019
2491 Clouds 24 1019 78 10000 4.1 30 14:19 04.09.2019
2492 Clouds 24 1019 83 10000 4.1 30 13:40 04.09.2019
2493 Clouds 24 1019 78 10000 4.6 60 13:22 04.09.2019
2494 Clouds 24 1019 78 10000 4.6 60 12:58 04.09.2019
2495 Clouds 24 1021 94 16093 2.6 20 12:38 04.09.2019
2496 Rain 24 1021 94 16093 5.16 93.357 12:19 04.09.2019
2497 Clouds 24 1021 94 16093 1.5 70 11:55 04.09.2019
2498 Clouds 24 1021 94 16093 1.5 70 11:36 04.09.2019
2499 Rain 24 1021 94 16093 2.6 80 11:18 04.09.2019
2500 Rain 24 1020 88 16093 3.1 80 10:43 04.09.2019
2501 Rain 25 1020 88 16093 3.1 80 10:25 04.09.2019
2502 Clouds 25 1018 78 10000 5.1 60 09:47 04.09.2019
2503 Clouds 25 1018 78 10000 5.1 60 09:27 04.09.2019
2504 Clouds 25 1018 83 10000 6.2 40 08:59 04.09.2019
2505 Clouds 25 1017 83 10000 5.7 60 08:40 04.09.2019
2506 Clouds 26 1017 78 10000 4.6 60 08:22 04.09.2019
2507 Clouds 26 1017 78 10000 3.1 40 07:49 04.09.2019
2508 Clouds 26 1017 78 10000 3.1 40 07:29 04.09.2019
2509 Clouds 26 1018 78 10000 2.1 30 06:40 04.09.2019
2510 Clouds 26 1018 83 10000 3.6 50 06:20 04.09.2019
2511 Clouds 25 1021 83 16093 1.5 40 04:52 04.09.2019
2512 Clouds 25 1021 83 16093 1.58 82.947 04:18 04.09.2019
2513 Clouds 24 1022 88 16093 3.6 50 01:39 04.09.2019
2514 Clouds 23 1021 88 16093 4.1 10 00:55 04.09.2019
2515 Clouds 23 1021 88 16093 4.1 10 00:34 04.09.2019
2516 Clouds 23 1017 83 10000 4.6 360 23:56 03.09.2019
2517 Clouds 23 1017 83 10000 4.6 360 23:56 03.09.2019
2518 Clouds 23 1017 83 10000 4.6 360 23:38 03.09.2019
2519 Clouds 23 1018 83 10000 5.1 10 23:19 03.09.2019
2520 Clouds 22 1020 94 16093 2.1 350 22:40 03.09.2019
2521 Clouds 22 1017 83 10000 4.1 360 22:22 03.09.2019
2522 Clouds 22 1017 83 10000 4.1 360 22:22 03.09.2019
2523 Clouds 23 1017 83 10000 4.1 360 21:56 03.09.2019
2524 Clouds 23 1017 83 10000 4.1 360 21:56 03.09.2019
2525 Clouds 23 1017 83 10000 3.6 10 21:38 03.09.2019
2526 Clouds 23 1019 94 16093 3.1 360 21:20 03.09.2019
2527 Rain 23 1017 83 10000 4.1 20 20:43 03.09.2019
2528 Rain 23 1017 83 10000 4.1 20 20:43 03.09.2019
2529 Rain 23 1019 94 14484 2.1 30 20:24 03.09.2019
2530 Rain 23 1019 94 14484 2.1 30 19:57 03.09.2019
2531 Clouds 23 1019 94 16093 2.6 10 19:38 03.09.2019
2532 Clouds 23 1019 94 11265 3.6 10 19:19 03.09.2019
2533 Clouds 23 1019 94 16093 1.5 50 18:56 03.09.2019
2534 Clouds 23 1019 94 16093 1.5 50 18:38 03.09.2019
2535 Clouds 23 1019 100 16093 2.6 60 18:18 03.09.2019
2536 Rain 23 1019 100 14484 2.6 70 17:42 03.09.2019
2537 Rain 23 1019 100 14484 2.6 50 17:21 03.09.2019
2538 Rain 23 1019 100 14484 2.6 50 16:59 03.09.2019
2539 Rain 23 1020 94 12874 2.6 10 16:39 03.09.2019
2540 Rain 23 1020 94 16093 3.1 30 16:21 03.09.2019
2541 Rain 23 1020 100 16093 3.6 30 15:41 03.09.2019
2542 Rain 23 1020 100 16093 3.6 60 15:22 03.09.2019
2543 Rain 24 1020 100 16093 3.6 60 14:59 03.09.2019
2544 Rain 24 1017 94 10000 6.7 70 14:40 03.09.2019
2545 Rain 24 1018 94 7000 7.2 80 14:21 03.09.2019
2546 Rain 24 1018 94 7000 7.2 80 13:58 03.09.2019
2547 Rain 24 1019 88 11265 3.1 40 13:38 03.09.2019
2548 Rain 24 1019 88 11265 3.1 40 13:38 03.09.2019
2549 Rain 25 1019 83 16093 3.6 50 13:19 03.09.2019
2550 Rain 25 1019 83 16093 3.6 50 12:57 03.09.2019
2551 Rain 25 1017 88 10000 5.7 90 12:38 03.09.2019
2552 Rain 26 1016 88 10000 7.7 90 12:20 03.09.2019
2553 Rain 26 1016 83 10000 6.2 90 11:42 03.09.2019
2554 Rain 27 1018 88 16093 4.1 360 11:23 03.09.2019
2555 Rain 27 1018 88 16093 4.1 360 10:57 03.09.2019
2556 Rain 27 1015 83 10000 5.7 90 10:39 03.09.2019
2557 Rain 27 1017 74 10000 2.6 20 10:20 03.09.2019
2558 Rain 27 1018 88 11265 4.1 10 09:44 03.09.2019
2559 Rain 27 1018 88 11265 4.1 10 09:26 03.09.2019
2560 Rain 28 1016 88 10000 6.2 90 08:56 03.09.2019
2561 Rain 28 1018 83 14484 4.6 10 08:37 03.09.2019
2562 Rain 28 1016 83 10000 6.2 90 08:19 03.09.2019
2563 Rain 28 1018 78 14484 2.1 30 07:42 03.09.2019
2564 Rain 28 1018 83 11265 3.6 50 07:23 03.09.2019
2565 Rain 28 1016 78 8000 4.6 60 06:45 03.09.2019
2566 Rain 29 1016 83 10000 5.1 50 06:18 03.09.2019
2567 Rain 28 1017 78 9000 2.6 30 03:43 03.09.2019
2568 Rain 27 1017 83 8000 2.6 30 02:47 03.09.2019
2569 Rain 26 1017 83 8000 2.6 30 02:25 03.09.2019
2570 Clouds 27 1017 88 10000 3.1 60 01:52 03.09.2019
2571 Haze 26 1017 88 10000 3.1 60 01:33 03.09.2019
2572 Mist 26 1017 78 4023 1.5 0 00:56 03.09.2019
2573 Mist 26 1017 94 10000 3.6 40 00:25 03.09.2019
2574 Mist 25 1016 94 10000 4.1 30 23:40 02.09.2019
2575 Mist 25 1016 94 10000 4.1 30 23:40 02.09.2019
2576 Mist 25 1016 94 10000 4.1 30 23:40 02.09.2019
2577 Mist 25 1019 94 6437 2.1 70 23:20 02.09.2019
2578 Mist 25 1019 94 6437 2.1 70 22:57 02.09.2019
2579 Mist 25 1016 88 10000 4.1 20 22:39 02.09.2019
2580 Mist 25 1016 88 10000 4.1 20 22:20 02.09.2019
2581 Mist 25 1016 88 10000 4.1 20 21:58 02.09.2019
2582 Mist 25 1018 94 8047 2.1 50 21:40 02.09.2019
2583 Clouds 25 1016 88 10000 2.1 300 21:20 02.09.2019
2584 Clouds 25 1016 88 10000 2.1 300 20:59 02.09.2019
2585 Clouds 25 1018 94 11265 3.1 20 20:40 02.09.2019
2586 Clouds 25 1015 88 10000 2.6 290 20:19 02.09.2019
2587 Clouds 25 1018 88 11265 1.5 50 19:57 02.09.2019
2588 Clouds 26 1018 88 11265 1.5 50 19:38 02.09.2019
2589 Clouds 25 1018 88 11265 1.5 30 19:19 02.09.2019
2590 Clouds 26 1016 83 10000 2.6 300 18:40 02.09.2019
2591 Clouds 26 1018 88 12874 3.6 30 18:22 02.09.2019
2592 Clouds 26 1019 88 12874 2.6 20 17:58 02.09.2019
2593 Clouds 26 1019 88 12874 2.6 20 17:58 02.09.2019
2594 Clouds 26 1019 88 12874 2.6 20 17:39 02.09.2019
2595 Rain 26 1016 78 10000 2.6 250 17:21 02.09.2019
2596 Rain 27 1016 78 10000 2.6 250 16:58 02.09.2019
2597 Clouds 27 1016 78 10000 3.6 230 16:37 02.09.2019
2598 Clouds 27 1016 74 10000 3.6 220 16:19 02.09.2019
2599 Clouds 27 1016 74 10000 4.6 200 15:44 02.09.2019
2600 Clouds 27 1016 74 10000 4.6 200 15:22 02.09.2019
2601 Clouds 27 1016 74 10000 5.7 200 14:56 02.09.2019
2602 Mist 28 1016 79 10000 6.2 190 14:37 02.09.2019
2603 Mist 28 1016 74 10000 6.7 180 14:19 02.09.2019
2604 Mist 27 1016 74 10000 6.7 180 13:54 02.09.2019
2605 Clouds 28 1015 74 10000 6.2 190 13:36 02.09.2019
2606 Clear 28 1018 74 16093 3.1 20 13:18 02.09.2019
2607 Clouds 28 1015 74 10000 6.7 200 12:41 02.09.2019
2608 Clouds 28 1015 74 10000 7.7 210 12:23 02.09.2019
2609 Clouds 28 1015 74 10000 7.7 210 11:58 02.09.2019
2610 Clouds 28 1015 74 10000 7.2 190 11:38 02.09.2019
2611 Clouds 29 1016 70 10000 9.3 200 11:19 02.09.2019
2612 Rain 29 1016 70 10000 9.3 200 10:55 02.09.2019
2613 Rain 30 1015 66 10000 7.2 190 10:36 02.09.2019
2614 Rain 30 1015 66 10000 7.2 190 10:36 02.09.2019
2615 Rain 30 1016 70 10000 7.2 180 10:18 02.09.2019
2616 Rain 30 1016 70 10000 7.2 180 10:18 02.09.2019
2617 Clouds 30 1015 83 10000 6.2 180 09:42 02.09.2019
2618 Clouds 31 1015 74 10000 8.7 180 09:22 02.09.2019
2619 Clouds 31 1015 79 10000 7.2 180 08:44 02.09.2019
2620 Clouds 31 1015 70 10000 8.7 180 08:23 02.09.2019
2621 Clouds 31 1015 70 10000 8.7 180 07:58 02.09.2019
2622 Clouds 31 1015 79 10000 5.7 180 07:39 02.09.2019
2623 Clouds 32 1017 58 16093 2.6 100 07:21 02.09.2019
2624 Clouds 32 1015 74 10000 4.6 160 06:43 02.09.2019
2625 Clouds 32 1016 70 10000 4.1 140 05:54 02.09.2019
2626 Clouds 32 1016 70 10000 4.1 140 05:54 02.09.2019
2627 Clouds 31 1016 70 10000 4.1 140 05:27 02.09.2019
2628 Clouds 31 1016 74 10000 3.6 150 04:53 02.09.2019
2629 Clouds 29 1017 83 8000 3.1 150 02:46 02.09.2019
2630 Mist 28 1018 88 5000 1.5 40 01:43 02.09.2019
2631 Fog 26 1018 94 800 0.5 0 00:47 02.09.2019
2632 Fog 26 1018 94 800 0.5 0 00:28 02.09.2019
2633 Fog 25 1017 94 10000 2.1 30 23:41 01.09.2019
2634 Fog 24 1018 94 10000 1.5 350 23:21 01.09.2019
2635 Fog 24 1018 94 10000 1.5 350 22:57 01.09.2019
2636 Mist 24 1017 83 10000 2.6 280 22:39 01.09.2019
2637 Mist 24 1018 94 3100 2.1 50 22:19 01.09.2019
2638 Mist 24 1018 94 3100 2.1 50 21:55 01.09.2019
2639 Mist 24 1018 94 4900 1 60 21:37 01.09.2019
2640 Fog 24 1018 94 6000 1 40 21:18 01.09.2019
2641 Fog 24 1017 83 10000 2.1 200 20:55 01.09.2019
2642 Fog 25 1017 83 10000 2.1 200 20:36 01.09.2019
2643 Fog 25 1020 83 16093 2.1 310 20:18 01.09.2019
2644 Fog 25 1020 83 16093 2.1 310 20:18 01.09.2019
2645 -273 0 0 0 0 0 19:55 01.09.2019
2646 Fog 25 1020 83 16093 2.1 320 19:55 01.09.2019
2647 Clouds 25 1020 83 16093 2.1 320 19:37 01.09.2019
2648 Mist 25 1020 83 16093 2.6 290 19:18 01.09.2019
2649 Mist 25 1017 83 10000 3.1 170 18:41 01.09.2019
2650 Mist 25 1020 78 16093 2.6 290 18:23 01.09.2019
2651 Mist 25 1020 78 16093 2.6 290 18:23 01.09.2019
2652 Mist 26 1018 83 10000 4.1 180 17:55 01.09.2019
2653 Mist 26 1018 83 10000 4.1 180 17:36 01.09.2019
2654 Clouds 26 1020 74 16093 1.5 280 17:18 01.09.2019
2655 Clouds 26 1018 88 10000 3.1 130 16:39 01.09.2019
2656 Clouds 26 1019 88 10000 3.1 120 16:18 01.09.2019
2657 Clouds 26 1018 88 10000 3.6 130 15:46 01.09.2019
2658 Clouds 26 1018 88 10000 3.6 130 15:26 01.09.2019
2659 Clouds 26 1021 74 16093 1.5 140 14:56 01.09.2019
2660 Clouds 26 1019 88 10000 4.1 120 14:37 01.09.2019
2661 Clouds 27 1019 83 10000 4.6 120 14:19 01.09.2019
2662 Clouds 27 1018 83 10000 4.6 110 13:42 01.09.2019
2663 Clouds 27 1018 74 10000 5.1 110 13:23 01.09.2019
2664 Clouds 27 1018 74 10000 5.1 110 12:56 01.09.2019
2665 Clouds 28 1018 74 10000 6.2 110 12:37 01.09.2019
2666 Clouds 28 1017 78 10000 3.1 130 12:19 01.09.2019
2667 Clouds 28 1017 78 10000 3.6 150 11:40 01.09.2019
2668 Clouds 28 1016 70 10000 4.6 180 11:19 01.09.2019
2669 Clouds 30 1016 70 10000 4.6 180 10:57 01.09.2019
2670 Clouds 30 1016 66 10000 5.1 180 10:38 01.09.2019
2671 Clouds 30 1016 62 10000 5.7 180 10:20 01.09.2019
2672 -273 0 0 0 0 0 09:42 01.09.2019
2673 Clouds 31 1016 74 10000 2.6 160 09:23 01.09.2019
2674 Clouds 31 1016 70 10000 2.6 140 08:43 01.09.2019
2675 Clouds 31 1016 70 10000 2.6 150 08:22 01.09.2019
2676 Clouds 31 1016 74 10000 3.6 140 07:47 01.09.2019
2677 Clouds 31 1016 74 10000 3.6 140 07:23 01.09.2019
2678 Clouds 31 1016 70 10000 3.1 160 06:41 01.09.2019
2679 Clouds 31 1019 58 16093 1.08 103.003 06:19 01.09.2019
2680 Clouds 31 1016 70 10000 3.6 160 05:38 01.09.2019
2681 Clouds 30 1017 70 10000 3.1 140 04:27 01.09.2019
2682 Clouds 30 1017 66 10000 2.6 60 03:39 01.09.2019
2683 Clouds 28 1017 78 10000 3.6 40 02:57 01.09.2019
2684 Clouds 28 1017 74 10000 2.1 20 02:26 01.09.2019
2685 Clouds 28 1017 83 10000 3.6 40 01:50 01.09.2019
2686 Clouds 27 1019 73 16093 3.1 10 01:22 01.09.2019
2687 Mist 27 1016 83 9000 3.1 40 00:45 01.09.2019
2688 Mist 26 1019 78 16093 3.6 10 00:22 01.09.2019
2689 Mist 25 1016 88 9000 2.6 20 23:48 31.08.2019
2690 Mist 25 1016 88 9000 2.6 20 23:22 31.08.2019
2691 Mist 25 1016 94 3200 1 0 22:58 31.08.2019
2692 Mist 25 1016 94 2500 0.5 0 22:40 31.08.2019
2693 Mist 25 1015 94 3100 1.5 50 22:22 31.08.2019
2694 Mist 25 1015 94 3100 1.5 50 21:55 31.08.2019
2695 Mist 25 1017 83 16093 3.1 20 21:37 31.08.2019
2696 Mist 25 1015 94 4000 1 70 21:19 31.08.2019
2697 Mist 25 1014 88 10000 2.6 280 20:46 31.08.2019
2698 Mist 25 1014 88 10000 2.6 280 20:28 31.08.2019
2699 Mist 25 1014 83 10000 3.6 270 19:55 31.08.2019
2700 Mist 26 1014 83 10000 3.6 270 19:37 31.08.2019
2701 Mist 26 1017 83 16093 2.1 30 19:19 31.08.2019
2702 Mist 26 1014 78 10000 4.1 240 18:39 31.08.2019
2703 Clouds 26 1017 88 16093 3.1 20 18:20 31.08.2019
2704 Clouds 26 1016 88 16093 4.1 10 17:55 31.08.2019
2705 Clouds 26 1016 88 16093 4.1 10 17:37 31.08.2019
2706 Clouds 26 1014 69 10000 4.1 250 17:18 31.08.2019
2707 Clouds 26 1014 69 10000 4.1 250 16:55 31.08.2019
2708 Clear 26 1013 69 10000 4.1 210 16:37 31.08.2019
2709 Clear 27 1013 69 10000 5.1 200 16:19 31.08.2019
2710 Clear 27 1013 74 10000 6.7 190 15:42 31.08.2019
2711 Clouds 27 1013 74 10000 4.6 170 15:19 31.08.2019
2712 Clouds 27 1013 74 10000 4.6 170 14:57 31.08.2019
2713 Clouds 27 1012 69 10000 5.1 170 14:39 31.08.2019
2714 Clouds 27 1012 69 10000 5.1 170 14:39 31.08.2019
2715 Clear 27 1013 69 10000 5.1 190 14:19 31.08.2019
2716 Clear 28 1012 66 10000 5.1 190 13:41 31.08.2019
2717 Clear 28 1013 66 10000 5.7 190 13:23 31.08.2019
2718 Clear 28 1013 66 10000 5.7 190 13:23 31.08.2019
2719 Clear 28 1013 66 10000 5.7 190 12:59 31.08.2019
2720 Rain 28 1012 66 10000 6.2 190 12:39 31.08.2019
2721 Clouds 29 1011 62 10000 5.7 200 12:20 31.08.2019
2722 Clouds 29 1011 62 10000 5.1 210 11:55 31.08.2019
2723 Clouds 29 1011 62 10000 5.1 210 11:36 31.08.2019
2724 Clouds 29 1011 58 10000 7.7 200 11:18 31.08.2019
2725 Clouds 29 1011 58 10000 7.7 200 11:18 31.08.2019
2726 Clouds 29 1011 62 10000 3.6 170 10:41 31.08.2019
2727 Clouds 29 1011 66 10000 6.2 190 10:19 31.08.2019
2728 Clouds 30 1011 66 10000 6.2 190 09:56 31.08.2019
2729 Clouds 30 1010 83 10000 5.1 160 09:37 31.08.2019
2730 Clouds 30 1010 66 10000 6.2 200 09:19 31.08.2019
2731 Clouds 30 1010 74 10000 5.1 180 08:42 31.08.2019
2732 Clouds 31 1011 66 10000 8.2 180 08:23 31.08.2019
2733 Clouds 31 1010 79 10000 4.1 170 07:40 31.08.2019
2734 Clouds 31 1012 66 16093 3.1 60 07:22 31.08.2019
2735 Clouds 31 1011 83 10000 2.6 120 06:28 31.08.2019
2736 Clouds 31 1011 66 10000 1 0 05:59 31.08.2019
2737 Mist 30 1011 79 10000 4.6 160 05:32 31.08.2019
2738 Mist 29 1011 83 10000 4.1 140 04:34 31.08.2019
2739 Clouds 28 1015 83 16093 2.16 86.115 03:45 31.08.2019
2740 Rain 27 1013 78 10000 1 0 02:36 31.08.2019
2741 Clouds 27 1014 88 16093 2.6 360 01:53 31.08.2019
2742 Clouds 27 1014 88 16093 2.6 360 01:33 31.08.2019
2743 Mist 27 1011 88 10000 2.6 360 00:50 31.08.2019
2744 Mist 26 1011 94 5000 1 0 00:30 31.08.2019
2745 Mist 26 1010 88 10000 2.1 270 23:57 30.08.2019
2746 Mist 25 1010 88 10000 2.1 270 23:39 30.08.2019
2747 Clouds 25 1010 83 10000 3.1 270 23:18 30.08.2019
2748 Clouds 25 1010 83 10000 3.1 270 23:18 30.08.2019
2749 Clouds 25 1010 83 10000 2.1 320 22:42 30.08.2019
2750 Clouds 25 1010 83 10000 2.6 310 22:24 30.08.2019
2751 Clouds 25 1010 83 10000 2.6 310 21:58 30.08.2019
2752 Clouds 25 1010 83 10000 3.1 270 21:38 30.08.2019
2753 Clouds 25 1012 88 16093 1.5 10 21:19 30.08.2019
2754 Clouds 25 1012 88 16093 1.5 10 20:59 30.08.2019
2755 Clouds 25 1012 94 16093 2.6 310 20:40 30.08.2019
2756 Clouds 25 1012 88 16093 1.5 360 20:20 30.08.2019
2757 Clouds 25 1012 88 16093 1.5 360 19:57 30.08.2019
2758 Clouds 25 1012 88 16093 1.5 360 19:57 30.08.2019
2759 Clouds 25 1011 94 16093 2.11 358.153 19:39 30.08.2019
2760 Clouds 26 1009 83 10000 3.6 210 19:19 30.08.2019
2761 Clouds 26 1011 88 16093 1.5 40 18:54 30.08.2019
2762 Clouds 26 1011 88 16093 1.5 40 18:36 30.08.2019
2763 Clouds 26 1011 94 16093 2.48 350.237 18:18 30.08.2019
2764 Rain 26 1009 78 10000 5.1 200 17:55 30.08.2019
2765 Rain 26 1009 78 10000 5.1 200 17:37 30.08.2019
2766 Rain 26 1009 78 10000 5.7 190 17:18 30.08.2019
2767 Clouds 26 1009 78 10000 4.1 200 16:43 30.08.2019
2768 Clouds 26 1009 78 10000 4.1 200 16:22 30.08.2019
2769 Clouds 26 1009 78 10000 5.7 220 15:44 30.08.2019
2770 Clouds 26 1009 78 10000 5.7 220 15:24 30.08.2019
2771 Clouds 26 1009 78 10000 6.2 230 14:57 30.08.2019
2772 Clouds 26 1011 88 16093 1.11 359.586 14:38 30.08.2019
2773 Clouds 26 1012 94 16093 1.11 359.586 14:20 30.08.2019
2774 Clouds 26 1011 94 16093 1.11 359.586 13:43 30.08.2019
2775 Clouds 26 1008 78 10000 7.2 220 13:23 30.08.2019
2776 Rain 26 1008 78 10000 7.2 200 12:56 30.08.2019
2777 Rain 27 1008 78 10000 7.2 200 12:38 30.08.2019
2778 Rain 27 1007 74 10000 6.7 210 12:20 30.08.2019
2779 Rain 27 1006 74 10000 7.2 200 11:41 30.08.2019
2780 Rain 27 1007 74 10000 9.3 200 11:23 30.08.2019
2781 Rain 27 1007 83 10000 7.7 210 10:40 30.08.2019
2782 Rain 27 1007 78 10000 8.2 190 10:22 30.08.2019
2783 Rain 27 1007 78 10000 8.2 190 09:58 30.08.2019
2784 Rain 27 1007 78 10000 8.2 190 09:58 30.08.2019
2785 Rain 27 1007 88 10000 4.6 190 09:40 30.08.2019
2786 Rain 28 1009 78 16093 1.5 30 09:19 30.08.2019
2787 Rain 28 1009 78 16093 1.5 30 08:54 30.08.2019
2788 Rain 28 1007 83 10000 6.2 200 08:36 30.08.2019
2789 Clouds 28 1007 74 10000 8.2 190 08:18 30.08.2019
2790 Clouds 27 1007 88 10000 7.7 200 07:39 30.08.2019
2791 Clear 27 1009 83 16093 5.86 338.28 07:21 30.08.2019
2792 Rain 27 1007 94 10000 7.7 200 06:45 30.08.2019
2793 Rain 26 1007 94 10000 7.7 200 06:27 30.08.2019
2794 Rain 25 1008 94 16093 4.6 190 05:43 30.08.2019
2795 Rain 25 1008 94 10000 7.7 190 03:59 30.08.2019
2796 Rain 24 1008 100 7000 7.2 160 03:38 30.08.2019
2797 Rain 25 1009 100 5000 4.6 180 02:55 30.08.2019
2798 Rain 25 1011 100 6437 4.1 190 02:26 30.08.2019
2799 Rain 25 1009 88 6000 6.7 220 01:28 30.08.2019
2800 Rain 26 1010 94 6000 1 260 00:29 30.08.2019
2801 Rain 26 1011 88 6437 2.1 240 23:59 29.08.2019
2802 Rain 26 1010 94 16093 1.5 230 23:40 29.08.2019
2803 Clouds 27 1009 88 16093 1.79 31.2 23:20 29.08.2019
2804 Clouds 26 1009 88 16093 1.5 290 22:43 29.08.2019
2805 Clouds 26 1009 88 16093 1.5 290 22:25 29.08.2019
2806 Clouds 27 1007 74 10000 8.7 210 21:56 29.08.2019
2807 Clouds 27 1007 74 10000 3.6 220 21:38 29.08.2019
2808 Clouds 27 1007 74 10000 6.2 220 21:20 29.08.2019
2809 Clouds 27 1007 74 10000 6.2 220 20:54 29.08.2019
2810 Clouds 27 1007 74 10000 6.7 230 20:36 29.08.2019
2811 Clouds 27 1007 74 10000 6.7 230 20:18 29.08.2019
2812 Clouds 27 1007 74 10000 7.7 230 19:44 29.08.2019
2813 Clouds 27 1007 74 10000 6.7 230 19:25 29.08.2019
2814 Clouds 27 1007 74 10000 7.7 220 18:44 29.08.2019
2815 Clouds 27 1007 74 10000 7.7 220 18:21 29.08.2019
2816 Clouds 27 1007 78 10000 7.7 220 17:57 29.08.2019
2817 Clouds 27 1007 74 10000 7.7 220 17:39 29.08.2019
2818 Clouds 27 1007 74 10000 7.7 220 17:20 29.08.2019
2819 Clouds 27 1007 74 10000 7.7 220 17:20 29.08.2019
2820 Clouds 27 1007 74 10000 6.7 200 16:59 29.08.2019
2821 Clouds 27 1008 65 0 0.89 198 16:40 29.08.2019
2822 Clouds 27 1007 74 10000 6.2 180 16:22 29.08.2019
2823 Clouds 28 1007 74 10000 6.2 180 15:40 29.08.2019
2824 Clouds 28 1007 74 10000 7.7 200 15:21 29.08.2019
2825 Clouds 28 1007 74 10000 7.7 200 14:56 29.08.2019
2826 Clouds 28 1007 74 10000 8.2 190 14:37 29.08.2019
2827 Clouds 28 1008 74 10000 7.7 200 14:19 29.08.2019
2828 Clouds 28 1008 74 10000 7.7 200 13:55 29.08.2019
2829 Clouds 28 1007 74 10000 7.7 190 13:37 29.08.2019
2830 Clouds 28 1007 74 10000 6.7 200 13:18 29.08.2019
2831 Clouds 28 1007 74 10000 6.7 180 12:55 29.08.2019
2832 Clouds 28 1007 74 10000 6.7 180 12:36 29.08.2019
2833 Clouds 29 1006 74 10000 9.3 190 12:18 29.08.2019
2834 Clouds 29 1006 74 10000 7.2 190 11:41 29.08.2019
2835 Clouds 29 1006 70 10000 8.7 200 11:20 29.08.2019
2836 Clouds 30 1006 70 10000 8.7 200 10:57 29.08.2019
2837 Clouds 30 1006 70 10000 3.6 190 10:38 29.08.2019
2838 Clouds 30 1006 70 10000 3.6 190 10:38 29.08.2019
2839 Clouds 30 1006 66 10000 8.2 190 10:19 29.08.2019
2840 Clouds 31 1005 79 10000 6.2 180 09:41 29.08.2019
2841 Clouds 32 1005 55 10000 8.2 210 09:19 29.08.2019
2842 Clouds 32 1006 62 10000 7.7 190 08:45 29.08.2019
2843 Clouds 32 1006 62 10000 7.7 190 08:25 29.08.2019
2844 Clouds 32 1005 59 10000 9.8 220 07:58 29.08.2019
2845 Clouds 32 1005 62 10000 5.7 240 07:37 29.08.2019
2846 Clouds 32 1007 62 16093 2.1 40 07:18 29.08.2019
2847 Clouds 31 1005 62 10000 4.6 220 06:40 29.08.2019
2848 Clouds 32 1006 55 10000 7.7 220 05:52 29.08.2019
2849 Clouds 31 1006 55 10000 7.7 220 05:32 29.08.2019
2850 Clouds 31 1006 74 10000 2.1 120 04:49 29.08.2019
2851 Clouds 31 1006 74 10000 2.1 120 04:28 29.08.2019
2852 Clouds 28 1006 83 10000 1.5 0 02:18 29.08.2019
2853 Clouds 28 1006 83 10000 2.6 40 01:40 29.08.2019
2854 Clouds 28 1006 78 10000 2.1 0 00:51 29.08.2019
2855 Clear 27 1009 88 16093 2.07 345.306 00:24 29.08.2019
2856 Clear 26 1009 88 16093 2.07 345.306 23:59 28.08.2019
2857 Clouds 26 1006 83 10000 3.6 270 23:40 28.08.2019
2858 Clouds 26 1005 78 10000 5.7 220 23:22 28.08.2019
2859 Clouds 26 1005 78 10000 5.7 220 23:22 28.08.2019
2860 Clouds 26 1005 78 10000 5.7 220 22:56 28.08.2019
2861 Clouds 26 1005 78 10000 7.7 220 22:38 28.08.2019
2862 Clouds 26 1005 78 10000 7.7 230 22:18 28.08.2019
2863 Clouds 26 1005 78 10000 7.7 230 22:18 28.08.2019
2864 Rain 26 1005 78 10000 8.2 230 21:46 28.08.2019
2865 Rain 26 1005 78 10000 8.2 230 21:26 28.08.2019
2866 Rain 26 1008 94 16093 2.1 360 20:59 28.08.2019
2867 Rain 26 1005 78 10000 9.8 210 20:40 28.08.2019
2868 Rain 26 1007 94 16093 1.61 317.573 20:22 28.08.2019
2869 Rain 26 1005 78 10000 9.3 210 19:44 28.08.2019
2870 Rain 27 1007 94 16093 1.61 317.573 19:23 28.08.2019
2871 Rain 27 1005 74 10000 10.3 220 18:59 28.08.2019
2872 Rain 26 1005 74 10000 10.3 220 18:41 28.08.2019
2873 Rain 26 1007 94 16093 2.1 320 18:21 28.08.2019
2874 Mist 26 1005 78 10000 9.3 210 17:39 28.08.2019
2875 Rain 26 1005 78 10000 8.7 210 17:20 28.08.2019
2876 Rain 27 1005 78 10000 8.7 210 16:58 28.08.2019
2877 Mist 27 1005 74 10000 11.8 220 16:40 28.08.2019
2878 Mist 27 1005 74 10000 11.8 220 16:18 28.08.2019
2879 Mist 27 1006 74 10000 8.7 230 15:39 28.08.2019
2880 Mist 27 1006 74 10000 8.7 230 15:39 28.08.2019
2881 Mist 27 1006 69 10000 9.3 230 15:20 28.08.2019
2882 Mist 26 1006 69 10000 9.3 230 14:58 28.08.2019
2883 Mist 26 1006 65 10000 8.7 230 14:40 28.08.2019
2884 Clouds 27 1006 69 10000 6.7 230 14:21 28.08.2019
2885 Mist 27 1006 69 10000 6.7 230 13:59 28.08.2019
2886 Mist 27 1006 69 10000 7.2 230 13:39 28.08.2019
2887 Mist 27 1006 83 10000 10.8 210 13:20 28.08.2019
2888 Mist 26 1006 83 10000 10.8 210 12:56 28.08.2019
2889 Rain 26 1006 88 10000 11.8 210 12:38 28.08.2019
2890 Rain 26 1005 69 10000 9.8 230 12:20 28.08.2019
2891 Rain 27 1005 69 10000 9.3 230 11:40 28.08.2019
2892 Rain 27 1005 74 10000 10.3 230 11:22 28.08.2019
2893 Rain 27 1005 74 10000 10.3 230 10:57 28.08.2019
2894 Rain 27 1005 94 10000 1 0 10:38 28.08.2019
2895 Rain 27 1007 94 3219 2.1 30 10:20 28.08.2019
2896 Rain 27 1005 83 10000 9.8 210 09:42 28.08.2019
2897 Rain 27 1005 88 10000 10.8 210 09:21 28.08.2019
2898 Rain 27 1005 88 10000 10.8 210 08:57 28.08.2019
2899 Rain 27 1005 83 10000 11.3 210 08:38 28.08.2019
2900 Rain 27 1005 88 10000 10.3 210 08:19 28.08.2019
2901 Rain 27 1006 88 10000 9.8 200 07:38 28.08.2019
2902 Rain 27 1006 94 5000 13.4 210 07:20 28.08.2019
2903 Rain 27 1006 88 8000 6.7 210 06:49 28.08.2019
2904 Rain 27 1006 88 8000 6.7 210 06:31 28.08.2019
2905 Rain 26 1008 94 8047 2.1 60 05:24 28.08.2019
2906 Rain 27 1007 78 10000 5.7 210 02:20 28.08.2019
2907 Rain 26 1007 78 10000 9.8 210 01:31 28.08.2019
2908 Rain 26 1007 83 10000 7.7 200 00:52 28.08.2019
2909 Rain 25 1007 83 10000 7.7 200 00:33 28.08.2019
2910 Rain 25 1007 83 10000 8.2 200 23:58 27.08.2019
2911 Rain 25 1008 88 10000 7.7 200 23:38 27.08.2019
2912 Rain 24 1008 88 10000 8.7 210 23:19 27.08.2019
2913 Rain 24 1008 88 10000 7.2 210 22:42 27.08.2019
2914 Rain 24 1010 94 16093 1.5 290 22:23 27.08.2019
2915 Rain 24 1010 94 16093 1.5 290 21:57 27.08.2019
2916 Rain 24 1010 100 16093 2.03 238.019 21:38 27.08.2019
2917 Rain 24 1008 88 10000 6.2 190 21:20 27.08.2019
2918 Rain 24 1008 88 10000 6.2 190 20:59 27.08.2019
2919 Rain 24 1008 88 10000 9.3 200 20:40 27.08.2019
2920 Rain 24 1009 94 10000 7.2 190 20:19 27.08.2019
2921 Rain 24 1011 94 14484 4.39 180.523 19:45 27.08.2019
2922 Rain 23 1012 94 12874 4.39 180.523 19:27 27.08.2019
2923 Rain 23 1011 100 4000 3.6 250 18:58 27.08.2019
2924 Rain 23 1011 100 4000 3.6 250 18:39 27.08.2019
2925 Rain 24 1011 94 6000 1.5 180 18:18 27.08.2019
2926 Rain 24 1013 88 16093 2.6 180 17:55 27.08.2019
2927 Rain 24 1013 88 16093 2.6 180 17:37 27.08.2019
2928 Rain 24 1012 83 10000 3.6 190 17:18 27.08.2019
2929 Rain 24 1012 88 10000 3.6 190 16:43 27.08.2019
2930 Rain 24 1012 88 10000 3.6 190 16:24 27.08.2019
2931 Rain 24 1013 88 10000 3.6 190 15:57 27.08.2019
2932 Rain 24 1013 88 10000 3.6 190 15:57 27.08.2019
2933 Rain 24 1012 83 10000 4.1 190 15:38 27.08.2019
2934 Rain 25 1013 83 10000 4.6 200 15:19 27.08.2019
2935 Rain 25 1014 83 10000 5.7 200 14:43 27.08.2019
2936 Rain 25 1014 83 10000 5.7 200 14:24 27.08.2019
2937 Rain 25 1014 83 10000 5.7 200 14:24 27.08.2019
2938 Rain 25 1014 88 10000 6.2 200 13:56 27.08.2019
2939 Rain 25 1015 88 16093 2.6 200 13:36 27.08.2019
2940 Rain 26 1014 74 6437 1.5 0 13:18 27.08.2019
2941 Clouds 26 1013 69 10000 6.2 190 12:41 27.08.2019
2942 Clouds 27 1013 61 10000 6.2 200 12:20 27.08.2019
2943 Clouds 27 1013 61 10000 6.2 200 11:56 27.08.2019
2944 Clouds 27 1012 69 10000 6.2 190 11:37 27.08.2019
2945 Clouds 27 1013 74 10000 6.7 180 11:18 27.08.2019
2946 Clouds 28 1013 65 10000 2.6 200 10:40 27.08.2019
2947 Clouds 28 1013 66 10000 5.1 180 10:19 27.08.2019
2948 Clouds 28 1013 66 10000 5.1 180 09:55 27.08.2019
2949 Clouds 29 1012 65 10000 2.6 180 09:36 27.08.2019
2950 Clouds 29 1013 66 10000 4.1 160 09:18 27.08.2019
2951 Clouds 28 1012 69 10000 3.1 160 08:42 27.08.2019
2952 Rain 28 1013 69 10000 4.1 150 08:23 27.08.2019
2953 Clouds 29 1012 66 10000 2.6 140 07:42 27.08.2019
2954 Clouds 29 1013 74 10000 2.1 80 07:20 27.08.2019
2955 Clouds 29 1013 74 10000 2.1 80 06:59 27.08.2019
2956 Clouds 29 1012 70 10000 1.5 140 06:40 27.08.2019
2957 Rain 29 1012 78 10000 2.1 60 06:19 27.08.2019
2958 Clouds 28 1013 78 10000 2.6 30 05:24 27.08.2019
2959 Rain 27 1016 73 9000 1 40 03:43 27.08.2019
2960 Rain 27 1017 78 16093 2 106.501 02:40 27.08.2019
2961 Rain 26 1017 83 16093 3.1 20 01:46 27.08.2019
2962 Rain 25 1016 88 10000 1.5 340 01:24 27.08.2019
2963 Rain 24 1015 88 10000 4.1 10 00:49 27.08.2019
2964 Rain 24 1015 88 10000 4.1 10 00:28 27.08.2019
2965 Rain 23 1015 88 10000 4.1 10 23:40 26.08.2019
2966 Rain 23 1015 88 10000 4.6 20 23:22 26.08.2019
2967 Rain 23 1015 88 10000 4.6 20 22:58 26.08.2019
2968 Rain 23 1014 88 10000 5.1 30 22:36 26.08.2019
2969 Rain 23 1017 88 16093 2.6 50 22:18 26.08.2019
2970 Rain 23 1014 94 10000 4.1 60 21:39 26.08.2019
2971 Rain 23 1014 94 10000 4.1 60 21:21 26.08.2019
2972 Rain 23 1014 88 10000 3.6 30 20:58 26.08.2019
2973 Rain 23 1014 88 10000 4.6 30 20:39 26.08.2019
2974 Rain 23 1014 88 10000 4.6 30 20:20 26.08.2019
2975 Rain 23 1014 94 10000 5.1 40 19:58 26.08.2019
2976 Clouds 24 1014 94 10000 5.1 40 19:39 26.08.2019
2977 Clouds 24 1014 94 10000 5.1 40 19:19 26.08.2019
2978 Clouds 24 1017 88 16093 2.1 30 18:40 26.08.2019
2979 Clouds 24 1017 88 16093 2.1 30 18:21 26.08.2019
2980 Clouds 24 1014 83 10000 4.1 60 17:59 26.08.2019
2981 Rain 24 1014 83 10000 4.1 70 17:41 26.08.2019
2982 Rain 24 1014 83 10000 4.1 70 17:19 26.08.2019
2983 Rain 24 1014 83 10000 4.6 60 16:56 26.08.2019
2984 Rain 24 1014 83 10000 4.6 60 16:56 26.08.2019
2985 Rain 24 1014 88 10000 5.1 60 16:38 26.08.2019
2986 Rain 24 1014 88 10000 5.1 60 16:18 26.08.2019
2987 Clouds 24 1014 88 10000 5.1 60 15:42 26.08.2019
2988 Clouds 24 1014 88 10000 5.1 60 15:22 26.08.2019
2989 Clouds 24 1014 88 10000 4.6 70 14:57 26.08.2019
2990 Clouds 24 1015 88 10000 5.1 90 14:38 26.08.2019
2991 Clouds 24 1015 88 10000 5.1 90 14:19 26.08.2019
2992 Clouds 25 1014 83 10000 4.1 110 13:43 26.08.2019
2993 Clouds 25 1014 83 10000 4.1 110 13:22 26.08.2019
2994 Clouds 25 1014 78 10000 4.6 110 12:54 26.08.2019
2995 Clouds 26 1013 74 10000 5.1 110 12:36 26.08.2019
2996 Clouds 26 1013 74 10000 5.1 110 12:18 26.08.2019
2997 Rain 26 1013 74 10000 4.6 100 11:38 26.08.2019
2998 Rain 26 1013 74 10000 4.6 100 11:19 26.08.2019
2999 Clouds 26 1013 74 10000 4.1 120 10:55 26.08.2019
3000 Clouds 26 1012 65 10000 3.1 120 10:36 26.08.2019
3001 Clouds 27 1012 65 10000 3.1 120 10:18 26.08.2019
3002 Mist 27 1012 69 10000 4.6 100 09:41 26.08.2019
3003 Mist 27 1012 69 10000 4.6 100 09:23 26.08.2019
3004 Rain 28 1012 65 10000 6.2 90 08:56 26.08.2019
3005 Rain 28 1011 65 10000 6.2 90 08:37 26.08.2019
3006 Rain 28 1011 65 10000 6.2 90 08:19 26.08.2019
3007 Rain 28 1012 65 10000 7.2 80 07:42 26.08.2019
3008 Rain 28 1012 65 10000 7.2 80 07:24 26.08.2019
3009 Rain 29 1012 74 10000 6.7 70 06:50 26.08.2019
3010 Rain 29 1012 69 10000 6.7 110 06:26 26.08.2019
3011 Clouds 28 1013 78 10000 5.1 80 05:58 26.08.2019
3012 Rain 28 1012 69 10000 2.1 20 04:36 26.08.2019
3013 Rain 27 1013 83 10000 3.6 350 03:48 26.08.2019
3014 Rain 26 1013 69 10000 2.6 360 02:31 26.08.2019
3015 Clouds 25 1013 78 10000 3.6 10 01:23 26.08.2019
3016 Clouds 24 1015 83 16093 2.6 40 00:44 26.08.2019
3017 Clouds 24 1015 83 16093 2.6 40 00:25 26.08.2019
3018 Clouds 23 1012 83 10000 4.1 20 23:44 25.08.2019
3019 Clouds 23 1012 83 10000 4.1 20 23:20 25.08.2019
3020 Clouds 23 1013 83 10000 4.1 20 22:58 25.08.2019
3021 Rain 23 1012 78 10000 4.6 20 22:40 25.08.2019
3022 Rain 23 1012 78 10000 4.6 20 22:20 25.08.2019
3023 Clouds 23 1012 78 10000 5.1 360 21:58 25.08.2019
3024 Rain 23 1011 83 10000 4.6 20 21:39 25.08.2019
3025 Rain 23 1011 83 10000 4.6 20 21:19 25.08.2019
3026 Rain 23 1011 88 10000 5.7 10 20:55 25.08.2019
3027 Rain 23 1011 88 10000 5.7 10 20:55 25.08.2019
3028 Rain 23 1011 88 10000 5.1 360 20:36 25.08.2019
3029 Rain 23 1011 88 10000 5.1 360 20:18 25.08.2019
3030 Rain 24 1010 83 10000 4.6 50 19:40 25.08.2019
3031 Rain 24 1010 83 10000 4.6 50 19:21 25.08.2019
3032 Rain 24 1010 83 10000 4.6 70 18:59 25.08.2019
3033 Rain 24 1010 83 10000 4.6 70 18:59 25.08.2019
3034 Rain 24 1010 83 10000 4.6 70 18:40 25.08.2019
3035 Rain 24 1011 88 10000 2.6 40 18:22 25.08.2019
3036 Rain 24 1010 83 10000 3.6 100 17:59 25.08.2019
3037 Clouds 25 1010 83 10000 3.1 80 17:39 25.08.2019
3038 Clouds 25 1010 83 10000 3.1 80 17:20 25.08.2019
3039 Clouds 25 1010 83 10000 2.1 120 16:41 25.08.2019
3040 Clouds 25 1010 83 10000 2.1 120 16:23 25.08.2019
3041 Clouds 25 1010 83 10000 2.6 170 15:48 25.08.2019
3042 Clouds 25 1010 83 10000 4.6 180 15:27 25.08.2019
3043 Clouds 26 1011 83 10000 4.6 180 14:59 25.08.2019
3044 Clouds 26 1010 83 10000 4.6 180 14:39 25.08.2019
3045 Clouds 26 1010 83 10000 4.6 180 14:20 25.08.2019
3046 Clouds 26 1010 78 10000 5.7 190 13:45 25.08.2019
3047 Clouds 26 1010 78 10000 5.7 190 13:21 25.08.2019
3048 Clouds 26 1010 78 10000 5.7 190 13:21 25.08.2019
3049 Clouds 26 1011 74 10000 6.7 190 12:56 25.08.2019
3050 Clouds 26 1010 74 10000 6.7 200 12:37 25.08.2019
3051 Clouds 26 1010 74 10000 6.7 200 12:19 25.08.2019
3052 Clouds 26 1009 74 10000 8.2 190 11:55 25.08.2019
3053 Clouds 27 1009 69 10000 6.2 210 11:36 25.08.2019
3054 Clouds 27 1009 69 10000 6.2 210 11:36 25.08.2019
3055 Clouds 27 1009 69 10000 6.2 210 11:18 25.08.2019
3056 Clouds 28 1009 65 10000 4.6 190 10:40 25.08.2019
3057 Clouds 29 1009 65 10000 4.6 190 10:21 25.08.2019
3058 Clouds 29 1009 58 10000 7.7 190 09:57 25.08.2019
3059 Clouds 30 1008 62 10000 3.6 170 09:39 25.08.2019
3060 Clouds 30 1008 62 10000 3.6 170 09:20 25.08.2019
3061 Clouds 30 1008 58 10000 3.6 170 08:42 25.08.2019
3062 Clouds 30 1008 58 10000 3.6 170 08:22 25.08.2019
3063 Clouds 30 1008 66 10000 4.6 160 07:45 25.08.2019
3064 Clouds 30 1008 66 10000 4.6 160 07:23 25.08.2019
3065 Clouds 30 1009 66 10000 4.6 150 06:31 25.08.2019
3066 Clouds 29 1009 69 10000 2.1 90 04:53 25.08.2019
3067 Clouds 28 1010 69 10000 2.6 40 03:37 25.08.2019
3068 Clouds 27 1010 69 10000 3.1 20 02:40 25.08.2019
3069 Clouds 26 1010 69 10000 2.6 20 01:42 25.08.2019
3070 Clouds 24 1010 78 10000 2.1 330 00:41 25.08.2019
3071 Clouds 23 1010 78 10000 2.1 330 00:21 25.08.2019
3072 Clouds 22 1010 83 10000 4.1 340 23:53 24.08.2019
3073 Rain 22 1009 83 10000 4.6 360 23:24 24.08.2019
3074 Clouds 22 1009 83 10000 5.7 10 22:58 24.08.2019
3075 Rain 22 1009 88 10000 6.7 360 22:40 24.08.2019
3076 Rain 22 1009 88 10000 6.7 360 22:19 24.08.2019
3077 Rain 22 1012 88 16093 5.7 10 21:57 24.08.2019
3078 Rain 22 1011 88 16093 5.1 20 21:39 24.08.2019
3079 Rain 23 1011 88 16093 5.1 20 21:20 24.08.2019
3080 Rain 23 1011 88 16093 5.1 20 21:20 24.08.2019
3081 Rain 23 1008 94 3500 6.2 350 20:56 24.08.2019
3082 Rain 23 1007 94 10000 6.2 80 20:37 24.08.2019
3083 Rain 23 1007 94 10000 6.2 80 20:37 24.08.2019
3084 Rain 24 1007 94 10000 6.2 80 20:18 24.08.2019
3085 Rain 24 1007 88 10000 5.1 90 19:57 24.08.2019
3086 Rain 24 1007 88 10000 5.7 100 19:38 24.08.2019
3087 Rain 24 1007 88 10000 5.7 100 19:19 24.08.2019
3088 Rain 25 1007 88 10000 5.1 90 18:45 24.08.2019
3089 Rain 25 1010 69 16093 2.6 10 18:23 24.08.2019
3090 Rain 25 1007 88 10000 2.6 120 17:46 24.08.2019
3091 Rain 25 1011 73 16093 3.1 20 17:27 24.08.2019
3092 Rain 26 1007 78 10000 3.1 160 16:56 24.08.2019
3093 Clouds 26 1007 78 10000 5.1 180 16:36 24.08.2019
3094 Clouds 26 1007 78 10000 5.1 180 16:18 24.08.2019
3095 Clouds 26 1007 74 10000 4.1 180 15:43 24.08.2019
3096 Clouds 26 1007 74 10000 4.1 180 15:25 24.08.2019
3097 Clouds 27 1007 74 10000 4.6 190 14:56 24.08.2019
3098 Clouds 27 1008 74 10000 4.1 180 14:37 24.08.2019
3099 Clouds 28 1008 74 10000 4.1 180 14:18 24.08.2019
3100 Clouds 28 1008 74 10000 5.1 190 13:42 24.08.2019
3101 Clouds 28 1008 74 10000 5.1 190 13:22 24.08.2019
3102 Clouds 28 1007 70 10000 5.1 180 12:59 24.08.2019
3103 Clouds 28 1007 66 10000 5.1 190 12:40 24.08.2019
3104 Clouds 28 1007 66 10000 5.1 190 12:40 24.08.2019
3105 Clouds 28 1007 66 10000 5.1 190 12:22 24.08.2019
3106 Clouds 28 1007 70 10000 5.7 190 11:46 24.08.2019
3107 Clouds 28 1007 70 10000 6.2 200 11:26 24.08.2019
3108 Clouds 29 1007 66 10000 7.2 190 10:59 24.08.2019
3109 Clouds 29 1006 58 10000 4.6 160 10:38 24.08.2019
3110 Clouds 30 1006 58 10000 4.6 160 10:19 24.08.2019
3111 Clouds 31 1006 58 10000 3.6 160 09:41 24.08.2019
3112 Clouds 31 1006 74 10000 5.1 180 09:18 24.08.2019
3113 Clouds 31 1006 74 10000 5.1 180 09:18 24.08.2019
3114 Clouds 31 1006 74 10000 5.7 180 08:43 24.08.2019
3115 Clouds 31 1006 74 10000 5.7 180 08:24 24.08.2019
3116 Clouds 31 1006 62 10000 7.7 180 07:51 24.08.2019
3117 Rain 31 1006 74 10000 5.7 190 07:29 24.08.2019
3118 Rain 31 1007 70 10000 5.1 180 06:39 24.08.2019
3119 Rain 30 1007 70 10000 5.1 180 06:21 24.08.2019
3120 Rain 30 1007 74 10000 4.6 160 05:35 24.08.2019
3121 Clouds 29 1008 89 9000 3.1 140 03:41 24.08.2019
3122 Clouds 28 1008 83 10000 2.1 70 02:50 24.08.2019
3123 Clouds 27 1008 88 9000 1 0 01:54 24.08.2019
3124 Clouds 27 1008 83 10000 2.1 360 01:24 24.08.2019
3125 Rain 26 1008 83 10000 3.1 300 00:46 24.08.2019
3126 Rain 25 1008 83 10000 2.6 310 00:22 24.08.2019
3127 Rain 24 1008 83 10000 1.5 290 23:45 23.08.2019
3128 Rain 24 1007 83 10000 2.6 270 23:20 23.08.2019
3129 Rain 24 1007 83 14484 2.89 10.66 22:44 23.08.2019
3130 Rain 24 1007 83 14484 2.89 10.66 22:25 23.08.2019
3131 Rain 24 1007 83 10000 2.6 290 21:56 23.08.2019
3132 Rain 24 1006 83 10000 3.1 280 21:37 23.08.2019
3133 Rain 24 1006 83 10000 3.1 280 21:37 23.08.2019
3134 Rain 24 1006 83 10000 3.1 280 21:19 23.08.2019
3135 Rain 24 1007 88 10000 3.1 280 20:51 23.08.2019
3136 Rain 24 1007 88 14484 1.5 300 20:33 23.08.2019
3137 Rain 25 1006 78 10000 3.6 290 19:47 23.08.2019
3138 Rain 25 1006 78 10000 3.6 290 19:19 23.08.2019
3139 Rain 25 1006 88 10000 2.1 270 18:56 23.08.2019
3140 Clouds 25 1006 83 10000 4.1 190 18:37 23.08.2019
3141 Clouds 25 1006 83 10000 4.1 190 18:19 23.08.2019
3142 Clouds 25 1006 78 10000 3.1 210 17:42 23.08.2019
3143 Clouds 25 1006 78 10000 3.1 210 17:24 23.08.2019
3144 Clouds 25 1006 83 10000 3.1 200 16:57 23.08.2019
3145 Clouds 25 1006 83 10000 1.5 210 16:39 23.08.2019
3146 Clouds 25 1006 83 10000 1.5 210 16:21 23.08.2019
3147 Clouds 26 1006 83 10000 2.6 240 15:40 23.08.2019
3148 Clouds 26 1006 83 10000 2.6 240 15:22 23.08.2019
3149 Clouds 26 1006 83 10000 2.1 0 14:57 23.08.2019
3150 Clouds 26 1006 88 10000 3.1 210 14:39 23.08.2019
3151 Clouds 26 1006 88 10000 3.1 210 14:20 23.08.2019
3152 Clouds 26 1006 83 10000 5.1 200 13:54 23.08.2019
3153 Clouds 26 1005 83 10000 5.1 190 13:36 23.08.2019
3154 Clouds 26 1005 83 10000 5.1 190 13:36 23.08.2019
3155 Clouds 26 1005 83 10000 5.1 190 13:18 23.08.2019
3156 Clouds 26 1005 83 10000 3.6 200 12:41 23.08.2019
3157 Clouds 26 1005 83 10000 3.6 200 12:22 23.08.2019
3158 Rain 26 1005 83 10000 5.7 200 11:58 23.08.2019
3159 Rain 26 1004 78 10000 6.2 200 11:39 23.08.2019
3160 Rain 26 1004 78 10000 6.2 200 11:20 23.08.2019
3161 Rain 26 1005 88 10000 6.7 200 10:57 23.08.2019
3162 Rain 26 1004 94 10000 2.1 180 10:39 23.08.2019
3163 Rain 26 1004 94 10000 2.1 180 10:20 23.08.2019
3164 Rain 27 1004 88 8000 4.1 220 09:44 23.08.2019
3165 Rain 27 1004 88 8000 4.1 220 09:25 23.08.2019
3166 Rain 28 1004 79 10000 5.7 230 08:56 23.08.2019
3167 Rain 28 1004 83 10000 3.1 260 08:37 23.08.2019
3168 Rain 28 1004 83 10000 3.1 260 08:18 23.08.2019
3169 Rain 28 1006 83 10000 4.1 230 07:41 23.08.2019
3170 Rain 29 1006 83 10000 4.1 230 07:23 23.08.2019
3171 Rain 28 1005 83 14484 3.69 197.217 06:43 23.08.2019
3172 Rain 28 1005 83 14484 4.16 184.244 06:23 23.08.2019
3173 Rain 28 1005 83 10000 3.1 230 05:46 23.08.2019
3174 Rain 28 1004 83 10000 4.6 240 05:26 23.08.2019
3175 Rain 27 1006 94 9656 2.1 300 03:59 23.08.2019
3176 Rain 27 1005 94 10000 3.1 230 02:41 23.08.2019
3177 Rain 27 1005 94 10000 3.1 230 02:21 23.08.2019
3178 Rain 27 1005 83 10000 9.8 220 01:37 23.08.2019
3179 Rain 27 1004 79 10000 8.2 200 00:44 23.08.2019
3180 Rain 27 1004 79 10000 8.2 200 00:18 23.08.2019
3181 Rain 27 1004 83 10000 8.2 200 23:43 22.08.2019
3182 Rain 27 1004 83 10000 8.2 200 23:23 22.08.2019
3183 Mist 26 1004 88 10000 8.2 200 22:55 22.08.2019
3184 Rain 26 1004 88 10000 9.3 200 22:37 22.08.2019
3185 Rain 26 1004 88 10000 9.3 200 22:19 22.08.2019
3186 Rain 27 1005 83 10000 8.2 200 21:42 22.08.2019
3187 Rain 27 1005 83 10000 8.2 200 21:23 22.08.2019
3188 Rain 27 1005 78 10000 7.2 200 20:59 22.08.2019
3189 Clouds 27 1005 78 10000 7.7 200 20:41 22.08.2019
3190 Clouds 27 1005 78 10000 7.7 200 20:20 22.08.2019
3191 Clouds 27 1006 78 10000 7.2 190 19:59 22.08.2019
3192 Mist 27 1006 83 10000 7.7 190 19:40 22.08.2019
3193 Mist 27 1006 83 10000 7.7 190 19:21 22.08.2019
3194 Mist 26 1007 83 10000 7.2 190 18:59 22.08.2019
3195 Mist 26 1007 83 10000 6.2 190 18:40 22.08.2019
3196 Mist 27 1007 83 10000 6.2 190 18:20 22.08.2019
3197 Clouds 27 1008 88 10000 6.7 190 17:57 22.08.2019
3198 Clouds 27 1008 83 10000 7.2 190 17:39 22.08.2019
3199 Clouds 27 1008 83 10000 6.2 190 17:19 22.08.2019
3200 Clouds 27 1008 83 10000 6.2 190 16:56 22.08.2019
3201 Clouds 27 1008 88 10000 5.7 190 16:37 22.08.2019
3202 Clouds 27 1008 88 10000 5.7 190 16:19 22.08.2019
3203 Clouds 27 1008 88 10000 5.7 190 16:19 22.08.2019
3204 Rain 27 1009 83 10000 6.2 190 15:42 22.08.2019
3205 Rain 27 1009 83 10000 6.2 190 15:42 22.08.2019
3206 Rain 27 1009 83 10000 6.2 190 15:42 22.08.2019
3207 Rain 27 1009 83 10000 6.2 190 15:42 22.08.2019
3208 Rain 27 1009 83 10000 6.2 190 15:24 22.08.2019
3209 Rain 27 1009 83 10000 6.2 190 15:24 22.08.2019
3210 Clouds 27 1009 88 10000 7.2 200 14:59 22.08.2019
3211 Clouds 27 1009 83 10000 5.1 180 14:41 22.08.2019
3212 Clouds 27 1009 83 10000 5.1 180 14:22 22.08.2019
3213 Clouds 27 1009 83 10000 5.1 150 13:59 22.08.2019
3214 Clouds 27 1010 83 10000 4.1 130 13:40 22.08.2019
3215 Clouds 27 1010 83 10000 4.1 130 13:20 22.08.2019
3216 Clouds 28 1009 79 10000 3.1 120 12:56 22.08.2019
3217 Clouds 28 1009 74 10000 2.1 70 12:38 22.08.2019
3218 Clouds 28 1009 74 10000 2.1 70 12:19 22.08.2019
3219 Clouds 28 1009 79 10000 4.1 40 11:42 22.08.2019
3220 Clouds 28 1009 79 10000 4.1 40 11:21 22.08.2019
3221 Clouds 29 1009 79 10000 3.1 70 10:58 22.08.2019
3222 Clouds 29 1009 74 10000 3.1 360 10:40 22.08.2019
3223 Clouds 29 1009 74 10000 3.1 360 10:22 22.08.2019
3224 Clouds 29 1009 79 10000 3.1 70 09:57 22.08.2019
3225 Clouds 29 1008 70 10000 2.1 20 09:39 22.08.2019
3226 Clouds 30 1008 70 10000 2.1 20 09:20 22.08.2019
3227 Clouds 30 1011 74 16093 3.6 20 08:56 22.08.2019
3228 Clouds 30 1008 83 10000 1.5 110 08:38 22.08.2019
3229 Clouds 30 1008 83 10000 1.5 110 08:19 22.08.2019
3230 Clouds 29 1008 83 10000 2.6 140 07:39 22.08.2019
3231 Clouds 29 1008 83 10000 2.6 140 07:20 22.08.2019
3232 Clouds 29 1009 78 10000 2.6 90 06:52 22.08.2019
3233 Clouds 29 1009 83 10000 3.1 150 06:24 22.08.2019
3234 Clouds 28 1009 78 10000 2.1 60 05:40 22.08.2019
3235 Clouds 27 1010 78 10000 2.6 20 04:29 22.08.2019
3236 Rain 26 1012 94 5000 0.5 20 02:50 22.08.2019
3237 Rain 26 1012 94 5000 0.5 20 02:50 22.08.2019
3238 Rain 25 1011 88 10000 3.6 30 02:32 22.08.2019
3239 Rain 25 1010 88 10000 5.7 20 01:23 22.08.2019
3240 Mist 24 1012 100 4828 2.1 20 00:45 22.08.2019
3241 Mist 24 1012 100 4828 2.1 20 00:26 22.08.2019
3242 Mist 24 1012 94 4828 2.1 20 23:51 21.08.2019
3243 Mist 24 1009 88 10000 4.6 20 23:32 21.08.2019
3244 Mist 24 1008 94 10000 6.2 20 22:59 21.08.2019
3245 Mist 24 1009 94 10000 6.7 20 22:41 21.08.2019
3246 Mist 24 1009 94 10000 6.7 20 22:22 21.08.2019
3247 Mist 24 1009 94 10000 6.7 20 22:22 21.08.2019
3248 Mist 24 1011 100 9656 3.6 30 21:58 21.08.2019
3249 Rain 24 1008 94 10000 5.7 20 21:39 21.08.2019
3250 Mist 24 1008 94 10000 5.7 20 21:20 21.08.2019
3251 Rain 24 1008 94 10000 8.2 20 20:59 21.08.2019
3252 Rain 24 1007 94 6000 7.2 10 20:41 21.08.2019
3253 Rain 24 1007 94 6000 7.2 10 20:23 21.08.2019
3254 Rain 25 1008 94 10000 4.1 50 19:56 21.08.2019
3255 Rain 25 1007 94 7000 4.6 150 19:38 21.08.2019
3256 Rain 25 1008 94 10000 2.1 110 19:19 21.08.2019
3257 Rain 25 1011 94 12874 5.7 20 18:43 21.08.2019
3258 Rain 26 1011 94 12874 5.7 20 18:23 21.08.2019
3259 Rain 26 1011 94 12874 5.7 20 18:23 21.08.2019
3260 Rain 26 1011 94 8047 5.7 10 17:56 21.08.2019
3261 Mist 26 1008 94 10000 4.1 120 17:37 21.08.2019
3262 Mist 26 1008 94 10000 4.1 120 17:19 21.08.2019
3263 Rain 26 1008 88 10000 4.1 130 16:44 21.08.2019
3264 Rain 27 1008 88 10000 4.1 130 16:24 21.08.2019
3265 Rain 26 1009 94 12874 2.1 110 15:59 21.08.2019
3266 Rain 26 1009 94 12874 2.6 130 15:41 21.08.2019
3267 Rain 26 1009 94 12874 2.6 130 15:21 21.08.2019
3268 Rain 26 1009 88 12874 1.5 120 14:57 21.08.2019
3269 Rain 26 1009 88 12874 1.5 120 14:57 21.08.2019
3270 Rain 26 1009 88 12874 1.5 110 14:39 21.08.2019
3271 Rain 26 1009 88 12874 1.5 110 14:39 21.08.2019
3272 Rain 27 1009 88 12874 1.5 110 14:20 21.08.2019
3273 Rain 27 1010 88 10000 5.7 120 13:55 21.08.2019
3274 Rain 27 1009 88 10000 6.2 130 13:37 21.08.2019
3275 Rain 27 1009 88 10000 6.2 130 13:18 21.08.2019
3276 Rain 27 1009 83 10000 6.2 120 12:41 21.08.2019
3277 Rain 27 1009 83 10000 6.2 120 12:41 21.08.2019
3278 Rain 27 1009 83 10000 6.2 120 12:22 21.08.2019
3279 Rain 27 1009 83 10000 6.2 110 11:59 21.08.2019
3280 Rain 27 1009 78 10000 5.7 120 11:40 21.08.2019
3281 Rain 27 1009 78 10000 5.7 120 11:22 21.08.2019
3282 Rain 28 1009 74 10000 5.1 130 10:56 21.08.2019
3283 Rain 28 1011 78 16093 5.1 180 10:38 21.08.2019
3284 Rain 29 1011 78 16093 5.1 180 10:19 21.08.2019
3285 Rain 29 1011 70 16093 4.1 200 09:55 21.08.2019
3286 Rain 29 1010 70 16093 3.1 150 09:37 21.08.2019
3287 Rain 30 1010 70 16093 3.1 150 09:18 21.08.2019
3288 Rain 30 1008 74 10000 7.2 120 08:42 21.08.2019
3289 Rain 30 1008 74 10000 7.2 120 08:23 21.08.2019
3290 Clouds 31 1008 74 10000 6.2 110 07:42 21.08.2019
3291 Clouds 31 1008 74 10000 6.2 110 07:23 21.08.2019
3292 Clouds 31 1008 66 10000 3.1 90 06:50 21.08.2019
3293 Clouds 30 1008 74 10000 3.6 130 06:24 21.08.2019
3294 Rain 30 1012 70 16093 2.9 150.032 05:46 21.08.2019
3295 Rain 30 1012 70 16093 2.9 150.032 05:23 21.08.2019
3296 Clouds 30 1012 74 16093 2.9 150.032 03:39 21.08.2019
3297 Clouds 28 1010 78 10000 1.5 40 01:52 21.08.2019
3298 Clouds 27 1010 88 10000 2.6 60 01:23 21.08.2019
3299 Mist 26 1010 83 10000 2.1 30 00:38 21.08.2019
3300 Mist 26 1010 94 8000 2.1 340 00:18 21.08.2019
3301 Rain 25 1009 83 10000 2.6 20 23:43 20.08.2019
3302 Rain 25 1009 83 10000 2.6 20 23:19 20.08.2019
3303 Mist 25 1009 88 10000 2.6 10 22:58 20.08.2019
3304 Mist 25 1009 88 10000 3.1 20 22:39 20.08.2019
3305 Mist 24 1009 88 10000 3.1 20 22:21 20.08.2019
3306 Mist 24 1008 94 10000 3.6 30 21:57 20.08.2019
3307 Clouds 24 1009 88 10000 3.1 20 21:38 20.08.2019
3308 Clouds 24 1009 88 10000 3.1 20 21:19 20.08.2019
3309 Clouds 24 1009 88 10000 3.1 20 21:19 20.08.2019
3310 Mist 24 1009 88 10000 3.1 20 20:56 20.08.2019
3311 Mist 25 1008 88 10000 2.1 20 20:36 20.08.2019
3312 Mist 25 1008 88 10000 2.1 20 20:36 20.08.2019
3313 Mist 25 1008 88 10000 2.1 20 20:18 20.08.2019
3314 Fog 25 1009 88 10000 3.1 20 19:39 20.08.2019
3315 Fog 25 1009 88 10000 3.1 20 19:21 20.08.2019
3316 Mist 25 1011 94 12874 2.6 20 18:56 20.08.2019
3317 Mist 25 1011 94 6437 1.78 35.242 18:38 20.08.2019
3318 Mist 25 1011 94 6437 2.25 48.862 18:19 20.08.2019
3319 Mist 25 1011 94 6437 2.25 48.862 17:55 20.08.2019
3320 Clouds 25 1012 88 12874 2.6 40 17:37 20.08.2019
3321 Mist 25 1010 83 10000 4.6 20 17:19 20.08.2019
3322 Mist 25 1010 83 10000 4.6 20 17:19 20.08.2019
3323 Mist 25 1009 78 10000 4.1 10 16:43 20.08.2019
3324 Clouds 25 1010 83 10000 4.6 10 16:24 20.08.2019
3325 Clouds 25 1010 83 10000 3.6 360 15:43 20.08.2019
3326 Mist 26 1010 88 10000 3.6 30 15:19 20.08.2019
3327 Mist 26 1010 88 10000 3.6 30 14:59 20.08.2019
3328 Clouds 26 1013 88 16093 1.5 30 14:41 20.08.2019
3329 Clouds 26 1010 88 16093 2.6 350 14:21 20.08.2019
3330 Clouds 26 1010 88 16093 2.6 350 13:56 20.08.2019
3331 Rain 26 1010 83 10000 5.1 60 13:38 20.08.2019
3332 Rain 26 1010 83 10000 6.2 30 13:20 20.08.2019
3333 Rain 26 1009 83 10000 5.7 40 12:50 20.08.2019
3334 Rain 26 1009 83 10000 5.7 40 12:26 20.08.2019
3335 Mist 26 1009 88 10000 5.7 30 11:58 20.08.2019
3336 Mist 26 1009 88 10000 5.7 30 11:58 20.08.2019
3337 Rain 26 1011 88 4426 4.06 45.539 11:38 20.08.2019
3338 Rain 26 1009 100 10000 0.5 0 11:18 20.08.2019
3339 Rain 26 1009 100 10000 0.5 0 10:57 20.08.2019
3340 Rain 26 1009 100 10000 0.5 0 10:57 20.08.2019
3341 Rain 27 1009 100 4000 1.5 260 10:38 20.08.2019
3342 Rain 28 1008 83 14484 3.1 140 10:20 20.08.2019
3343 Thunderstorm 29 1009 88 8000 3.1 0 09:43 20.08.2019
3344 Thunderstorm 29 1009 88 8000 3.1 0 09:25 20.08.2019
3345 Clouds 30 1011 78 16093 6.7 30 08:58 20.08.2019
3346 Clouds 30 1008 79 10000 5.1 200 08:40 20.08.2019
3347 Clouds 31 1008 62 10000 7.7 180 08:21 20.08.2019
3348 Clouds 31 1008 62 10000 7.7 180 07:57 20.08.2019
3349 Clouds 31 1008 79 10000 5.1 180 07:37 20.08.2019
3350 Clouds 31 1008 56 10000 3.6 190 07:18 20.08.2019
3351 Clouds 31 1008 75 10000 5.1 160 06:41 20.08.2019
3352 Rain 31 1011 74 16093 3.1 50 06:19 20.08.2019
3353 Rain 30 1011 78 16093 2.6 60 05:40 20.08.2019
3354 Rain 30 1013 83 16093 2.6 60 04:22 20.08.2019
3355 Rain 27 1013 94 16093 2.1 60 02:48 20.08.2019
3356 Rain 27 1014 94 16093 2.6 20 01:50 20.08.2019
3357 Rain 26 1012 94 16093 2.41 86.664 01:20 20.08.2019
3358 Rain 26 1014 94 16093 3.1 10 00:43 20.08.2019
3359 Rain 26 1014 94 16093 2.6 350 00:21 20.08.2019
3360 Rain 26 1011 94 10000 5.1 100 23:42 19.08.2019
3361 Rain 25 1011 94 10000 5.1 100 23:19 19.08.2019
3362 Rain 25 1011 94 10000 5.1 100 22:58 19.08.2019
3363 Rain 25 1011 94 10000 4.6 100 22:40 19.08.2019
3364 Rain 25 1012 94 16093 3.71 96.523 22:20 19.08.2019
3365 Rain 25 1012 94 16093 3.71 96.523 21:57 19.08.2019
3366 Rain 26 1014 94 16093 4.1 10 21:38 19.08.2019
3367 Rain 25 1014 100 16093 3.6 10 21:19 19.08.2019
3368 Rain 26 1014 94 8047 2.6 320 20:40 19.08.2019
3369 Rain 26 1014 94 8047 2.6 320 20:21 19.08.2019
3370 Rain 26 1014 94 8047 2.6 320 20:21 19.08.2019
3371 Rain 26 1014 94 1609 3.96 84.089 20:21 19.08.2019
3372 -273 0 0 0 0 0 19:59 19.08.2019
3373 Rain 26 1014 94 6437 4.6 50 19:41 19.08.2019
3374 Rain 26 1011 94 8000 5.7 90 19:19 19.08.2019
3375 Rain 26 1011 94 8000 5.7 90 19:19 19.08.2019
3376 Rain 26 1011 94 8000 5.7 90 19:19 19.08.2019
3377 Rain 26 1012 94 805 3.96 84.089 18:59 19.08.2019
3378 Rain 26 1012 94 805 3.96 84.089 18:40 19.08.2019
3379 Rain 26 1012 94 805 3.96 84.089 18:40 19.08.2019
3380 Rain 26 1012 94 10000 7.2 70 18:21 19.08.2019
3381 Rain 26 1012 94 10000 7.2 70 17:56 19.08.2019
3382 Rain 26 1014 94 16093 3.1 10 17:37 19.08.2019
3383 Rain 26 1011 94 10000 6.7 80 17:19 19.08.2019
3384 Rain 26 1011 94 10000 6.7 80 16:54 19.08.2019
3385 Rain 26 1014 100 9656 2.1 340 16:36 19.08.2019
3386 Rain 26 1014 94 16093 1.5 350 16:18 19.08.2019
3387 Rain 26 1013 94 4426 4.07 82.027 15:43 19.08.2019
3388 Rain 26 1013 94 4426 4.65 84.914 15:19 19.08.2019
3389 Rain 26 1012 94 10000 5.1 80 14:44 19.08.2019
3390 Thunderstorm 26 1013 94 1609 4.65 84.914 14:24 19.08.2019
3391 Drizzle 27 1014 94 11265 4.6 70 13:58 19.08.2019
3392 Rain 27 1014 88 4426 4.6 80 13:40 19.08.2019
3393 Rain 27 1014 88 4426 4.6 80 13:20 19.08.2019
3394 -273 0 0 0 0 0 13:20 19.08.2019
3395 Rain 27 1011 88 10000 6.2 70 12:58 19.08.2019
3396 Rain 27 1014 83 8047 5.04 82.79 12:40 19.08.2019
3397 Rain 28 1014 83 8047 5.63 87.035 12:20 19.08.2019
3398 Thunderstorm 28 1011 78 16093 2.6 60 11:42 19.08.2019
3399 Rain 29 1011 78 16093 2.6 60 11:24 19.08.2019
3400 Rain 29 1010 83 10000 7.2 80 10:59 19.08.2019
3401 Rain 29 1010 70 10000 3.1 100 10:39 19.08.2019
3402 Rain 30 1010 70 10000 3.1 100 10:19 19.08.2019
3403 Clouds 30 1010 83 10000 7.2 60 09:54 19.08.2019
3404 Clouds 30 1010 74 8000 6.7 70 09:36 19.08.2019
3405 Clouds 30 1010 74 8000 6.7 70 09:18 19.08.2019
3406 Clouds 30 1013 66 16093 3.1 90 08:42 19.08.2019
3407 Clouds 31 1013 66 16093 3.1 90 08:21 19.08.2019
3408 Rain 31 1010 83 10000 6.2 90 07:54 19.08.2019
3409 Rain 31 1010 79 10000 6.2 50 07:34 19.08.2019
3410 Rain 31 1011 70 10000 6.2 40 06:59 19.08.2019
3411 Rain 31 1011 74 10000 4.6 30 06:36 19.08.2019
3412 Clouds 31 1011 74 10000 5.7 60 05:27 19.08.2019
3413 Rain 30 1011 74 10000 5.1 40 04:34 19.08.2019
3414 Rain 30 1011 79 8000 4.6 40 03:27 19.08.2019
3415 Clouds 29 1011 83 6000 4.6 40 02:30 19.08.2019
3416 Rain 29 1011 79 9000 4.6 360 01:37 19.08.2019
3417 Mist 28 1011 83 9000 5.1 20 00:49 19.08.2019
3418 Mist 27 1011 83 9000 5.7 30 00:25 19.08.2019
3419 Mist 27 1011 83 9000 4.6 30 23:57 18.08.2019
3420 Rain 27 1011 83 10000 4.1 20 23:37 18.08.2019
3421 Rain 27 1011 83 10000 4.1 20 23:19 18.08.2019
3422 Mist 26 1010 88 8000 5.7 40 22:40 18.08.2019
3423 Mist 26 1010 88 8000 5.7 40 22:21 18.08.2019
3424 Mist 27 1010 83 9000 4.1 30 21:57 18.08.2019
3425 Mist 26 1010 83 9000 4.1 30 21:39 18.08.2019
3426 Mist 26 1010 83 9000 4.1 30 21:20 18.08.2019
3427 Mist 26 1013 94 16093 2.1 10 20:55 18.08.2019
3428 Mist 26 1009 83 9000 3.1 20 20:36 18.08.2019
3429 Mist 26 1009 83 9000 3.1 20 20:18 18.08.2019
3430 Mist 26 1009 83 10000 3.6 40 19:41 18.08.2019
3431 Mist 26 1009 83 10000 3.6 40 19:23 18.08.2019
3432 Mist 26 1009 88 9000 4.6 30 18:57 18.08.2019
3433 Mist 26 1009 94 9000 4.6 40 18:39 18.08.2019
3434 Mist 26 1009 94 9000 4.6 40 18:21 18.08.2019
3435 Mist 27 1009 83 9000 4.1 40 17:54 18.08.2019
3436 Mist 27 1009 83 10000 4.1 50 17:36 18.08.2019
3437 Mist 27 1009 83 10000 4.1 50 17:18 18.08.2019
3438 Mist 27 1009 88 9000 3.6 60 16:43 18.08.2019
3439 Mist 27 1009 88 9000 3.6 60 16:23 18.08.2019
3440 Mist 27 1009 83 9000 4.1 50 15:59 18.08.2019
3441 Mist 27 1008 83 10000 3.6 60 15:39 18.08.2019
3442 Mist 28 1008 83 10000 3.6 60 15:20 18.08.2019
3443 Mist 28 1008 83 10000 2.1 130 14:57 18.08.2019
3444 Clouds 28 1008 79 10000 3.1 170 14:38 18.08.2019
3445 Clouds 28 1008 79 10000 3.1 170 14:19 18.08.2019
3446 Clouds 28 1008 79 10000 3.1 150 13:56 18.08.2019
3447 Clouds 28 1008 83 10000 3.1 180 13:38 18.08.2019
3448 Clouds 27 1008 83 10000 3.1 180 13:19 18.08.2019
3449 Rain 28 1007 74 10000 4.1 180 12:45 18.08.2019
3450 Rain 28 1007 74 10000 4.1 180 12:23 18.08.2019
3451 Clouds 28 1007 74 10000 3.6 170 11:56 18.08.2019
3452 Rain 29 1010 88 11265 3.1 290 11:37 18.08.2019
3453 Rain 30 1010 88 11265 3.1 290 11:19 18.08.2019
3454 Rain 30 1007 55 10000 3.6 140 10:41 18.08.2019
3455 Rain 31 1009 70 11265 5.7 280 10:22 18.08.2019
3456 Rain 31 1009 70 11265 5.7 280 09:55 18.08.2019
3457 Clouds 32 1006 62 10000 6.2 90 09:36 18.08.2019
3458 Clouds 32 1006 62 10000 6.2 90 09:18 18.08.2019
3459 Clouds 33 1006 59 10000 5.7 100 08:42 18.08.2019
3460 Clouds 33 1006 59 10000 5.7 100 08:24 18.08.2019
3461 Clouds 33 1006 63 10000 6.7 80 07:49 18.08.2019
3462 Clouds 33 1006 56 10000 5.1 70 07:29 18.08.2019
3463 Clouds 33 1007 66 10000 5.7 80 05:50 18.08.2019
3464 Clouds 33 1007 66 10000 4.6 80 04:58 18.08.2019
3465 Clouds 32 1007 66 10000 4.1 60 03:44 18.08.2019
3466 Clouds 31 1007 74 10000 4.1 60 02:49 18.08.2019
3467 Clouds 31 1007 66 10000 5.1 40 02:26 18.08.2019
3468 Clouds 30 1007 70 10000 3.6 60 01:48 18.08.2019
3469 Clouds 30 1007 79 9000 2.6 40 01:25 18.08.2019
3470 Clouds 30 1007 79 9000 2.6 40 01:25 18.08.2019
3471 Clouds 28 1006 88 7000 2.6 50 00:40 18.08.2019
3472 Clouds 28 1006 88 7000 2.6 50 00:19 18.08.2019
3473 Clouds 27 1006 88 6000 2.6 20 23:57 17.08.2019
3474 Clouds 27 1006 88 6000 1 20 23:37 17.08.2019
3475 Clouds 27 1006 88 6000 1 20 23:19 17.08.2019
3476 Clouds 26 1006 88 7000 1 0 22:56 17.08.2019
3477 Clouds 26 1006 88 7000 1 0 22:56 17.08.2019
3478 Clouds 26 1005 88 7000 2.1 190 22:38 17.08.2019
3479 Clouds 26 1005 88 7000 2.1 190 22:20 17.08.2019
3480 Clouds 26 1004 88 8000 3.1 190 21:43 17.08.2019
3481 Clouds 26 1004 88 8000 3.1 190 21:24 17.08.2019
3482 Clouds 26 1004 88 8000 3.1 180 20:58 17.08.2019
3483 Clouds 26 1004 88 8000 3.1 190 20:37 17.08.2019
3484 Clouds 27 1004 88 8000 3.1 190 20:18 17.08.2019
3485 Clouds 27 1004 88 9000 4.1 170 19:43 17.08.2019
3486 Clouds 27 1004 88 9000 4.1 170 19:24 17.08.2019
3487 Clouds 27 1004 88 10000 4.1 170 18:58 17.08.2019
3488 Clouds 27 1004 83 10000 4.1 180 18:38 17.08.2019
3489 Clouds 28 1004 83 10000 4.1 180 18:18 17.08.2019
3490 Clouds 28 1004 83 10000 4.1 180 17:43 17.08.2019
3491 Clouds 28 1004 83 10000 4.1 180 17:22 17.08.2019
3492 Clouds 28 1004 83 10000 4.1 180 17:22 17.08.2019
3493 Clouds 28 1004 79 10000 5.7 190 16:57 17.08.2019
3494 Clouds 28 1003 83 10000 6.2 200 16:38 17.08.2019
3495 Clouds 28 1003 83 10000 6.2 200 16:20 17.08.2019
3496 Clouds 28 1004 79 10000 6.7 190 15:54 17.08.2019
3497 Clouds 28 1004 79 10000 6.7 190 15:54 17.08.2019
3498 Clouds 29 1003 79 10000 6.2 190 15:36 17.08.2019
3499 Clouds 29 1003 79 10000 6.2 190 15:18 17.08.2019
3500 Clouds 29 1003 79 10000 6.2 190 14:40 17.08.2019
3501 Clouds 29 1003 79 10000 6.2 190 14:40 17.08.2019
3502 Clouds 29 1003 79 10000 6.2 190 14:21 17.08.2019
3503 Clouds 29 1003 79 10000 5.7 190 13:45 17.08.2019
3504 Clear 29 1003 79 10000 7.2 180 13:21 17.08.2019
3505 Clear 30 1002 79 10000 6.2 190 12:46 17.08.2019
3506 Clear 30 1002 79 10000 6.2 190 12:21 17.08.2019
3507 Clear 31 1002 83 10000 8.2 180 11:59 17.08.2019
3508 Clouds 31 1001 83 10000 9.3 180 11:39 17.08.2019
3509 Clouds 32 1001 83 10000 9.3 180 11:20 17.08.2019
3510 Clouds 32 1001 79 10000 8.7 180 10:55 17.08.2019
3511 Clouds 32 1001 56 10000 3.6 160 10:37 17.08.2019
3512 Clouds 32 1001 56 10000 3.6 160 10:18 17.08.2019
3513 Clouds 33 1001 84 10000 5.1 180 09:43 17.08.2019
3514 Clouds 33 1001 84 10000 5.1 180 09:25 17.08.2019
3515 Clouds 34 1001 66 10000 8.2 180 08:53 17.08.2019
3516 Clouds 33 1000 79 9000 5.1 180 08:24 17.08.2019
3517 Clouds 34 1001 79 9000 6.2 180 07:45 17.08.2019
3518 Clouds 34 1001 79 9000 6.2 180 07:21 17.08.2019
3519 Clouds 34 1001 75 9000 6.7 180 06:41 17.08.2019
3520 Clouds 34 1001 75 10000 7.2 180 05:30 17.08.2019
3521 Clouds 33 1001 70 10000 5.7 180 04:28 17.08.2019
3522 Clouds 32 1002 59 10000 7.7 190 02:53 17.08.2019
3523 Clear 30 1002 62 10000 6.7 210 01:42 17.08.2019
3524 Clear 30 1002 62 10000 6.7 210 01:24 17.08.2019
3525 Clear 30 1002 66 10000 6.7 210 00:54 17.08.2019
3526 Clear 29 1001 70 10000 7.2 210 00:27 17.08.2019
3527 Clear 28 1001 70 10000 7.7 210 23:48 16.08.2019
3528 Clear 27 1001 74 10000 8.7 210 23:26 16.08.2019
3529 Clear 27 1001 74 10000 9.3 210 22:56 16.08.2019
3530 Clear 27 1000 74 10000 7.7 220 22:37 16.08.2019
3531 Clear 27 1000 74 10000 7.7 220 22:18 16.08.2019
3532 Clear 27 1000 74 10000 7.7 210 21:40 16.08.2019
3533 Clear 27 1000 74 10000 7.7 210 21:20 16.08.2019
3534 Clear 28 1000 74 10000 8.2 210 20:55 16.08.2019
3535 Clear 28 1000 74 10000 9.3 210 20:37 16.08.2019
3536 Clear 28 1000 74 10000 9.3 210 20:18 16.08.2019
3537 Clouds 28 999 74 10000 10.3 210 19:41 16.08.2019
3538 Clouds 28 999 74 10000 10.3 210 19:22 16.08.2019
3539 Clear 28 999 74 10000 9.8 210 18:44 16.08.2019
3540 Clear 28 999 74 10000 9.8 210 18:26 16.08.2019
3541 Clouds 28 999 74 10000 8.7 200 17:57 16.08.2019
3542 Clear 28 999 74 10000 7.7 200 17:39 16.08.2019
3543 Clear 28 999 74 10000 7.7 200 17:20 16.08.2019
3544 Clear 28 999 74 10000 7.7 200 17:20 16.08.2019
3545 Clear 28 999 74 10000 9.8 210 16:42 16.08.2019
3546 Clear 28 999 74 10000 9.8 210 16:22 16.08.2019
3547 Clouds 28 1000 74 10000 7.7 210 15:59 16.08.2019
3548 Clear 28 999 74 10000 9.8 210 15:40 16.08.2019
3549 Clear 28 999 74 10000 9.8 210 15:21 16.08.2019
3550 Clear 28 999 74 10000 8.2 200 14:58 16.08.2019
3551 Clouds 28 999 83 10000 10.3 210 14:39 16.08.2019
3552 Clouds 28 999 83 10000 10.3 210 14:19 16.08.2019
3553 Clear 29 999 79 10000 9.3 200 13:42 16.08.2019
3554 Clear 29 999 79 10000 9.3 200 13:23 16.08.2019
3555 Clouds 29 998 79 10000 11.3 200 12:58 16.08.2019
3556 Clouds 29 998 79 8000 12.9 200 12:38 16.08.2019
3557 Clouds 29 998 79 8000 12.9 200 12:19 16.08.2019
3558 Clouds 29 997 79 10000 11.3 200 11:42 16.08.2019
3559 Clouds 30 997 79 10000 11.3 200 11:24 16.08.2019
3560 Clouds 30 996 66 10000 7.2 200 10:44 16.08.2019
3561 Clouds 30 996 66 10000 7.2 200 10:26 16.08.2019
3562 Clouds 31 996 74 10000 13.4 190 09:58 16.08.2019
3563 Clouds 31 997 83 6000 8.7 190 09:37 16.08.2019
3564 Clouds 31 997 83 6000 8.7 190 09:18 16.08.2019
3565 Mist 31 997 83 4000 8.2 190 08:42 16.08.2019
3566 Mist 31 997 83 4000 8.2 190 08:21 16.08.2019
3567 Mist 31 997 79 10000 11.8 200 07:59 16.08.2019
3568 Mist 30 997 79 10000 10.8 200 07:41 16.08.2019
3569 Mist 30 997 79 10000 10.8 200 07:21 16.08.2019
3570 Mist 30 997 83 4000 8.7 200 06:32 16.08.2019
3571 Mist 29 997 88 4000 8.7 200 05:43 16.08.2019
3572 Mist 29 998 88 4000 9.8 210 04:32 16.08.2019
3573 Mist 29 998 88 4000 9.8 210 04:32 16.08.2019
3574 Mist 28 998 83 7000 12.9 200 03:18 16.08.2019
3575 Mist 28 998 79 8000 13.4 200 01:43 16.08.2019
3576 Mist 28 998 79 8000 13.4 200 01:21 16.08.2019
3577 Rain 28 998 88 8000 10.8 190 00:43 16.08.2019
3578 Rain 28 998 88 8000 10.8 190 00:22 16.08.2019
3579 Rain 28 998 83 8000 10.8 190 23:46 15.08.2019
3580 Mist 28 998 83 8000 11.3 190 23:24 15.08.2019
3581 Clouds 28 998 88 8000 11.3 190 22:59 15.08.2019
3582 Clouds 28 998 88 8000 11.3 180 22:40 15.08.2019
3583 Clouds 28 998 88 8000 11.3 180 22:21 15.08.2019
3584 Mist 28 998 88 12874 7.2 150 21:56 15.08.2019
3585 Mist 28 998 88 10000 13.4 180 21:38 15.08.2019
3586 Mist 28 998 88 10000 13.4 180 21:18 15.08.2019
3587 Mist 28 998 83 10000 10.8 190 20:44 15.08.2019
3588 Rain 28 998 88 10000 11.8 190 20:22 15.08.2019
3589 Rain 28 999 79 10000 9.8 190 19:59 15.08.2019
3590 Rain 28 998 88 10000 10.3 190 19:39 15.08.2019
3591 Rain 28 998 88 10000 10.3 190 19:21 15.08.2019
3592 Mist 28 998 88 10000 13.4 180 18:48 15.08.2019
3593 Mist 28 998 88 14484 7.7 150 18:24 15.08.2019
3594 Rain 28 999 83 10000 10.8 190 17:58 15.08.2019
3595 Rain 28 999 88 10000 12.3 180 17:38 15.08.2019
3596 Rain 28 999 88 10000 12.3 180 17:20 15.08.2019
3597 Clouds 28 1000 83 16093 11.3 180 16:58 15.08.2019
3598 Clouds 28 999 88 12874 5.7 140 16:40 15.08.2019
3599 Clouds 28 999 88 12874 5.7 140 16:22 15.08.2019
3600 Rain 28 1001 88 16093 10.3 200 15:39 15.08.2019
3601 Rain 28 1001 88 16093 10.3 200 15:20 15.08.2019
3602 Clouds 28 1000 83 10000 11.3 170 14:57 15.08.2019
3603 Rain 28 1000 83 10000 9.8 170 14:38 15.08.2019
3604 Rain 28 1000 83 10000 9.8 170 14:20 15.08.2019
3605 Rain 28 1000 83 10000 11.3 170 13:56 15.08.2019
3606 Rain 28 1000 83 10000 11.3 170 13:56 15.08.2019
3607 Rain 28 1000 83 10000 10.8 170 13:38 15.08.2019
3608 Rain 28 1000 83 10000 10.8 170 13:19 15.08.2019
3609 Rain 28 1000 83 10000 10.8 170 12:40 15.08.2019
3610 Rain 28 1000 83 10000 10.8 170 12:21 15.08.2019
3611 Rain 28 1001 79 10000 7.7 170 11:59 15.08.2019
3612 Rain 28 1000 89 10000 9.8 180 11:39 15.08.2019
3613 Rain 28 1000 89 10000 9.8 180 11:20 15.08.2019
3614 Rain 28 1001 89 10000 11.8 180 10:59 15.08.2019
3615 Rain 28 1001 94 10000 7.7 190 10:37 15.08.2019
3616 Rain 28 1001 94 10000 7.7 190 10:18 15.08.2019
3617 Rain 29 1001 79 2500 11.8 220 09:44 15.08.2019
3618 Rain 30 1001 94 6000 5.1 180 09:22 15.08.2019
3619 Rain 30 1001 74 10000 8.2 180 08:54 15.08.2019
3620 Rain 30 1002 83 16093 7.2 180 08:36 15.08.2019
3621 Rain 30 1002 83 16093 7.2 180 08:18 15.08.2019
3622 Rain 30 1003 83 8047 9.3 180 07:40 15.08.2019
3623 Rain 30 1003 83 8047 9.3 180 07:21 15.08.2019
3624 Rain 30 1002 75 10000 9.8 190 06:52 15.08.2019
3625 Rain 30 1002 84 10000 5.1 180 06:31 15.08.2019
3626 Rain 30 1003 79 10000 7.2 170 05:39 15.08.2019
3627 Rain 30 1003 79 10000 7.2 170 05:21 15.08.2019
3628 Rain 30 1004 88 3500 6.2 170 04:29 15.08.2019
3629 Rain 31 1003 79 10000 8.7 150 03:28 15.08.2019
3630 Clouds 31 1004 79 10000 8.2 150 02:35 15.08.2019
3631 Clouds 30 1004 84 10000 6.2 160 01:49 15.08.2019
3632 Clouds 30 1004 74 10000 6.2 160 01:26 15.08.2019
3633 Mist 29 1005 79 10000 7.2 170 00:39 15.08.2019
3634 Mist 29 1005 79 10000 7.2 170 00:20 15.08.2019
3635 Mist 28 1005 74 10000 7.2 170 23:57 14.08.2019
3636 Mist 28 1007 88 8047 6.7 180 23:37 14.08.2019
3637 Mist 28 1007 88 8047 6.7 180 23:19 14.08.2019
3638 Clouds 28 1007 88 16093 6.7 180 22:55 14.08.2019
3639 Rain 28 1005 83 10000 7.2 170 22:37 14.08.2019
3640 Rain 28 1005 83 10000 7.2 170 22:18 14.08.2019
3641 Clouds 28 1004 83 10000 6.2 170 21:55 14.08.2019
3642 Clouds 28 1004 88 16093 4.1 140 21:36 14.08.2019
3643 Clouds 28 1004 88 16093 4.1 140 21:18 14.08.2019
3644 Clouds 28 1004 83 10000 6.2 180 20:41 14.08.2019
3645 Clouds 28 1004 83 10000 6.2 180 20:20 14.08.2019
3646 Clouds 28 1006 88 16093 5.1 190 19:56 14.08.2019
3647 Drizzle 27 1005 94 16093 4.1 140 19:37 14.08.2019
3648 Clouds 28 1007 88 16093 5.1 190 19:18 14.08.2019
3649 Clouds 28 1007 88 16093 5.1 190 18:56 14.08.2019
3650 Rain 28 1005 83 10000 6.2 170 18:38 14.08.2019
3651 Rain 28 1005 94 8000 4.6 160 18:19 14.08.2019
3652 Rain 28 1005 83 10000 6.7 170 17:56 14.08.2019
3653 Rain 28 1005 83 10000 7.2 170 17:36 14.08.2019
3654 Rain 28 1005 83 10000 7.2 170 17:18 14.08.2019
3655 Clouds 28 1006 89 10000 5.1 160 16:41 14.08.2019
3656 Clouds 28 1006 89 10000 5.1 160 16:20 14.08.2019
3657 Clouds 28 1006 89 10000 4.6 150 15:44 14.08.2019
3658 Clouds 27 1007 88 16093 5.7 160 15:24 14.08.2019
3659 Rain 28 1008 88 16093 4.6 160 14:59 14.08.2019
3660 Clouds 27 1006 83 10000 3.6 140 14:39 14.08.2019
3661 Clouds 27 1006 83 10000 3.6 140 14:19 14.08.2019
3662 Drizzle 27 1006 83 10000 4.1 140 13:55 14.08.2019
3663 Rain 28 1006 83 10000 5.1 150 13:37 14.08.2019
3664 Rain 28 1006 83 10000 5.1 150 13:19 14.08.2019
3665 Clouds 28 1006 83 10000 5.7 150 12:56 14.08.2019
3666 Clouds 28 1006 83 10000 5.1 150 12:36 14.08.2019
3667 Clouds 28 1006 83 10000 5.1 150 12:18 14.08.2019
3668 Clouds 29 1005 79 10000 6.7 180 11:45 14.08.2019
3669 Clouds 29 1005 79 10000 6.7 180 11:23 14.08.2019
3670 Clouds 30 1005 74 10000 6.2 190 10:56 14.08.2019
3671 Rain 30 1005 79 10000 3.6 180 10:37 14.08.2019
3672 Rain 30 1005 79 10000 3.6 180 10:37 14.08.2019
3673 Rain 30 1005 79 10000 3.6 180 10:19 14.08.2019
3674 Rain 31 1005 83 10000 6.2 170 09:42 14.08.2019
3675 Rain 31 1005 83 10000 6.2 170 09:21 14.08.2019
3676 Rain 31 1005 79 10000 4.1 190 08:44 14.08.2019
3677 Rain 30 1005 79 10000 4.1 190 08:25 14.08.2019
3678 Rain 29 1005 70 10000 5.7 190 07:56 14.08.2019
3679 Rain 30 1006 83 5000 5.1 200 07:37 14.08.2019
3680 Rain 29 1006 94 10000 2.1 190 06:53 14.08.2019
3681 Rain 29 1005 94 10000 2.1 0 06:35 14.08.2019
3682 Rain 30 1005 79 10000 2.6 150 05:33 14.08.2019
3683 Rain 30 1005 79 10000 2.6 150 05:33 14.08.2019
3684 Rain 29 1008 88 16093 2.1 0 03:58 14.08.2019
3685 Rain 28 1007 94 6000 4.1 130 02:39 14.08.2019
3686 Rain 28 1007 94 6000 4.1 130 02:18 14.08.2019
3687 Rain 29 1006 84 10000 3.6 110 01:30 14.08.2019
3688 Rain 27 1009 88 16093 3.87 106.852 00:38 14.08.2019
3689 Rain 27 1006 94 10000 3.6 110 23:43 13.08.2019
3690 Rain 27 1007 94 16093 3.59 100.928 23:20 13.08.2019
3691 Rain 27 1009 94 16093 1.5 310 22:56 13.08.2019
3692 Rain 27 1006 94 10000 3.1 100 22:38 13.08.2019
3693 Rain 27 1006 94 10000 3.1 100 22:38 13.08.2019
3694 Rain 27 1006 94 10000 3.1 100 22:19 13.08.2019
3695 Rain 27 1006 94 10000 2.1 100 21:55 13.08.2019
3696 Drizzle 27 1006 88 10000 2.1 120 21:36 13.08.2019
3697 Drizzle 27 1006 88 10000 2.1 120 21:36 13.08.2019
3698 Drizzle 27 1006 88 10000 2.1 120 21:18 13.08.2019
3699 Rain 27 1006 94 10000 3.6 120 20:43 13.08.2019
3700 Rain 27 1006 94 10000 3.6 120 20:20 13.08.2019
3701 Clouds 27 1006 94 10000 3.1 120 19:57 13.08.2019
3702 Clouds 27 1006 94 10000 3.1 130 19:39 13.08.2019
3703 Clouds 27 1006 94 10000 3.1 130 19:20 13.08.2019
3704 Clouds 27 1006 94 10000 3.1 120 18:42 13.08.2019
3705 Clouds 27 1006 94 10000 3.1 120 18:22 13.08.2019
3706 Clouds 28 1007 94 10000 2.6 110 17:57 13.08.2019
3707 Clouds 28 1007 94 10000 2.6 120 17:39 13.08.2019
3708 Clouds 28 1007 94 10000 2.6 120 17:19 13.08.2019
3709 Clouds 28 1007 88 10000 2.6 120 16:56 13.08.2019
3710 Clouds 28 1007 88 10000 2.6 120 16:55 13.08.2019
3711 Clouds 28 1007 88 10000 2.1 130 16:37 13.08.2019
3712 Clouds 28 1007 88 10000 2.1 130 16:18 13.08.2019
3713 Clouds 28 1007 89 10000 2.6 140 15:38 13.08.2019
3714 Clouds 28 1007 89 10000 2.6 140 15:20 13.08.2019
3715 Rain 28 1007 89 10000 2.6 150 14:55 13.08.2019
3716 Clouds 28 1007 83 10000 4.6 160 14:37 13.08.2019
3717 Clouds 28 1007 83 10000 4.6 160 14:18 13.08.2019
3718 Rain 29 1007 83 10000 5.1 150 13:41 13.08.2019
3719 Rain 29 1007 83 10000 5.1 150 13:21 13.08.2019
3720 Rain 29 1007 79 10000 3.6 180 12:58 13.08.2019
3721 Clouds 29 1006 83 10000 2.6 190 12:39 13.08.2019
3722 Clouds 29 1006 83 10000 2.6 190 12:21 13.08.2019
3723 Clouds 29 1006 84 10000 2.1 150 11:57 13.08.2019
3724 Clouds 30 1005 84 10000 1.5 140 11:37 13.08.2019
3725 Clouds 30 1005 84 10000 1.5 140 11:18 13.08.2019
3726 Clouds 30 1005 84 10000 1.5 120 10:55 13.08.2019
3727 Rain 30 1005 79 10000 2.6 200 10:36 13.08.2019
3728 Rain 30 1005 79 10000 2.6 200 10:18 13.08.2019
3729 Rain 30 1005 94 10000 2.6 180 09:42 13.08.2019
3730 Rain 30 1005 94 10000 2.6 180 09:23 13.08.2019
3731 Rain 30 1005 88 10000 6.7 140 08:43 13.08.2019
3732 Rain 30 1005 88 10000 6.7 140 08:22 13.08.2019
3733 Rain 31 1005 94 10000 6.2 130 07:56 13.08.2019
3734 Thunderstorm 31 1005 79 10000 9.3 150 07:34 13.08.2019
3735 Thunderstorm 32 1006 70 10000 8.2 140 06:55 13.08.2019
3736 Rain 32 1005 63 10000 2.6 140 06:34 13.08.2019
3737 Rain 32 1008 79 16093 1.5 130 05:35 13.08.2019
3738 Rain 29 1007 83 12874 0.94 74.247 02:38 13.08.2019
3739 Rain 29 1007 83 12874 0.94 74.247 02:19 13.08.2019
3740 Rain 28 1006 89 10000 3.6 60 00:59 13.08.2019
3741 Rain 28 1006 88 10000 3.6 40 00:40 13.08.2019
3742 Rain 27 1006 94 10000 4.6 40 23:56 12.08.2019
3743 Rain 27 1007 88 8047 2.1 300 23:36 12.08.2019
3744 Rain 27 1007 88 8047 2.1 300 23:18 12.08.2019
3745 Clouds 27 1006 88 10000 3.1 40 22:40 12.08.2019
3746 Clouds 27 1006 88 10000 3.1 40 22:19 12.08.2019
3747 Clouds 27 1005 94 10000 3.1 50 21:55 12.08.2019
3748 Rain 27 1006 94 10000 3.1 60 21:37 12.08.2019
3749 Rain 27 1006 94 10000 3.1 60 21:18 12.08.2019
3750 Rain 27 1006 94 10000 3.1 90 20:56 12.08.2019
3751 -273 0 0 0 0 0 20:55 12.08.2019
3752 Clouds 27 1006 88 10000 3.1 100 20:36 12.08.2019
3753 Clouds 27 1006 88 10000 3.1 100 20:18 12.08.2019
3754 Rain 27 1006 94 10000 3.1 90 19:55 12.08.2019
3755 Rain 27 1006 94 10000 3.1 90 19:55 12.08.2019
3756 Clouds 27 1006 88 10000 2.6 100 19:36 12.08.2019
3757 Clouds 27 1006 88 10000 2.6 100 19:18 12.08.2019
3758 Clouds 27 1007 88 10000 2.6 90 18:54 12.08.2019
3759 Clouds 27 1007 94 10000 2.6 100 18:36 12.08.2019
3760 Clouds 27 1007 94 10000 2.6 100 18:18 12.08.2019
3761 Clouds 28 1007 94 10000 2.1 130 17:46 12.08.2019
3762 Clouds 28 1007 94 10000 2.1 130 17:27 12.08.2019
3763 Clouds 28 1008 94 10000 3.1 130 16:56 12.08.2019
3764 Clouds 28 1008 94 10000 3.1 130 16:56 12.08.2019
3765 Clouds 28 1008 88 10000 2.6 120 16:38 12.08.2019
3766 -273 0 0 0 0 0 16:19 12.08.2019
3767 -273 0 0 0 0 0 16:19 12.08.2019
3768 Clouds 28 1008 94 10000 3.1 140 15:57 12.08.2019
3769 Clouds 28 1008 94 10000 3.1 140 15:57 12.08.2019
3770 Clouds 28 1008 88 10000 2.6 140 15:38 12.08.2019
3771 Clouds 28 1008 88 10000 2.6 140 15:38 12.08.2019
3772 Clouds 28 1008 88 10000 2.6 140 15:20 12.08.2019
3773 Clouds 28 1008 88 10000 3.6 140 14:55 12.08.2019
3774 Clouds 28 1008 83 10000 4.1 140 14:36 12.08.2019
3775 Clouds 28 1008 83 10000 4.1 140 14:18 12.08.2019
3776 Clouds 29 1008 83 10000 5.1 130 13:42 12.08.2019
3777 Clouds 29 1008 83 10000 5.1 130 13:23 12.08.2019
3778 Clouds 29 1008 88 10000 2.6 140 12:44 12.08.2019
3779 Clouds 29 1007 79 10000 5.7 130 12:22 12.08.2019
3780 Clouds 30 1007 79 10000 5.7 130 11:58 12.08.2019
3781 Clouds 30 1007 79 10000 5.7 120 11:39 12.08.2019
3782 Clouds 31 1007 79 10000 5.7 120 11:21 12.08.2019
3783 -273 0 0 0 0 0 10:42 12.08.2019
3784 Clouds 31 1007 62 10000 3.1 160 10:23 12.08.2019
3785 Clouds 32 1007 74 10000 3.1 90 09:56 12.08.2019
3786 Clouds 33 1007 70 10000 3.1 130 09:37 12.08.2019
3787 Clouds 33 1007 70 10000 3.1 130 09:19 12.08.2019
3788 Clouds 33 1007 66 10000 1.5 60 08:55 12.08.2019
3789 Clouds 33 1007 70 10000 1.5 140 08:37 12.08.2019
3790 Clouds 33 1007 70 10000 1.5 140 08:19 12.08.2019
3791 Clouds 33 1007 70 10000 1.5 130 07:42 12.08.2019
3792 Clouds 33 1007 70 10000 1.5 130 07:20 12.08.2019
3793 Clouds 32 1008 70 10000 1.5 130 06:47 12.08.2019
3794 Clouds 31 1008 94 10000 1.5 0 05:38 12.08.2019
3795 Rain 29 1009 83 10000 2.1 40 02:44 12.08.2019
3796 Rain 28 1009 83 8000 3.6 30 01:54 12.08.2019
3797 Rain 28 1011 83 6437 1.5 60 01:20 12.08.2019
3798 Rain 27 1012 83 8047 2.83 139.803 00:57 12.08.2019
3799 Mist 27 1009 94 10000 2.6 50 00:38 12.08.2019
3800 Mist 27 1009 94 10000 2.6 50 00:19 12.08.2019
3801 Mist 27 1009 94 10000 3.6 80 23:54 11.08.2019
3802 Mist 26 1008 88 10000 3.1 100 23:36 11.08.2019
3803 Mist 26 1008 88 10000 3.1 100 23:18 11.08.2019
3804 Mist 26 1008 88 9000 3.1 60 22:40 11.08.2019
3805 Mist 26 1008 88 9000 3.1 60 22:19 11.08.2019
3806 Fog 26 1011 94 11265 1.5 320 21:59 11.08.2019
3807 Rain 26 1008 88 9000 3.1 70 21:40 11.08.2019
3808 Rain 26 1008 88 9000 3.1 70 21:40 11.08.2019
3809 Rain 26 1008 88 9000 3.1 70 21:21 11.08.2019
3810 Rain 26 1008 88 9000 3.6 70 20:57 11.08.2019
3811 Rain 26 1008 88 9000 3.6 70 20:57 11.08.2019
3812 Rain 26 1011 94 8047 1.5 30 20:38 11.08.2019
3813 Mist 26 1011 94 8047 1.5 30 20:20 11.08.2019
3814 Mist 26 1009 88 9000 4.6 70 19:43 11.08.2019
3815 Mist 26 1009 88 9000 4.6 70 19:19 11.08.2019
3816 Mist 27 1009 94 9000 4.1 60 18:42 11.08.2019
3817 Mist 27 1009 94 9000 4.1 60 18:23 11.08.2019
3818 Mist 27 1009 94 10000 4.1 70 17:59 11.08.2019
3819 Mist 27 1009 94 10000 3.6 80 17:40 11.08.2019
3820 Mist 27 1009 94 10000 3.6 80 17:20 11.08.2019
3821 Mist 27 1010 94 10000 3.6 70 16:56 11.08.2019
3822 Clouds 27 1010 94 10000 3.1 100 16:38 11.08.2019
3823 Clouds 27 1010 94 10000 3.1 100 16:19 11.08.2019
3824 Clouds 27 1010 94 10000 4.1 110 15:44 11.08.2019
3825 Clouds 27 1010 94 10000 4.1 110 15:25 11.08.2019
3826 Clouds 28 1010 94 10000 5.1 110 14:59 11.08.2019
3827 Clouds 27 1010 94 10000 5.1 100 14:39 11.08.2019
3828 Clouds 27 1010 94 10000 5.1 100 14:20 11.08.2019
3829 Rain 28 1009 88 10000 6.2 110 13:44 11.08.2019
3830 Rain 28 1009 88 10000 6.2 110 13:26 11.08.2019
3831 Clouds 29 1009 88 10000 5.7 120 12:57 11.08.2019
3832 Clouds 29 1008 83 10000 6.7 130 12:37 11.08.2019
3833 Clouds 29 1008 83 10000 6.7 130 12:19 11.08.2019
3834 Clouds 30 1008 79 10000 5.1 110 11:40 11.08.2019
3835 Clouds 30 1008 79 10000 5.1 110 11:22 11.08.2019
3836 Clouds 31 1007 79 10000 5.1 120 10:56 11.08.2019
3837 Clouds 31 1007 79 10000 5.1 120 10:56 11.08.2019
3838 Clouds 31 1007 70 10000 3.6 120 10:37 11.08.2019
3839 Rain 31 1007 70 10000 3.6 120 10:19 11.08.2019
3840 Rain 31 1007 79 10000 7.7 110 09:43 11.08.2019
3841 Rain 32 1007 79 10000 7.7 110 09:24 11.08.2019
3842 Rain 32 1007 84 10000 7.7 80 08:56 11.08.2019
3843 Rain 32 1007 74 10000 8.2 80 08:38 11.08.2019
3844 Rain 32 1007 74 10000 8.2 80 08:20 11.08.2019
3845 Rain 33 1007 70 10000 6.2 100 07:32 11.08.2019
3846 Rain 33 1008 70 10000 5.1 80 06:52 11.08.2019
3847 Clouds 33 1007 70 10000 4.6 130 06:31 11.08.2019
3848 Clouds 33 1008 63 10000 2.6 140 05:19 11.08.2019
3849 Clouds 31 1012 74 16093 1.5 80 02:53 11.08.2019
3850 Clouds 30 1012 74 16093 2.1 30 01:58 11.08.2019
3851 Clouds 30 1011 74 16093 2.6 40 01:32 11.08.2019
3852 Clouds 29 1012 74 16093 2.1 60 00:56 11.08.2019
3853 Clouds 29 1009 83 10000 2.6 160 00:36 11.08.2019
3854 Clouds 28 1009 83 10000 2.6 170 23:57 10.08.2019
3855 Clouds 27 1008 88 10000 2.6 170 23:37 10.08.2019
3856 Clouds 27 1008 88 10000 2.6 170 23:18 10.08.2019
3857 Fog 26 1008 88 10000 3.6 160 22:40 10.08.2019
3858 Fog 26 1008 88 10000 3.6 160 22:22 10.08.2019
3859 Fog 26 1008 88 10000 4.1 180 21:55 10.08.2019
3860 Clouds 26 1008 88 10000 3.6 190 21:36 10.08.2019
3861 Fog 26 1008 88 10000 3.6 190 21:18 10.08.2019
3862 Fog 26 1008 88 10000 3.1 200 20:42 10.08.2019
3863 Fog 26 1008 88 10000 3.1 200 20:21 10.08.2019
3864 Fog 26 1008 83 10000 4.6 190 19:57 10.08.2019
3865 Fog 26 1007 83 10000 4.6 190 19:37 10.08.2019
3866 Fog 26 1007 83 10000 4.6 190 19:19 10.08.2019
3867 Clouds 27 1008 94 10000 5.1 190 18:39 10.08.2019
3868 Clouds 27 1008 94 10000 5.1 190 18:21 10.08.2019
3869 Clouds 27 1008 88 10000 5.7 190 17:44 10.08.2019
3870 Clouds 27 1008 88 10000 5.7 190 17:24 10.08.2019
3871 Clouds 27 1008 83 10000 5.7 190 16:47 10.08.2019
3872 Clouds 27 1008 88 10000 5.7 190 16:28 10.08.2019
3873 Clouds 27 1009 83 10000 5.7 190 15:54 10.08.2019
3874 Clouds 28 1008 88 10000 6.2 190 15:25 10.08.2019
3875 Clouds 28 1009 83 10000 6.2 190 14:45 10.08.2019
3876 Clouds 28 1009 83 10000 6.2 190 14:23 10.08.2019
3877 Clouds 28 1008 83 10000 6.7 190 13:57 10.08.2019
3878 Clouds 28 1008 83 10000 8.2 190 13:39 10.08.2019
3879 Clouds 28 1008 83 10000 8.2 190 13:18 10.08.2019
3880 Clouds 29 1008 74 10000 7.2 190 12:41 10.08.2019
3881 Clouds 29 1008 74 10000 7.2 190 12:21 10.08.2019
3882 Clouds 29 1007 70 10000 7.2 200 11:56 10.08.2019
3883 Clouds 30 1007 70 10000 7.2 190 11:37 10.08.2019
3884 Clouds 30 1007 70 10000 7.2 190 11:19 10.08.2019
3885 Clouds 31 1007 66 10000 3.1 190 10:39 10.08.2019
3886 Clouds 31 1007 66 10000 3.1 190 10:20 10.08.2019
3887 Clouds 31 1007 66 10000 3.1 190 10:20 10.08.2019
3888 Clouds 32 1007 66 10000 5.7 200 09:44 10.08.2019
3889 Clouds 32 1007 66 10000 5.7 200 09:25 10.08.2019
3890 Clouds 32 1007 62 10000 8.7 180 08:59 10.08.2019
3891 Clouds 33 1007 70 10000 5.7 190 08:38 10.08.2019
3892 Clouds 33 1007 70 10000 5.7 190 08:19 10.08.2019
3893 Clouds 33 1007 52 10000 8.2 190 07:48 10.08.2019
3894 Clouds 33 1007 62 10000 5.1 190 07:26 10.08.2019
3895 Clouds 33 1007 55 10000 8.7 190 06:48 10.08.2019
3896 Clouds 33 1007 66 10000 5.1 180 06:21 10.08.2019
3897 Clouds 33 1008 75 10000 5.1 180 05:22 10.08.2019
3898 Clouds 32 1008 75 10000 5.7 160 04:21 10.08.2019
3899 Clouds 31 1009 74 10000 6.2 170 02:53 10.08.2019
3900 Clouds 31 1008 79 10000 3.1 150 01:59 10.08.2019
3901 Clouds 31 1008 79 10000 3.6 180 01:40 10.08.2019
3902 Clouds 30 1008 79 10000 3.6 180 01:20 10.08.2019
3903 Clouds 29 1008 83 10000 4.6 180 00:44 10.08.2019
3904 Clouds 29 1008 83 10000 4.6 180 00:22 10.08.2019
3905 Clouds 28 1009 79 10000 4.1 180 23:43 09.08.2019
3906 Clouds 27 1009 83 10000 3.1 180 23:23 09.08.2019
3907 Clouds 26 1009 83 10000 4.1 180 22:57 09.08.2019
3908 Clouds 26 1008 88 10000 4.1 190 22:38 09.08.2019
3909 Clouds 26 1008 88 10000 4.1 190 22:38 09.08.2019
3910 Clouds 26 1008 88 10000 4.1 190 22:20 09.08.2019
3911 Clouds 26 1008 88 10000 4.1 190 22:20 09.08.2019
3912 Clouds 26 1008 83 10000 4.1 200 21:43 09.08.2019
3913 Clouds 27 1008 83 10000 4.1 200 21:23 09.08.2019
3914 Clouds 27 1008 88 10000 4.1 200 20:59 09.08.2019
3915 Clouds 27 1008 78 10000 4.6 200 20:40 09.08.2019
3916 Clouds 27 1008 78 10000 4.6 200 20:21 09.08.2019
3917 Clouds 27 1008 78 10000 4.6 190 19:59 09.08.2019
3918 Clouds 27 1008 78 10000 6.2 190 19:41 09.08.2019
3919 Clouds 27 1008 78 10000 6.2 190 19:18 09.08.2019
3920 Clouds 27 1008 83 10000 6.2 190 18:41 09.08.2019
3921 Clouds 27 1008 83 10000 6.2 190 18:22 09.08.2019
3922 Clouds 28 1009 83 10000 7.2 200 17:58 09.08.2019
3923 Clouds 28 1008 83 10000 6.7 200 17:39 09.08.2019
3924 Clouds 28 1008 83 10000 6.7 200 17:21 09.08.2019
3925 -273 0 0 0 0 0 16:41 09.08.2019
3926 Clouds 28 1009 83 10000 6.7 190 16:41 09.08.2019
3927 Clouds 28 1009 83 10000 6.7 190 16:22 09.08.2019
3928 -273 0 0 0 0 0 15:56 09.08.2019
3929 Clouds 28 1009 78 10000 6.7 200 15:56 09.08.2019
3930 Clouds 28 1008 78 10000 7.7 200 15:37 09.08.2019
3931 Clouds 28 1008 78 10000 7.7 200 15:19 09.08.2019
3932 Clouds 28 1009 74 10000 7.2 200 14:44 09.08.2019
3933 Clouds 28 1009 78 10000 7.7 190 14:22 09.08.2019
3934 Clouds 28 1009 83 10000 7.2 190 13:57 09.08.2019
3935 Clouds 28 1008 83 10000 7.7 190 13:39 09.08.2019
3936 Clouds 28 1008 83 10000 7.7 190 13:19 09.08.2019
3937 Clouds 28 1008 83 10000 7.7 180 12:45 09.08.2019
3938 Clouds 29 1008 83 10000 7.7 180 12:23 09.08.2019
3939 Clouds 29 1008 79 10000 8.2 180 11:58 09.08.2019
3940 Clouds 29 1008 79 10000 7.7 190 11:37 09.08.2019
3941 Clouds 30 1008 79 10000 7.7 190 11:18 09.08.2019
3942 Clouds 30 1007 66 10000 5.1 170 10:40 09.08.2019
3943 Clouds 31 1007 66 10000 5.1 170 10:21 09.08.2019
3944 Clouds 31 1007 79 10000 5.1 190 09:46 09.08.2019
3945 Clouds 32 1007 79 10000 5.1 190 09:20 09.08.2019
3946 Clouds 33 1007 62 10000 9.3 190 08:57 09.08.2019
3947 Clouds 33 1007 70 10000 6.7 190 08:39 09.08.2019
3948 Clouds 33 1007 70 10000 6.7 190 08:19 09.08.2019
3949 Clouds 34 1007 74 10000 5.7 180 07:43 09.08.2019
3950 Clouds 34 1007 74 10000 5.7 180 07:23 09.08.2019
3951 Clouds 35 1007 59 10000 9.3 190 06:56 09.08.2019
3952 Clouds 34 1007 66 10000 6.2 180 06:29 09.08.2019
3953 Clouds 34 1007 59 10000 8.2 180 05:55 09.08.2019
3954 Clouds 32 1008 79 10000 4.6 180 03:19 09.08.2019
3955 Clouds 31 1009 74 10000 3.1 220 01:45 09.08.2019
3956 Clouds 30 1009 74 10000 6.2 180 00:48 09.08.2019
3957 Clouds 29 1009 74 10000 5.1 180 00:26 09.08.2019
3958 Clouds 28 1009 79 10000 4.6 200 23:59 08.08.2019
3959 Clouds 27 1008 83 10000 5.1 200 23:38 08.08.2019
3960 Clouds 27 1008 83 10000 5.1 200 23:19 08.08.2019
3961 Clouds 27 1009 83 10000 5.1 200 22:58 08.08.2019
3962 Clouds 27 1008 88 10000 5.7 200 22:37 08.08.2019
3963 Clouds 27 1008 88 10000 5.7 200 22:37 08.08.2019
3964 Clouds 27 1008 88 10000 5.7 200 22:18 08.08.2019
3965 Clouds 27 1008 88 10000 5.1 190 21:57 08.08.2019
3966 Mist 27 1008 88 10000 6.2 200 21:39 08.08.2019
3967 Mist 27 1008 88 10000 6.2 200 21:20 08.08.2019
3968 Mist 27 1008 88 10000 6.2 200 20:42 08.08.2019
3969 Mist 27 1008 88 10000 6.2 200 20:22 08.08.2019
3970 Clouds 27 1008 88 10000 7.7 200 19:59 08.08.2019
3971 Clouds 27 1008 88 10000 7.2 200 19:41 08.08.2019
3972 Clouds 27 1008 88 10000 7.2 200 19:20 08.08.2019
3973 Clouds 27 1009 83 10000 7.7 200 18:43 08.08.2019
3974 Clouds 27 1009 83 10000 7.7 200 18:23 08.08.2019
3975 Clouds 27 1009 88 10000 7.2 200 17:56 08.08.2019
3976 Clouds 27 1009 83 10000 6.7 190 17:37 08.08.2019
3977 Clouds 27 1009 83 10000 6.7 190 17:19 08.08.2019
3978 Clouds 27 1009 83 10000 6.7 190 17:19 08.08.2019
3979 Clouds 28 1010 83 10000 6.7 190 16:43 08.08.2019
3980 Clouds 28 1010 83 10000 6.7 190 16:24 08.08.2019
3981 Clouds 28 1010 83 10000 6.7 190 15:59 08.08.2019
3982 Clouds 28 1010 83 10000 6.7 190 15:59 08.08.2019
3983 Clouds 28 1009 83 10000 7.2 190 15:41 08.08.2019
3984 Clouds 28 1009 83 10000 7.2 190 15:22 08.08.2019
3985 Clouds 28 1010 83 10000 7.2 190 14:55 08.08.2019
3986 Clouds 28 1010 83 10000 6.7 190 14:36 08.08.2019
3987 Clouds 28 1010 83 10000 6.7 190 14:18 08.08.2019
3988 Clouds 29 1009 83 10000 6.2 180 13:39 08.08.2019
3989 Clouds 29 1009 83 10000 6.2 180 13:20 08.08.2019
3990 Clouds 29 1009 79 10000 6.7 180 12:40 08.08.2019
3991 Clouds 30 1009 79 10000 6.7 180 12:21 08.08.2019
3992 Clouds 30 1008 79 10000 7.7 190 11:59 08.08.2019
3993 Clouds 30 1008 79 10000 8.2 180 11:39 08.08.2019
3994 Clouds 31 1008 79 10000 8.2 180 11:21 08.08.2019
3995 Clouds 31 1008 62 10000 4.6 160 10:41 08.08.2019
3996 Clouds 32 1008 62 10000 4.6 160 10:21 08.08.2019
3997 Clouds 32 1008 70 10000 9.3 180 09:52 08.08.2019
3998 Clouds 32 1008 83 10000 5.7 180 09:31 08.08.2019
3999 Clouds 32 1008 70 10000 8.7 180 08:59 08.08.2019
4000 Clouds 33 1008 79 10000 5.1 190 08:39 08.08.2019
4001 Clouds 33 1008 79 10000 5.1 190 08:19 08.08.2019
4002 Clouds 33 1008 74 10000 6.2 190 07:41 08.08.2019
4003 Clouds 33 1008 74 10000 6.2 190 07:20 08.08.2019
4004 Clouds 33 1009 62 10000 9.3 190 06:56 08.08.2019
4005 Clouds 33 1009 74 10000 6.7 200 06:37 08.08.2019
4006 Clouds 34 1009 66 10000 9.8 190 05:53 08.08.2019
4007 Clouds 33 1009 79 10000 7.2 180 05:19 08.08.2019
4008 Clouds 33 1010 70 10000 8.2 180 03:54 08.08.2019
4009 Clouds 32 1010 66 10000 6.7 180 02:58 08.08.2019
4010 Clouds 31 1010 70 10000 5.7 180 01:38 08.08.2019
4011 Clouds 29 1010 79 10000 5.1 180 00:27 08.08.2019
4012 Clouds 28 1009 74 10000 4.1 180 23:59 07.08.2019
4013 Clouds 28 1009 79 10000 3.1 190 23:22 07.08.2019
4014 Clouds 27 1010 83 10000 3.1 190 22:59 07.08.2019
4015 Clouds 27 1010 83 10000 3.1 190 22:59 07.08.2019
4016 Clouds 27 1009 78 10000 3.6 200 22:40 07.08.2019
4017 Clouds 27 1009 78 10000 3.6 200 22:20 07.08.2019
4018 Clouds 26 1009 88 10000 4.6 200 21:56 07.08.2019
4019 Clouds 27 1009 83 10000 5.1 200 21:38 07.08.2019
4020 Clouds 27 1009 83 10000 5.1 200 21:38 07.08.2019
4021 Clouds 27 1009 83 10000 5.1 200 21:19 07.08.2019
4022 Clouds 27 1009 78 10000 5.7 200 20:56 07.08.2019
4023 Clouds 27 1009 83 10000 5.1 200 20:37 07.08.2019
4024 Clouds 27 1009 83 10000 5.1 200 20:19 07.08.2019
4025 Clouds 27 1009 83 10000 5.7 200 19:55 07.08.2019
4026 Clouds 27 1010 83 10000 5.1 200 19:36 07.08.2019
4027 Clouds 27 1010 83 10000 5.7 190 19:18 07.08.2019
4028 Clouds 27 1009 83 10000 6.2 200 18:40 07.08.2019
4029 Clouds 27 1009 83 10000 6.2 200 18:19 07.08.2019
4030 Clouds 27 1010 83 10000 6.7 190 17:55 07.08.2019
4031 Clouds 27 1009 83 10000 6.7 200 17:37 07.08.2019
4032 Clouds 27 1009 83 10000 6.7 200 17:18 07.08.2019
4033 Clouds 28 1009 79 10000 6.2 190 16:56 07.08.2019
4034 Clouds 28 1009 79 10000 6.2 190 16:56 07.08.2019
4035 Clouds 28 1010 83 10000 6.2 200 16:37 07.08.2019
4036 Clouds 28 1010 83 10000 6.2 200 16:37 07.08.2019
4037 Clouds 28 1010 83 10000 6.2 200 16:19 07.08.2019
4038 Clouds 28 1010 79 10000 6.7 200 15:43 07.08.2019
4039 Clouds 28 1010 79 10000 6.7 200 15:21 07.08.2019
4040 Clouds 28 1010 79 10000 6.7 190 14:50 07.08.2019
4041 Clouds 28 1010 83 10000 6.7 190 14:30 07.08.2019
4042 Clouds 28 1010 83 10000 7.7 180 13:59 07.08.2019
4043 Clouds 28 1010 83 10000 7.7 180 13:40 07.08.2019
4044 Clouds 28 1010 83 10000 7.7 180 13:19 07.08.2019
4045 Clouds 29 1009 79 10000 6.7 180 12:57 07.08.2019
4046 Clouds 29 1010 79 10000 6.7 180 12:38 07.08.2019
4047 Clouds 29 1010 79 10000 6.7 180 12:38 07.08.2019
4048 Clouds 29 1010 79 10000 6.7 180 12:19 07.08.2019
4049 Clouds 29 1009 79 10000 6.7 180 11:58 07.08.2019
4050 -273 0 0 0 0 0 11:40 07.08.2019
4051 Clouds 30 1009 83 10000 6.2 190 11:18 07.08.2019
4052 Clouds 30 1008 74 10000 4.1 160 10:41 07.08.2019
4053 Clouds 31 1008 74 10000 4.1 160 10:20 07.08.2019
4054 Clouds 31 1009 70 10000 7.7 190 09:59 07.08.2019
4055 Clouds 31 1008 79 10000 4.6 190 09:39 07.08.2019
4056 Clouds 31 1008 79 10000 4.6 190 09:18 07.08.2019
4057 Clouds 32 1009 70 10000 7.7 190 08:45 07.08.2019
4058 Clouds 33 1008 79 10000 5.1 190 08:25 07.08.2019
4059 Clouds 34 1009 66 10000 8.7 180 07:51 07.08.2019
4060 Clouds 34 1008 75 10000 6.2 180 07:30 07.08.2019
4061 Clouds 34 1009 75 10000 6.2 180 06:48 07.08.2019
4062 Clouds 34 1009 75 10000 6.2 180 06:26 07.08.2019
4063 Clouds 34 1009 79 10000 5.7 170 05:42 07.08.2019
4064 Clouds 33 1010 79 10000 5.7 170 04:40 07.08.2019
4065 Clouds 33 1011 74 10000 4.1 180 03:18 07.08.2019
4066 Clouds 32 1011 84 10000 3.6 180 02:39 07.08.2019
4067 Clouds 31 1011 84 10000 3.1 170 01:52 07.08.2019
4068 Clouds 30 1012 66 10000 5.7 180 01:22 07.08.2019
4069 Clouds 29 1011 70 10000 4.6 200 00:37 07.08.2019
4070 Clouds 29 1011 70 10000 4.6 200 00:18 07.08.2019
4071 Clouds 28 1011 83 10000 5.1 210 23:38 06.08.2019
4072 Clouds 27 1011 83 10000 5.1 210 23:20 06.08.2019
4073 Clouds 26 1012 83 10000 6.2 200 22:41 06.08.2019
4074 Clouds 26 1012 83 10000 6.2 200 22:22 06.08.2019
4075 Clouds 27 1011 78 10000 5.7 190 21:57 06.08.2019
4076 Clouds 27 1011 78 10000 3.6 200 21:39 06.08.2019
4077 Clouds 27 1011 78 10000 3.6 200 21:19 06.08.2019
4078 Clouds 27 1011 78 10000 3.6 200 21:19 06.08.2019
4079 Clouds 27 1011 78 10000 3.6 200 21:19 06.08.2019
4080 Clouds 27 1011 78 10000 3.6 200 21:19 06.08.2019
4081 Clear 27 1010 79 10000 5.7 210 20:47 06.08.2019
4082 Clear 27 1010 79 10000 5.7 210 20:29 06.08.2019
4083 Clear 27 1011 79 10000 5.7 200 19:58 06.08.2019
4084 Clear 27 1010 79 10000 4.6 210 19:38 06.08.2019
4085 Clear 27 1010 79 10000 4.6 210 19:19 06.08.2019
4086 Clear 27 1010 74 10000 6.2 200 18:43 06.08.2019
4087 Clear 28 1010 74 10000 6.2 200 18:25 06.08.2019
4088 Clear 28 1011 74 10000 5.7 180 17:58 06.08.2019
4089 Clear 28 1010 79 10000 5.1 200 17:38 06.08.2019
4090 Clear 28 1010 79 10000 5.1 200 17:19 06.08.2019
4091 Clear 28 1010 79 10000 5.1 200 16:54 06.08.2019
4092 Clear 28 1010 79 10000 6.2 200 16:36 06.08.2019
4093 Clear 28 1010 79 10000 6.2 200 16:18 06.08.2019
4094 Clear 28 1011 74 10000 6.7 200 15:56 06.08.2019
4095 Clear 28 1010 79 10000 7.2 200 15:37 06.08.2019
4096 Clear 28 1010 79 10000 7.2 200 15:18 06.08.2019
4097 Clouds 28 1011 79 10000 7.2 200 14:40 06.08.2019
4098 Clouds 28 1011 79 10000 7.2 200 14:22 06.08.2019
4099 Clouds 29 1012 83 10000 7.2 190 13:55 06.08.2019
4100 Clouds 29 1012 89 10000 7.7 190 13:37 06.08.2019
4101 Clouds 29 1012 89 10000 7.7 190 13:19 06.08.2019
4102 Clouds 29 1010 83 10000 8.2 190 12:42 06.08.2019
4103 Clouds 29 1010 83 10000 8.2 190 12:24 06.08.2019
4104 Clouds 29 1011 83 10000 7.7 190 11:59 06.08.2019
4105 Clouds 29 1011 83 10000 7.7 190 11:59 06.08.2019
4106 Clouds 30 1010 79 10000 7.7 190 11:40 06.08.2019
4107 Clouds 30 1010 79 10000 7.7 190 11:18 06.08.2019
4108 Clouds 31 1010 70 10000 5.7 170 10:41 06.08.2019
4109 Clouds 31 1010 70 10000 5.7 170 10:22 06.08.2019
4110 Clouds 32 1011 74 10000 9.3 190 09:47 06.08.2019
4111 Clouds 32 1010 79 10000 5.1 190 09:24 06.08.2019
4112 Clouds 32 1010 70 10000 8.7 190 08:57 06.08.2019
4113 Clouds 33 1009 70 10000 6.2 190 08:37 06.08.2019
4114 Clouds 33 1009 70 10000 6.2 190 08:19 06.08.2019
4115 Clouds 33 1010 74 10000 5.1 190 07:35 06.08.2019
4116 Clouds 34 1010 63 10000 9.8 190 06:51 06.08.2019
4117 Clouds 34 1010 75 10000 6.7 180 06:26 06.08.2019
4118 Clouds 34 1011 66 10000 8.7 180 05:47 06.08.2019
4119 Clouds 32 1012 75 10000 6.7 180 02:59 06.08.2019
4120 Clouds 30 1012 74 10000 5.7 180 01:46 06.08.2019
4121 Clouds 30 1012 74 10000 5.7 180 01:22 06.08.2019
4122 Clouds 29 1012 79 10000 4.6 190 00:29 06.08.2019
4123 Clouds 28 1012 83 10000 5.1 200 23:40 05.08.2019
4124 Clouds 28 1012 83 10000 5.1 200 23:18 05.08.2019
4125 Clouds 27 1012 83 10000 5.7 200 22:40 05.08.2019
4126 Clouds 27 1012 83 10000 5.7 200 22:22 05.08.2019
4127 Clouds 27 1012 83 10000 5.7 200 21:44 05.08.2019
4128 Clouds 27 1012 88 10000 6.2 190 21:22 05.08.2019
4129 Clouds 27 1011 88 10000 5.7 190 21:00 05.08.2019
4130 Clouds 27 1011 88 10000 5.1 190 20:41 05.08.2019
4131 Clouds 27 1011 88 10000 5.1 190 20:23 05.08.2019
4132 Clouds 27 1012 88 10000 5.1 190 19:59 05.08.2019
4133 Clouds 27 1014 88 16093 1.5 200 19:39 05.08.2019
4134 Clouds 27 1014 88 16093 1.5 200 19:39 05.08.2019
4135 Clouds 27 1014 88 16093 1.5 200 19:20 05.08.2019
4136 Clouds 27 1012 88 10000 6.2 200 18:45 05.08.2019
4137 Clouds 27 1012 88 10000 6.2 200 18:22 05.08.2019
4138 Clouds 27 1012 88 10000 5.7 190 17:58 05.08.2019
4139 Clouds 27 1012 88 10000 5.7 180 17:40 05.08.2019
4140 Clouds 27 1012 88 10000 5.7 180 17:22 05.08.2019
4141 Clouds 27 1013 88 10000 5.1 180 16:44 05.08.2019
4142 Clouds 28 1013 88 10000 5.1 180 16:24 05.08.2019
4143 Clouds 28 1013 83 10000 4.6 180 15:44 05.08.2019
4144 Clouds 28 1012 83 10000 4.6 190 15:21 05.08.2019
4145 Clouds 28 1012 83 10000 5.7 180 14:54 05.08.2019
4146 Clouds 28 1012 83 10000 6.2 190 14:36 05.08.2019
4147 Clouds 28 1012 83 10000 6.2 190 14:18 05.08.2019
4148 Clouds 28 1012 74 10000 7.2 190 13:40 05.08.2019
4149 Clouds 29 1012 74 10000 7.2 190 13:20 05.08.2019
4150 Clouds 29 1012 74 10000 6.2 200 12:43 05.08.2019
4151 Clouds 29 1012 74 10000 6.2 200 12:19 05.08.2019
4152 Clouds 30 1011 74 10000 7.7 190 11:45 05.08.2019
4153 Clouds 30 1011 74 10000 7.7 190 11:45 05.08.2019
4154 Clouds 31 1011 74 10000 7.7 190 11:26 05.08.2019
4155 Clouds 31 1011 66 10000 8.2 200 10:50 05.08.2019
4156 Clouds 32 1010 66 10000 5.7 180 10:32 05.08.2019
4157 Clouds 32 1010 63 10000 6.7 180 09:58 05.08.2019
4158 Clouds 33 1010 75 10000 3.6 170 09:40 05.08.2019
4159 Clouds 33 1010 75 10000 3.6 170 09:21 05.08.2019
4160 Clouds 33 1011 66 10000 5.1 180 08:44 05.08.2019
4161 Clouds 34 1010 70 10000 3.6 140 08:25 05.08.2019
4162 Clouds 34 1011 66 10000 3.6 160 07:53 05.08.2019
4163 Clouds 34 1010 75 10000 3.6 150 07:31 05.08.2019
4164 Clouds 34 1011 66 10000 3.1 120 06:58 05.08.2019
4165 Clouds 34 1011 70 10000 3.1 150 06:27 05.08.2019
4166 Clouds 34 1012 66 10000 2.6 140 05:41 05.08.2019
4167 Clouds 33 1012 70 10000 2.1 70 04:55 05.08.2019
4168 Clouds 32 1013 70 10000 2.1 80 03:53 05.08.2019
4169 Clouds 32 1012 70 10000 5.1 140 03:20 05.08.2019
4170 Clouds 31 1013 74 10000 4.1 130 02:26 05.08.2019
4171 Clouds 30 1013 79 10000 3.1 80 01:32 05.08.2019
4172 Clouds 29 1013 83 10000 3.1 30 00:41 05.08.2019
4173 Clouds 28 1013 83 10000 3.1 30 00:21 05.08.2019
4174 Clouds 27 1013 83 10000 2.6 60 23:55 04.08.2019
4175 Clouds 27 1013 88 10000 2.6 70 23:36 04.08.2019
4176 Clouds 27 1013 88 10000 2.6 70 23:18 04.08.2019
4177 Clouds 26 1013 88 10000 2.1 40 22:54 04.08.2019
4178 Fog 25 1013 88 10000 0.5 60 22:36 04.08.2019
4179 Fog 26 1013 88 10000 0.5 60 22:18 04.08.2019
4180 Clouds 26 1012 88 10000 1 80 21:41 04.08.2019
4181 Clouds 25 1012 88 10000 1 80 21:20 04.08.2019
4182 Clouds 26 1013 88 10000 1.5 50 20:43 04.08.2019
4183 Clouds 26 1013 88 10000 1.5 50 20:19 04.08.2019
4184 Clouds 26 1012 88 10000 0.5 70 19:57 04.08.2019
4185 Clouds 26 1013 88 10000 0.5 110 19:37 04.08.2019
4186 Clouds 26 1013 88 10000 0.5 110 19:19 04.08.2019
4187 Clouds 26 1013 94 10000 1 120 18:42 04.08.2019
4188 Clouds 26 1013 94 10000 1 120 18:20 04.08.2019
4189 Clouds 26 1013 88 10000 1.5 140 17:45 04.08.2019
4190 Clouds 26 1013 88 10000 1.5 120 17:25 04.08.2019
4191 Clouds 26 1013 88 10000 1.5 120 16:56 04.08.2019
4192 Clouds 27 1013 88 10000 1 120 16:38 04.08.2019
4193 Clouds 27 1013 88 10000 1 120 16:19 04.08.2019
4194 Clouds 27 1013 88 10000 3.1 130 15:40 04.08.2019
4195 Clouds 27 1013 88 10000 3.1 130 15:20 04.08.2019
4196 Clouds 27 1013 83 10000 4.6 130 14:44 04.08.2019
4197 Clouds 28 1013 83 10000 4.6 130 14:26 04.08.2019
4198 Clouds 28 1013 83 10000 5.1 130 13:47 04.08.2019
4199 Clouds 28 1013 79 10000 4.6 130 13:28 04.08.2019
4200 Clouds 29 1012 66 10000 4.6 180 12:59 04.08.2019
4201 Clouds 29 1012 66 10000 4.1 200 12:40 04.08.2019
4202 Clouds 29 1012 66 10000 4.1 200 12:22 04.08.2019
4203 Clouds 30 1011 62 10000 4.6 200 11:49 04.08.2019
4204 Clouds 30 1011 62 10000 4.6 200 11:23 04.08.2019
4205 Clouds 31 1011 59 10000 5.1 190 10:54 04.08.2019
4206 Clouds 31 1011 59 10000 3.6 210 10:36 04.08.2019
4207 Clouds 31 1011 59 10000 3.6 210 10:18 04.08.2019
4208 Clouds 32 1011 66 10000 4.1 180 09:41 04.08.2019
4209 Clouds 33 1011 66 10000 4.1 180 09:20 04.08.2019
4210 Clouds 33 1011 66 10000 3.6 180 08:41 04.08.2019
4211 Clouds 33 1011 66 10000 3.6 180 08:20 04.08.2019
4212 Clouds 34 1011 55 10000 5.7 190 07:48 04.08.2019
4213 Clouds 34 1012 59 10000 5.1 180 06:47 04.08.2019
4214 Clouds 33 1011 75 10000 3.1 150 06:24 04.08.2019
4215 Clouds 32 1012 70 10000 4.1 150 03:44 04.08.2019
4216 Clouds 30 1013 83 10000 4.6 160 02:23 04.08.2019
4217 Clouds 30 1012 79 10000 4.6 180 01:33 04.08.2019
4218 Clouds 28 1015 78 16093 2.12 113.439 00:45 04.08.2019
4219 Clouds 28 1015 78 16093 1.9 132.31 00:26 04.08.2019
4220 Clouds 27 1012 83 10000 4.1 170 23:57 03.08.2019
4221 Clouds 27 1013 88 10000 4.6 170 23:39 03.08.2019
4222 Clouds 26 1013 88 10000 4.6 170 23:18 03.08.2019
4223 Clouds 26 1013 88 10000 4.6 170 23:18 03.08.2019
4224 Clouds 26 1012 88 10000 4.6 180 22:44 03.08.2019
4225 Clouds 25 1012 88 10000 4.6 180 22:20 03.08.2019
4226 Clouds 26 1012 88 10000 3.6 180 21:41 03.08.2019
4227 Clouds 26 1012 88 10000 3.6 180 21:22 03.08.2019
4228 Clouds 26 1012 88 10000 4.1 190 20:58 03.08.2019
4229 Clouds 26 1011 88 10000 4.1 190 20:40 03.08.2019
4230 Clouds 26 1011 88 10000 4.1 190 20:20 03.08.2019
4231 Rain 26 1011 88 10000 5.7 180 19:42 03.08.2019
4232 Rain 26 1011 88 10000 5.7 180 19:23 03.08.2019
4233 Rain 26 1012 94 9656 2.87 127.525 18:50 03.08.2019
4234 Clouds 26 1011 88 10000 5.7 180 18:27 03.08.2019
4235 Clouds 26 1012 83 10000 5.1 190 17:49 03.08.2019
4236 Clouds 26 1012 88 10000 4.6 190 17:21 03.08.2019
4237 Clouds 27 1012 88 10000 5.7 200 16:56 03.08.2019
4238 Clouds 27 1012 88 10000 6.2 200 16:37 03.08.2019
4239 Clouds 27 1012 88 10000 6.2 200 16:19 03.08.2019
4240 Clouds 27 1012 78 10000 5.7 190 15:43 03.08.2019
4241 Clouds 27 1012 78 10000 5.7 190 15:23 03.08.2019
4242 Clouds 27 1012 83 10000 6.2 200 14:41 03.08.2019
4243 Clouds 28 1012 83 10000 6.2 200 14:21 03.08.2019
4244 Clouds 28 1012 83 10000 6.2 200 14:21 03.08.2019
4245 Clouds 28 1012 83 10000 6.7 190 13:52 03.08.2019
4246 Clouds 28 1012 83 10000 6.2 180 13:25 03.08.2019
4247 Clouds 28 1011 83 10000 6.7 190 12:58 03.08.2019
4248 Clouds 28 1011 79 10000 6.7 190 12:39 03.08.2019
4249 Clouds 29 1011 79 10000 6.7 190 12:21 03.08.2019
4250 Clouds 29 1010 79 10000 6.2 190 11:49 03.08.2019
4251 Clouds 30 1011 74 10000 6.7 190 11:27 03.08.2019
4252 Clouds 31 1010 62 10000 4.1 180 10:42 03.08.2019
4253 Clouds 31 1010 62 10000 4.1 180 10:22 03.08.2019
4254 Clouds 32 1010 79 10000 6.2 190 09:42 03.08.2019
4255 Clouds 33 1010 79 10000 6.2 190 09:22 03.08.2019
4256 Clouds 33 1011 66 10000 8.7 190 08:52 03.08.2019
4257 Clouds 34 1011 66 10000 8.2 190 07:55 03.08.2019
4258 Clouds 34 1010 70 10000 5.7 200 07:32 03.08.2019
4259 Clouds 34 1011 70 10000 4.1 190 06:36 03.08.2019
4260 Clouds 33 1012 66 10000 6.7 180 04:52 03.08.2019
4261 Clouds 31 1012 83 10000 2.6 170 02:39 03.08.2019
4262 Clouds 31 1012 83 10000 3.6 170 01:50 03.08.2019
4263 Clouds 29 1012 83 10000 5.1 180 00:49 03.08.2019
4264 Clouds 29 1012 79 10000 4.6 180 00:28 03.08.2019
4265 Clouds 27 1011 83 10000 3.6 180 23:41 02.08.2019
4266 Clouds 27 1011 83 10000 3.6 180 23:19 02.08.2019
4267 Clouds 26 1012 88 10000 3.6 190 22:57 02.08.2019
4268 Clouds 26 1012 88 10000 3.6 190 22:38 02.08.2019
4269 Clouds 26 1012 88 10000 3.6 190 22:20 02.08.2019
4270 Clouds 26 1012 88 10000 4.6 180 21:44 02.08.2019
4271 Clouds 26 1012 88 10000 4.6 180 21:25 02.08.2019
4272 Clouds 26 1012 88 10000 3.6 180 20:59 02.08.2019
4273 Clouds 26 1011 88 10000 5.1 190 20:41 02.08.2019
4274 Clouds 26 1011 88 10000 5.1 190 20:20 02.08.2019
4275 Clouds 27 1012 88 10000 5.7 180 19:48 02.08.2019
4276 Clouds 27 1011 88 10000 6.2 200 19:28 02.08.2019
4277 Clouds 27 1011 83 10000 6.2 190 18:45 02.08.2019
4278 Clouds 27 1011 83 10000 6.2 190 18:26 02.08.2019
4279 Clouds 27 1011 88 10000 7.2 190 17:48 02.08.2019
4280 Clouds 27 1011 83 10000 6.7 190 17:25 02.08.2019
4281 Clouds 27 1012 83 10000 6.2 180 16:59 02.08.2019
4282 Clouds 27 1011 83 10000 7.2 190 16:38 02.08.2019
4283 Clouds 28 1011 83 10000 7.2 190 16:19 02.08.2019
4284 Clouds 28 1012 83 10000 7.2 190 15:40 02.08.2019
4285 Clouds 28 1012 83 10000 7.2 190 15:19 02.08.2019
4286 Clouds 28 1011 83 10000 7.7 180 14:46 02.08.2019
4287 Clouds 28 1011 83 10000 7.7 180 14:19 02.08.2019
4288 Clouds 28 1012 83 10000 7.2 180 13:50 02.08.2019
4289 Clouds 29 1011 83 10000 7.2 190 13:28 02.08.2019
4290 Clouds 29 1010 79 10000 6.7 190 12:47 02.08.2019
4291 Clouds 29 1010 83 10000 6.7 190 12:23 02.08.2019
4292 Clouds 30 1011 79 10000 7.2 190 11:58 02.08.2019
4293 Clouds 30 1010 79 10000 7.2 190 11:39 02.08.2019
4294 Clouds 30 1010 79 10000 7.2 190 11:21 02.08.2019
4295 Clouds 31 1009 70 10000 4.6 180 10:43 02.08.2019
4296 Clouds 31 1009 70 10000 4.6 180 10:23 02.08.2019
4297 Thunderstorm 32 1010 74 10000 7.7 190 09:52 02.08.2019
4298 Thunderstorm 33 1009 79 10000 5.7 190 09:29 02.08.2019
4299 Thunderstorm 33 1009 70 10000 8.7 190 08:53 02.08.2019
4300 Clouds 34 1012 63 16093 6.2 180 08:25 02.08.2019
4301 Clouds 34 1010 63 10000 8.2 190 07:52 02.08.2019
4302 Clouds 34 1009 75 10000 4.1 190 07:34 02.08.2019
4303 Clouds 34 1010 63 10000 7.2 190 06:55 02.08.2019
4304 Clouds 35 1010 70 10000 3.6 180 06:27 02.08.2019
4305 Clouds 34 1011 75 10000 4.1 160 05:38 02.08.2019
4306 Clouds 33 1012 84 8000 4.1 160 03:31 02.08.2019
4307 Clouds 32 1012 89 10000 4.1 160 02:37 02.08.2019
4308 Clouds 31 1012 84 10000 4.1 180 01:30 02.08.2019
4309 Clouds 29 1012 89 10000 3.6 180 00:22 02.08.2019
4310 Clouds 28 1012 94 10000 3.6 180 23:44 01.08.2019
4311 Clouds 28 1012 94 10000 3.6 180 23:23 01.08.2019
4312 Clouds 27 1012 94 10000 3.1 190 22:42 01.08.2019
4313 Clouds 27 1012 94 10000 3.1 190 22:22 01.08.2019
4314 Clouds 27 1012 88 10000 3.6 190 21:55 01.08.2019
4315 Clouds 27 1011 88 10000 4.1 190 21:37 01.08.2019
4316 Clouds 27 1011 88 10000 4.1 190 21:19 01.08.2019
4317 Clouds 27 1012 100 8000 1.5 180 20:44 01.08.2019
4318 Clouds 27 1011 88 10000 5.1 190 20:23 01.08.2019
4319 Clouds 27 1011 88 10000 5.1 190 19:45 01.08.2019
4320 Clouds 27 1011 88 10000 5.1 190 19:23 01.08.2019
4321 Clouds 28 1011 88 10000 5.7 180 18:59 01.08.2019
4322 Clouds 28 1011 88 10000 5.7 190 18:40 01.08.2019
4323 Clouds 28 1011 88 10000 5.7 190 18:22 01.08.2019
4324 Clouds 28 1012 94 9000 2.1 180 17:46 01.08.2019
4325 Clouds 28 1011 88 10000 6.2 190 17:27 01.08.2019
4326 Clouds 28 1011 88 10000 6.2 180 16:45 01.08.2019
4327 Clouds 28 1011 88 10000 6.2 180 16:22 01.08.2019
4328 Clouds 28 1011 83 10000 7.2 200 15:46 01.08.2019
4329 Clouds 28 1011 83 10000 7.2 200 15:21 01.08.2019
4330 Clouds 29 1012 83 10000 6.2 200 14:59 01.08.2019
4331 Clouds 29 1011 83 10000 6.2 200 14:41 01.08.2019
4332 Clouds 29 1011 83 10000 6.2 200 14:18 01.08.2019
4333 Clouds 29 1012 83 10000 5.7 200 13:56 01.08.2019
4334 Clear 29 1011 83 10000 6.2 190 13:38 01.08.2019
4335 Clear 29 1011 83 10000 6.2 190 13:20 01.08.2019
4336 Clouds 30 1011 79 10000 7.2 200 12:41 01.08.2019
4337 Clouds 30 1011 79 10000 7.2 200 12:22 01.08.2019
4338 Clouds 30 1010 66 10000 7.2 200 11:43 01.08.2019
4339 Clouds 31 1010 66 10000 7.2 200 11:23 01.08.2019
4340 Clouds 31 1010 66 10000 7.2 200 11:23 01.08.2019
4341 Thunderstorm 32 1010 66 10000 7.2 200 10:46 01.08.2019
4342 Thunderstorm 32 1010 66 10000 3.1 230 10:28 01.08.2019
4343 Thunderstorm 32 1010 63 10000 5.1 180 09:59 01.08.2019
4344 Clouds 33 1010 79 10000 4.6 190 09:40 01.08.2019
4345 Clouds 33 1010 79 10000 4.6 190 09:22 01.08.2019
4346 Clouds 34 1010 70 10000 3.1 190 08:44 01.08.2019
4347 Clouds 34 1010 70 10000 3.1 190 08:20 01.08.2019
4348 Rain 34 1011 59 10000 6.7 190 07:49 01.08.2019
4349 Rain 34 1010 70 10000 3.6 170 07:25 01.08.2019
4350 Clouds 34 1011 63 10000 5.7 180 06:48 01.08.2019
4351 Rain 34 1011 67 10000 6.2 190 05:51 01.08.2019
4352 Clouds 34 1011 75 6000 3.1 180 04:24 01.08.2019
4353 Clouds 32 1012 84 10000 2.6 140 02:33 01.08.2019
4354 Clouds 30 1012 79 10000 4.6 180 00:46 01.08.2019
4355 Clouds 29 1012 79 10000 4.6 180 00:24 01.08.2019
4356 Clouds 28 1012 83 10000 1.5 230 23:43 31.07.2019
4357 Clouds 27 1012 83 10000 1.5 230 23:21 31.07.2019
4358 Clouds 27 1011 88 10000 2.1 250 22:58 31.07.2019
4359 Clouds 27 1011 88 10000 2.6 260 22:39 31.07.2019
4360 Clouds 26 1011 88 10000 2.6 260 22:21 31.07.2019
4361 Clouds 27 1011 88 10000 2.6 200 21:38 31.07.2019
4362 Clouds 27 1011 88 10000 2.6 200 21:19 31.07.2019
4363 Clouds 27 1011 88 10000 3.6 180 20:43 31.07.2019
4364 Clouds 27 1011 88 10000 3.6 180 20:22 31.07.2019
4365 Clouds 27 1011 83 10000 3.6 200 19:43 31.07.2019
4366 Clouds 27 1011 83 10000 3.6 200 19:24 31.07.2019
4367 Clouds 27 1011 94 10000 4.1 190 18:53 31.07.2019
4368 Clouds 27 1011 94 10000 5.1 180 18:29 31.07.2019
4369 Clouds 27 1011 94 10000 4.6 180 17:59 31.07.2019
4370 Clouds 27 1011 94 10000 5.7 180 17:40 31.07.2019
4371 Clouds 27 1011 94 10000 5.7 180 17:20 31.07.2019
4372 Clouds 27 1012 94 10000 5.1 180 16:46 31.07.2019
4373 Clouds 28 1011 94 10000 5.7 180 16:20 31.07.2019
4374 Clouds 28 1012 94 10000 6.2 170 15:45 31.07.2019
4375 Clouds 28 1012 88 10000 5.7 180 15:26 31.07.2019
4376 Clouds 28 1012 88 10000 5.1 180 14:55 31.07.2019
4377 Clouds 28 1012 88 10000 5.1 190 14:36 31.07.2019
4378 Clouds 29 1012 88 10000 6.2 180 14:18 31.07.2019
4379 Clouds 29 1012 88 10000 6.2 190 13:44 31.07.2019
4380 Clouds 29 1012 88 10000 6.2 190 13:25 31.07.2019
4381 Clouds 29 1012 88 10000 7.2 190 12:57 31.07.2019
4382 Clouds 30 1012 83 10000 6.7 190 12:38 31.07.2019
4383 Clouds 30 1011 83 10000 6.2 190 12:18 31.07.2019
4384 Rain 31 1011 79 10000 6.2 200 11:39 31.07.2019
4385 Rain 31 1011 79 10000 6.2 200 11:20 31.07.2019
4386 Rain 32 1010 66 10000 3.6 160 10:42 31.07.2019
4387 Rain 32 1010 66 10000 3.6 160 10:21 31.07.2019
4388 Rain 32 1011 74 10000 7.2 190 09:57 31.07.2019
4389 Clouds 32 1010 84 10000 5.1 190 09:38 31.07.2019
4390 Clouds 33 1010 84 10000 5.1 190 09:20 31.07.2019
4391 Clouds 34 1010 79 10000 6.2 180 08:42 31.07.2019
4392 Clouds 33 1010 79 10000 6.2 180 08:22 31.07.2019
4393 Rain 34 1011 79 10000 4.1 180 07:35 31.07.2019
4394 Clouds 34 1011 79 10000 4.6 180 06:44 31.07.2019
4395 Clouds 33 1012 70 10000 7.2 180 04:56 31.07.2019
4396 Clouds 32 1011 84 10000 5.1 160 03:29 31.07.2019
4397 Clouds 29 1012 79 10000 4.6 190 00:24 31.07.2019
4398 Clouds 28 1011 83 10000 1.5 230 23:40 30.07.2019
4399 Clouds 27 1011 83 10000 1.5 230 23:20 30.07.2019
4400 Clouds 27 1011 83 10000 2.6 250 22:46 30.07.2019
4401 Clouds 27 1011 83 10000 2.6 200 22:25 30.07.2019
4402 Clouds 27 1011 83 10000 4.1 190 21:57 30.07.2019
4403 Clouds 27 1011 83 10000 4.1 190 21:37 30.07.2019
4404 Clouds 27 1011 83 10000 4.1 190 21:18 30.07.2019
4405 Clouds 27 1010 83 10000 3.1 200 20:43 30.07.2019
4406 Clouds 27 1010 83 10000 3.1 200 20:24 30.07.2019
4407 Clouds 27 1010 83 10000 4.1 200 19:59 30.07.2019
4408 Clouds 27 1010 83 10000 4.1 200 19:40 30.07.2019
4409 Clouds 27 1010 83 10000 4.1 200 19:21 30.07.2019
4410 Clouds 27 1010 83 10000 7.2 200 18:44 30.07.2019
4411 Clouds 27 1010 83 10000 7.2 200 18:20 30.07.2019
4412 Clouds 27 1011 83 10000 6.2 200 17:42 30.07.2019
4413 Clouds 27 1011 83 10000 6.2 200 17:20 30.07.2019
4414 Clouds 27 1011 83 10000 6.2 200 17:20 30.07.2019
4415 Clouds 28 1011 83 10000 6.7 190 16:53 30.07.2019
4416 Clouds 28 1011 83 10000 6.2 190 16:22 30.07.2019
4417 Clouds 28 1011 83 10000 6.2 190 16:22 30.07.2019
4418 Clouds 28 1011 83 10000 5.7 200 15:59 30.07.2019
4419 Clouds 28 1011 83 10000 6.7 190 15:38 30.07.2019
4420 Clouds 28 1011 83 10000 6.7 190 15:19 30.07.2019
4421 Clouds 28 1010 83 10000 6.7 190 14:43 30.07.2019
4422 Clouds 28 1010 83 10000 6.7 190 14:22 30.07.2019
4423 Clouds 28 1011 83 10000 6.7 180 13:48 30.07.2019
4424 Clouds 28 1010 79 10000 6.7 190 13:29 30.07.2019
4425 Clouds 29 1010 83 10000 6.2 190 12:59 30.07.2019
4426 Clouds 29 1009 79 10000 6.7 190 12:41 30.07.2019
4427 Clouds 29 1009 79 10000 6.7 190 12:23 30.07.2019
4428 Clouds 30 1009 83 10000 7.7 180 11:44 30.07.2019
4429 Clouds 30 1009 83 10000 7.7 180 11:21 30.07.2019
4430 Clouds 31 1009 83 10000 8.2 180 10:55 30.07.2019
4431 Clouds 31 1009 66 10000 5.1 170 10:37 30.07.2019
4432 Clouds 31 1009 66 10000 5.1 170 10:19 30.07.2019
4433 Clouds 32 1009 79 10000 7.7 180 09:45 30.07.2019
4434 Clouds 32 1009 84 10000 4.6 180 09:26 30.07.2019
4435 Clouds 32 1009 84 10000 6.2 180 08:32 30.07.2019
4436 Clouds 33 1010 74 10000 9.3 180 07:52 30.07.2019
4437 Clouds 33 1010 84 10000 5.1 190 07:34 30.07.2019
4438 Clouds 33 1010 70 10000 8.2 190 06:52 30.07.2019
4439 Clouds 33 1010 84 10000 6.2 180 06:33 30.07.2019
4440 Clouds 33 1010 84 10000 5.1 170 05:35 30.07.2019
4441 Clouds 32 1011 84 10000 5.1 150 03:32 30.07.2019
4442 Clouds 30 1011 74 10000 4.6 180 01:22 30.07.2019
4443 Mist 28 1012 79 10000 4.1 180 00:27 30.07.2019
4444 Mist 28 1012 83 10000 4.6 200 23:59 29.07.2019
4445 Mist 27 1011 83 9000 3.6 200 23:39 29.07.2019
4446 Mist 27 1011 83 9000 3.6 200 23:20 29.07.2019
4447 Haze 27 1011 78 8000 4.6 190 22:55 29.07.2019
4448 Haze 27 1011 83 8000 4.6 200 22:37 29.07.2019
4449 Haze 26 1011 83 8000 4.6 200 22:18 29.07.2019
4450 Clouds 26 1011 88 10000 4.1 190 21:41 29.07.2019
4451 Clouds 26 1011 88 10000 4.1 190 21:23 29.07.2019
4452 Clouds 26 1011 88 10000 4.6 180 20:57 29.07.2019
4453 Clouds 26 1011 88 10000 4.1 180 20:38 29.07.2019
4454 Clouds 26 1011 88 10000 4.1 180 20:19 29.07.2019
4455 Clouds 27 1011 88 10000 4.6 180 19:43 29.07.2019
4456 Clouds 27 1011 88 10000 4.6 180 19:23 29.07.2019
4457 Clouds 27 1012 94 10000 3.6 190 18:57 29.07.2019
4458 Clouds 27 1012 83 10000 4.1 190 18:38 29.07.2019
4459 Clouds 27 1012 83 10000 4.1 200 18:19 29.07.2019
4460 Clouds 27 1012 100 10000 1.5 160 17:47 29.07.2019
4461 Clouds 27 1012 83 10000 5.1 210 17:27 29.07.2019
4462 Clouds 27 1012 83 10000 5.7 200 16:55 29.07.2019
4463 Clouds 27 1012 83 10000 6.2 200 16:36 29.07.2019
4464 Clouds 27 1012 83 10000 6.2 200 16:18 29.07.2019
4465 Clouds 27 1012 88 10000 5.1 180 15:43 29.07.2019
4466 Clouds 27 1012 88 10000 5.1 180 15:24 29.07.2019
4467 Clouds 28 1013 88 10000 5.7 190 14:42 29.07.2019
4468 Clouds 28 1013 88 10000 5.7 190 14:21 29.07.2019
4469 Clouds 28 1013 88 10000 4.6 180 13:46 29.07.2019
4470 Clouds 28 1012 94 10000 5.1 170 13:24 29.07.2019
4471 Thunderstorm 28 1011 83 10000 5.7 180 12:57 29.07.2019
4472 Thunderstorm 28 1011 83 10000 6.2 180 12:38 29.07.2019
4473 Thunderstorm 29 1011 83 10000 6.2 180 12:20 29.07.2019
4474 Clouds 29 1012 83 10000 7.2 190 11:41 29.07.2019
4475 Clouds 29 1012 83 10000 7.2 190 11:19 29.07.2019
4476 Thunderstorm 30 1011 74 10000 5.1 160 10:43 29.07.2019
4477 Thunderstorm 30 1011 74 10000 5.1 160 10:22 29.07.2019
4478 Clouds 31 1011 83 10000 4.6 190 09:44 29.07.2019
4479 Clouds 31 1011 83 10000 4.6 190 09:23 29.07.2019
4480 Clouds 32 1011 74 10000 8.2 190 08:49 29.07.2019
4481 Clouds 32 1010 84 10000 4.1 190 08:27 29.07.2019
4482 Clouds 33 1011 70 10000 8.2 190 07:50 29.07.2019
4483 Clouds 32 1011 84 10000 6.2 200 07:30 29.07.2019
4484 Clouds 32 1011 84 10000 6.2 200 07:30 29.07.2019
4485 Clouds 33 1011 84 10000 7.2 180 06:40 29.07.2019
4486 Clouds 33 1011 79 10000 5.1 180 05:37 29.07.2019
4487 Clouds 32 1012 84 10000 4.6 170 04:23 29.07.2019
4488 Clouds 30 1013 89 8000 4.1 150 01:52 29.07.2019
4489 Clouds 29 1013 83 10000 3.6 170 01:34 29.07.2019
4490 Clouds 29 1013 74 10000 1.5 180 00:59 29.07.2019
4491 Clouds 28 1013 79 9000 2.6 280 00:30 29.07.2019
4492 Clouds 27 1013 79 9000 1.5 200 23:45 28.07.2019
4493 Mist 27 1013 83 9000 2.1 190 23:26 28.07.2019
4494 Mist 26 1013 88 9000 4.1 190 22:57 28.07.2019
4495 Mist 26 1013 88 9000 4.1 180 22:36 28.07.2019
4496 Mist 26 1013 88 9000 4.1 180 22:18 28.07.2019
4497 Mist 26 1013 88 9000 1.5 210 21:42 28.07.2019
4498 Mist 26 1013 88 9000 1.5 210 21:18 28.07.2019
4499 Mist 26 1012 88 9000 2.6 180 20:43 28.07.2019
4500 Mist 26 1012 88 9000 2.6 180 20:24 28.07.2019
4501 Mist 26 1012 94 9000 4.1 190 19:42 28.07.2019
4502 Mist 26 1012 94 9000 4.1 190 19:21 28.07.2019
4503 Mist 26 1013 88 10000 3.6 190 18:47 28.07.2019
4504 Mist 26 1013 88 10000 3.6 190 18:29 28.07.2019
4505 Mist 27 1013 88 10000 4.1 200 17:58 28.07.2019
4506 Mist 27 1013 88 10000 5.7 200 17:40 28.07.2019
4507 Mist 27 1013 88 10000 5.7 200 17:20 28.07.2019
4508 Clouds 27 1013 88 8000 5.1 190 16:46 28.07.2019
4509 Clouds 27 1013 88 8000 5.1 190 16:27 28.07.2019
4510 Clouds 27 1013 88 8000 5.1 200 15:56 28.07.2019
4511 Clouds 27 1013 88 8000 4.6 200 15:38 28.07.2019
4512 Clouds 27 1013 88 8000 4.6 200 15:20 28.07.2019
4513 Clouds 27 1013 88 9000 5.7 190 14:37 28.07.2019
4514 Clouds 27 1013 88 9000 5.7 190 14:18 28.07.2019
4515 Clouds 28 1013 88 8000 6.7 190 13:41 28.07.2019
4516 Clouds 28 1013 88 8000 6.7 190 13:21 28.07.2019
4517 Clouds 28 1012 88 8000 6.7 190 12:58 28.07.2019
4518 Clouds 28 1011 88 8000 7.7 180 12:39 28.07.2019
4519 Clouds 28 1011 88 8000 7.7 180 12:20 28.07.2019
4520 Rain 29 1012 78 11265 2.1 130 11:44 28.07.2019
4521 Clouds 29 1012 83 9000 7.2 180 11:26 28.07.2019
4522 Mist 30 1011 74 10000 4.1 170 10:40 28.07.2019
4523 Mist 30 1011 74 10000 4.1 170 10:20 28.07.2019
4524 Clouds 31 1011 83 10000 5.7 200 09:41 28.07.2019
4525 Clouds 31 1011 83 10000 5.7 200 09:23 28.07.2019
4526 Clouds 32 1011 74 10000 9.3 190 08:51 28.07.2019
4527 Clouds 31 1011 83 10000 5.1 190 08:28 28.07.2019
4528 Clouds 32 1012 74 10000 8.2 180 07:53 28.07.2019
4529 Clouds 32 1011 79 10000 4.1 190 07:35 28.07.2019
4530 Clouds 31 1012 84 8000 3.6 190 06:41 28.07.2019
4531 Clouds 31 1012 89 7000 4.6 160 05:26 28.07.2019
4532 Rain 28 1012 94 5000 4.6 140 03:30 28.07.2019
4533 Mist 27 1012 100 4500 4.1 140 02:23 28.07.2019
4534 Rain 26 1012 94 6000 2.6 130 01:19 28.07.2019
4535 Rain 26 1012 88 6000 4.1 180 00:45 28.07.2019
4536 Rain 25 1012 100 3000 3.6 250 00:18 28.07.2019
4537 Rain 25 1012 94 8047 3.1 195.443 23:46 27.07.2019
4538 Rain 25 1012 94 8047 3.1 195.443 23:20 27.07.2019
4539 Rain 25 1010 94 4800 6.7 230 22:41 27.07.2019
4540 Rain 26 1010 94 4800 6.7 230 22:22 27.07.2019
4541 Rain 26 1010 88 7000 8.2 220 21:41 27.07.2019
4542 Rain 26 1010 88 7000 8.2 220 21:20 27.07.2019
4543 Rain 26 1009 88 8000 8.7 210 20:52 27.07.2019
4544 Rain 26 1009 88 10000 9.8 210 20:26 27.07.2019
4545 Rain 27 1008 88 10000 10.3 210 19:56 27.07.2019
4546 Rain 27 1008 88 10000 9.8 210 19:38 27.07.2019
4547 Rain 27 1008 88 10000 9.8 210 19:18 27.07.2019
4548 Rain 27 1008 88 10000 10.8 200 18:42 27.07.2019
4549 Rain 27 1008 88 10000 10.8 200 18:24 27.07.2019
4550 Rain 27 1009 88 10000 10.3 200 17:42 27.07.2019
4551 Rain 27 1009 88 10000 10.3 200 17:42 27.07.2019
4552 Rain 27 1009 88 10000 10.3 200 17:23 27.07.2019
4553 Rain 27 1009 88 10000 9.3 190 16:51 27.07.2019
4554 Clouds 27 1009 88 10000 10.3 190 16:32 27.07.2019
4555 Clouds 27 1009 88 10000 9.3 180 15:55 27.07.2019
4556 Rain 27 1010 88 10000 10.3 190 15:25 27.07.2019
4557 Rain 27 1010 88 10000 10.3 180 14:51 27.07.2019
4558 Clouds 27 1010 88 10000 9.3 180 14:33 27.07.2019
4559 Clouds 27 1010 94 10000 9.3 190 13:59 27.07.2019
4560 Clouds 27 1010 88 10000 9.8 180 13:41 27.07.2019
4561 Clouds 27 1010 88 10000 9.8 180 13:21 27.07.2019
4562 Clouds 27 1010 88 10000 9.8 180 12:49 27.07.2019
4563 Clouds 28 1010 88 10000 9.8 180 12:26 27.07.2019
4564 Clouds 28 1009 83 10000 9.8 180 11:46 27.07.2019
4565 Clouds 28 1009 83 10000 8.7 180 11:25 27.07.2019
4566 Clouds 29 1009 83 10000 9.8 180 10:57 27.07.2019
4567 Clouds 29 1009 74 10000 6.7 180 10:39 27.07.2019
4568 Clouds 29 1009 74 10000 6.7 180 10:18 27.07.2019
4569 Clouds 30 1009 83 10000 7.2 190 09:40 27.07.2019
4570 Clouds 30 1009 83 10000 7.2 190 09:22 27.07.2019
4571 Clouds 30 1009 74 10000 10.8 190 08:47 27.07.2019
4572 Clouds 30 1009 83 10000 7.2 190 08:27 27.07.2019
4573 Rain 31 1009 79 10000 10.3 180 07:47 27.07.2019
4574 Rain 31 1009 83 10000 7.2 180 07:27 27.07.2019
4575 Clouds 31 1010 79 10000 9.8 180 06:56 27.07.2019
4576 Rain 31 1010 79 10000 8.7 200 06:30 27.07.2019
4577 Rain 31 1010 79 10000 9.3 190 05:49 27.07.2019
4578 Rain 30 1011 94 8000 9.3 190 04:59 27.07.2019
4579 Rain 30 1011 89 10000 5.1 190 04:30 27.07.2019
4580 Rain 29 1011 79 10000 7.2 190 02:58 27.07.2019
4581 Rain 29 1013 62 16093 4.1 190 02:31 27.07.2019
4582 Rain 28 1012 88 1500 6.7 190 01:44 27.07.2019
4583 Rain 28 1012 94 9000 4.6 170 00:59 27.07.2019
4584 Rain 27 1011 94 10000 5.7 180 00:32 27.07.2019
4585 Rain 27 1011 94 10000 4.6 180 23:53 26.07.2019
4586 Rain 27 1011 88 5000 5.1 200 23:33 26.07.2019
4587 Rain 26 1011 94 6000 7.2 190 22:56 26.07.2019
4588 Rain 26 1011 94 2000 8.2 200 22:38 26.07.2019
4589 Rain 26 1011 94 2000 8.2 200 22:20 26.07.2019
4590 Rain 26 1010 94 10000 7.7 180 21:48 26.07.2019
4591 Rain 27 1012 94 14484 2.6 220 21:19 26.07.2019
4592 Rain 27 1010 83 10000 6.2 170 20:43 26.07.2019
4593 Rain 27 1010 83 10000 6.2 170 20:24 26.07.2019
4594 Rain 27 1012 88 14484 2.1 230 19:44 26.07.2019
4595 Rain 27 1012 88 14484 2.1 230 19:25 26.07.2019
4596 Rain 27 1011 88 10000 5.7 160 18:58 26.07.2019
4597 Rain 27 1011 94 10000 4.6 150 18:38 26.07.2019
4598 Clouds 26 1011 94 10000 5.1 170 18:19 26.07.2019
4599 Clouds 26 1011 100 10000 2.6 130 17:46 26.07.2019
4600 Rain 26 1013 94 1408 2.1 290 17:19 26.07.2019
4601 Rain 26 1013 94 9656 1.5 300 16:57 26.07.2019
4602 Rain 26 1014 94 3219 6.79 177.468 16:39 26.07.2019
4603 Rain 26 1014 94 3219 6.79 177.468 16:20 26.07.2019
4604 Rain 26 1012 94 2012 6.79 177.468 15:56 26.07.2019
4605 Rain 26 1012 94 10000 3.1 130 15:38 26.07.2019
4606 Rain 26 1012 94 10000 3.1 130 15:19 26.07.2019
4607 Rain 26 1013 94 10000 2.1 150 14:43 26.07.2019
4608 Rain 26 1013 94 10000 2.1 150 14:22 26.07.2019
4609 Rain 27 1013 88 11265 2.6 160 13:46 26.07.2019
4610 Rain 27 1013 88 11265 2.6 160 13:27 26.07.2019
4611 Clouds 28 1012 74 10000 4.6 180 12:49 26.07.2019
4612 Clouds 28 1012 74 10000 4.6 200 12:23 26.07.2019
4613 Clouds 28 1012 70 10000 5.1 200 11:48 26.07.2019
4614 Clouds 29 1012 70 10000 6.2 200 11:23 26.07.2019
4615 Clouds 30 1012 62 10000 7.2 190 10:59 26.07.2019
4616 Clouds 30 1011 62 10000 5.1 200 10:39 26.07.2019
4617 Clouds 30 1011 62 10000 5.1 200 10:19 26.07.2019
4618 Clouds 30 1011 62 10000 7.2 190 09:50 26.07.2019
4619 Clouds 30 1011 70 10000 5.7 190 09:27 26.07.2019
4620 Clouds 31 1011 74 10000 5.7 200 08:41 26.07.2019
4621 Clouds 31 1011 74 10000 5.7 200 08:21 26.07.2019
4622 Rain 31 1010 70 10000 5.1 200 07:40 26.07.2019
4623 Rain 31 1010 70 10000 5.1 200 07:22 26.07.2019
4624 Clouds 32 1011 62 10000 5.1 200 06:30 26.07.2019
4625 Rain 32 1012 66 10000 5.7 200 04:30 26.07.2019
4626 Rain 31 1012 62 10000 7.2 190 03:53 26.07.2019
4627 Clouds 30 1012 83 10000 6.2 180 01:49 26.07.2019
4628 Clouds 29 1012 79 10000 6.7 190 01:24 26.07.2019
4629 Clouds 28 1012 83 10000 6.7 200 00:29 26.07.2019
4630 Clouds 27 1012 83 10000 6.2 200 23:46 25.07.2019
4631 Clouds 26 1012 83 10000 6.2 190 23:22 25.07.2019
4632 Clouds 25 1011 83 10000 5.7 190 22:42 25.07.2019
4633 Clouds 25 1011 83 10000 5.7 190 22:23 25.07.2019
4634 Clouds 25 1012 83 10000 5.1 190 21:57 25.07.2019
4635 Clouds 25 1011 83 10000 6.7 200 21:38 25.07.2019
4636 Clouds 25 1011 83 10000 6.7 200 21:20 25.07.2019
4637 Clouds 26 1011 83 10000 6.7 200 20:41 25.07.2019
4638 Clouds 26 1011 83 10000 6.7 200 20:21 25.07.2019
4639 Clouds 26 1010 83 10000 7.2 200 19:41 25.07.2019
4640 Clouds 26 1010 83 10000 7.2 200 19:23 25.07.2019
4641 Clouds 26 1010 83 10000 7.7 200 18:43 25.07.2019
4642 Clouds 26 1010 83 10000 7.7 200 18:25 25.07.2019
4643 Clouds 26 1010 83 10000 6.2 200 17:51 25.07.2019
4644 Clouds 26 1011 83 10000 7.7 200 17:33 25.07.2019
4645 Clouds 27 1011 78 10000 6.2 200 16:58 25.07.2019
4646 Clouds 27 1011 83 10000 6.2 190 16:40 25.07.2019
4647 Clouds 27 1011 83 10000 6.2 190 16:22 25.07.2019
4648 Clouds 27 1011 78 10000 6.7 200 15:50 25.07.2019
4649 Clouds 27 1011 78 10000 6.7 200 15:50 25.07.2019
4650 Clouds 27 1010 83 10000 7.7 200 15:21 25.07.2019
4651 Clouds 27 1010 78 10000 6.7 200 14:43 25.07.2019
4652 Clouds 27 1010 78 10000 6.7 200 14:24 25.07.2019
4653 Clouds 27 1011 83 10000 6.7 190 13:59 25.07.2019
4654 Clouds 27 1011 83 10000 6.2 190 13:37 25.07.2019
4655 Clouds 28 1011 83 10000 6.2 190 13:19 25.07.2019
4656 Clouds 28 1009 83 10000 7.7 190 12:34 25.07.2019
4657 Clouds 29 1009 83 10000 7.7 190 11:58 25.07.2019
4658 Clouds 29 1009 83 10000 7.7 190 11:40 25.07.2019
4659 Clouds 29 1009 83 10000 7.7 190 11:21 25.07.2019
4660 Clouds 29 1011 69 16093 4.1 270 10:43 25.07.2019
4661 Clouds 30 1009 74 10000 4.1 170 10:23 25.07.2019
4662 Clouds 30 1009 79 10000 7.7 190 09:45 25.07.2019
4663 Clouds 30 1009 79 10000 7.7 190 09:45 25.07.2019
4664 Clouds 31 1009 79 10000 6.2 190 09:27 25.07.2019
4665 Clouds 31 1009 70 10000 9.3 190 08:48 25.07.2019
4666 Clouds 31 1009 79 10000 6.2 180 08:26 25.07.2019
4667 Thunderstorm 32 1009 74 10000 5.1 180 07:39 25.07.2019
4668 Rain 32 1009 70 10000 5.1 180 06:45 25.07.2019
4669 Rain 32 1009 70 10000 5.1 180 06:19 25.07.2019
4670 Clouds 31 1009 74 10000 4.1 180 05:32 25.07.2019
4671 Clouds 31 1010 83 7000 4.6 150 04:45 25.07.2019
4672 Mist 28 1010 88 4500 4.1 150 02:24 25.07.2019
4673 Mist 27 1010 88 6000 3.1 170 01:21 25.07.2019
4674 Mist 26 1013 94 12874 2.21 63.818 00:23 25.07.2019
4675 Mist 26 1011 94 8000 2.1 190 23:56 24.07.2019
4676 Mist 25 1010 94 8000 2.6 180 23:37 24.07.2019
4677 Mist 25 1010 94 8000 2.6 180 23:18 24.07.2019
4678 Fog 25 1010 100 8000 2.6 160 22:44 24.07.2019
4679 Fog 25 1010 100 8000 2.6 160 22:22 24.07.2019
4680 Mist 25 1012 94 9656 1.5 20 21:55 24.07.2019
4681 Fog 25 1009 100 10000 2.1 140 21:37 24.07.2019
4682 Fog 25 1009 100 10000 2.1 140 21:18 24.07.2019
4683 Fog 25 1009 100 10000 1.5 180 20:40 24.07.2019
4684 Fog 25 1009 100 10000 1.5 180 20:22 24.07.2019
4685 Fog 25 1009 100 10000 2.1 150 19:56 24.07.2019
4686 Clouds 25 1011 88 16093 2.6 350 19:38 24.07.2019
4687 Clouds 25 1011 88 16093 2.6 350 19:19 24.07.2019
4688 Clouds 25 1008 100 10000 2.1 130 18:42 24.07.2019
4689 Clouds 25 1008 100 10000 2.1 130 18:23 24.07.2019
4690 Clouds 26 1009 94 10000 2.6 140 17:44 24.07.2019
4691 Clouds 26 1009 94 10000 2.6 140 17:20 24.07.2019
4692 Clouds 26 1008 94 10000 2.6 140 16:42 24.07.2019
4693 Clouds 26 1008 94 10000 2.6 140 16:23 24.07.2019
4694 Clouds 26 1008 94 10000 2.6 140 16:23 24.07.2019
4695 Clouds 26 1008 94 10000 3.6 140 15:58 24.07.2019
4696 Clouds 26 1011 88 16093 2.1 190 15:36 24.07.2019
4697 Clouds 26 1011 88 16093 2.1 190 15:18 24.07.2019
4698 Clouds 26 1008 83 10000 4.1 180 14:43 24.07.2019
4699 Clouds 26 1008 83 10000 4.1 180 14:19 24.07.2019
4700 Clouds 27 1008 74 10000 5.7 190 13:38 24.07.2019
4701 Clouds 27 1008 74 10000 5.7 190 13:19 24.07.2019
4702 Clouds 27 1008 74 10000 6.2 190 12:51 24.07.2019
4703 Clouds 27 1007 66 10000 5.7 200 12:33 24.07.2019
4704 Clouds 28 1007 66 10000 5.1 200 11:40 24.07.2019
4705 Clouds 29 1007 66 10000 5.1 200 11:20 24.07.2019
4706 Clouds 29 1007 62 10000 6.2 180 10:46 24.07.2019
4707 Clouds 29 1006 66 10000 4.6 180 10:26 24.07.2019
4708 Clouds 30 1007 74 10000 5.1 170 09:52 24.07.2019
4709 Rain 29 1007 83 10000 5.7 140 09:26 24.07.2019
4710 Rain 30 1006 66 10000 5.1 180 08:58 24.07.2019
4711 Rain 31 1006 84 10000 3.1 150 08:32 24.07.2019
4712 Rain 31 1006 74 10000 3.6 150 07:52 24.07.2019
4713 Rain 31 1007 58 10000 2.1 150 07:31 24.07.2019
4714 Rain 31 1007 58 10000 2.1 150 07:31 24.07.2019
4715 Rain 31 1007 74 10000 6.2 130 06:49 24.07.2019
4716 Clouds 31 1006 74 10000 3.6 150 06:23 24.07.2019
4717 Rain 29 1008 78 10000 1.5 120 04:45 24.07.2019
4718 Rain 27 1007 88 10000 2.1 110 01:47 24.07.2019
4719 Rain 26 1008 88 7000 2.56 13.042 00:57 24.07.2019
4720 Mist 26 1007 94 10000 2.6 60 00:30 24.07.2019
4721 Mist 25 1007 94 10000 2.1 50 23:47 23.07.2019
4722 Rain 25 1007 100 10000 2.6 30 23:26 23.07.2019
4723 Mist 24 1009 100 16093 2.81 21.438 22:58 23.07.2019
4724 Rain 24 1008 94 3621 1.5 100 22:37 23.07.2019
4725 Rain 24 1008 94 3621 1.5 100 22:18 23.07.2019
4726 Rain 24 1008 94 16093 2.81 21.438 21:44 23.07.2019
4727 Rain 24 1008 94 16093 2.81 21.438 21:44 23.07.2019
4728 Rain 24 1008 94 16093 2.29 16.57 21:25 23.07.2019
4729 Mist 24 1006 100 10000 3.1 40 20:49 23.07.2019
4730 Mist 24 1008 94 16093 1.5 40 20:29 23.07.2019
4731 Rain 24 1008 94 16093 2.97 14.822 19:44 23.07.2019
4732 Rain 25 1008 94 16093 2.97 14.822 19:24 23.07.2019
4733 Clouds 25 1005 94 10000 3.1 60 18:58 23.07.2019
4734 Rain 25 1006 94 10000 3.1 50 18:39 23.07.2019
4735 Rain 25 1006 94 10000 3.1 50 18:20 23.07.2019
4736 Clouds 25 1005 94 10000 2.1 50 17:42 23.07.2019
4737 Clouds 25 1005 94 10000 2.1 50 17:22 23.07.2019
4738 Clouds 25 1006 94 10000 1.5 70 16:44 23.07.2019
4739 Clouds 25 1006 94 10000 1.5 70 16:26 23.07.2019
4740 Clouds 25 1006 94 10000 2.1 100 15:52 23.07.2019
4741 Clouds 25 1008 88 16093 1.5 170 15:34 23.07.2019
4742 Rain 25 1006 94 10000 1.5 80 14:56 23.07.2019
4743 Rain 25 1008 88 16093 1.5 150 14:36 23.07.2019
4744 Rain 25 1008 88 16093 1.5 150 14:18 23.07.2019
4745 Rain 25 1008 88 16093 1.5 150 14:18 23.07.2019
4746 Rain 26 1006 100 10000 1.5 50 13:56 23.07.2019
4747 Rain 26 1005 94 10000 4.6 130 13:37 23.07.2019
4748 Rain 26 1005 94 10000 4.6 130 13:19 23.07.2019
4749 Rain 26 1005 100 10000 1.5 120 12:42 23.07.2019
4750 Rain 26 1005 100 10000 1.5 120 12:22 23.07.2019
4751 Rain 27 1004 94 10000 3.1 130 11:41 23.07.2019
4752 Rain 27 1004 94 10000 3.1 130 11:22 23.07.2019
4753 Rain 28 1004 94 10000 3.6 120 10:51 23.07.2019
4754 Rain 28 1004 70 10000 2.1 90 10:23 23.07.2019
4755 Rain 29 1004 83 10000 4.1 70 09:43 23.07.2019
4756 Rain 29 1004 83 10000 4.1 70 09:22 23.07.2019
4757 Rain 29 1005 88 10000 2.1 70 08:56 23.07.2019
4758 Rain 29 1004 83 10000 2.1 50 08:38 23.07.2019
4759 Rain 29 1004 83 10000 2.1 50 08:18 23.07.2019
4760 Mist 28 1005 83 8000 2.1 40 07:44 23.07.2019
4761 Mist 28 1005 83 8000 2.1 40 07:26 23.07.2019
4762 Rain 28 1005 88 7000 3.1 20 06:37 23.07.2019
4763 Rain 26 1006 94 10000 3.6 360 04:45 23.07.2019
4764 Rain 24 1007 100 4000 2.1 350 01:55 23.07.2019
4765 Rain 24 1009 94 11265 2.1 60 00:54 23.07.2019
4766 Rain 23 1009 100 9656 0.56 13.223 00:27 23.07.2019
4767 Rain 23 1007 100 4800 3.6 30 23:40 22.07.2019
4768 Rain 23 1007 100 4800 3.6 30 23:21 22.07.2019
4769 Rain 23 1007 100 4800 3.1 20 22:46 22.07.2019
4770 Rain 23 1009 100 6437 1.5 360 22:27 22.07.2019
4771 Rain 23 1007 100 4800 2.6 10 21:59 22.07.2019
4772 Rain 23 1007 100 2414 0.56 13.223 21:41 22.07.2019
4773 Rain 23 1007 100 2414 1.21 33.743 21:20 22.07.2019
4774 Rain 23 1009 100 6437 1.5 20 20:47 22.07.2019
4775 Rain 23 1009 100 6437 1.5 20 20:29 22.07.2019
4776 Rain 23 1009 100 6437 1.5 20 20:29 22.07.2019
4777 Rain 23 1008 100 4426 1.5 290 19:44 22.07.2019
4778 Rain 23 1008 100 4426 1.5 290 19:26 22.07.2019
4779 Rain 23 1010 100 8047 1.66 350.424 18:58 22.07.2019
4780 Rain 23 1011 100 8047 1.66 350.424 18:39 22.07.2019
4781 Rain 23 1011 100 8047 1.17 94.545 18:21 22.07.2019
4782 Mist 23 1008 100 3500 2.1 30 17:41 22.07.2019
4783 Mist 23 1008 100 3500 2.1 30 17:23 22.07.2019
4784 Rain 23 1011 100 3621 1.17 94.545 16:41 22.07.2019
4785 Rain 23 1011 100 3621 1.17 94.545 16:21 22.07.2019
4786 Rain 23 1011 100 4426 1.17 94.545 15:59 22.07.2019
4787 Rain 23 1009 100 4000 3.1 10 15:37 22.07.2019
4788 Rain 23 1009 100 4000 3.1 10 15:18 22.07.2019
4789 Mist 23 1011 94 11265 1.53 91.197 14:43 22.07.2019
4790 Mist 23 1011 94 11265 1.53 91.197 14:20 22.07.2019
4791 Rain 23 1008 94 6000 4.1 60 13:47 22.07.2019
4792 Rain 23 1008 94 6000 4.1 60 13:28 22.07.2019
4793 Rain 23 1009 94 6000 1.5 50 12:46 22.07.2019
4794 Rain 23 1009 94 5000 1.5 30 12:27 22.07.2019
4795 Rain 24 1009 94 4023 1.52 177.092 11:45 22.07.2019
4796 Rain 24 1009 94 4023 1.52 177.092 11:25 22.07.2019
4797 Rain 24 1009 94 4828 1.52 177.092 10:58 22.07.2019
4798 Mist 24 1009 94 4023 1.52 177.092 10:33 22.07.2019
4799 Mist 24 1009 88 5000 2.1 30 09:45 22.07.2019
4800 Mist 24 1009 88 5000 2.1 30 09:26 22.07.2019
4801 Mist 24 1010 83 9000 1.5 70 08:56 22.07.2019
4802 Mist 24 1009 88 5000 1.5 30 08:36 22.07.2019
4803 Mist 24 1009 88 5000 1.5 30 08:18 22.07.2019
4804 Mist 24 1010 88 8047 0.29 280.878 07:41 22.07.2019
4805 Mist 24 1010 88 8047 0.29 280.878 07:22 22.07.2019
4806 Drizzle 23 1012 94 4500 2.6 10 03:59 22.07.2019
4807 Mist 23 1012 94 5000 3.1 40 02:57 22.07.2019
4808 Drizzle 22 1012 100 2000 4.1 20 00:58 22.07.2019
4809 Drizzle 22 1012 100 1800 3.6 20 00:38 22.07.2019
4810 Drizzle 22 1012 100 1800 3.6 20 00:38 22.07.2019
4811 Drizzle 22 1012 100 1800 3.6 20 00:18 22.07.2019
4812 Drizzle 22 1012 100 3000 3.6 30 23:43 21.07.2019
4813 Drizzle 22 1014 100 11265 2.1 50 22:57 21.07.2019
4814 Drizzle 22 1012 100 3500 3.1 40 22:38 21.07.2019
4815 Rain 22 1012 100 3500 3.1 40 22:20 21.07.2019
4816 Rain 22 1013 94 4828 2.52 89.773 21:48 21.07.2019
4817 Rain 22 1013 94 4828 2.88 104.374 21:25 21.07.2019
4818 Drizzle 22 1014 100 4828 2.1 40 20:57 21.07.2019
4819 Drizzle 23 1012 94 4500 4.1 50 20:38 21.07.2019
4820 Drizzle 23 1012 94 4500 4.1 50 20:20 21.07.2019
4821 Drizzle 23 1012 94 4000 4.6 40 19:47 21.07.2019
4822 Drizzle 23 1015 100 8047 2.1 30 19:28 21.07.2019
4823 Drizzle 23 1013 94 3017 2.74 100.333 18:48 21.07.2019
4824 Drizzle 23 1013 100 3000 4.1 70 18:26 21.07.2019
4825 Drizzle 23 1013 100 3500 5.1 60 17:54 21.07.2019
4826 Drizzle 23 1013 100 3500 5.1 60 17:36 21.07.2019
4827 Drizzle 23 1013 100 3500 5.1 60 17:18 21.07.2019
4828 Drizzle 23 1016 100 4426 2.1 60 16:40 21.07.2019
4829 Drizzle 23 1016 100 4426 2.1 60 16:21 21.07.2019
4830 Drizzle 24 1014 100 6000 5.7 60 15:39 21.07.2019
4831 Drizzle 24 1014 100 6000 5.7 60 15:20 21.07.2019
4832 Drizzle 24 1014 94 6000 6.2 70 14:42 21.07.2019
4833 Drizzle 24 1014 94 6000 6.2 70 14:23 21.07.2019
4834 Drizzle 24 1016 94 12874 2.6 60 13:53 21.07.2019
4835 Drizzle 24 1016 88 16093 3.6 80 13:32 21.07.2019
4836 Drizzle 25 1013 94 9000 6.2 70 12:46 21.07.2019
4837 Drizzle 25 1014 88 10000 4.6 80 12:28 21.07.2019
4838 Clouds 26 1016 88 16093 2.1 70 11:56 21.07.2019
4839 Clouds 26 1016 88 16093 2.1 70 11:56 21.07.2019
4840 Mist 26 1016 83 14484 2.1 30 11:38 21.07.2019
4841 Mist 26 1016 83 14484 2.1 30 11:19 21.07.2019
4842 Clouds 26 1013 78 8000 3.6 130 10:41 21.07.2019
4843 Clouds 27 1013 78 8000 3.6 130 10:23 21.07.2019
4844 Clouds 27 1013 83 10000 5.7 100 09:45 21.07.2019
4845 Clouds 27 1013 83 10000 5.7 100 09:25 21.07.2019
4846 Clouds 28 1013 88 10000 5.1 70 08:45 21.07.2019
4847 Clouds 28 1013 83 10000 3.6 80 08:27 21.07.2019
4848 Clouds 28 1013 83 10000 3.6 100 07:39 21.07.2019
4849 Haze 28 1015 69 10000 2.1 130 06:54 21.07.2019
4850 Mist 27 1015 94 10000 3.6 80 05:54 21.07.2019
4851 Mist 26 1017 94 9656 4.02 108.345 02:59 21.07.2019
4852 Mist 26 1015 94 7000 1.5 100 01:33 21.07.2019
4853 Mist 25 1015 88 14484 3.58 106.824 00:42 21.07.2019
4854 Mist 25 1015 94 7000 2.1 90 00:19 21.07.2019
4855 Rain 25 1014 94 9000 1.5 40 23:44 20.07.2019
4856 Rain 25 1014 94 9000 1.5 40 23:21 20.07.2019
4857 Rain 24 1014 100 6000 1.5 60 22:49 20.07.2019
4858 Rain 24 1014 100 6000 1.5 60 22:23 20.07.2019
4859 Rain 24 1014 100 6000 1.5 120 21:58 20.07.2019
4860 Rain 24 1014 100 7000 1.5 120 21:39 20.07.2019
4861 Rain 24 1014 100 7000 1.5 120 21:21 20.07.2019
4862 Rain 25 1015 100 10000 1 50 20:42 20.07.2019
4863 Rain 25 1015 100 10000 1 50 20:42 20.07.2019
4864 Rain 25 1015 100 10000 1 50 20:21 20.07.2019
4865 Clouds 25 1014 100 10000 1 60 19:46 20.07.2019
4866 Clouds 25 1014 100 10000 1 60 19:25 20.07.2019
4867 Rain 25 1015 94 10000 1 80 18:45 20.07.2019
4868 Rain 25 1015 94 10000 1 80 18:24 20.07.2019
4869 Rain 25 1016 94 10000 1 70 17:55 20.07.2019
4870 Clouds 25 1015 94 10000 1.5 70 17:26 20.07.2019
4871 Rain 25 1015 94 10000 1 110 16:46 20.07.2019
4872 Rain 26 1015 94 10000 1 110 16:28 20.07.2019
4873 Rain 26 1016 94 10000 2.1 90 15:59 20.07.2019
4874 Rain 26 1016 94 10000 2.1 70 15:41 20.07.2019
4875 Rain 26 1016 94 10000 2.1 70 15:21 20.07.2019
4876 Rain 26 1016 94 10000 1.5 70 14:49 20.07.2019
4877 Rain 26 1015 94 10000 1.5 110 14:29 20.07.2019
4878 Rain 26 1016 83 8047 0.44 208.072 13:57 20.07.2019
4879 Rain 26 1015 83 9656 0.44 208.072 13:37 20.07.2019
4880 Rain 26 1015 83 9656 2.68 345.238 13:19 20.07.2019
4881 Clouds 27 1015 88 10000 3.1 110 12:48 20.07.2019
4882 Rain 27 1015 94 10000 3.1 110 12:19 20.07.2019
4883 Rain 27 1014 94 10000 2.1 130 11:43 20.07.2019
4884 Clouds 28 1014 94 10000 2.6 120 11:20 20.07.2019
4885 Rain 28 1013 74 10000 3.1 130 10:42 20.07.2019
4886 Rain 28 1013 74 10000 3.1 130 10:23 20.07.2019
4887 Rain 28 1013 88 10000 2.6 130 09:51 20.07.2019
4888 Rain 28 1013 88 10000 2.6 130 09:25 20.07.2019
4889 Rain 29 1014 88 10000 1.5 100 08:54 20.07.2019
4890 Rain 29 1013 78 10000 2.1 140 08:24 20.07.2019
4891 Rain 30 1013 79 10000 1.5 140 07:43 20.07.2019
4892 Rain 29 1014 83 10000 1.5 140 06:46 20.07.2019
4893 Rain 29 1015 88 10000 1.5 80 05:49 20.07.2019
4894 Clouds 29 1014 78 10000 2.1 140 04:31 20.07.2019
4895 Rain 28 1017 83 16093 0.61 66.479 02:33 20.07.2019
4896 Rain 27 1015 94 10000 2.6 80 01:19 20.07.2019
4897 Clouds 26 1015 94 10000 1 50 00:39 20.07.2019
4898 Clouds 26 1015 94 10000 1 50 00:18 20.07.2019
4899 Clouds 25 1014 94 10000 1 0 23:40 19.07.2019
4900 Clouds 25 1014 94 10000 1 0 23:21 19.07.2019
4901 Rain 25 1013 94 10000 0.5 110 22:43 19.07.2019
4902 Rain 25 1013 94 10000 0.5 110 22:23 19.07.2019
4903 Rain 25 1013 94 10000 1 150 21:45 19.07.2019
4904 Rain 25 1013 94 10000 1 150 21:26 19.07.2019
4905 Rain 25 1015 88 16093 1.5 290 20:49 19.07.2019
4906 Clouds 25 1013 94 10000 1 80 20:31 19.07.2019
4907 Rain 25 1013 94 10000 1 60 19:55 19.07.2019
4908 Rain 25 1012 94 10000 1 0 19:34 19.07.2019
4909 Clouds 26 1014 88 16093 2.1 340 18:42 19.07.2019
4910 Clouds 26 1014 88 16093 2.1 340 18:22 19.07.2019
4911 Rain 26 1012 94 10000 1.5 120 17:55 19.07.2019
4912 Rain 26 1012 94 10000 1.5 0 17:28 19.07.2019
4913 Rain 26 1012 88 10000 2.6 190 16:49 19.07.2019
4914 Rain 26 1012 88 10000 2.6 190 16:29 19.07.2019
4915 Clouds 26 1013 88 10000 3.1 190 15:55 19.07.2019
4916 Clouds 27 1013 83 10000 2.1 190 15:36 19.07.2019
4917 Clouds 27 1013 83 10000 2.1 190 15:18 19.07.2019
4918 Clouds 27 1012 83 10000 3.6 180 14:43 19.07.2019
4919 Clouds 27 1012 83 10000 3.6 180 14:23 19.07.2019
4920 Rain 27 1013 88 10000 0.5 120 13:46 19.07.2019
4921 Rain 27 1012 83 10000 4.1 180 13:26 19.07.2019
4922 Rain 27 1014 83 16093 2.6 320 12:56 19.07.2019
4923 Rain 28 1011 78 10000 5.1 190 12:36 19.07.2019
4924 Rain 28 1011 74 10000 6.2 180 12:18 19.07.2019
4925 Rain 28 1011 70 10000 5.1 190 11:43 19.07.2019
4926 Rain 28 1010 78 10000 3.1 220 11:18 19.07.2019
4927 Rain 28 1011 70 10000 5.1 190 11:18 19.07.2019
4928 Rain 29 1011 74 10000 5.7 190 10:47 19.07.2019
4929 Rain 29 1010 70 10000 2.6 200 10:22 19.07.2019
4930 Clouds 30 1010 74 10000 6.2 190 09:58 19.07.2019
4931 Clouds 30 1010 83 10000 5.7 180 09:40 19.07.2019
4932 Clouds 30 1010 83 10000 5.7 180 09:21 19.07.2019
4933 Clouds 30 1009 78 10000 4.6 180 08:48 19.07.2019
4934 Clouds 30 1010 66 10000 7.2 180 07:59 19.07.2019
4935 Clouds 30 1010 78 10000 5.7 180 07:29 19.07.2019
4936 Clouds 29 1010 66 10000 8.2 190 05:57 19.07.2019
4937 Rain 27 1013 83 16093 1.11 293.659 02:43 19.07.2019
4938 Rain 25 1013 88 11265 1.07 315.721 01:20 19.07.2019
4939 Rain 25 1011 88 14484 1.07 315.721 00:45 19.07.2019
4940 Rain 24 1011 94 10000 6.7 200 23:58 18.07.2019
4941 Rain 24 1012 94 10000 0.5 0 23:40 18.07.2019
4942 Rain 24 1012 94 10000 0.5 0 23:21 18.07.2019
4943 Rain 24 1010 100 10000 7.2 200 22:41 18.07.2019
4944 Rain 24 1010 100 10000 7.2 200 22:20 18.07.2019
4945 Rain 24 1011 94 10000 8.2 190 21:49 18.07.2019
4946 Rain 24 1010 94 10000 7.7 200 21:31 18.07.2019
4947 Rain 24 1012 94 16093 1.24 39.121 20:57 18.07.2019
4948 Rain 24 1012 94 16093 1.24 39.121 20:38 18.07.2019
4949 Rain 24 1011 100 10000 3.1 180 20:18 18.07.2019
4950 Rain 24 1011 100 10000 4.1 170 19:46 18.07.2019
4951 Rain 24 1011 88 10000 6.7 200 19:21 18.07.2019
4952 Rain 24 1013 94 16093 2.6 190 18:49 18.07.2019
4953 Rain 24 1011 94 10000 5.7 200 18:22 18.07.2019
4954 -273 0 0 0 0 0 17:56 18.07.2019
4955 Rain 24 1014 94 16093 2.6 190 17:36 18.07.2019
4956 Rain 25 1014 94 16093 2.6 190 17:18 18.07.2019
4957 Rain 25 1013 94 4828 2.1 160 16:43 18.07.2019
4958 Rain 25 1013 94 4828 2.1 160 16:24 18.07.2019
4959 Rain 25 1013 94 1006 2.22 311.39 15:55 18.07.2019
4960 Rain 25 1013 94 2816 2.22 311.39 15:36 18.07.2019
4961 Rain 25 1013 94 10000 5.7 190 14:55 18.07.2019
4962 Rain 25 1015 88 8047 1.5 230 14:37 18.07.2019
4963 Drizzle 26 1014 88 16093 2.1 150 13:59 18.07.2019
4964 Clouds 26 1013 83 10000 5.1 190 13:37 18.07.2019
4965 Rain 26 1015 88 16093 1.5 160 13:18 18.07.2019
4966 Rain 26 1013 83 10000 5.7 190 12:44 18.07.2019
4967 Rain 26 1015 83 14484 2.1 190 12:20 18.07.2019
4968 Rain 26 1015 83 16093 3.06 174.235 11:50 18.07.2019
4969 Rain 27 1015 83 16093 3.06 174.235 11:32 18.07.2019
4970 Rain 27 1014 78 16093 2.1 140 10:52 18.07.2019
4971 Rain 27 1014 78 16093 2.1 140 10:23 18.07.2019
4972 Rain 28 1012 78 16093 2.6 140 09:45 18.07.2019
4973 Rain 28 1012 78 16093 2.6 140 09:23 18.07.2019
4974 Rain 28 1014 78 16093 2.1 200 08:46 18.07.2019
4975 Rain 29 1013 61 10000 3.1 190 08:19 18.07.2019
4976 Rain 29 1012 88 10000 2.6 140 07:39 18.07.2019
4977 Rain 29 1015 61 16093 3.33 144.384 07:20 18.07.2019
4978 Rain 29 1014 54 10000 2.1 160 06:36 18.07.2019
4979 Clouds 27 1014 83 10000 3.1 130 04:21 18.07.2019
4980 Clouds 26 1015 94 10000 1.5 100 02:55 18.07.2019
4981 Mist 25 1015 73 9000 1 0 01:50 18.07.2019
4982 Mist 24 1015 100 4500 2.1 110 00:35 18.07.2019
4983 Mist 23 1014 94 6000 2.1 80 23:49 17.07.2019
4984 Mist 23 1015 100 400 2.1 130 23:19 17.07.2019
4985 Mist 22 1014 100 6000 2.6 90 22:56 17.07.2019
4986 Mist 22 1016 83 16093 2.1 320 22:38 17.07.2019
4987 Mist 22 1015 100 500 2.1 90 22:18 17.07.2019
4988 Fog 22 1014 100 900 1.5 70 21:43 17.07.2019
4989 Fog 22 1014 100 900 1.5 70 21:25 17.07.2019
4990 Mist 22 1016 83 16093 2.1 290 20:58 17.07.2019
4991 Mist 22 1014 94 9000 1.5 170 20:39 17.07.2019
4992 Mist 23 1016 83 16093 1.5 20 20:20 17.07.2019
4993 Fog 23 1014 88 9000 2.6 180 19:44 17.07.2019
4994 Fog 23 1016 83 16093 2.33 126.497 19:22 17.07.2019
4995 Fog 23 1016 83 16093 2.33 126.497 18:59 17.07.2019
4996 Fog 23 1016 83 16093 2.33 126.497 18:40 17.07.2019
4997 Clouds 23 1015 88 10000 3.6 160 18:20 17.07.2019
4998 Clouds 23 1015 88 10000 3.6 160 17:50 17.07.2019
4999 Clouds 23 1015 88 10000 3.6 160 17:26 17.07.2019
5000 Clouds 23 1014 88 10000 4.1 170 16:55 17.07.2019
5001 Clouds 23 1014 88 10000 4.1 170 16:37 17.07.2019
5002 Clouds 23 1015 83 10000 4.6 190 16:18 17.07.2019
5003 Clouds 24 1015 88 14484 1.5 130 15:47 17.07.2019
5004 Clouds 23 1015 88 14484 1.5 130 15:25 17.07.2019
5005 Clouds 24 1015 88 10000 3.6 190 14:54 17.07.2019
5006 Clouds 24 1015 88 16093 2.1 140 14:36 17.07.2019
5007 Clouds 24 1015 88 10000 6.2 200 14:18 17.07.2019
5008 Clouds 25 1014 83 10000 5.1 190 13:41 17.07.2019
5009 Clouds 25 1014 88 10000 5.7 190 13:20 17.07.2019
5010 Clouds 25 1013 78 10000 6.7 200 12:40 17.07.2019
5011 Clouds 25 1014 78 10000 5.7 200 12:21 17.07.2019
5012 Clouds 26 1013 83 10000 3.6 160 11:45 17.07.2019
5013 Clouds 26 1013 78 10000 2.1 150 11:21 17.07.2019
5014 Clouds 27 1012 69 10000 3.6 150 10:51 17.07.2019
5015 Clouds 27 1012 69 10000 3.6 150 10:30 17.07.2019
5016 Clouds 28 1012 78 10000 2.6 120 09:59 17.07.2019
5017 Clouds 28 1012 83 10000 2.6 140 09:40 17.07.2019
5018 Clouds 28 1012 83 10000 3.1 120 09:22 17.07.2019
5019 Clouds 28 1012 78 10000 3.1 150 08:43 17.07.2019
5020 Clouds 28 1013 83 10000 3.1 120 08:22 17.07.2019
5021 Clouds 28 1013 83 10000 4.1 140 07:50 17.07.2019
5022 Clouds 28 1013 83 10000 4.1 140 07:24 17.07.2019
5023 Clouds 27 1013 83 10000 3.1 110 06:56 17.07.2019
5024 Clouds 27 1014 54 10000 1 0 06:30 17.07.2019
5025 Rain 26 1013 88 7000 3.1 130 05:49 17.07.2019
5026 Rain 26 1013 88 7000 3.1 130 05:28 17.07.2019
5027 Rain 25 1014 88 6000 1.5 200 04:42 17.07.2019
5028 Rain 24 1016 73 16093 1.86 98.514 03:29 17.07.2019
5029 Mist 23 1014 94 4000 1.5 300 02:19 17.07.2019
5030 Mist 22 1016 83 16093 1.27 66.843 01:26 17.07.2019
5031 Mist 22 1016 88 16093 1.27 66.843 00:59 17.07.2019
5032 Mist 22 1014 94 9656 1.27 66.843 00:37 17.07.2019
5033 Rain 22 1014 100 2400 1.5 350 00:19 17.07.2019
5034 Rain 21 1014 100 2000 1.5 10 23:38 16.07.2019
5035 Rain 21 1014 100 2300 0.5 0 23:18 16.07.2019
5036 Mist 21 1015 94 16093 1.5 346.88 22:42 16.07.2019
5037 Mist 21 1015 94 16093 1.5 346.88 22:24 16.07.2019
5038 Mist 21 1012 100 10000 2.1 340 21:47 16.07.2019
5039 Mist 21 1012 100 2200 3.1 350 21:22 16.07.2019
5040 Mist 21 1012 100 9000 2.1 320 20:58 16.07.2019
5041 Rain 21 1014 94 16093 2.1 10 20:40 16.07.2019
5042 Rain 21 1013 100 4500 2.1 330 20:21 16.07.2019
5043 Rain 21 1013 100 10000 2.1 340 19:53 16.07.2019
5044 Mist 21 1013 100 10000 2.1 340 19:29 16.07.2019
5045 Rain 21 1015 94 14484 1.5 290 18:58 16.07.2019
5046 Rain 21 1015 94 9656 0.86 67.939 18:39 16.07.2019
5047 Rain 21 1015 94 12874 1.6 129.668 18:20 16.07.2019
5048 Rain 21 1013 94 5000 1 0 17:44 16.07.2019
5049 Rain 21 1014 100 4500 2.6 340 17:24 16.07.2019
5050 Rain 21 1015 94 3017 1.6 129.668 16:49 16.07.2019
5051 Rain 21 1015 94 3017 1.6 129.668 16:25 16.07.2019
5052 Rain 21 1014 100 4000 3.6 360 15:56 16.07.2019
5053 Rain 21 1014 100 4000 2.1 330 15:38 16.07.2019
5054 Rain 21 1014 94 2615 2.24 98.803 15:18 16.07.2019
5055 Rain 21 1013 94 10000 4.6 20 14:46 16.07.2019
5056 Rain 21 1013 94 10000 4.6 20 14:28 16.07.2019
5057 Rain 21 1013 94 10000 5.1 20 13:57 16.07.2019
5058 Rain 21 1013 94 10000 5.1 20 13:57 16.07.2019
5059 Rain 21 1013 94 8047 2.6 320 13:37 16.07.2019
5060 Rain 22 1015 88 9656 2.1 40 13:18 16.07.2019
5061 Mist 22 1015 88 4828 2.95 135.728 12:42 16.07.2019
5062 Mist 22 1013 94 10000 1.5 80 12:20 16.07.2019
5063 Mist 22 1013 94 10000 1.5 80 11:54 16.07.2019
5064 Rain 22 1013 94 10000 3.6 20 11:36 16.07.2019
5065 Rain 22 1013 88 10000 4.1 10 11:18 16.07.2019
5066 Rain 22 1013 94 14484 2.6 300 10:43 16.07.2019
5067 Rain 22 1015 88 4023 1.5 80 10:19 16.07.2019
5068 Rain 22 1015 88 9656 1.5 60 09:43 16.07.2019
5069 Rain 22 1015 88 16093 2.6 50 09:21 16.07.2019
5070 Rain 22 1015 88 11265 2.6 70 08:48 16.07.2019
5071 Rain 22 1015 88 11265 2.6 70 08:27 16.07.2019
5072 Rain 22 1015 88 11265 2.6 70 08:27 16.07.2019
5073 Rain 22 1015 83 9656 2.1 80 07:57 16.07.2019
5074 Rain 22 1013 94 6000 2.6 20 07:36 16.07.2019
5075 Rain 22 1013 94 4000 2.1 20 06:59 16.07.2019
5076 Rain 22 1013 100 6000 1.5 30 06:37 16.07.2019
5077 Rain 22 1013 100 4000 1.5 80 05:52 16.07.2019
5078 Rain 22 1013 94 3200 2.6 50 05:30 16.07.2019
5079 Rain 22 1013 100 5000 3.1 50 04:45 16.07.2019
5080 Rain 21 1014 100 3500 2.1 20 03:44 16.07.2019
5081 Rain 21 1014 88 16093 2.6 320 02:46 16.07.2019
5082 Rain 21 1014 88 16093 2.6 320 02:28 16.07.2019
5083 Rain 20 1013 100 5000 4.1 30 01:36 16.07.2019
5084 Rain 20 1013 100 4500 5.1 20 00:39 16.07.2019
5085 Rain 20 1014 93 2500 1 0 00:19 16.07.2019
5086 Rain 20 1013 100 4500 2.6 40 23:42 15.07.2019
5087 Rain 20 1013 100 4500 2.6 40 23:23 15.07.2019
5088 Rain 19 1012 100 3500 2.6 30 22:47 15.07.2019
5089 Rain 19 1012 94 4500 5.1 10 22:21 15.07.2019
5090 Rain 19 1012 94 4500 5.1 10 21:57 15.07.2019
5091 Rain 19 1014 93 8047 1.5 340 21:39 15.07.2019
5092 Rain 19 1014 93 6437 2.1 340 21:19 15.07.2019
5093 Rain 19 1014 93 6437 2.1 340 20:54 15.07.2019
5094 Rain 19 1014 93 4828 2.1 310 20:36 15.07.2019
5095 Rain 19 1013 93 6437 2.1 320 20:18 15.07.2019
5096 Rain 19 1011 94 6000 5.1 10 19:39 15.07.2019
5097 Rain 20 1011 100 4500 2.6 50 19:19 15.07.2019
5098 Rain 20 1011 94 9000 5.1 30 18:49 15.07.2019
5099 Rain 20 1011 94 9000 5.1 30 18:23 15.07.2019
5100 Rain 20 1014 88 6437 1.5 300 17:58 15.07.2019
5101 Rain 20 1014 88 14484 1.5 300 17:40 15.07.2019
5102 Rain 20 1014 88 14484 1.5 300 17:22 15.07.2019
5103 Rain 20 1014 82 4023 2.99 125.201 17:22 15.07.2019
5104 Rain 20 1014 82 4023 2.99 125.201 16:58 15.07.2019
5105 Rain 20 1014 82 6437 2.99 125.201 16:37 15.07.2019
5106 Rain 20 1014 82 6437 2.99 125.201 16:19 15.07.2019
5107 Rain 20 1014 82 8047 2.99 125.201 15:43 15.07.2019
5108 Rain 20 1014 82 8047 3.22 116.255 15:25 15.07.2019
5109 Rain 21 1013 82 16093 1.5 70 14:59 15.07.2019
5110 Rain 21 1013 72 16093 3.1 80 14:38 15.07.2019
5111 Clouds 21 1013 72 16093 3.1 110 14:19 15.07.2019
5112 Rain 21 1010 83 10000 6.7 50 13:48 15.07.2019
5113 Rain 21 1011 73 10000 2.1 90 13:20 15.07.2019
5114 Rain 22 1009 88 10000 6.2 50 12:48 15.07.2019
5115 Rain 22 1009 88 10000 6.2 50 12:27 15.07.2019
5116 Rain 22 1011 77 16093 2.1 110 11:58 15.07.2019
5117 Rain 23 1011 73 16093 2.1 110 11:40 15.07.2019
5118 Rain 23 1011 73 16093 1.5 120 11:19 15.07.2019
5119 Rain 23 1008 64 10000 1.5 70 10:42 15.07.2019
5120 Rain 23 1008 64 10000 1.5 70 10:24 15.07.2019
5121 Clouds 24 1008 83 10000 5.1 60 09:43 15.07.2019
5122 Clouds 24 1008 83 10000 5.1 60 09:22 15.07.2019
5123 Clouds 24 1007 78 10000 6.2 70 08:47 15.07.2019
5124 Clouds 24 1007 78 10000 6.2 70 08:25 15.07.2019
5125 Clouds 24 1007 83 10000 3.6 60 07:52 15.07.2019
5126 Clouds 24 1007 78 10000 5.1 60 07:32 15.07.2019
5127 Rain 24 1007 78 10000 5.7 50 06:48 15.07.2019
5128 Rain 24 1007 78 10000 5.7 50 06:30 15.07.2019
5129 Rain 23 1009 88 16093 2.1 80 05:43 15.07.2019
5130 Rain 23 1010 88 16093 2.6 60 04:48 15.07.2019
5131 Rain 22 1010 88 16093 2.6 60 04:29 15.07.2019
5132 Rain 22 1007 94 10000 3.1 30 03:29 15.07.2019
5133 Rain 21 1009 94 4023 2.03 136.398 02:25 15.07.2019
5134 Rain 21 1009 94 4828 2.6 90 01:37 15.07.2019
5135 Rain 20 1007 94 8047 1.5 330 00:54 15.07.2019
5136 Rain 20 1007 94 8047 1.5 330 00:29 15.07.2019
5137 Rain 20 1006 100 3219 1.5 330 23:59 14.07.2019
5138 Rain 20 1006 100 1408 2.6 320 23:41 14.07.2019
5139 Rain 20 1006 100 1408 2.6 320 23:21 14.07.2019
5140 Rain 20 1005 94 10000 5.7 40 22:58 14.07.2019
5141 Rain 20 1005 100 1810 2.1 320 22:39 14.07.2019
5142 Rain 20 1007 100 6437 2.1 50 22:21 14.07.2019
5143 Rain 20 1005 94 10000 4.6 40 21:46 14.07.2019
5144 Rain 20 1007 100 4828 2.1 110 21:20 14.07.2019
5145 Rain 20 1007 100 4828 2.1 110 20:59 14.07.2019
5146 Rain 20 1006 100 9656 1.34 64.619 20:39 14.07.2019
5147 Rain 20 1006 100 11265 2.1 120 20:20 14.07.2019
5148 Rain 20 1006 100 11265 2.1 120 19:57 14.07.2019
5149 Rain 20 1004 94 10000 5.7 40 19:38 14.07.2019
5150 Rain 20 1004 100 3621 2.1 20 19:19 14.07.2019
5151 Rain 21 1004 94 4500 5.7 40 18:41 14.07.2019
5152 Rain 21 1006 100 8047 2.6 110 18:22 14.07.2019
5153 Rain 21 1006 100 8047 2.6 110 17:58 14.07.2019
5154 Rain 21 1006 100 6437 1.5 80 17:36 14.07.2019
5155 Rain 21 1005 94 4828 2.49 44.658 17:18 14.07.2019
5156 Rain 21 1006 100 3621 2.1 70 16:42 14.07.2019
5157 Rain 21 1006 100 4426 2.49 44.658 16:21 14.07.2019
5158 Rain 22 1004 94 9656 2.49 44.658 15:43 14.07.2019
5159 Rain 22 1004 94 9656 2.11 39.601 15:23 14.07.2019
5160 Clouds 22 1005 100 16093 2.11 39.601 14:47 14.07.2019
5161 Clouds 22 1003 94 10000 2.1 100 14:20 14.07.2019
5162 Rain 22 1005 94 12874 1.5 140 13:47 14.07.2019
5163 Rain 22 1005 94 12874 1.5 140 13:25 14.07.2019
5164 Rain 22 1003 94 10000 1 80 12:57 14.07.2019
5165 Rain 22 1003 94 4828 2.05 42.366 12:39 14.07.2019
5166 Rain 22 1002 94 10000 1 80 12:19 14.07.2019
5167 Rain 22 1004 94 14484 1.44 29.458 11:49 14.07.2019
5168 Rain 22 1004 94 14484 1.44 29.458 11:49 14.07.2019
5169 Rain 22 1004 94 16093 1.5 70 11:20 14.07.2019
5170 Rain 22 1004 94 16093 1.44 29.458 10:45 14.07.2019
5171 Rain 23 1002 83 10000 3.1 50 10:21 14.07.2019
5172 Rain 23 1002 83 10000 3.1 50 10:21 14.07.2019
5173 Rain 23 1003 88 16093 1.5 50 09:48 14.07.2019
5174 Rain 23 1003 88 16093 1.5 50 09:30 14.07.2019
5175 Rain 23 1001 94 10000 5.1 10 08:48 14.07.2019
5176 Rain 23 1001 94 10000 5.1 10 08:30 14.07.2019
5177 Rain 22 1001 100 5000 3.6 20 07:43 14.07.2019
5178 Rain 22 1003 100 16093 3.1 40 07:21 14.07.2019
5179 Rain 22 1000 94 2500 3.1 10 05:46 14.07.2019
5180 Rain 21 1001 100 2500 5.1 360 03:59 14.07.2019
5181 Rain 21 1002 100 3500 2.1 340 03:41 14.07.2019
5182 Rain 21 1002 100 3500 2.1 340 03:23 14.07.2019
5183 Rain 21 1001 94 1408 3.1 310 02:24 14.07.2019
5184 Rain 21 1001 94 1408 3.1 310 02:24 14.07.2019
5185 Rain 21 1001 94 2500 3.1 350 01:54 14.07.2019
5186 Rain 21 1001 94 2500 3.1 350 01:30 14.07.2019
5187 Rain 21 1001 100 3200 4.1 50 00:41 14.07.2019
5188 Rain 21 1001 94 3500 6.7 60 00:21 14.07.2019
5189 Rain 21 1001 94 3500 6.7 60 23:59 13.07.2019
5190 Rain 21 1001 100 2400 3.1 80 23:41 13.07.2019
5191 Rain 21 1003 100 3621 1.43 128.198 23:22 13.07.2019
5192 Rain 20 1003 94 4426 1.43 128.198 22:42 13.07.2019
5193 Rain 20 1003 94 4426 1.43 128.198 22:22 13.07.2019
5194 Rain 21 1004 100 4828 2.1 150 21:49 13.07.2019
5195 Rain 21 1004 100 4828 2.1 150 21:21 13.07.2019
5196 Rain 21 1002 94 4000 2.1 180 20:52 13.07.2019
5197 Rain 21 1002 94 3621 3.36 163.291 20:33 13.07.2019
5198 Rain 22 1002 94 4500 3.1 160 19:53 13.07.2019
5199 Rain 22 1002 94 4500 3.1 160 19:31 13.07.2019
5200 Rain 22 1004 100 4828 1.5 180 18:56 13.07.2019
5201 Rain 22 1004 100 4828 1.5 180 18:38 13.07.2019
5202 Rain 23 1003 94 8000 5.7 170 18:18 13.07.2019
5203 Rain 23 1004 100 9656 1.5 250 17:37 13.07.2019
5204 Rain 23 1003 88 7000 5.1 190 17:19 13.07.2019
5205 Rain 23 1003 88 7000 5.1 190 17:19 13.07.2019
5206 Rain 23 1003 88 7000 5.1 190 16:44 13.07.2019
5207 Rain 23 1003 88 7000 5.1 190 16:25 13.07.2019
5208 Rain 23 1005 100 8047 2.6 190 15:48 13.07.2019
5209 Rain 23 1005 94 9656 2.1 200 15:24 13.07.2019
5210 Rain 23 1005 94 9656 2.1 200 14:57 13.07.2019
5211 Rain 23 1004 94 6000 5.1 190 14:38 13.07.2019
5212 Rain 23 1004 94 6000 4.1 180 14:19 13.07.2019
5213 Rain 23 1003 94 6000 3.1 180 13:43 13.07.2019
5214 Rain 23 1004 88 10000 2.6 160 13:19 13.07.2019
5215 Rain 23 1003 94 7000 3.6 180 12:41 13.07.2019
5216 Rain 23 1003 94 7000 3.6 180 12:23 13.07.2019
5217 Rain 23 1003 94 8000 3.1 180 11:57 13.07.2019
5218 Rain 24 1003 94 8047 5.62 164.202 11:36 13.07.2019
5219 Rain 24 1003 88 10000 3.6 190 11:18 13.07.2019
5220 Rain 24 1003 88 9656 2.6 150 10:39 13.07.2019
5221 Rain 24 1003 88 10000 4.1 190 10:21 13.07.2019
5222 Rain 25 1003 88 10000 2.6 190 09:42 13.07.2019
5223 Rain 25 1005 78 16093 3.6 180 09:24 13.07.2019
5224 Rain 26 1004 83 14484 2.1 140 08:48 13.07.2019
5225 Rain 26 1004 83 14484 2.1 140 08:27 13.07.2019
5226 Rain 26 1004 78 10000 2.1 170 07:50 13.07.2019
5227 Rain 27 1004 78 10000 2.1 170 07:23 13.07.2019
5228 Rain 27 1004 73 10000 2.1 170 06:29 13.07.2019
5229 Clouds 26 1004 83 10000 2.1 150 05:46 13.07.2019
5230 Clouds 26 1006 69 16093 2.6 150 04:40 13.07.2019
5231 Clouds 26 1004 88 9000 2.1 110 04:20 13.07.2019
5232 Clouds 26 1004 88 6000 3.1 150 03:41 13.07.2019
5233 Mist 25 1005 88 9000 1.5 100 02:54 13.07.2019
5234 Mist 24 1005 94 5000 1 0 01:53 13.07.2019
5235 Mist 24 1005 88 9000 1 60 01:21 13.07.2019
5236 Mist 23 1005 88 9000 1 60 00:58 13.07.2019
5237 Mist 23 1005 88 16093 0.61 187.021 00:21 13.07.2019
5238 Mist 22 1005 88 16093 0.61 187.021 23:53 12.07.2019
5239 Mist 21 1005 88 8000 1.5 20 23:33 12.07.2019
5240 Mist 21 1005 88 9000 1 320 22:58 12.07.2019
5241 Fog 21 1005 100 8000 1 350 22:40 12.07.2019
5242 Fog 21 1004 94 8000 0.5 170 22:21 12.07.2019
5243 Fog 21 1004 88 8000 2.6 210 21:42 12.07.2019
5244 Fog 21 1004 94 8000 3.6 200 21:20 12.07.2019
5245 Clouds 21 1004 94 8000 3.1 180 20:47 12.07.2019
5246 Clouds 21 1004 100 8000 3.1 180 20:23 12.07.2019
5247 Fog 21 1004 100 10000 2.1 160 19:44 12.07.2019
5248 Fog 21 1004 100 10000 2.1 160 19:26 12.07.2019
5249 Mist 21 1004 100 10000 3.1 160 18:58 12.07.2019
5250 Clouds 21 1004 100 10000 2.1 160 18:37 12.07.2019
5251 Fog 21 1006 83 16093 1.5 260 18:19 12.07.2019
5252 Fog 21 1004 88 10000 1.5 180 17:45 12.07.2019
5253 Fog 21 1004 88 10000 1.5 180 17:27 12.07.2019
5254 Clouds 21 1005 88 10000 1.5 270 16:38 12.07.2019
5255 Clouds 22 1005 88 10000 1.5 260 16:20 12.07.2019
5256 Rain 22 1004 88 10000 1 0 15:41 12.07.2019
5257 Rain 22 1004 88 10000 1 0 15:41 12.07.2019
5258 Mist 22 1004 88 10000 1 0 15:20 12.07.2019
5259 Mist 22 1004 88 10000 0.5 0 14:55 12.07.2019
5260 Mist 22 1004 88 10000 1.5 20 14:37 12.07.2019
5261 Mist 22 1004 100 3200 1 0 14:19 12.07.2019
5262 Rain 22 1004 88 10000 2.1 20 13:38 12.07.2019
5263 Drizzle 22 1004 88 10000 3.6 20 12:57 12.07.2019
5264 Rain 22 1004 88 10000 3.6 20 12:57 12.07.2019
5265 Drizzle 21 1004 88 10000 3.1 10 12:38 12.07.2019
5266 Drizzle 21 1004 88 10000 4.1 10 12:19 12.07.2019
5267 Drizzle 22 1006 83 16093 2.6 40 11:44 12.07.2019
5268 Drizzle 22 1004 94 10000 4.1 10 11:20 12.07.2019
5269 Drizzle 22 1004 94 2500 3.6 360 10:44 12.07.2019
5270 Drizzle 22 1004 94 2500 3.6 360 10:24 12.07.2019
5271 Rain 22 1006 78 16093 4.6 20 09:54 12.07.2019
5272 Rain 22 1006 78 16093 4.6 20 09:30 12.07.2019
5273 Rain 22 1006 78 16093 4.6 20 09:30 12.07.2019
5274 Drizzle 22 1003 94 10000 5.7 360 08:58 12.07.2019
5275 Drizzle 22 1004 94 5000 4.6 30 08:39 12.07.2019
5276 Rain 22 1004 94 9000 5.7 10 08:18 12.07.2019
5277 Rain 22 1005 88 14484 3.1 320 07:44 12.07.2019
5278 Rain 22 1005 88 14484 3.1 320 07:26 12.07.2019
5279 Rain 21 1004 100 3000 3.1 10 06:29 12.07.2019
5280 Rain 21 1006 100 3200 5.1 360 05:47 12.07.2019
5281 Rain 20 1008 100 1600 2.1 20 03:22 12.07.2019
5282 Rain 20 1008 100 2000 4.6 70 01:43 12.07.2019
5283 Rain 19 1009 100 2000 5.1 80 00:58 12.07.2019
5284 Rain 19 1009 100 2400 4.6 90 00:27 12.07.2019
5285 Rain 19 1009 94 2000 3.1 80 23:50 11.07.2019
5286 Rain 19 1009 94 2000 3.1 80 23:26 11.07.2019
5287 Rain 19 1009 100 2500 3.6 20 22:58 11.07.2019
5288 Rain 18 1009 100 2500 3.6 10 22:39 11.07.2019
5289 Rain 18 1009 100 2500 3.6 10 22:21 11.07.2019
5290 Rain 18 1009 100 3000 3.1 40 21:41 11.07.2019
5291 Rain 18 1009 100 4000 3.6 40 21:19 11.07.2019
5292 Rain 19 1009 100 4000 3.6 40 20:55 11.07.2019
5293 Rain 18 1009 100 4426 3.37 154.803 20:37 11.07.2019
5294 Rain 19 1009 93 3621 3.37 154.803 20:18 11.07.2019
5295 Rain 19 1010 93 3621 3.37 154.803 19:44 11.07.2019
5296 Rain 19 1011 93 5000 1 0 19:24 11.07.2019
5297 Rain 19 1011 93 7000 1 0 18:49 11.07.2019
5298 Rain 19 1011 93 7000 1 0 18:31 11.07.2019
5299 Rain 19 1011 93 10000 2.6 190 17:58 11.07.2019
5300 Rain 19 1013 93 16093 2.1 170 17:40 11.07.2019
5301 Rain 19 1012 93 10000 0.5 0 17:22 11.07.2019
5302 Rain 19 1012 93 10000 2.6 170 16:45 11.07.2019
5303 Rain 19 1012 93 10000 2.6 170 16:22 11.07.2019
5304 Rain 19 1014 93 16093 3.1 220 15:44 11.07.2019
5305 Rain 19 1014 93 16093 3.1 220 15:25 11.07.2019
5306 Rain 19 1014 93 9656 3.6 190 14:59 11.07.2019
5307 Rain 20 1015 93 4426 1.5 220 14:40 11.07.2019
5308 Rain 20 1013 82 10000 3.1 140 14:20 11.07.2019
5309 Rain 20 1013 88 10000 3.1 140 13:45 11.07.2019
5310 Rain 20 1013 88 10000 3.1 140 13:26 11.07.2019
5311 Rain 20 1015 88 12874 3.59 174.339 12:42 11.07.2019
5312 Rain 20 1015 88 4828 2.96 175.949 12:23 11.07.2019
5313 Rain 20 1015 88 12874 2.96 175.949 11:52 11.07.2019
5314 Rain 21 1015 88 12874 2.96 175.949 11:30 11.07.2019
5315 Rain 21 1013 83 10000 2.1 150 10:55 11.07.2019
5316 Rain 22 1013 83 10000 1.5 120 10:21 11.07.2019
5317 Rain 22 1013 83 10000 1.5 120 09:59 11.07.2019
5318 Rain 22 1012 83 10000 1.5 130 09:41 11.07.2019
5319 Rain 22 1012 83 10000 1.5 130 09:22 11.07.2019
5320 Rain 23 1013 73 10000 1.5 140 08:50 11.07.2019
5321 Rain 23 1013 73 10000 1.5 140 08:24 11.07.2019
5322 Rain 23 1013 73 10000 2.6 150 07:48 11.07.2019
5323 Rain 24 1013 73 10000 2.6 150 07:29 11.07.2019
5324 Rain 24 1014 69 10000 1.5 150 06:30 11.07.2019
5325 Clouds 24 1014 64 10000 1 0 05:48 11.07.2019
5326 Clouds 24 1014 64 10000 1 0 05:28 11.07.2019
5327 Clouds 24 1015 64 10000 1.5 160 04:53 11.07.2019
5328 Clouds 22 1015 68 10000 1 0 02:38 11.07.2019
5329 Clouds 21 1016 77 10000 4.6 50 00:50 11.07.2019
5330 Clouds 20 1016 82 10000 4.1 40 23:56 10.07.2019
5331 Clouds 19 1016 82 10000 4.1 40 23:37 10.07.2019
5332 Clouds 19 1016 82 10000 5.7 50 23:18 10.07.2019
5333 Clouds 19 1015 82 10000 5.7 50 22:42 10.07.2019
5334 Clouds 19 1015 82 10000 5.7 50 22:19 10.07.2019
5335 Clouds 19 1015 82 10000 5.1 40 21:44 10.07.2019
5336 Clouds 19 1015 82 10000 5.1 40 21:26 10.07.2019
5337 Clouds 19 1015 82 10000 5.1 40 20:56 10.07.2019
5338 Clouds 19 1015 82 10000 5.1 40 20:37 10.07.2019
5339 Clouds 19 1015 82 10000 5.1 40 20:37 10.07.2019
5340 Clouds 19 1015 82 10000 4.6 40 20:18 10.07.2019
5341 Clouds 19 1015 82 10000 5.7 50 19:42 10.07.2019
5342 Clouds 19 1015 77 10000 5.1 50 19:21 10.07.2019
5343 Clouds 20 1015 77 10000 4.6 60 18:48 10.07.2019
5344 Clouds 20 1015 77 10000 4.6 60 18:25 10.07.2019
5345 Clouds 20 1015 82 10000 5.1 60 17:59 10.07.2019
5346 Clouds 20 1015 82 10000 5.7 60 17:40 10.07.2019
5347 Clouds 20 1015 77 10000 4.6 60 17:19 10.07.2019
5348 Clouds 20 1015 82 10000 6.2 60 16:22 10.07.2019
5349 Clouds 20 1015 82 10000 6.2 60 15:59 10.07.2019
5350 Clouds 20 1015 82 10000 6.2 60 15:41 10.07.2019
5351 Clouds 20 1015 82 10000 6.2 60 15:19 10.07.2019
5352 Clouds 20 1015 82 10000 6.2 60 15:19 10.07.2019
5353 Clouds 21 1015 82 10000 6.2 60 14:40 10.07.2019
5354 Clouds 21 1014 77 10000 6.7 60 14:22 10.07.2019
5355 Clouds 21 1014 83 10000 6.7 60 13:46 10.07.2019
5356 Clouds 21 1014 78 10000 6.2 70 13:19 10.07.2019
5357 Clouds 21 1014 78 10000 6.2 70 13:19 10.07.2019
5358 Clouds 22 1014 78 10000 6.2 70 12:58 10.07.2019
5359 Clouds 22 1013 78 10000 5.7 80 12:37 10.07.2019
5360 Clouds 22 1013 78 10000 6.2 70 12:18 10.07.2019
5361 Clouds 23 1013 78 10000 6.2 80 11:45 10.07.2019
5362 Clouds 23 1013 78 10000 6.7 80 11:21 10.07.2019
5363 Clouds 23 1014 64 16093 1.5 70 10:45 10.07.2019
5364 Clouds 24 1013 83 10000 6.7 70 10:20 10.07.2019
5365 Clouds 24 1012 73 10000 6.7 80 09:44 10.07.2019
5366 Clouds 24 1012 73 10000 6.7 80 09:21 10.07.2019
5367 Clouds 25 1012 69 10000 5.1 70 08:52 10.07.2019
5368 Clouds 24 1012 69 10000 5.1 70 08:29 10.07.2019
5369 Clouds 25 1013 78 10000 6.7 70 07:55 10.07.2019
5370 Clouds 25 1012 69 10000 5.7 80 07:32 10.07.2019
5371 Clouds 25 1012 69 10000 5.7 80 07:32 10.07.2019
5372 Clouds 24 1013 78 10000 6.7 70 06:56 10.07.2019
5373 Clouds 25 1012 69 10000 4.6 70 05:59 10.07.2019
5374 Clouds 24 1012 69 10000 4.1 50 04:51 10.07.2019
5375 Clouds 24 1012 69 10000 4.1 60 04:26 10.07.2019
5376 Clouds 20 1012 82 10000 4.1 20 00:47 10.07.2019
5377 Clouds 20 1012 82 10000 4.1 20 00:29 10.07.2019
5378 Clouds 19 1011 82 10000 5.1 20 23:41 09.07.2019
5379 Clouds 19 1013 82 16093 1.5 10 23:21 09.07.2019
5380 Clouds 19 1011 82 10000 4.1 10 22:42 09.07.2019
5381 Clouds 18 1011 82 10000 4.1 10 22:24 09.07.2019
5382 Clouds 18 1011 82 10000 3.6 20 21:59 09.07.2019
5383 Clouds 18 1011 82 10000 4.6 30 21:40 09.07.2019
5384 Clouds 19 1011 82 10000 4.1 30 21:22 09.07.2019
5385 Clouds 19 1010 82 10000 4.6 20 20:43 09.07.2019
5386 Clouds 19 1010 82 10000 4.6 20 20:24 09.07.2019
5387 Clouds 19 1010 82 10000 4.6 10 19:42 09.07.2019
5388 Clouds 19 1010 82 10000 4.6 10 19:24 09.07.2019
5389 Clouds 19 1010 82 10000 4.6 30 18:47 09.07.2019
5390 Clouds 19 1010 82 10000 4.6 30 18:26 09.07.2019
5391 Clouds 19 1010 82 10000 4.6 30 18:26 09.07.2019
5392 Clouds 19 1011 88 10000 5.7 50 17:57 09.07.2019
5393 Clouds 19 1011 88 10000 5.7 50 17:38 09.07.2019
5394 Clouds 19 1013 82 16093 2.6 100 17:19 09.07.2019
5395 Clouds 19 1010 88 10000 6.2 60 16:50 09.07.2019
5396 Clouds 19 1010 88 10000 6.2 60 16:25 09.07.2019
5397 Clouds 19 1010 88 10000 6.2 60 15:50 09.07.2019
5398 Clouds 19 1010 88 10000 6.2 60 15:32 09.07.2019
5399 Clouds 20 1012 72 16093 1.5 50 14:58 09.07.2019
5400 Clouds 20 1011 82 10000 5.1 50 14:39 09.07.2019
5401 Clouds 20 1011 77 10000 6.7 40 14:19 09.07.2019
5402 -273 0 0 0 0 0 13:45 09.07.2019
5403 Clouds 20 1010 82 10000 5.7 50 13:27 09.07.2019
5404 Clouds 20 1010 77 10000 5.7 50 12:42 09.07.2019
5405 Clouds 20 1010 77 10000 6.2 50 12:23 09.07.2019
5406 Clouds 21 1010 77 10000 6.2 50 11:58 09.07.2019
5407 Clouds 21 1009 77 10000 5.7 50 11:40 09.07.2019
5408 Clouds 21 1010 73 10000 5.1 30 11:21 09.07.2019
5409 Clouds 21 1010 73 10000 5.1 30 10:57 09.07.2019
5410 Clouds 21 1009 73 10000 2.1 20 10:34 09.07.2019
5411 Clouds 22 1009 73 10000 3.1 20 09:48 09.07.2019
5412 Clouds 22 1009 73 10000 3.1 20 09:29 09.07.2019
5413 Clouds 22 1009 73 10000 4.1 20 08:59 09.07.2019
5414 Clouds 22 1009 73 10000 3.1 30 08:40 09.07.2019
5415 Clouds 25 1008 78 10000 3.1 40 04:18 05.07.2019
5416 Clouds 24 1007 73 10000 2.6 40 03:38 05.07.2019
5417 Clouds 24 1010 73 16093 1.28 121.064 03:19 05.07.2019
5418 Clouds 23 1007 78 10000 3.1 40 02:49 05.07.2019
5419 Clouds 23 1008 83 10000 4.6 40 01:52 05.07.2019
5420 Rain 22 1008 83 10000 4.6 40 01:28 05.07.2019
5421 Rain 22 1008 78 10000 5.7 50 00:51 05.07.2019
5422 Rain 22 1008 78 10000 5.7 50 00:29 05.07.2019
5423 Mist 21 1007 88 10000 5.7 50 23:38 04.07.2019
5424 Mist 20 1007 88 10000 5.1 60 23:18 04.07.2019
5425 Clouds 20 1009 93 16093 2.46 142.488 22:41 04.07.2019
5426 Clouds 20 1009 93 16093 2.46 142.488 22:41 04.07.2019
5427 Clouds 20 1007 88 10000 5.1 30 22:20 04.07.2019
5428 Clouds 20 1008 93 16093 2.46 142.488 21:44 04.07.2019
5429 Clouds 20 1008 93 16093 2.65 134.465 21:25 04.07.2019
5430 Clouds 20 1006 88 10000 6.7 40 20:58 04.07.2019
5431 Clouds 20 1006 88 10000 6.7 50 20:37 04.07.2019
5432 Clouds 20 1006 88 10000 5.7 60 20:19 04.07.2019
5433 Mist 20 1006 88 10000 4.6 50 19:41 04.07.2019
5434 Mist 20 1006 88 10000 3.6 20 19:21 04.07.2019
5435 Mist 20 1006 88 10000 3.6 20 18:55 04.07.2019
5436 Mist 20 1008 93 4023 1.5 270 18:36 04.07.2019
5437 Mist 20 1007 88 10000 5.1 10 18:18 04.07.2019
5438 Mist 21 1009 93 4828 1.48 99.055 17:41 04.07.2019
5439 Mist 21 1007 83 10000 4.1 10 17:18 04.07.2019
5440 Clouds 21 1009 88 16093 1.48 99.055 15:45 04.07.2019
5441 Clouds 21 1006 94 10000 3.1 330 15:25 04.07.2019
5442 Clouds 21 1006 88 10000 5.1 360 14:59 04.07.2019
5443 Clouds 21 1009 88 16093 1.5 30 14:40 04.07.2019
5444 Clouds 21 1008 88 16093 1.5 50 14:20 04.07.2019
5445 -273 0 0 0 0 0 13:57 04.07.2019
5446 Rain 21 1005 88 10000 6.2 20 13:38 04.07.2019
5447 Drizzle 21 1005 88 10000 7.2 30 13:19 04.07.2019
5448 Rain 21 1005 88 10000 7.2 40 12:39 04.07.2019
5449 Rain 22 1007 83 16093 2.1 20 12:21 04.07.2019
5450 Rain 22 1007 83 16093 2.1 20 11:55 04.07.2019
5451 Rain 22 1004 94 10000 6.2 40 11:37 04.07.2019
5452 Clouds 22 1005 88 10000 5.1 40 11:18 04.07.2019
5453 Rain 22 1007 83 8047 3.72 53.524 10:39 04.07.2019
5454 Rain 22 1007 83 16093 2.6 340 10:18 04.07.2019
5455 Rain 22 1005 94 10000 4.6 40 09:39 04.07.2019
5456 Rain 22 1005 88 4000 6.2 20 09:20 04.07.2019
5457 Rain 22 1005 88 4000 6.2 20 08:54 04.07.2019
5458 Rain 22 1005 88 14484 3.6 300 08:19 04.07.2019
5459 Rain 22 1005 94 4900 5.1 60 07:43 04.07.2019
5460 Rain 22 1005 88 10000 2.1 360 07:20 04.07.2019
5461 Rain 23 1004 78 10000 3.6 300 06:37 04.07.2019
5462 Rain 23 1005 94 2816 2.1 300 05:50 04.07.2019
5463 Rain 23 1005 94 2816 2.1 300 05:31 04.07.2019
5464 Rain 24 1003 94 3500 4.6 210 02:41 04.07.2019
5465 Rain 24 1003 94 4000 6.7 190 01:28 04.07.2019
5466 Rain 24 1004 100 4023 5.1 150 00:57 04.07.2019
5467 Rain 24 1005 94 8047 1.5 60 23:55 03.07.2019
5468 Rain 24 1005 94 8047 1.5 60 23:55 03.07.2019
5469 Rain 24 1004 94 10000 7.7 190 23:21 03.07.2019
5470 Rain 24 1004 94 10000 7.7 190 22:59 03.07.2019
5471 Rain 24 1004 94 10000 8.7 200 22:39 03.07.2019
5472 Rain 24 1005 94 10000 7.2 190 22:21 03.07.2019
5473 Rain 24 1005 94 10000 7.2 190 21:56 03.07.2019
5474 Rain 24 1005 94 16093 4.6 150 21:37 03.07.2019
5475 Rain 24 1006 88 16093 4.6 190 21:19 03.07.2019
5476 Rain 24 1006 94 16093 7.7 190 20:41 03.07.2019
5477 Rain 24 1006 94 16093 7.7 190 20:23 03.07.2019
5478 Rain 24 1006 94 10000 8.7 180 19:50 03.07.2019
5479 Rain 24 1006 94 10000 8.7 180 19:31 03.07.2019
5480 Rain 24 1007 94 16093 3.6 140 18:47 03.07.2019
5481 Rain 24 1007 94 16093 3.6 140 18:25 03.07.2019
5482 Rain 24 1009 94 8047 1.5 260 17:55 03.07.2019
5483 Rain 24 1009 94 8047 1.5 260 17:36 03.07.2019
5484 Rain 24 1010 94 4828 2.1 190 17:18 03.07.2019
5485 Rain 24 1011 94 4828 2.6 190 16:43 03.07.2019
5486 Rain 23 1009 100 5000 5.1 180 16:20 03.07.2019
5487 Rain 23 1010 100 5000 4.6 180 15:47 03.07.2019
5488 Rain 23 1010 100 5000 4.6 180 15:29 03.07.2019
5489 Rain 24 1012 83 9656 3.1 200 14:53 03.07.2019
5490 Rain 24 1012 83 9656 3.1 200 14:26 03.07.2019
5491 Rain 24 1011 94 11265 3.13 119.822 13:59 03.07.2019
5492 Drizzle 24 1012 69 16093 4.54 138.477 13:34 03.07.2019
5493 Rain 24 1010 88 16093 4.54 138.477 12:54 03.07.2019
5494 Rain 25 1012 64 16093 3.1 20 12:21 03.07.2019
5495 Rain 25 1012 64 16093 3.1 20 11:58 03.07.2019
5496 Rain 25 1010 78 10000 5.7 200 11:40 03.07.2019
5497 Rain 25 1010 78 10000 5.7 200 11:21 03.07.2019
5498 Rain 26 1009 83 6000 1.5 210 10:42 03.07.2019
5499 Mist 26 1010 69 10000 5.7 190 10:23 03.07.2019
5500 Mist 26 1009 83 5000 3.1 190 09:43 03.07.2019
5501 Mist 26 1009 83 5000 3.1 190 09:21 03.07.2019
5502 Rain 26 1010 74 10000 5.1 190 08:57 03.07.2019
5503 Rain 26 1010 74 10000 2.1 160 08:38 03.07.2019
5504 Rain 27 1011 78 10000 2.1 150 08:18 03.07.2019
5505 Rain 27 1010 74 10000 2.6 160 07:37 03.07.2019
5506 Rain 27 1012 57 10000 1.5 90 06:55 03.07.2019
5507 Clouds 28 1011 78 10000 2.1 70 05:57 03.07.2019
5508 Rain 28 1011 78 14484 2.1 200 05:24 03.07.2019
5509 Clouds 28 1012 83 10000 2.6 100 03:58 03.07.2019
5510 Mist 27 1011 69 10000 2.1 70 02:55 03.07.2019
5511 Mist 26 1011 83 7000 3.1 70 01:39 03.07.2019
5512 Mist 26 1011 83 7000 3.1 70 01:21 03.07.2019
5513 Mist 24 1011 94 3200 1.5 30 00:40 03.07.2019
5514 Mist 24 1011 100 3000 1.5 70 23:57 02.07.2019
5515 Mist 23 1011 100 3000 1.5 70 23:37 02.07.2019
5516 Mist 23 1011 100 3000 1.5 90 23:19 02.07.2019
5517 Mist 23 1011 100 1500 0.5 40 22:41 02.07.2019
5518 Mist 22 1013 88 8047 1.93 72.851 22:23 02.07.2019
5519 Mist 22 1010 94 4800 1 20 21:58 02.07.2019
5520 Mist 22 1010 94 4800 1 20 21:39 02.07.2019
5521 Mist 22 1013 88 11265 2.1 310 21:20 02.07.2019
5522 Fog 22 1010 94 6000 0.5 140 20:57 02.07.2019
5523 Fog 22 1010 94 6000 0.5 140 20:39 02.07.2019
5524 Fog 22 1010 94 6000 0.5 140 20:19 02.07.2019
5525 Fog 22 1012 88 14484 1.5 350 19:42 02.07.2019
5526 Fog 22 1010 94 6000 1.5 170 19:23 02.07.2019
5527 Mist 22 1009 94 6000 2.6 180 18:47 02.07.2019
5528 Mist 23 1009 94 6000 2.6 180 18:18 02.07.2019
5529 Mist 23 1009 94 6000 4.1 180 17:43 02.07.2019
5530 Mist 23 1009 94 6000 4.6 180 17:22 02.07.2019
5531 Clouds 23 1009 94 8000 3.6 180 16:53 02.07.2019
5532 Clouds 23 1009 94 8000 3.6 180 16:34 02.07.2019
5533 Clouds 23 1009 94 10000 2.6 170 15:47 02.07.2019
5534 Clouds 23 1009 94 10000 2.6 170 15:27 02.07.2019
5535 Clouds 24 1008 88 10000 3.1 190 14:57 02.07.2019
5536 Clouds 24 1008 88 10000 3.1 190 14:39 02.07.2019
5537 Clouds 24 1008 88 10000 4.1 190 14:20 02.07.2019
5538 Clouds 24 1008 83 10000 4.6 190 13:42 02.07.2019
5539 Clouds 24 1011 78 16093 3.68 63.693 13:18 02.07.2019
5540 Clouds 24 1009 88 10000 6.2 190 12:44 02.07.2019
5541 Clouds 24 1010 73 16093 2.6 180 12:22 02.07.2019
5542 Clouds 25 1007 88 10000 6.7 180 11:44 02.07.2019
5543 Clouds 25 1008 83 10000 5.7 190 11:23 02.07.2019
5544 Clouds 26 1007 74 10000 1.5 190 10:55 02.07.2019
5545 Mist 26 1007 74 10000 1.5 190 10:29 02.07.2019
5546 Mist 26 1006 94 5000 4.6 170 09:57 02.07.2019
5547 Clouds 26 1007 78 10000 6.2 190 09:22 02.07.2019
5548 Clouds 27 1007 78 10000 6.2 190 08:58 02.07.2019
5549 Clouds 27 1007 88 7000 4.1 180 08:38 02.07.2019
5550 Clouds 27 1007 88 6000 4.1 190 07:59 02.07.2019
5551 Rain 27 1008 88 5000 8.7 200 07:38 02.07.2019
5552 Clouds 27 1007 88 6000 4.1 190 07:18 02.07.2019
5553 Mist 26 1009 69 14484 2.38 139.446 06:37 02.07.2019
5554 Mist 26 1007 88 5000 3.6 160 05:35 02.07.2019
5555 Mist 24 1008 94 3200 1 180 02:41 02.07.2019
5556 Rain 23 1010 94 6437 1.45 97.558 00:31 02.07.2019
5557 Rain 22 1007 94 4000 1 110 23:39 01.07.2019
5558 Rain 22 1008 100 1200 1 160 23:19 01.07.2019
5559 Rain 22 1009 100 6437 1.45 97.558 22:42 01.07.2019
5560 Rain 22 1007 100 4500 2.1 90 22:24 01.07.2019
5561 Mist 22 1006 94 5000 1.5 80 21:45 01.07.2019
5562 Mist 22 1006 94 5000 1.5 80 21:25 01.07.2019
5563 Mist 22 1006 94 4500 2.6 40 20:51 01.07.2019
5564 Mist 22 1006 94 4500 2.1 30 20:21 01.07.2019
5565 Mist 22 1006 94 4500 2.1 30 19:56 01.07.2019
5566 Mist 22 1006 94 3500 2.1 40 19:37 01.07.2019
5567 Mist 22 1006 100 300 2.1 40 19:18 01.07.2019
5568 Mist 23 1006 100 500 0.5 0 18:44 01.07.2019
5569 Mist 23 1006 100 500 0.5 0 18:26 01.07.2019
5570 Mist 23 1006 100 900 0.5 0 17:47 01.07.2019
5571 Mist 23 1006 100 900 0.5 0 17:27 01.07.2019
5572 Mist 23 1008 94 11265 1.69 120.141 16:58 01.07.2019
5573 Rain 22 1005 94 3000 2.6 70 16:40 01.07.2019
5574 Rain 22 1005 94 3000 2.6 70 16:22 01.07.2019
5575 Rain 23 1008 94 8047 2.6 30 15:44 01.07.2019
5576 Rain 23 1008 94 8047 2.6 30 15:26 01.07.2019
5577 Rain 23 1005 94 4000 4.1 50 14:45 01.07.2019
5578 Rain 23 1005 94 4000 4.1 50 14:24 01.07.2019
5579 Rain 23 1004 94 6000 3.6 180 13:49 01.07.2019
5580 Rain 23 1004 94 6000 3.6 180 13:24 01.07.2019
5581 Mist 23 1004 94 6000 3.6 180 12:58 01.07.2019
5582 Drizzle 23 1004 94 7000 2.6 180 12:38 01.07.2019
5583 Drizzle 23 1004 94 7000 2.6 180 12:20 01.07.2019
5584 Drizzle 23 1004 94 7000 4.1 180 11:48 01.07.2019
5585 Rain 24 1004 88 9656 1.38 148.052 11:28 01.07.2019
5586 Rain 24 1003 94 7000 3.6 170 10:59 01.07.2019
5587 Rain 24 1003 94 3500 1.5 50 10:41 01.07.2019
5588 Rain 24 1003 94 3500 1.5 50 10:20 01.07.2019
5589 Rain 24 1004 100 3100 2.6 50 09:41 01.07.2019
5590 Rain 24 1004 100 3100 2.6 50 09:22 01.07.2019
5591 Mist 24 1003 100 5000 2.6 130 08:39 01.07.2019
5592 Mist 24 1003 100 5000 2.6 130 08:21 01.07.2019
5593 Mist 25 1003 94 6000 1.5 80 07:34 01.07.2019
5594 Rain 24 1004 94 2500 3.1 20 06:48 01.07.2019
5595 Rain 24 1003 94 5000 1.5 0 04:38 01.07.2019
5596 Rain 22 1006 94 8047 1.5 40 00:55 01.07.2019
5597 Rain 23 1004 100 9000 3.1 30 00:34 01.07.2019
5598 Rain 23 1004 100 9000 3.1 30 00:34 01.07.2019
5599 Rain 22 1006 100 3219 1.01 135.719 23:59 30.06.2019
5600 Rain 22 1004 94 6437 1.01 135.719 23:25 30.06.2019
5601 Rain 22 1004 94 6437 1.01 135.719 23:25 30.06.2019
5602 -273 0 0 0 0 0 22:56 30.06.2019
5603 Rain 22 1005 100 2816 1.01 135.719 22:24 30.06.2019
5604 Mist 22 1005 100 4828 1.01 135.719 21:59 30.06.2019
5605 Mist 22 1004 100 11265 1.01 135.719 21:41 30.06.2019
5606 Mist 22 1002 94 10000 2.1 30 21:18 30.06.2019
5607 Mist 22 1002 94 10000 1 50 20:41 30.06.2019
5608 Mist 22 1002 94 10000 1 50 20:23 30.06.2019
5609 Drizzle 22 1001 100 4000 3.1 350 19:51 30.06.2019
5610 Drizzle 22 1001 100 7000 3.6 10 19:26 30.06.2019
5611 Drizzle 22 1002 100 7000 2.6 10 18:55 30.06.2019
5612 Drizzle 22 1002 100 3500 2.1 30 18:23 30.06.2019
5613 Drizzle 22 1002 100 8000 3.6 340 17:55 30.06.2019
5614 Drizzle 22 1004 94 11265 2.1 50 17:36 30.06.2019
5615 Rain 22 1001 94 10000 3.1 340 17:18 30.06.2019
5616 Rain 22 1001 94 10000 3.6 340 16:43 30.06.2019
5617 Rain 23 1001 94 10000 3.6 340 16:25 30.06.2019
5618 Rain 23 1001 94 12874 2.1 310 15:37 30.06.2019
5619 Rain 23 1000 94 10000 5.1 360 15:18 30.06.2019
5620 Rain 23 1000 94 10000 5.1 360 14:50 30.06.2019
5621 Rain 23 1000 94 10000 5.1 360 14:29 30.06.2019
5622 Rain 23 1002 94 16093 2.1 20 13:46 30.06.2019
5623 Rain 24 1002 94 16093 2.1 20 13:25 30.06.2019
5624 Rain 24 999 94 10000 7.2 240 12:50 30.06.2019
5625 Rain 24 999 100 10000 1 0 12:25 30.06.2019
5626 Rain 24 999 100 10000 2.1 70 11:56 30.06.2019
5627 Rain 24 999 94 10000 2.6 350 11:38 30.06.2019
5628 Rain 24 999 94 10000 2.6 350 11:18 30.06.2019
5629 Rain 24 998 94 10000 5.1 240 10:42 30.06.2019
5630 Rain 23 998 94 10000 2.1 50 10:19 30.06.2019
5631 Rain 23 998 94 10000 2.1 50 09:57 30.06.2019
5632 Rain 23 997 94 10000 1.5 0 09:36 30.06.2019
5633 Rain 24 997 94 10000 1.5 0 09:18 30.06.2019
5634 Rain 24 997 88 10000 2.1 340 08:38 30.06.2019
5635 Rain 24 997 88 10000 2.1 340 08:19 30.06.2019
5636 Rain 25 998 88 14484 1.5 350 07:40 30.06.2019
5637 Rain 25 998 88 14484 1.5 350 07:21 30.06.2019
5638 Rain 24 999 78 16093 4.6 20 06:23 30.06.2019
5639 Rain 22 997 94 6000 1.5 310 03:27 30.06.2019
5640 Rain 21 1000 100 4828 1.5 60 01:50 30.06.2019
5641 Rain 21 999 100 6000 3.6 340 00:39 30.06.2019
5642 Rain 21 999 100 6000 3.6 340 00:39 30.06.2019
5643 Rain 21 1000 100 6000 3.1 20 00:19 30.06.2019
5644 Rain 21 1000 100 3000 3.6 50 23:43 29.06.2019
5645 Rain 21 1000 100 3000 3.6 50 23:21 29.06.2019
5646 Rain 21 1000 94 4023 1.53 73.516 22:46 29.06.2019
5647 Rain 21 1000 94 4023 1.53 73.516 22:22 29.06.2019
5648 Rain 21 1000 100 5000 3.6 60 21:55 29.06.2019
5649 Rain 21 1001 100 8047 1.3 82.449 21:25 29.06.2019
5650 Rain 21 1003 100 6437 1.3 82.449 20:47 29.06.2019
5651 Rain 21 1003 100 6437 1.3 82.449 20:29 29.06.2019
5652 Rain 21 1003 100 8047 1.3 82.449 19:58 29.06.2019
5653 Rain 21 1003 100 11265 1.3 82.449 19:39 29.06.2019
5654 Rain 21 1002 100 6000 2.6 50 19:19 29.06.2019
5655 Rain 21 1004 100 11265 1.3 82.449 18:47 29.06.2019
5656 Rain 21 1002 100 6437 1.05 85.832 18:24 29.06.2019
5657 Rain 21 1004 94 16093 1.05 85.832 17:38 29.06.2019
5658 Rain 21 1003 100 6437 1.05 85.832 17:19 29.06.2019
5659 Rain 21 1003 100 6000 2.1 30 16:43 29.06.2019
5660 Rain 21 1003 94 6000 2.6 30 16:00 29.06.2019
5661 Rain 21 1005 94 9656 1.05 85.832 15:32 29.06.2019
5662 Rain 21 1003 94 7000 2.1 70 14:55 29.06.2019
5663 Rain 21 1003 94 7000 1.5 40 14:37 29.06.2019
5664 Rain 21 1005 94 12874 1.5 80 14:18 29.06.2019
5665 Rain 21 1003 94 9000 2.1 40 13:41 29.06.2019
5666 Rain 21 1003 94 9000 2.1 40 13:23 29.06.2019
5667 Rain 21 1005 94 16093 2.15 89.174 12:41 29.06.2019
5668 Rain 21 1005 94 16093 1.94 124.963 12:22 29.06.2019
5669 Drizzle 21 1002 94 10000 1.5 30 11:46 29.06.2019
5670 Drizzle 21 1002 94 10000 1.5 30 11:28 29.06.2019
5671 Drizzle 21 1003 88 16093 1.94 124.963 10:52 29.06.2019
5672 Rain 21 1002 94 10000 2.1 40 10:24 29.06.2019
5673 Rain 21 1002 94 10000 2.1 40 09:58 29.06.2019
5674 Rain 22 1002 94 10000 2.6 40 09:22 29.06.2019
5675 Rain 22 1003 88 16093 2.34 114.28 08:36 29.06.2019
5676 Rain 22 1003 88 16093 1.5 20 07:46 29.06.2019
5677 Rain 21 1003 94 4000 1.5 10 07:18 29.06.2019
5678 Rain 21 1003 94 3500 2.1 350 06:41 29.06.2019
5679 Rain 21 1003 94 3500 2.6 10 06:20 29.06.2019
5680 Drizzle 20 1004 100 3500 2.6 20 02:26 29.06.2019
5681 Drizzle 20 1007 93 16093 4.1 80 00:57 29.06.2019
5682 Rain 20 1004 94 10000 5.7 30 23:59 28.06.2019
5683 Rain 20 1004 94 10000 6.2 40 23:23 28.06.2019
5684 Drizzle 20 1005 100 10000 6.7 30 22:53 28.06.2019
5685 Drizzle 20 1005 100 5000 5.1 20 22:27 28.06.2019
5686 Rain 20 1007 100 8047 2.1 80 21:46 28.06.2019
5687 Rain 20 1007 100 8047 2.1 80 21:21 28.06.2019
5688 Rain 20 1004 94 5000 5.1 50 20:46 28.06.2019
5689 Drizzle 21 1004 94 5000 5.1 50 20:25 28.06.2019
5690 Rain 21 1005 100 16093 3.6 80 19:53 28.06.2019
5691 Rain 21 1005 100 16093 3.6 80 19:27 28.06.2019
5692 -273 0 0 0 0 0 18:56 28.06.2019
5693 Rain 21 1004 88 10000 8.2 70 18:38 28.06.2019
5694 Drizzle 21 1004 94 3621 2.1 10 18:20 28.06.2019
5695 Drizzle 22 1005 88 6437 1.5 10 17:29 28.06.2019
5696 Haze 22 1004 94 10000 6.7 80 16:50 28.06.2019
5697 Haze 22 1004 94 10000 6.7 80 16:27 28.06.2019
5698 Haze 22 1004 94 9000 7.7 80 15:48 28.06.2019
5699 Clouds 22 1004 88 10000 6.7 80 15:23 28.06.2019
5700 Clouds 23 1004 94 10000 8.2 70 14:56 28.06.2019
5701 Clouds 23 1005 94 16093 3.1 60 14:37 28.06.2019
5702 Rain 24 1005 88 9656 4.1 80 14:18 28.06.2019
5703 Rain 24 1004 88 16093 4.6 10 13:42 28.06.2019
5704 Thunderstorm 24 1003 88 16093 5.7 40 13:20 28.06.2019
5705 Thunderstorm 25 1002 83 10000 7.7 80 12:47 28.06.2019
5706 Thunderstorm 28 1003 65 16093 2.6 170 11:56 28.06.2019
5707 Clouds 29 1000 78 10000 5.1 170 11:26 28.06.2019
5708 Clouds 30 999 66 10000 3.1 140 10:46 28.06.2019
5709 Clouds 30 999 66 10000 3.1 140 10:23 28.06.2019
5710 Clouds 30 999 83 10000 4.1 180 09:49 28.06.2019
5711 Clouds 30 999 83 10000 4.1 180 09:30 28.06.2019
5712 Clouds 30 999 78 10000 3.6 190 08:49 28.06.2019
5713 Clouds 30 999 78 10000 3.6 190 08:27 28.06.2019
5714 Rain 30 999 70 10000 6.7 180 07:53 28.06.2019
5715 Rain 30 999 78 10000 4.1 200 07:35 28.06.2019
5716 Clouds 29 999 78 10000 4.6 180 06:33 28.06.2019
5717 Mist 26 998 88 10000 0.5 0 02:26 28.06.2019
5718 Clouds 24 998 100 10000 2.6 20 00:44 28.06.2019
5719 Rain 23 998 94 12874 2.6 300 23:57 27.06.2019
5720 Rain 23 998 100 10000 1 0 23:39 27.06.2019
5721 Rain 23 998 100 10000 1 0 23:20 27.06.2019
5722 Rain 23 999 94 4500 0.5 0 22:41 27.06.2019
5723 Rain 23 999 94 11265 1.82 208.88 22:23 27.06.2019
5724 Rain 23 999 94 11265 1.82 208.88 21:56 27.06.2019
5725 Rain 23 1000 94 12874 1.5 110 21:37 27.06.2019
5726 Rain 23 1000 78 10000 6.7 210 21:19 27.06.2019
5727 Rain 24 1000 78 10000 8.2 210 20:45 27.06.2019
5728 Rain 24 1000 78 10000 8.2 210 20:26 27.06.2019
5729 Rain 25 1001 88 10000 8.2 200 19:46 27.06.2019
5730 Rain 25 1001 88 10000 8.2 200 19:27 27.06.2019
5731 Rain 25 1001 94 10000 9.8 200 18:44 27.06.2019
5732 Rain 25 1001 94 10000 9.8 200 18:26 27.06.2019
5733 Rain 25 1002 94 10000 9.8 200 17:47 27.06.2019
5734 Rain 25 1002 94 10000 9.8 200 17:23 27.06.2019
5735 Rain 25 1002 88 10000 9.8 200 16:55 27.06.2019
5736 Rain 25 1002 94 10000 10.3 200 16:36 27.06.2019
5737 Rain 25 1003 94 12874 4.1 160 16:18 27.06.2019
5738 Rain 25 1003 94 6437 4.1 150 15:44 27.06.2019
5739 Rain 25 1003 94 6437 4.1 150 15:44 27.06.2019
5740 Rain 25 1003 94 10000 8.7 200 15:18 27.06.2019
5741 Rain 25 1004 88 14484 3.6 150 14:43 27.06.2019
5742 Rain 25 1004 88 14484 3.6 150 14:24 27.06.2019
5743 Rain 25 1004 94 10000 9.3 200 13:48 27.06.2019
5744 Rain 25 1004 94 10000 9.3 200 13:30 27.06.2019
5745 Rain 25 1004 94 10000 9.3 200 12:53 27.06.2019
5746 Rain 25 1005 88 16093 4.6 160 12:34 27.06.2019
5747 Rain 25 1005 88 10000 8.7 190 11:57 27.06.2019
5748 Rain 26 1005 83 10000 8.2 200 11:39 27.06.2019
5749 Rain 26 1005 83 10000 8.7 200 11:20 27.06.2019
5750 Rain 26 1005 74 10000 4.6 200 10:44 27.06.2019
5751 Rain 26 1005 74 10000 4.6 200 10:21 27.06.2019
5752 Rain 27 1005 74 10000 8.7 200 09:50 27.06.2019
5753 Rain 27 1005 78 10000 7.2 200 09:22 27.06.2019
5754 Rain 27 1006 74 10000 8.7 190 08:52 27.06.2019
5755 Clouds 27 1005 65 10000 5.7 200 08:31 27.06.2019
5756 Rain 28 1006 65 10000 9.3 200 07:53 27.06.2019
5757 Rain 28 1006 69 10000 6.7 210 07:29 27.06.2019
5758 Rain 28 1006 69 10000 5.7 220 06:51 27.06.2019
5759 Rain 28 1008 78 10000 5.1 190 04:27 27.06.2019
5760 Clouds 27 1009 88 10000 4.6 170 02:44 27.06.2019
5761 Clouds 27 1009 69 10000 6.2 180 01:48 27.06.2019
5762 Clouds 26 1010 69 10000 8.2 210 00:57 27.06.2019
5763 Clouds 25 1010 74 10000 5.7 190 00:38 27.06.2019
5764 Clouds 25 1010 78 10000 6.2 190 00:18 27.06.2019
5765 Clouds 24 1010 78 10000 4.6 200 23:40 26.06.2019
5766 Clouds 24 1010 94 10000 2.6 160 23:20 26.06.2019
5767 Clouds 23 1010 83 10000 5.7 210 22:43 26.06.2019
5768 Clouds 23 1010 83 10000 5.7 210 22:25 26.06.2019
5769 Clouds 23 1011 78 10000 5.7 210 21:56 26.06.2019
5770 Clouds 23 1011 78 10000 5.7 210 21:37 26.06.2019
5771 Clouds 22 1011 78 10000 5.7 210 21:19 26.06.2019
5772 Clouds 23 1011 78 10000 5.7 200 20:44 26.06.2019
5773 Clouds 23 1011 78 10000 5.7 200 20:26 26.06.2019
5774 Clouds 23 1011 78 10000 5.7 200 19:49 26.06.2019
5775 Clouds 23 1011 78 10000 5.7 200 19:31 26.06.2019
5776 Clouds 23 1011 78 10000 5.7 200 18:55 26.06.2019
5777 Clouds 23 1011 78 10000 7.2 200 18:37 26.06.2019
5778 Clear 23 1011 94 10000 3.1 170 18:19 26.06.2019
5779 Clouds 23 1012 73 10000 6.7 200 17:43 26.06.2019
5780 Clouds 24 1012 73 10000 6.7 200 17:23 26.06.2019
5781 Clouds 23 1012 83 10000 6.7 200 16:51 26.06.2019
5782 Clouds 24 1012 83 10000 7.2 210 16:28 26.06.2019
5783 Clouds 24 1013 94 10000 3.1 170 15:51 26.06.2019
5784 Clouds 24 1012 78 10000 8.2 200 15:28 26.06.2019
5785 Clouds 24 1013 73 10000 8.7 200 14:42 26.06.2019
5786 Clouds 24 1013 73 10000 8.7 200 14:21 26.06.2019
5787 Clouds 24 1013 78 10000 7.7 190 13:46 26.06.2019
5788 Clouds 24 1013 78 10000 7.7 190 13:21 26.06.2019
5789 Clouds 24 1013 78 10000 7.7 190 13:21 26.06.2019
5790 Clouds 25 1012 78 10000 9.3 200 12:54 26.06.2019
5791 Clouds 25 1012 78 10000 9.3 200 12:54 26.06.2019
5792 Clouds 25 1012 78 10000 8.2 200 12:36 26.06.2019
5793 Clouds 25 1012 73 10000 8.7 180 12:18 26.06.2019
5794 Clouds 26 1012 69 10000 8.2 190 11:25 26.06.2019
5795 Clouds 27 1012 74 10000 9.3 190 10:51 26.06.2019
5796 Clouds 27 1012 57 10000 6.2 170 10:31 26.06.2019
5797 Clouds 27 1012 69 10000 9.3 180 09:59 26.06.2019
5798 Clouds 27 1012 83 10000 5.7 180 09:30 26.06.2019
5799 Clouds 28 1013 78 10000 9.3 180 08:57 26.06.2019
5800 Clouds 28 1013 78 10000 6.2 180 08:23 26.06.2019
5801 Clouds 28 1014 69 10000 9.3 180 07:59 26.06.2019
5802 Clouds 28 1013 69 10000 6.7 180 07:40 26.06.2019
5803 Clouds 28 1014 69 10000 5.7 180 06:33 26.06.2019
5804 Clouds 26 1016 83 10000 3.6 150 02:18 26.06.2019
5805 Clouds 23 1017 78 10000 1.5 0 00:41 26.06.2019
5806 Clouds 22 1017 88 10000 1.5 250 23:58 25.06.2019
5807 Mist 22 1017 94 10000 3.6 190 23:39 25.06.2019
5808 Mist 22 1017 94 10000 3.6 190 23:20 25.06.2019
5809 Fog 21 1017 94 10000 2.1 180 22:42 25.06.2019
5810 Fog 20 1017 94 10000 2.1 180 22:23 25.06.2019
5811 Fog 20 1017 100 6000 0.5 160 21:47 25.06.2019
5812 Fog 20 1017 94 10000 3.1 200 21:27 25.06.2019
5813 Fog 20 1017 94 10000 3.1 190 20:59 25.06.2019
5814 Fog 20 1016 88 10000 3.1 180 20:37 25.06.2019
5815 Fog 20 1017 88 10000 3.1 170 20:18 25.06.2019
5816 Clouds 21 1019 88 16093 1.54 173.401 19:44 25.06.2019
5817 Clouds 21 1019 88 16093 1.54 173.401 19:22 25.06.2019
5818 Clouds 21 1019 88 16093 1.5 270 18:43 25.06.2019
5819 Clouds 21 1019 88 16093 1.5 270 18:24 25.06.2019
5820 Clouds 21 1018 88 10000 4.6 170 17:46 25.06.2019
5821 Clouds 21 1018 88 10000 4.6 170 17:27 25.06.2019
5822 Clouds 21 1018 88 10000 4.6 170 17:27 25.06.2019
5823 Clouds 21 1018 88 10000 4.6 170 17:27 25.06.2019
5824 Clouds 21 1018 88 10000 4.6 170 16:55 25.06.2019
5825 Clouds 21 1018 88 10000 4.6 170 16:55 25.06.2019
5826 Clouds 21 1018 88 10000 4.1 170 16:37 25.06.2019
5827 Clouds 21 1018 88 10000 4.1 170 16:18 25.06.2019
5828 Clouds 22 1018 83 10000 4.1 160 15:39 25.06.2019
5829 Clouds 22 1018 83 10000 4.1 160 15:20 25.06.2019
5830 Clouds 22 1018 83 10000 4.6 170 14:50 25.06.2019
5831 Clouds 22 1018 83 10000 4.6 170 14:31 25.06.2019
5832 Clouds 22 1017 78 10000 4.6 180 13:43 25.06.2019
5833 Clouds 22 1017 78 10000 4.6 180 13:24 25.06.2019
5834 Clouds 23 1017 73 10000 5.7 200 12:43 25.06.2019
5835 Clouds 23 1017 73 10000 5.7 200 12:24 25.06.2019
5836 Clouds 24 1016 69 10000 6.2 200 11:47 25.06.2019
5837 Clouds 24 1016 69 10000 6.2 200 11:25 25.06.2019
5838 -273 0 0 0 0 0 10:59 25.06.2019
5839 Clouds 25 1017 69 10000 6.7 200 10:58 25.06.2019
5840 Clouds 25 1016 61 10000 4.6 200 10:37 25.06.2019
5841 Clouds 25 1016 61 10000 4.6 200 10:37 25.06.2019
5842 Clouds 26 1016 61 10000 4.6 200 10:19 25.06.2019
5843 Clouds 26 1016 78 10000 3.6 160 09:39 25.06.2019
5844 Clouds 26 1016 78 10000 3.6 160 09:21 25.06.2019
5845 Clouds 27 1016 69 10000 4.1 160 08:59 25.06.2019
5846 Clouds 27 1016 69 10000 4.1 150 08:31 25.06.2019
5847 Clouds 27 1017 69 10000 3.6 150 07:51 25.06.2019
5848 Clouds 27 1016 69 10000 4.1 150 07:31 25.06.2019
5849 Clouds 26 1016 69 10000 4.1 140 06:49 25.06.2019
5850 Clouds 26 1016 69 10000 4.1 140 06:24 25.06.2019
5851 Mist 23 1017 83 10000 3.1 130 02:44 25.06.2019
5852 Clouds 21 1017 88 10000 4.1 50 01:19 25.06.2019
5853 Clouds 20 1017 88 10000 3.1 80 00:28 25.06.2019
5854 Clouds 20 1018 88 10000 3.6 100 23:53 24.06.2019
5855 Clouds 19 1017 88 10000 3.1 100 23:33 24.06.2019
5856 Clouds 19 1019 93 16093 1.98 150.678 22:56 24.06.2019
5857 Mist 19 1016 93 8000 4.1 130 22:37 24.06.2019
5858 Fog 19 1016 100 8000 1.5 170 22:18 24.06.2019
5859 Fog 18 1016 88 8000 3.1 120 21:38 24.06.2019
5860 Fog 19 1016 100 10000 1 0 21:18 24.06.2019
5861 Fog 19 1016 93 9000 2.6 120 20:54 24.06.2019
5862 Fog 19 1017 93 16093 2.1 350 20:36 24.06.2019
5863 Clouds 19 1015 88 10000 1.5 130 20:18 24.06.2019
5864 Clouds 19 1015 93 14484 2.01 139.695 19:41 24.06.2019
5865 Clouds 19 1017 88 16093 2.01 139.695 19:21 24.06.2019
5866 Mist 19 1016 93 16093 1.5 320 18:43 24.06.2019
5867 Mist 19 1016 93 16093 1.5 320 18:24 24.06.2019
5868 Clouds 19 1016 93 16093 1.5 300 17:38 24.06.2019
5869 Clouds 19 1016 93 16093 1.5 300 17:19 24.06.2019
5870 Clouds 19 1014 88 10000 3.6 90 16:45 24.06.2019
5871 Clouds 19 1014 88 10000 3.6 90 16:20 24.06.2019
5872 Clouds 20 1014 88 10000 4.1 80 15:46 24.06.2019
5873 Clouds 20 1014 88 10000 4.1 80 15:27 24.06.2019
5874 Rain 20 1014 88 10000 3.6 160 14:42 24.06.2019
5875 Rain 20 1014 88 10000 3.6 160 14:24 24.06.2019
5876 Rain 20 1013 88 10000 3.1 100 13:45 24.06.2019
5877 Rain 20 1013 88 10000 3.1 100 13:23 24.06.2019
5878 Thunderstorm 20 1012 83 10000 3.6 80 12:42 24.06.2019
5879 Thunderstorm 21 1012 83 10000 3.6 80 12:21 24.06.2019
5880 Clouds 21 1012 83 10000 3.1 70 11:46 24.06.2019
5881 Clouds 21 1012 83 10000 3.1 70 11:27 24.06.2019
5882 Clouds 21 1011 83 10000 4.6 70 10:55 24.06.2019
5883 Clouds 22 1013 77 16093 2.6 40 10:34 24.06.2019
5884 Rain 22 1013 77 16093 2.1 50 09:59 24.06.2019
5885 Rain 21 1010 83 10000 4.6 50 09:41 24.06.2019
5886 Rain 21 1010 88 10000 4.6 30 09:19 24.06.2019
5887 Rain 21 1011 88 10000 4.6 40 08:50 24.06.2019
5888 Rain 21 1011 88 10000 4.6 40 08:18 24.06.2019
5889 Rain 20 1010 88 10000 2.1 360 07:41 24.06.2019
5890 Rain 20 1010 88 10000 2.1 360 07:22 24.06.2019
5891 Rain 20 1009 83 10000 4.1 10 06:24 24.06.2019
5892 Rain 20 1012 93 9656 4.6 360 05:45 24.06.2019
5893 Rain 19 1010 93 4500 3.6 360 04:46 24.06.2019
5894 Rain 19 1009 100 3000 4.6 20 03:49 24.06.2019
5895 Rain 19 1009 93 2500 5.1 30 02:48 24.06.2019
5896 Rain 19 1008 93 3500 6.2 40 01:55 24.06.2019
5897 Rain 19 1009 93 5000 5.1 50 01:34 24.06.2019
5898 Rain 19 1009 93 4828 4.1 350 00:55 24.06.2019
5899 Rain 19 1009 93 4900 5.7 50 00:23 24.06.2019
5900 Rain 19 1009 93 4828 3.1 360 23:58 23.06.2019
5901 Rain 19 1008 93 8000 8.2 40 23:40 23.06.2019
5902 Rain 19 1007 100 8000 8.2 30 23:20 23.06.2019
5903 Rain 19 1008 100 9000 7.7 30 22:41 23.06.2019
5904 Rain 19 1008 100 5000 5.1 30 22:20 23.06.2019
5905 Rain 19 1008 93 4426 2.1 10 21:42 23.06.2019
5906 Rain 19 1008 93 4426 2.1 10 21:22 23.06.2019
5907 Rain 19 1009 100 8047 3.1 70 20:52 23.06.2019
5908 Rain 19 1009 100 8047 3.1 70 20:52 23.06.2019
5909 Rain 19 1010 100 8047 3.6 80 20:32 23.06.2019
5910 Rain 19 1008 93 4828 2.1 40 19:57 23.06.2019
5911 Rain 20 1007 94 8000 5.7 70 19:39 23.06.2019
5912 Rain 20 1007 94 8000 5.7 70 19:19 23.06.2019
5913 Rain 20 1009 93 16093 2.6 80 18:44 23.06.2019
5914 Rain 20 1007 88 12874 1.5 50 18:20 23.06.2019
5915 Rain 20 1008 88 10000 4.1 60 17:44 23.06.2019
5916 Rain 20 1008 88 10000 4.1 60 17:24 23.06.2019
5917 Clouds 20 1010 93 11265 1.5 60 16:46 23.06.2019
5918 Clouds 20 1010 93 11265 1.5 60 16:25 23.06.2019
5919 Clouds 21 1008 88 10000 4.6 60 15:55 23.06.2019
5920 Clouds 21 1010 93 11265 4.29 84.382 15:37 23.06.2019
5921 Rain 21 1008 88 10000 4.1 60 15:18 23.06.2019
5922 Rain 21 1008 83 10000 4.1 40 14:38 23.06.2019
5923 Rain 21 1008 83 10000 4.1 40 14:20 23.06.2019
5924 Rain 21 1009 88 16093 4.55 97.105 13:46 23.06.2019
5925 Rain 21 1009 88 16093 3.75 105.606 13:21 23.06.2019
5926 Rain 21 1006 83 10000 3.6 60 12:59 23.06.2019
5927 Rain 21 1006 83 10000 4.1 60 12:41 23.06.2019
5928 Drizzle 21 1006 83 10000 4.1 60 12:19 23.06.2019
5929 Rain 21 1005 83 10000 5.1 60 11:47 23.06.2019
5930 Rain 22 1005 83 10000 5.1 60 11:27 23.06.2019
5931 Rain 22 1007 88 12874 4.28 123.222 10:50 23.06.2019
5932 Rain 22 1007 88 2213 3.6 90 10:21 23.06.2019
5933 Clouds 22 1005 83 10000 7.2 90 09:58 23.06.2019
5934 Rain 23 1004 83 10000 5.1 80 09:24 23.06.2019
5935 Rain 22 1005 88 10000 5.1 80 08:54 23.06.2019
5936 Rain 22 1005 88 10000 5.1 80 08:54 23.06.2019
5937 Rain 22 1004 78 10000 5.7 80 08:36 23.06.2019
5938 Rain 23 1005 83 10000 5.1 80 08:18 23.06.2019
5939 Drizzle 23 1004 83 10000 5.1 110 07:44 23.06.2019
5940 Rain 23 1004 88 10000 2.1 100 07:18 23.06.2019
5941 Rain 23 1005 88 10000 3.6 40 06:52 23.06.2019
5942 Rain 23 1005 83 10000 1.5 150 05:44 23.06.2019
5943 Rain 22 1005 88 10000 1 0 02:52 23.06.2019
5944 Clouds 22 1005 83 10000 1 40 01:39 23.06.2019
5945 Clouds 22 1005 83 10000 1 40 01:20 23.06.2019
5946 Clouds 21 1006 83 10000 1 120 00:31 23.06.2019
5947 Clouds 21 1005 83 10000 1.5 10 23:47 22.06.2019
5948 Clouds 21 1005 83 10000 1.5 10 23:26 22.06.2019
5949 Clouds 20 1005 88 10000 2.6 320 22:47 22.06.2019
5950 Clouds 20 1005 88 10000 2.6 320 22:27 22.06.2019
5951 Clouds 20 1004 88 10000 2.1 330 21:56 22.06.2019
5952 Clouds 20 1004 88 10000 2.1 290 21:36 22.06.2019
5953 Clouds 20 1004 83 10000 2.1 290 21:18 22.06.2019
5954 Clouds 20 1003 83 10000 2.6 320 20:43 22.06.2019
5955 Clouds 21 1003 83 10000 2.6 320 20:24 22.06.2019
5956 Clouds 21 1003 83 10000 3.6 330 19:41 22.06.2019
5957 Clouds 21 1003 83 10000 3.6 330 19:20 22.06.2019
5958 Rain 21 1002 83 10000 5.1 340 18:43 22.06.2019
5959 Rain 21 1002 83 10000 5.1 340 18:23 22.06.2019
5960 Clouds 21 1003 88 10000 4.6 330 17:46 22.06.2019
5961 Clouds 21 1003 88 10000 4.6 330 17:25 22.06.2019
5962 Clouds 21 1003 88 10000 5.1 340 16:44 22.06.2019
5963 Clouds 21 1003 88 10000 5.1 340 16:24 22.06.2019
5964 Clouds 21 1003 88 10000 5.1 340 15:45 22.06.2019
5965 Mist 21 1003 88 10000 5.1 340 15:27 22.06.2019
5966 Mist 21 1003 88 10000 5.7 10 14:52 22.06.2019
5967 Rain 21 1003 88 10000 7.2 10 14:32 22.06.2019
5968 Rain 21 1006 93 16093 3.6 330 13:58 22.06.2019
5969 Rain 21 1002 83 10000 6.2 360 13:39 22.06.2019
5970 Rain 21 1005 94 16093 4.6 360 13:19 22.06.2019
5971 Rain 21 1002 88 10000 7.2 10 12:43 22.06.2019
5972 Mist 21 1002 88 10000 7.2 10 12:20 22.06.2019
5973 Rain 22 1001 88 10000 6.2 30 11:45 22.06.2019
5974 Rain 21 1001 88 10000 6.2 30 11:27 22.06.2019
5975 Rain 22 1002 94 5000 4.6 350 10:23 22.06.2019
5976 Rain 22 1004 94 11265 5.1 340 09:58 22.06.2019
5977 Rain 22 1003 83 3000 2.1 330 09:36 22.06.2019
5978 Rain 23 1002 88 11265 2.6 280 08:50 22.06.2019
5979 Rain 22 1002 88 10000 3.6 120 08:31 22.06.2019
5980 Rain 22 1003 100 5000 1 0 07:52 22.06.2019
5981 Rain 22 1003 94 4000 1.5 0 07:29 22.06.2019
5982 Rain 22 1004 88 5000 3.1 20 06:44 22.06.2019
5983 Rain 24 1005 94 4000 5.7 130 04:37 22.06.2019
5984 Rain 25 1005 78 10000 5.7 110 02:26 22.06.2019
5985 Clouds 24 1008 83 16093 2.6 160 00:57 22.06.2019
5986 Clouds 23 1008 83 16093 2.6 170 00:31 22.06.2019
5987 Clouds 22 1008 83 16093 3.7 157.653 23:50 21.06.2019
5988 Clouds 22 1007 88 14484 3.7 157.653 23:24 21.06.2019
5989 Clouds 22 1009 88 16093 3.7 157.653 22:58 21.06.2019
5990 -273 0 0 0 0 0 22:58 21.06.2019
5991 Clouds 22 1009 88 16093 3.7 157.653 22:58 21.06.2019
5992 Clouds 22 1009 88 16093 3.7 157.653 22:39 21.06.2019
5993 Clouds 22 1009 88 16093 3.7 157.653 22:20 21.06.2019
5994 Clouds 22 1009 88 16093 2.6 170 21:40 21.06.2019
5995 Clouds 22 1009 88 16093 2.6 170 21:21 21.06.2019
5996 Clouds 22 1009 88 16093 3.1 150 20:48 21.06.2019
5997 Clouds 21 1007 94 10000 3.6 150 20:26 21.06.2019
5998 Clouds 22 1008 88 10000 3.1 140 19:54 21.06.2019
5999 Clouds 22 1008 88 10000 4.1 140 19:22 21.06.2019
6000 Clouds 22 1008 88 10000 3.6 140 18:43 21.06.2019
6001 Clouds 22 1008 88 10000 3.6 140 18:24 21.06.2019
6002 Clouds 22 1008 88 10000 5.1 150 17:36 21.06.2019
6003 Clouds 23 1010 83 16093 5.7 180 16:59 21.06.2019
6004 Clouds 23 1009 83 10000 5.7 150 16:37 21.06.2019
6005 Clouds 23 1009 83 10000 5.7 150 16:19 21.06.2019
6006 Clouds 23 1009 83 10000 6.7 160 15:39 21.06.2019
6007 Clouds 23 1009 83 10000 5.7 160 15:18 21.06.2019
6008 Clouds 23 1009 83 10000 5.1 150 14:44 21.06.2019
6009 Clouds 23 1009 83 10000 5.1 150 14:24 21.06.2019
6010 Clouds 24 1008 78 10000 7.2 170 13:42 21.06.2019
6011 Clouds 24 1008 78 10000 7.2 170 13:23 21.06.2019
6012 Clouds 24 1008 83 10000 7.2 180 12:54 21.06.2019
6013 Clouds 24 1008 83 10000 7.2 180 12:23 21.06.2019
6014 Clouds 24 1008 83 10000 7.2 180 11:58 21.06.2019
6015 Clouds 24 1008 83 10000 8.2 190 11:40 21.06.2019
6016 Clouds 25 1008 83 10000 8.2 190 11:22 21.06.2019
6017 Clouds 24 1008 83 10000 8.2 190 11:22 21.06.2019
6018 Rain 25 1007 69 10000 5.1 180 10:44 21.06.2019
6019 Rain 25 1007 69 10000 5.1 180 10:44 21.06.2019
6020 Rain 25 1007 69 10000 5.1 180 10:21 21.06.2019
6021 Rain 26 1008 74 10000 10.3 190 09:55 21.06.2019
6022 Rain 26 1008 74 10000 7.7 200 09:36 21.06.2019
6023 Thunderstorm 27 1008 74 10000 9.8 190 09:18 21.06.2019
6024 Thunderstorm 27 1008 69 10000 10.3 190 08:41 21.06.2019
6025 Thunderstorm 27 1008 78 10000 6.7 150 08:20 21.06.2019
6026 Rain 28 1008 61 10000 7.2 200 07:46 21.06.2019
6027 Rain 27 1008 61 10000 7.2 200 07:22 21.06.2019
6028 Rain 27 1008 69 10000 5.1 190 06:38 21.06.2019
6029 Rain 28 1009 61 10000 8.2 180 06:18 21.06.2019
6030 Rain 27 1011 65 16093 3.03 143.622 04:53 21.06.2019
6031 Mist 27 1009 69 10000 6.7 180 03:49 21.06.2019
6032 Mist 26 1009 83 10000 3.6 170 03:30 21.06.2019
6033 Mist 26 1009 83 6000 4.6 140 02:44 21.06.2019
6034 Mist 24 1009 83 10000 3.6 180 01:33 21.06.2019
6035 Rain 23 1010 88 10000 3.1 140 00:48 21.06.2019
6036 Rain 22 1009 94 10000 3.1 150 23:59 20.06.2019
6037 Rain 22 1011 94 3219 4.1 10 23:41 20.06.2019
6038 Rain 22 1011 94 3219 4.1 10 23:21 20.06.2019
6039 Mist 22 1009 94 10000 1.5 100 22:46 20.06.2019
6040 Mist 22 1009 94 10000 1.5 100 22:24 20.06.2019
6041 Mist 22 1009 94 10000 2.1 100 21:57 20.06.2019
6042 Mist 22 1008 94 10000 2.1 130 21:38 20.06.2019
6043 Fog 22 1008 88 10000 2.6 150 21:19 20.06.2019
6044 Mist 22 1008 88 10000 4.1 170 20:46 20.06.2019
6045 Mist 22 1008 88 10000 4.1 170 20:25 20.06.2019
6046 Mist 22 1008 88 10000 3.6 160 19:55 20.06.2019
6047 Mist 22 1010 88 14484 2.6 180 19:36 20.06.2019
6048 Mist 22 1008 88 10000 4.6 170 19:18 20.06.2019
6049 Clouds 23 1010 88 16093 3.6 180 18:42 20.06.2019
6050 Mist 22 1010 88 16093 3.6 180 18:23 20.06.2019
6051 Clouds 23 1008 88 16093 2.1 120 17:49 20.06.2019
6052 Mist 22 1008 88 16093 2.1 120 17:31 20.06.2019
6053 Clouds 23 1010 83 16093 3.6 190 16:48 20.06.2019
6054 Clouds 23 1010 83 16093 3.6 190 16:20 20.06.2019
6055 Clouds 23 1008 94 10000 3.6 130 15:59 20.06.2019
6056 Clouds 23 1008 88 10000 4.6 160 15:40 20.06.2019
6057 Clouds 23 1008 88 10000 4.6 160 15:22 20.06.2019
6058 Clouds 23 1010 83 16093 4.6 190 14:46 20.06.2019
6059 Clouds 23 1010 83 16093 4.6 190 14:23 20.06.2019
6060 Clouds 23 1007 78 10000 5.7 200 13:41 20.06.2019
6061 Clouds 24 1007 78 10000 5.7 200 13:20 20.06.2019
6062 Clouds 24 1006 73 10000 6.7 200 12:49 20.06.2019
6063 Clouds 24 1006 73 10000 6.7 200 12:24 20.06.2019
6064 Clouds 24 1006 73 10000 6.7 190 11:55 20.06.2019
6065 Clouds 25 1006 69 10000 6.2 190 11:37 20.06.2019
6066 Clouds 25 1006 69 10000 6.2 190 11:18 20.06.2019
6067 Rain 26 1005 65 6000 3.6 190 10:41 20.06.2019
6068 Rain 26 1005 65 6000 3.6 190 10:21 20.06.2019
6069 Clouds 27 1004 74 8000 4.1 140 09:40 20.06.2019
6070 Clouds 27 1004 74 8000 4.1 140 09:22 20.06.2019
6071 Clouds 28 1004 74 8000 4.6 130 08:46 20.06.2019
6072 Clouds 28 1004 74 8000 4.6 130 08:27 20.06.2019
6073 Clouds 28 1005 69 10000 2.1 90 07:54 20.06.2019
6074 Clouds 28 1004 65 8000 3.1 150 07:30 20.06.2019
6075 Clouds 27 1005 65 8000 4.1 130 06:38 20.06.2019
6076 Clouds 27 1005 78 10000 3.6 80 05:54 20.06.2019
6077 Clouds 25 1006 78 6000 3.6 70 03:37 20.06.2019
6078 Mist 22 1005 88 10000 4.6 20 00:34 20.06.2019
6079 Mist 22 1007 77 16093 3.1 50 23:59 19.06.2019
6080 Clouds 21 1005 94 8000 3.6 10 23:41 19.06.2019
6081 Clouds 21 1005 94 8000 3.6 10 23:23 19.06.2019
6082 Mist 21 1004 94 8000 4.1 30 22:48 19.06.2019
6083 Mist 21 1007 82 16093 2.6 20 22:20 19.06.2019
6084 Mist 21 1004 94 8000 5.7 50 21:54 19.06.2019
6085 Mist 21 1004 94 7000 2.6 40 21:36 19.06.2019
6086 Mist 21 1004 94 10000 4.1 60 21:18 19.06.2019
6087 Mist 21 1004 88 10000 1 0 20:39 19.06.2019
6088 Mist 21 1004 88 10000 1 0 20:20 19.06.2019
6089 Mist 21 1006 88 16093 4.6 20 19:42 19.06.2019
6090 Mist 21 1006 88 16093 4.6 20 19:21 19.06.2019
6091 Mist 22 1004 83 10000 3.6 180 18:51 19.06.2019
6092 Clouds 22 1004 83 10000 5.1 180 18:21 19.06.2019
6093 Clouds 22 1004 88 10000 5.7 180 17:41 19.06.2019
6094 Clouds 22 1004 88 10000 5.7 180 17:23 19.06.2019
6095 Clouds 23 1005 88 10000 5.7 170 16:43 19.06.2019
6096 Clouds 23 1005 88 10000 5.7 170 16:22 19.06.2019
6097 -273 0 0 0 0 0 15:58 19.06.2019
6098 Clouds 23 1005 88 10000 6.2 170 15:31 19.06.2019
6099 Clouds 23 1005 88 10000 6.2 170 14:59 19.06.2019
6100 Clouds 23 1005 83 10000 7.2 180 14:41 19.06.2019
6101 Clouds 23 1005 83 10000 7.2 180 14:21 19.06.2019
6102 Clouds 24 1004 78 10000 6.7 180 13:43 19.06.2019
6103 Clouds 24 1004 78 10000 6.7 180 13:25 19.06.2019
6104 Clouds 24 1004 78 10000 7.7 180 12:47 19.06.2019
6105 Clouds 24 1004 78 10000 7.7 180 12:22 19.06.2019
6106 -273 0 0 0 0 0 11:57 19.06.2019
6107 Clouds 25 1004 83 10000 8.2 180 11:38 19.06.2019
6108 Clouds 25 1004 78 10000 8.2 180 11:20 19.06.2019
6109 Clouds 26 1003 65 10000 5.1 170 10:45 19.06.2019
6110 Clouds 26 1003 65 10000 5.1 170 10:27 19.06.2019
6111 Clouds 27 1004 78 10000 6.7 180 09:50 19.06.2019
6112 Clouds 27 1004 78 10000 6.7 180 09:23 19.06.2019
6113 Clouds 27 1004 69 10000 9.3 180 08:55 19.06.2019
6114 Clouds 28 1004 73 10000 4.6 190 08:37 19.06.2019
6115 Clouds 28 1004 73 10000 4.6 190 08:19 19.06.2019
6116 Clouds 28 1005 69 10000 6.2 180 07:42 19.06.2019
6117 Clouds 28 1005 57 10000 8.2 180 07:21 19.06.2019
6118 Clouds 28 1005 65 10000 5.1 170 06:36 19.06.2019
6119 Clouds 27 1006 54 10000 7.2 180 05:58 19.06.2019
6120 Clouds 27 1006 74 10000 5.7 150 05:20 19.06.2019
6121 Clouds 26 1007 73 10000 4.6 150 03:53 19.06.2019
6122 Clouds 25 1008 78 10000 3.6 150 02:35 19.06.2019
6123 Clouds 24 1008 78 10000 1.5 50 01:37 19.06.2019
6124 Clouds 23 1008 73 10000 1 0 00:54 19.06.2019
6125 Clouds 23 1009 78 10000 3.1 280 00:36 19.06.2019
6126 Fog 22 1009 78 10000 3.1 270 23:58 18.06.2019
6127 Fog 21 1009 83 10000 3.1 270 23:37 18.06.2019
6128 Fog 21 1009 83 10000 3.1 270 23:19 18.06.2019
6129 Clouds 20 1011 88 16093 2.6 10 22:41 18.06.2019
6130 Clouds 20 1011 88 16093 2.6 10 22:21 18.06.2019
6131 Clouds 20 1010 88 10000 2.1 340 21:44 18.06.2019
6132 Clouds 20 1010 88 10000 2.1 340 21:22 18.06.2019
6133 Clouds 20 1011 88 16093 3.6 10 20:59 18.06.2019
6134 Clouds 20 1009 77 10000 3.6 260 20:40 18.06.2019
6135 Clouds 20 1009 77 10000 3.6 260 20:21 18.06.2019
6136 Clouds 20 1008 73 10000 4.6 200 19:39 18.06.2019
6137 Clouds 20 1009 93 10000 2.1 190 19:21 18.06.2019
6138 Clouds 20 1009 78 10000 4.1 200 18:51 18.06.2019
6139 Clouds 20 1009 78 10000 5.1 200 18:25 18.06.2019
6140 Clouds 21 1009 78 10000 5.7 180 17:48 18.06.2019
6141 Clouds 21 1009 78 10000 5.7 180 17:22 18.06.2019
6142 Clouds 21 1010 78 10000 5.1 180 16:58 18.06.2019
6143 Clouds 21 1010 72 10000 0.5 0 16:40 18.06.2019
6144 Clouds 22 1010 83 10000 5.7 190 16:21 18.06.2019
6145 Clouds 22 1010 83 10000 5.7 180 15:41 18.06.2019
6146 Clouds 22 1010 83 10000 5.7 180 15:23 18.06.2019
6147 Clouds 22 1010 78 10000 6.2 190 14:56 18.06.2019
6148 Clouds 22 1010 88 10000 6.7 190 14:37 18.06.2019
6149 Clouds 22 1010 88 10000 6.7 190 14:19 18.06.2019
6150 Clouds 23 1009 78 10000 6.7 190 13:50 18.06.2019
6151 Clouds 23 1009 78 10000 6.7 190 13:30 18.06.2019
6152 Clouds 23 1009 73 10000 6.7 190 12:46 18.06.2019
6153 Clouds 23 1009 73 10000 6.7 190 12:28 18.06.2019
6154 Clouds 24 1010 69 10000 6.7 190 11:54 18.06.2019
6155 Clouds 24 1010 69 10000 6.7 190 11:36 18.06.2019
6156 Clouds 24 1010 65 10000 7.2 200 11:18 18.06.2019
6157 Clouds 25 1009 61 10000 5.1 170 10:41 18.06.2019
6158 Clouds 25 1009 61 10000 5.1 170 10:21 18.06.2019
6159 Clouds 25 1010 61 10000 6.7 200 09:51 18.06.2019
6160 Clouds 26 1009 69 10000 4.6 180 09:25 18.06.2019
6161 Clouds 26 1010 61 10000 6.7 190 08:56 18.06.2019
6162 Clouds 26 1010 69 10000 4.6 150 08:38 18.06.2019
6163 Clouds 26 1010 69 10000 4.6 150 08:20 18.06.2019
6164 Clouds 27 1010 61 10000 4.1 160 07:26 18.06.2019
6165 Clouds 27 1010 61 10000 4.1 160 06:55 18.06.2019
6166 Clouds 27 1011 44 10000 3.1 150 05:27 18.06.2019
6167 Haze 26 1013 73 10000 3.6 80 04:22 18.06.2019
6168 Clouds 25 1015 57 11265 2.6 170 02:49 18.06.2019
6169 Clouds 24 1013 78 10000 2.6 60 01:28 18.06.2019
6170 Clouds 23 1016 64 11265 1.8 145.204 00:58 18.06.2019
6171 Clouds 23 1013 78 10000 1.5 60 00:39 18.06.2019
6172 Clouds 22 1014 83 10000 2.1 90 00:21 18.06.2019
6173 Clouds 21 1013 77 10000 2.6 100 23:38 17.06.2019
6174 Clouds 21 1014 83 10000 2.1 100 23:19 17.06.2019
6175 Clouds 20 1014 83 10000 2.6 110 22:41 17.06.2019
6176 Haze 20 1014 83 10000 2.6 100 22:21 17.06.2019
6177 Haze 20 1014 83 10000 2.6 100 21:55 17.06.2019
6178 Haze 20 1013 83 10000 2.6 110 21:36 17.06.2019
6179 Haze 20 1015 68 8047 0.78 177.277 21:18 17.06.2019
6180 Clear 20 1013 83 10000 4.1 120 20:36 17.06.2019
6181 Haze 20 1013 83 10000 3.6 120 20:18 17.06.2019
6182 Haze 20 1015 63 4828 2.41 144.725 19:41 17.06.2019
6183 Haze 20 1013 77 10000 3.1 110 19:21 17.06.2019
6184 Haze 20 1013 77 10000 3.1 110 18:57 17.06.2019
6185 Haze 20 1015 68 4426 1.5 20 18:36 17.06.2019
6186 Haze 21 1015 72 6437 1.5 30 18:18 17.06.2019
6187 Haze 21 1015 72 6437 1.5 30 17:42 17.06.2019
6188 Clouds 21 1013 77 10000 2.1 130 17:24 17.06.2019
6189 Clouds 21 1013 83 10000 2.1 130 16:46 17.06.2019
6190 Clouds 21 1013 83 10000 2.1 130 16:28 17.06.2019
6191 Clouds 21 1013 77 10000 2.6 140 15:56 17.06.2019
6192 Clouds 22 1013 78 10000 2.6 130 15:38 17.06.2019
6193 Clouds 22 1013 60 10000 3.6 180 15:18 17.06.2019
6194 Clouds 22 1012 60 10000 4.1 180 14:48 17.06.2019
6195 Clouds 22 1012 60 10000 4.1 180 14:30 17.06.2019
6196 Clouds 23 1012 57 10000 6.7 190 13:50 17.06.2019
6197 Clouds 24 1011 64 10000 7.7 200 13:24 17.06.2019
6198 Clouds 24 1010 61 10000 7.7 200 12:52 17.06.2019
6199 Clouds 24 1010 61 10000 7.7 200 12:31 17.06.2019
6200 Clouds 25 1009 50 10000 6.7 200 11:49 17.06.2019
6201 Clouds 26 1009 44 10000 5.7 180 11:26 17.06.2019
6202 Clouds 26 1009 44 10000 5.7 180 10:59 17.06.2019
6203 Clouds 27 1009 44 10000 1 0 10:41 17.06.2019
6204 Clouds 27 1008 36 10000 2.6 360 10:22 17.06.2019
6205 Clouds 27 1008 36 10000 2.6 40 09:55 17.06.2019
6206 Clouds 27 1008 36 10000 2.6 40 09:30 17.06.2019
6207 Clouds 28 1008 34 10000 3.6 330 08:43 17.06.2019
6208 Clouds 28 1008 41 10000 4.1 360 08:23 17.06.2019
6209 Clouds 28 1008 37 10000 5.1 10 07:47 17.06.2019
6210 Clouds 28 1008 37 10000 5.1 10 07:28 17.06.2019
6211 Clouds 28 1009 31 10000 2.1 20 06:48 17.06.2019
6212 Clouds 27 1008 44 10000 8.2 350 05:53 17.06.2019
6213 Clouds 26 1008 34 10000 6.2 310 04:52 17.06.2019
6214 Clouds 26 1008 33 10000 7.2 310 03:52 17.06.2019
6215 Clouds 26 1008 34 10000 11.8 300 03:25 17.06.2019
6216 Clouds 25 1008 38 10000 6.2 310 02:42 17.06.2019
6217 Clouds 25 1008 38 10000 6.2 310 02:24 17.06.2019
6218 Clouds 24 1007 41 10000 10.8 310 01:35 17.06.2019
6219 Clouds 22 1006 43 10000 9.8 340 00:48 17.06.2019
6220 Clouds 22 1006 43 10000 7.7 330 00:28 17.06.2019
6221 Clouds 21 1006 43 10000 7.7 330 23:58 16.06.2019
6222 Clouds 21 1005 43 10000 8.7 320 23:39 16.06.2019
6223 Clouds 21 1005 43 10000 7.2 320 23:19 16.06.2019
6224 Clouds 20 1004 52 10000 3.1 310 22:44 16.06.2019
6225 Clouds 19 1004 49 10000 6.2 310 22:20 16.06.2019
6226 Clouds 19 1004 49 10000 6.2 310 22:20 16.06.2019
6227 Clouds 18 1004 49 10000 6.2 310 21:57 16.06.2019
6228 Clouds 18 1003 52 10000 5.7 300 21:39 16.06.2019
6229 Clouds 18 1003 56 10000 3.6 260 21:20 16.06.2019
6230 Clouds 19 1002 52 10000 2.6 290 20:40 16.06.2019
6231 Clouds 19 1002 56 10000 4.1 330 20:19 16.06.2019
6232 Clouds 19 1002 56 10000 4.1 330 19:58 16.06.2019
6233 Clouds 19 1001 56 10000 4.6 320 19:39 16.06.2019
6234 Clouds 19 1001 56 10000 4.1 320 19:21 16.06.2019
6235 Clouds 20 1000 60 10000 3.6 320 18:42 16.06.2019
6236 Clouds 20 1000 49 10000 4.6 320 18:21 16.06.2019
6237 Clouds 20 1000 49 10000 3.1 300 17:58 16.06.2019
6238 Clouds 21 1000 49 10000 3.1 300 17:40 16.06.2019
6239 Clouds 21 1000 49 10000 4.6 320 17:21 16.06.2019
6240 Clouds 21 999 49 10000 4.1 320 16:55 16.06.2019
6241 Clouds 21 999 49 10000 4.1 320 16:37 16.06.2019
6242 Clouds 22 999 53 10000 3.6 310 16:18 16.06.2019
6243 Clouds 22 998 49 10000 6.2 340 15:41 16.06.2019
6244 Clouds 22 998 49 10000 6.2 340 15:23 16.06.2019
6245 Clouds 23 997 49 10000 4.6 340 14:41 16.06.2019
6246 Clouds 23 997 44 10000 6.7 330 14:22 16.06.2019
6247 Clouds 24 996 44 10000 6.7 330 13:51 16.06.2019
6248 Clouds 24 996 53 10000 5.7 350 13:26 16.06.2019
6249 Clouds 25 996 53 10000 5.7 350 12:57 16.06.2019
6250 Clouds 25 996 53 10000 5.7 350 12:57 16.06.2019
6251 Clouds 25 995 44 10000 5.1 340 12:38 16.06.2019
6252 Clouds 26 994 39 10000 4.1 250 12:18 16.06.2019
6253 Clouds 27 992 37 10000 6.2 230 11:40 16.06.2019
6254 Clouds 28 992 39 10000 6.7 220 11:19 16.06.2019
6255 Clouds 28 991 25 10000 4.6 290 10:45 16.06.2019
6256 Clouds 29 991 37 10000 8.7 230 10:21 16.06.2019
6257 Clouds 29 990 40 10000 5.1 230 09:48 16.06.2019
6258 Clouds 30 990 40 10000 5.1 230 09:26 16.06.2019
6259 Clouds 30 990 35 10000 9.3 230 08:57 16.06.2019
6260 Clouds 30 990 37 10000 9.8 230 08:38 16.06.2019
6261 Clouds 30 990 40 10000 9.3 230 08:18 16.06.2019
6262 Clouds 29 990 40 10000 9.3 200 07:42 16.06.2019
6263 Clouds 29 989 45 10000 12.3 210 06:57 16.06.2019
6264 Clouds 29 989 61 10000 5.1 170 06:30 16.06.2019
6265 Clouds 29 989 51 10000 4.1 220 05:40 16.06.2019
6266 Clouds 27 989 54 10000 5.7 220 04:36 16.06.2019
6267 Clouds 26 988 57 10000 5.1 220 03:54 16.06.2019
6268 Clouds 26 988 57 10000 5.1 220 03:31 16.06.2019
6269 Clear 24 988 64 10000 4.6 230 02:18 16.06.2019
6270 Clouds 24 988 64 10000 10.3 220 01:41 16.06.2019
6271 Clouds 24 988 64 10000 9.3 220 01:23 16.06.2019
6272 Clouds 21 987 69 10000 8.7 230 00:40 16.06.2019
6273 Mist 20 988 78 10000 9.8 230 00:19 16.06.2019
6274 Mist 20 990 100 16093 1.97 263.387 23:42 15.06.2019
6275 Mist 19 987 88 10000 2.6 230 23:23 15.06.2019
6276 Mist 19 987 88 10000 2.6 240 22:49 15.06.2019
6277 Mist 19 987 88 10000 2.6 240 22:49 15.06.2019
6278 Mist 18 987 88 10000 2.6 240 22:27 15.06.2019
6279 Mist 18 988 100 16093 3.1 330 21:49 15.06.2019
6280 Mist 18 988 100 16093 3.1 330 21:29 15.06.2019
6281 Mist 18 987 93 7000 3.6 190 20:59 15.06.2019
6282 Mist 18 987 100 4828 1.04 211.19 20:40 15.06.2019
6283 Rain 18 987 100 4426 1.04 211.19 20:19 15.06.2019
6284 Rain 18 988 93 7000 3.6 300 19:42 15.06.2019
6285 Rain 18 988 100 6000 4.1 90 19:23 15.06.2019
6286 Rain 18 989 100 1000 3.1 60 18:40 15.06.2019
6287 Rain 17 990 100 4900 3.1 80 18:21 15.06.2019
6288 Rain 17 992 100 16093 2.24 151.566 17:43 15.06.2019
6289 Rain 17 991 100 12874 2.24 151.566 17:23 15.06.2019
6290 Mist 17 992 93 10000 1.5 130 16:48 15.06.2019
6291 Mist 17 992 93 10000 1 130 16:20 15.06.2019
6292 Mist 17 992 93 10000 1 0 15:44 15.06.2019
6293 Mist 17 993 93 10000 2.1 280 15:23 15.06.2019
6294 Rain 17 993 93 10000 3.6 300 14:43 15.06.2019
6295 Rain 17 993 93 10000 4.6 350 14:19 15.06.2019
6296 Rain 17 993 93 10000 4.6 350 13:58 15.06.2019
6297 Rain 17 993 93 10000 4.6 320 13:40 15.06.2019
6298 Rain 17 994 93 10000 6.2 310 13:19 15.06.2019
6299 Rain 17 994 93 10000 6.2 320 12:50 15.06.2019
6300 Rain 17 994 93 10000 5.7 300 12:26 15.06.2019
6301 Rain 17 995 100 6000 7.7 310 11:52 15.06.2019
6302 Rain 17 995 100 6000 7.7 310 11:33 15.06.2019
6303 Rain 17 995 100 2500 6.2 320 10:54 15.06.2019
6304 Rain 17 994 93 5000 6.2 320 10:36 15.06.2019
6305 Rain 17 995 93 10000 7.7 330 10:18 15.06.2019
6306 Rain 17 996 100 1609 6.2 300 09:42 15.06.2019
6307 Rain 17 997 93 7000 3.6 320 09:21 15.06.2019
6308 Rain 17 997 93 10000 7.2 350 08:48 15.06.2019
6309 Rain 17 997 93 10000 7.2 350 08:29 15.06.2019
6310 Rain 17 998 93 10000 4.1 360 07:49 15.06.2019
6311 Rain 17 999 93 10000 4.6 360 07:21 15.06.2019
6312 Rain 17 1000 93 5000 5.7 20 06:39 15.06.2019
6313 Rain 17 1000 93 5000 5.7 20 06:39 15.06.2019
6314 Rain 17 1003 93 3219 6.7 10 05:56 15.06.2019
6315 Rain 17 1003 93 4000 5.1 360 05:23 15.06.2019
6316 Rain 17 1003 93 1006 4.6 310 04:37 15.06.2019
6317 Rain 17 1004 93 3100 5.1 40 03:38 15.06.2019
6318 Rain 17 1005 100 6000 9.3 50 02:49 15.06.2019
6319 Rain 17 1006 93 4500 9.3 50 02:20 15.06.2019
6320 Rain 16 1007 93 4500 4.1 50 01:42 15.06.2019
6321 Rain 16 1007 88 5000 6.2 60 00:47 15.06.2019
6322 Rain 17 1007 88 5000 6.2 60 00:28 15.06.2019
6323 Rain 17 1011 100 9656 4.1 10 23:53 14.06.2019
6324 Rain 17 1011 100 9656 4.1 10 23:25 14.06.2019
6325 Rain 17 1007 88 10000 5.1 40 22:43 14.06.2019
6326 Rain 17 1008 82 9000 4.6 70 22:23 14.06.2019
6327 Rain 17 1008 82 9000 4.6 70 22:23 14.06.2019
6328 Rain 17 1008 82 9000 4.6 70 21:58 14.06.2019
6329 Rain 18 1008 88 10000 4.6 100 21:39 14.06.2019
6330 Rain 18 1008 82 7000 2.6 90 21:21 14.06.2019
6331 Rain 18 1008 88 10000 3.6 90 20:42 14.06.2019
6332 Rain 19 1011 88 16093 4.64 144.301 20:18 14.06.2019
6333 Rain 19 1009 88 10000 4.1 120 19:53 14.06.2019
6334 Rain 19 1009 93 9656 4.64 144.301 19:23 14.06.2019
6335 Rain 19 1009 93 9656 4.64 144.301 18:58 14.06.2019
6336 Rain 19 1010 83 10000 3.6 90 18:40 14.06.2019
6337 Rain 20 1010 83 10000 4.1 100 18:22 14.06.2019
6338 Rain 20 1011 83 10000 4.1 120 17:48 14.06.2019
6339 Rain 20 1011 83 10000 4.1 120 17:30 14.06.2019
6340 Rain 20 1013 88 16093 1.5 180 16:58 14.06.2019
6341 Rain 20 1011 82 16093 4.83 158.097 16:40 14.06.2019
6342 Rain 20 1012 88 10000 3.1 120 16:19 14.06.2019
6343 Rain 20 1012 83 10000 4.1 150 15:41 14.06.2019
6344 Rain 21 1012 77 16093 2.6 120 15:23 14.06.2019
6345 Rain 21 1012 77 16093 2.6 120 15:23 14.06.2019
6346 Rain 21 1012 77 16093 2.6 120 14:58 14.06.2019
6347 Clouds 21 1013 77 10000 3.1 150 14:39 14.06.2019
6348 Clouds 21 1013 77 10000 3.1 150 14:38 14.06.2019
6349 Clouds 21 1013 73 10000 5.1 160 14:19 14.06.2019
6350 Clouds 21 1013 73 10000 5.1 160 14:19 14.06.2019
6351 Clouds 22 1013 77 10000 4.6 160 13:42 14.06.2019
6352 Clouds 21 1013 68 10000 4.6 160 13:24 14.06.2019
6353 Clouds 22 1012 73 10000 5.7 160 12:43 14.06.2019
6354 Clouds 22 1013 73 10000 6.2 170 12:25 14.06.2019
6355 Clouds 22 1013 73 10000 6.2 170 12:25 14.06.2019
6356 Clouds 22 1013 73 10000 6.2 170 11:58 14.06.2019
6357 Clouds 22 1012 64 10000 5.7 170 11:39 14.06.2019
6358 Clouds 22 1013 64 10000 5.7 180 11:20 14.06.2019
6359 Clouds 23 1012 56 10000 5.1 180 10:43 14.06.2019
6360 Clouds 23 1013 60 10000 6.2 190 10:20 14.06.2019
6361 Clouds 24 1012 64 10000 4.1 200 09:46 14.06.2019
6362 Clouds 24 1012 64 10000 4.1 200 09:46 14.06.2019
6363 Clouds 24 1013 57 10000 6.7 200 09:24 14.06.2019
6364 Clouds 24 1012 60 10000 5.1 190 08:47 14.06.2019
6365 Clouds 25 1013 53 10000 7.2 190 08:19 14.06.2019
6366 Clouds 25 1012 61 10000 5.7 170 07:51 14.06.2019
6367 Clouds 25 1012 61 10000 5.7 170 07:51 14.06.2019
6368 Clouds 26 1013 47 10000 6.2 190 07:21 14.06.2019
6369 Clouds 26 1012 61 10000 4.6 200 06:39 14.06.2019
6370 Clouds 26 1013 54 10000 7.2 190 05:58 14.06.2019
6371 Clouds 25 1015 50 16093 5.7 210 05:26 14.06.2019
6372 Clouds 26 1014 65 10000 4.1 150 04:46 14.06.2019
6373 Clouds 25 1014 69 10000 3.6 140 03:56 14.06.2019
6374 Clouds 25 1014 69 10000 3.6 140 03:26 14.06.2019
6375 Clouds 24 1014 47 10000 3.6 160 02:56 14.06.2019
6376 Clouds 24 1014 78 10000 3.1 150 02:27 14.06.2019
6377 Clouds 24 1014 78 10000 3.1 150 02:27 14.06.2019
6378 Clouds 23 1014 69 10000 4.1 180 00:59 14.06.2019
6379 Clouds 22 1014 69 10000 4.1 180 00:36 14.06.2019
6380 Clouds 22 1014 73 10000 3.6 180 00:18 14.06.2019
6381 Clouds 21 1015 78 10000 3.1 180 23:41 13.06.2019
6382 Clouds 20 1016 77 16093 1.5 260 23:22 13.06.2019
6383 Clouds 19 1015 82 10000 2.1 170 22:40 13.06.2019
6384 Clouds 19 1014 82 10000 2.6 170 22:22 13.06.2019
6385 Clouds 18 1013 93 10000 3.1 170 21:41 13.06.2019
6386 Clouds 18 1016 82 16093 1.5 290 21:20 13.06.2019
6387 Clouds 18 1016 82 16093 1.5 290 20:59 13.06.2019
6388 Clouds 18 1014 82 10000 3.1 170 20:40 13.06.2019
6389 Clouds 18 1014 82 10000 4.1 180 20:19 13.06.2019
6390 Clouds 19 1014 77 10000 4.6 180 19:42 13.06.2019
6391 Clouds 18 1014 77 10000 4.6 170 19:23 13.06.2019
6392 Clouds 19 1014 77 10000 4.6 170 18:58 13.06.2019
6393 Clouds 19 1014 77 10000 5.1 180 18:40 13.06.2019
6394 Clouds 19 1014 77 10000 5.7 170 18:21 13.06.2019
6395 Clouds 20 1014 73 10000 6.2 180 17:44 13.06.2019
6396 Clouds 20 1014 73 10000 6.7 170 17:21 13.06.2019
6397 Clouds 20 1014 73 10000 6.7 170 16:55 13.06.2019
6398 Clouds 20 1014 73 10000 7.2 180 16:36 13.06.2019
6399 Clouds 20 1014 73 10000 6.7 170 16:18 13.06.2019
6400 Clouds 21 1014 73 10000 6.2 170 15:40 13.06.2019
6401 Clouds 21 1014 77 10000 6.7 170 15:19 13.06.2019
6402 Clouds 21 1014 77 10000 6.7 180 14:49 13.06.2019
6403 Clouds 21 1014 77 10000 6.7 180 14:49 13.06.2019
6404 Clouds 21 1014 77 10000 6.7 180 14:30 13.06.2019
6405 Clouds 21 1014 77 10000 6.7 180 13:54 13.06.2019
6406 Clouds 21 1014 73 10000 6.2 190 13:36 13.06.2019
6407 Clouds 21 1013 68 10000 7.7 190 13:18 13.06.2019
6408 Clouds 22 1013 68 10000 8.2 190 12:39 13.06.2019
6409 Clouds 22 1013 60 10000 8.7 190 12:21 13.06.2019
6410 Clouds 23 1012 60 10000 8.7 200 11:44 13.06.2019
6411 Clouds 23 1012 60 10000 8.7 200 11:25 13.06.2019
6412 Clouds 24 1012 60 10000 6.2 170 10:49 13.06.2019
6413 Clouds 24 1012 60 10000 6.2 170 10:30 13.06.2019
6414 Clouds 25 1011 60 10000 5.1 200 09:55 13.06.2019
6415 Clouds 25 1011 60 10000 5.1 200 09:55 13.06.2019
6416 Clouds 25 1011 60 10000 5.1 200 09:36 13.06.2019
6417 Clouds 25 1012 53 10000 7.2 190 09:18 13.06.2019
6418 Clouds 26 1011 57 10000 4.6 190 08:43 13.06.2019
6419 Clouds 25 1012 53 10000 8.2 190 08:22 13.06.2019
6420 Clouds 26 1011 61 10000 5.7 180 07:41 13.06.2019
6421 Clouds 26 1012 57 10000 7.7 180 07:22 13.06.2019
6422 Clouds 25 1012 61 10000 4.6 170 06:45 13.06.2019
6423 Clouds 25 1013 53 10000 6.7 180 06:22 13.06.2019
6424 Clouds 25 1012 69 10000 4.1 150 05:52 13.06.2019
6425 Clouds 25 1012 69 10000 4.1 150 05:34 13.06.2019
6426 Clouds 23 1013 68 10000 2.6 140 03:50 13.06.2019
6427 Clouds 21 1013 72 10000 3.1 140 02:22 13.06.2019
6428 Clouds 19 1013 82 10000 2.1 120 00:44 13.06.2019
6429 Mist 18 1012 82 10000 1.5 90 23:47 12.06.2019
6430 Mist 17 1011 88 10000 2.1 70 23:21 12.06.2019
6431 Fog 16 1011 88 10000 2.6 70 22:42 12.06.2019
6432 Fog 16 1011 88 10000 2.6 70 22:24 12.06.2019
6433 Clouds 15 1011 82 10000 1 90 21:48 12.06.2019
6434 Clouds 15 1011 82 10000 1 90 21:29 12.06.2019
6435 Clouds 15 1011 82 10000 2.1 80 20:57 12.06.2019
6436 Clouds 15 1011 82 10000 2.1 110 20:37 12.06.2019
6437 Clear 15 1011 87 10000 2.1 130 20:19 12.06.2019
6438 Clouds 16 1011 82 10000 2.1 140 19:42 12.06.2019
6439 Clear 16 1011 82 10000 2.1 130 19:22 12.06.2019
6440 Clouds 16 1011 82 10000 2.1 130 18:51 12.06.2019
6441 Clouds 16 1011 82 10000 2.1 130 18:29 12.06.2019
6442 Clouds 17 1011 77 10000 2.6 110 17:58 12.06.2019
6443 Clear 17 1011 77 10000 2.1 110 17:40 12.06.2019
6444 Clear 17 1011 72 10000 2.6 100 17:19 12.06.2019
6445 Clouds 17 1011 72 10000 2.1 130 16:42 12.06.2019
6446 Clouds 17 1011 72 10000 2.1 130 16:23 12.06.2019
6447 Clouds 18 1011 77 10000 3.6 110 15:48 12.06.2019
6448 Clouds 17 1011 77 10000 3.6 110 15:29 12.06.2019
6449 Clouds 18 1011 77 10000 5.1 110 14:45 12.06.2019
6450 Clouds 18 1011 77 10000 5.1 110 14:27 12.06.2019
6451 Rain 18 1010 82 10000 5.7 120 13:43 12.06.2019
6452 Rain 19 1010 77 10000 5.7 110 13:20 12.06.2019
6453 Rain 19 1010 77 10000 5.7 110 12:59 12.06.2019
6454 Clouds 20 1009 72 10000 3.6 90 12:38 12.06.2019
6455 Clouds 20 1009 72 10000 3.6 90 12:38 12.06.2019
6456 Clouds 20 1009 77 10000 4.6 130 12:19 12.06.2019
6457 Clouds 20 1009 77 10000 4.6 130 12:19 12.06.2019
6458 Clouds 20 1009 77 10000 4.6 130 12:19 12.06.2019
6459 Clouds 20 1009 77 10000 4.6 130 12:19 12.06.2019
6460 Rain 20 1008 72 10000 4.6 120 11:46 12.06.2019
6461 Rain 20 1008 72 10000 4.6 120 11:28 12.06.2019
6462 Rain 21 1007 60 10000 3.6 130 10:51 12.06.2019
6463 Rain 21 1007 60 10000 3.6 130 10:29 12.06.2019
6464 Clouds 22 1007 72 10000 3.6 100 09:45 12.06.2019
6465 Clouds 22 1007 64 10000 3.1 70 09:23 12.06.2019
6466 Clouds 22 1007 64 10000 3.1 70 08:58 12.06.2019
6467 Clouds 22 1007 64 10000 3.1 120 08:24 12.06.2019
6468 Clouds 22 1007 68 10000 3.1 150 07:48 12.06.2019
6469 Clouds 22 1007 64 10000 3.6 150 06:54 12.06.2019
6470 Clouds 21 1008 72 10000 4.1 120 05:52 12.06.2019
6471 Clouds 22 1008 72 10000 4.1 120 05:23 12.06.2019
6472 Clouds 20 1008 72 10000 3.1 40 02:18 12.06.2019
6473 Clouds 18 1010 72 16093 2.1 0 00:41 12.06.2019
6474 Clouds 17 1008 77 10000 3.6 360 23:53 11.06.2019
6475 Clouds 16 1008 77 10000 3.6 360 23:34 11.06.2019
6476 Clouds 16 1008 93 10000 2.6 350 22:45 11.06.2019
6477 Rain 16 1010 82 16093 1.5 330 22:24 11.06.2019
6478 Rain 16 1010 82 16093 1.5 330 21:58 11.06.2019
6479 Rain 16 1007 82 10000 3.1 360 21:40 11.06.2019
6480 Rain 15 1007 87 10000 2.6 10 21:21 11.06.2019
6481 Rain 15 1008 93 14484 1.5 290 20:50 11.06.2019
6482 Rain 15 1009 93 16093 2.6 330 20:27 11.06.2019
6483 Rain 15 1007 93 10000 0.5 80 19:58 11.06.2019
6484 -273 0 0 0 0 0 19:40 11.06.2019
6485 -273 0 0 0 0 0 19:38 11.06.2019
6486 Rain 15 1007 93 10000 0.5 80 19:38 11.06.2019
6487 Rain 16 1009 93 16093 2.1 290 18:59 11.06.2019
6488 Rain 16 1009 93 16093 2.1 290 18:58 11.06.2019
6489 Rain 16 1009 93 16093 2.6 280 18:23 11.06.2019
6490 Rain 16 1009 93 16093 2.6 280 18:22 11.06.2019
6491 Rain 16 1008 93 3621 2.1 280 17:42 11.06.2019
6492 Rain 16 1008 93 3017 4.1 290 17:23 11.06.2019
6493 Rain 16 1008 93 3017 4.1 290 16:58 11.06.2019
6494 Rain 16 1010 82 16093 5.1 340 16:40 11.06.2019
6495 Rain 17 1008 93 4023 2.6 280 16:22 11.06.2019
6496 Rain 17 1008 93 12874 1.5 290 15:42 11.06.2019
6497 -273 0 0 0 0 0 15:42 11.06.2019
6498 Rain 17 1008 93 8047 5.13 77.455 15:24 11.06.2019
6499 Rain 17 1008 93 3219 5.13 77.455 14:52 11.06.2019
6500 Rain 18 1008 93 3621 5.13 77.455 14:22 11.06.2019
6501 Drizzle 18 1007 88 6437 1.5 200 13:55 11.06.2019
6502 Drizzle 19 1007 88 6437 1.5 200 13:36 11.06.2019
6503 Rain 19 1007 77 14484 3.1 150 13:18 11.06.2019
6504 Rain 20 1008 77 16093 2.6 320 12:40 11.06.2019
6505 Rain 20 1006 72 10000 6.2 90 12:20 11.06.2019
6506 Rain 20 1005 77 10000 5.7 70 11:40 11.06.2019
6507 Rain 21 1006 77 10000 3.1 110 11:20 11.06.2019
6508 Clouds 21 1006 72 16093 5.01 78.295 10:46 11.06.2019
6509 Clouds 21 1006 72 16093 5.01 78.295 10:26 11.06.2019
6510 Clouds 22 1005 64 10000 4.1 90 09:50 11.06.2019
6511 Clouds 22 1005 68 10000 5.1 90 09:24 11.06.2019
6512 Clouds 23 1006 46 10000 3.6 10 08:47 11.06.2019
6513 Clouds 23 1006 46 10000 3.6 10 08:29 11.06.2019
6514 Clouds 23 1005 64 10000 4.1 50 07:55 11.06.2019
6515 Clouds 23 1005 60 10000 4.6 40 07:29 11.06.2019
6516 Clouds 22 1005 60 10000 2.6 360 06:50 11.06.2019
6517 Clouds 22 1006 64 10000 6.2 20 05:00 11.06.2019
6518 Clouds 21 1006 64 10000 4.6 10 03:47 11.06.2019
6519 Clouds 19 1006 77 10000 8.7 350 01:43 11.06.2019
6520 Rain 17 1006 82 10000 8.7 350 00:49 11.06.2019
6521 Rain 17 1006 82 10000 7.7 340 00:23 11.06.2019
6522 Rain 16 1006 82 10000 8.2 340 23:41 10.06.2019
6523 Mist 16 1008 93 16093 3.6 10 22:59 10.06.2019
6524 Mist 16 1008 93 16093 3.6 330 22:41 10.06.2019
6525 Mist 16 1008 93 16093 3.6 320 22:23 10.06.2019
6526 Drizzle 16 1005 87 10000 8.2 330 21:41 10.06.2019
6527 Rain 16 1005 93 10000 6.7 320 21:23 10.06.2019
6528 Rain 16 1005 93 10000 6.7 320 20:57 10.06.2019
6529 Rain 16 1004 87 10000 7.2 330 20:38 10.06.2019
6530 Rain 16 1004 93 10000 2.6 330 20:19 10.06.2019
6531 Rain 16 1004 93 10000 7.2 340 19:43 10.06.2019
6532 Rain 16 1004 93 10000 8.2 350 19:22 10.06.2019
6533 Rain 16 1005 93 4426 4.6 300 18:56 10.06.2019
6534 Rain 16 1005 93 4426 4.6 300 18:38 10.06.2019
6535 Rain 16 1004 93 10000 8.2 10 18:19 10.06.2019
6536 Rain 15 1007 93 12874 4.1 350 17:41 10.06.2019
6537 Rain 15 1004 93 10000 9.3 10 17:22 10.06.2019
6538 Rain 15 1004 93 10000 9.3 360 16:48 10.06.2019
6539 Rain 15 1004 93 10000 9.3 360 16:30 10.06.2019
6540 Rain 15 1005 93 10000 9.3 10 15:57 10.06.2019
6541 Rain 15 1005 93 10000 9.8 360 15:38 10.06.2019
6542 Rain 15 1006 93 10000 9.8 350 15:19 10.06.2019
6543 Rain 15 1005 93 10000 10.3 350 14:41 10.06.2019
6544 Rain 15 1006 93 6000 4.6 360 14:22 10.06.2019
6545 Rain 15 1005 93 6000 11.3 340 13:45 10.06.2019
6546 Rain 16 1005 93 6000 10.3 350 13:24 10.06.2019
6547 Rain 16 1005 88 6000 10.8 350 12:53 10.06.2019
6548 Rain 16 1005 88 6000 10.8 350 12:30 10.06.2019
6549 Rain 16 1005 93 4000 6.2 360 11:54 10.06.2019
6550 Rain 16 1007 93 6437 7.7 360 11:30 10.06.2019
6551 Rain 16 1003 93 6000 11.8 360 10:59 10.06.2019
6552 Rain 16 1005 93 4000 5.7 350 10:41 10.06.2019
6553 Rain 16 1004 93 5000 11.8 360 10:19 10.06.2019
6554 Rain 16 1003 93 2500 7.2 10 09:51 10.06.2019
6555 Rain 17 1003 93 2500 7.2 10 09:29 10.06.2019
6556 Rain 17 1003 100 2500 5.1 10 08:49 10.06.2019
6557 Rain 17 1003 100 2500 5.1 10 08:26 10.06.2019
6558 Rain 17 1003 93 4500 9.3 10 07:42 10.06.2019
6559 Rain 17 1007 100 9656 4.1 360 04:43 10.06.2019
6560 Rain 17 1005 93 1500 6.7 360 03:29 10.06.2019
6561 Rain 17 1005 100 8000 4.1 10 01:55 10.06.2019
6562 Rain 17 1006 93 1408 4.6 310 01:22 10.06.2019
6563 Rain 17 1005 100 7000 7.7 360 00:47 10.06.2019
6564 Rain 17 1006 93 1207 4.6 310 23:49 09.06.2019
6565 Rain 16 1006 93 1207 4.6 310 23:25 09.06.2019
6566 Rain 16 1008 93 16093 4.6 10 22:59 09.06.2019
6567 Rain 16 1008 100 14484 4.6 350 22:39 09.06.2019
6568 Rain 16 1008 100 12874 4.1 360 22:21 09.06.2019
6569 Rain 16 1006 93 2213 3.6 300 21:39 09.06.2019
6570 Rain 16 1008 100 16093 4.6 350 21:21 09.06.2019
6571 Rain 16 1008 100 12874 5.1 360 20:42 09.06.2019
6572 Rain 16 1006 93 6437 4.1 310 20:22 09.06.2019
6573 Rain 16 1006 100 4500 7.7 360 19:46 09.06.2019
6574 Rain 16 1009 93 16093 4.1 340 19:19 09.06.2019
6575 Rain 16 1009 100 16093 4.1 10 18:56 09.06.2019
6576 Rain 16 1009 100 16093 4.1 10 18:37 09.06.2019
6577 Rain 16 1007 93 1609 4.1 300 18:19 09.06.2019
6578 Rain 16 1007 93 4500 7.2 10 17:43 09.06.2019
6579 Rain 16 1009 100 11265 3.1 350 17:23 09.06.2019
6580 Rain 16 1010 100 12874 3.6 360 16:41 09.06.2019
6581 Rain 16 1008 100 4000 3.1 20 16:21 09.06.2019
6582 Rain 16 1008 100 4000 3.1 20 15:56 09.06.2019
6583 Rain 16 1008 93 3500 7.7 20 15:38 09.06.2019
6584 Rain 16 1008 93 3500 8.7 20 15:20 09.06.2019
6585 Rain 16 1011 93 16093 2.6 340 14:42 09.06.2019
6586 Rain 16 1008 93 6000 6.2 10 14:21 09.06.2019
6587 Rain 16 1008 93 5000 5.7 10 13:50 09.06.2019
6588 Rain 17 1011 100 6437 1.5 20 13:19 09.06.2019
6589 Rain 17 1008 88 5000 6.7 10 12:41 09.06.2019
6590 Rain 17 1011 93 6437 2.1 360 12:22 09.06.2019
6591 Rain 17 1011 93 6437 2.6 350 11:39 09.06.2019
6592 Rain 17 1011 93 8047 2.1 360 11:21 09.06.2019
6593 Rain 18 1008 93 3621 2.6 300 10:45 09.06.2019
6594 Rain 18 1008 93 6437 4.1 300 10:23 09.06.2019
6595 Rain 18 1009 93 1609 2.6 300 09:41 09.06.2019
6596 Rain 18 1009 93 1609 2.6 300 09:41 09.06.2019
6597 Rain 19 1009 82 4000 1.5 70 09:22 09.06.2019
6598 Rain 19 1009 82 4000 1.5 70 08:53 09.06.2019
6599 Rain 19 1011 72 16093 2.1 350 08:34 09.06.2019
6600 Rain 20 1011 72 16093 1.5 50 07:28 09.06.2019
6601 Clouds 20 1009 77 10000 4.6 40 06:30 09.06.2019
6602 Clouds 20 1009 77 10000 4.6 40 06:30 09.06.2019
6603 Mist 19 1009 72 10000 5.1 40 05:28 09.06.2019
6604 Mist 19 1009 72 10000 5.1 40 05:28 09.06.2019
6605 Rain 18 1009 100 4828 3.43 122.601 01:46 09.06.2019
6606 Rain 17 1009 93 1810 1.5 330 01:22 09.06.2019
6607 Rain 17 1009 93 1810 1.5 330 00:59 09.06.2019
6608 Rain 17 1009 93 1408 3.27 88.982 00:19 09.06.2019
6609 Rain 17 1011 93 4828 3.27 88.982 23:38 08.06.2019
6610 Rain 17 1011 93 3621 2.1 100 23:20 08.06.2019
6611 Rain 17 1008 93 2414 3.27 88.982 22:43 08.06.2019
6612 Rain 17 1007 100 4426 3.27 88.982 22:25 08.06.2019
6613 Rain 17 1009 93 16093 3.27 88.982 21:52 08.06.2019
6614 Rain 17 1009 93 16093 3.27 88.982 21:29 08.06.2019
6615 Rain 17 1009 93 16093 3.1 130 20:59 08.06.2019
6616 Rain 17 1006 88 10000 7.7 60 20:40 08.06.2019
6617 Rain 17 1008 88 16093 3.6 110 20:20 08.06.2019
6618 Rain 18 1006 93 9656 3.1 30 19:42 08.06.2019
6619 Rain 18 1007 100 6000 6.7 70 19:22 08.06.2019
6620 Rain 18 1007 100 6000 6.7 70 18:58 08.06.2019
6621 Rain 19 1008 77 16093 2.76 104.858 18:39 08.06.2019
6622 Rain 19 1006 93 10000 6.7 80 18:18 08.06.2019
6623 Rain 19 1006 88 10000 6.7 70 17:41 08.06.2019
6624 Clouds 20 1006 88 10000 6.2 70 17:18 08.06.2019
6625 Clouds 20 1006 88 10000 5.7 70 16:45 08.06.2019
6626 Clouds 20 1007 82 16093 2.1 100 16:24 08.06.2019
6627 Clouds 20 1005 88 10000 3.1 90 15:40 08.06.2019
6628 Clouds 20 1005 88 10000 3.1 90 15:40 08.06.2019
6629 Clouds 20 1005 88 10000 3.1 90 15:40 08.06.2019
6630 Rain 20 1007 82 16093 1.5 110 15:21 08.06.2019
6631 Clouds 20 1005 83 10000 5.7 90 14:42 08.06.2019
6632 Rain 21 1004 83 10000 6.2 80 14:24 08.06.2019
6633 Rain 21 1004 82 12874 2.1 60 13:40 08.06.2019
6634 Rain 21 1003 88 10000 6.2 70 12:52 08.06.2019
6635 Rain 21 1003 88 10000 6.2 70 12:32 08.06.2019
6636 Rain 22 1002 88 10000 7.2 80 11:44 08.06.2019
6637 Rain 22 1002 88 10000 7.2 80 11:44 08.06.2019
6638 Rain 23 1002 88 10000 7.2 80 11:25 08.06.2019
6639 Clouds 23 1000 78 10000 5.1 130 10:46 08.06.2019
6640 Clouds 24 1000 88 10000 8.2 80 10:24 08.06.2019
6641 Rain 24 999 78 10000 5.1 90 09:52 08.06.2019
6642 Rain 24 999 78 10000 5.1 90 09:25 08.06.2019
6643 Clouds 25 1000 88 10000 4.6 80 08:39 08.06.2019
6644 Rain 25 999 83 10000 4.6 80 08:18 08.06.2019
6645 Clouds 25 998 88 10000 2.1 120 06:51 08.06.2019
6646 Clouds 24 999 83 10000 3.1 60 05:56 08.06.2019
6647 Rain 22 1001 83 16093 2.1 90 03:34 08.06.2019
6648 Rain 21 998 94 6000 3.1 50 01:59 08.06.2019
6649 Mist 20 998 94 10000 1.5 50 00:29 08.06.2019
6650 Mist 20 998 94 10000 2.6 40 23:52 07.06.2019
6651 Mist 19 998 94 10000 2.1 40 23:21 07.06.2019
6652 Mist 19 1000 100 12874 0.99 83.07 22:50 07.06.2019
6653 Mist 19 1000 100 12874 0.76 60.142 22:31 07.06.2019
6654 Mist 19 999 100 6437 0.76 60.142 21:54 07.06.2019
6655 Mist 19 999 100 4000 0.5 290 21:31 07.06.2019
6656 Mist 19 999 100 9656 0.56 11.768 20:57 07.06.2019
6657 Rain 19 999 100 11265 0.56 11.768 20:38 07.06.2019
6658 Rain 19 999 100 11265 0.56 11.768 20:38 07.06.2019
6659 Rain 19 999 100 11265 0.56 11.768 19:52 07.06.2019
6660 Rain 19 999 100 11265 0.56 11.768 19:27 07.06.2019
6661 Rain 19 999 100 12874 0.56 11.768 18:59 07.06.2019
6662 Rain 19 999 94 7000 3.1 20 18:37 07.06.2019
6663 Mist 19 999 94 7000 3.1 30 18:19 07.06.2019
6664 Mist 19 1000 93 8047 2.1 300 17:41 07.06.2019
6665 Mist 19 1000 94 7000 3.1 360 17:19 07.06.2019
6666 Rain 19 1002 100 4828 3.6 10 16:41 07.06.2019
6667 Rain 19 1001 94 7000 2.6 10 15:56 07.06.2019
6668 Rain 19 1003 100 9656 3.1 20 15:38 07.06.2019
6669 Rain 19 1002 94 8000 2.1 350 15:18 07.06.2019
6670 Rain 19 1002 93 11265 1.96 49.171 14:39 07.06.2019
6671 Rain 19 1002 94 7000 2.6 10 14:19 07.06.2019
6672 Rain 19 1002 88 10000 1.5 50 13:28 07.06.2019
6673 Rain 19 1004 100 16093 2.1 70 12:51 07.06.2019
6674 Rain 19 1004 100 16093 2.1 70 12:29 07.06.2019
6675 Rain 19 1004 93 4900 2.6 140 11:57 07.06.2019
6676 Rain 19 1004 93 4900 2.6 140 11:34 07.06.2019
6677 Rain 19 1005 93 8047 3.6 180 10:59 07.06.2019
6678 Rain 20 1005 100 6437 2.1 160 10:41 07.06.2019
6679 Rain 20 1005 94 6000 7.7 180 10:19 07.06.2019
6680 Rain 20 1006 93 4828 2.6 160 09:48 07.06.2019
6681 Rain 20 1006 94 3000 2.6 130 09:21 07.06.2019
6682 Rain 20 1006 94 3100 3.1 80 08:46 07.06.2019
6683 Rain 20 1006 94 3100 3.1 80 08:26 07.06.2019
6684 Rain 21 1007 88 3000 3.1 130 07:49 07.06.2019
6685 Rain 21 1008 100 3200 2.6 70 07:22 07.06.2019
6686 Rain 21 1008 94 3000 3.6 60 06:48 07.06.2019
6687 Rain 21 1009 94 3500 4.1 70 06:24 07.06.2019
6688 Rain 22 1009 88 4000 2.1 140